<?xml version="1.0" encoding="UTF-8" standalone="no" ?>
<gpx xmlns="http://www.topografix.com/GPX/1/1" xmlns:xsi="http://www.w3.org/2001/XMLSchema-instance" xsi:schemaLocation="http://www.topografix.com/GPX/1/1 http://www.topografix.com/GPX/1/1/gpx.xsd" version="1.1" creator="VisuGPX - https://www.visugpx.com">
  <metadata>
    <name>150624ROBBenjamins</name>
    <desc><![CDATA[Derniere sortie avant les vacances]]></desc>
  </metadata>
  <trk>
    <name><![CDATA[150624ROBBenjamins]]></name>
    <trkseg>
      <trkpt lat="43.41578" lon="6.07035">
        <ele>216</ele>
        <time>2015-06-24T11:51:56Z</time>
      </trkpt>
      <trkpt lat="43.41577" lon="6.07038">
        <ele>215.80000305176</ele>
        <time>2015-06-24T11:52:09Z</time>
      </trkpt>
      <trkpt lat="43.41577" lon="6.07038">
        <ele>215.80000305176</ele>
        <time>2015-06-24T11:52:10Z</time>
      </trkpt>
      <trkpt lat="43.41578" lon="6.07039">
        <ele>216</ele>
        <time>2015-06-24T11:52:23Z</time>
      </trkpt>
      <trkpt lat="43.41578" lon="6.0704">
        <ele>216.19999694824</ele>
        <time>2015-06-24T11:52:35Z</time>
      </trkpt>
      <trkpt lat="43.41578" lon="6.0704">
        <ele>216.39999389648</ele>
        <time>2015-06-24T11:52:40Z</time>
      </trkpt>
      <trkpt lat="43.41578" lon="6.0704">
        <ele>216.60000610352</ele>
        <time>2015-06-24T11:52:42Z</time>
      </trkpt>
      <trkpt lat="43.41579" lon="6.0704">
        <ele>216.19999694824</ele>
        <time>2015-06-24T11:52:44Z</time>
      </trkpt>
      <trkpt lat="43.41579" lon="6.0704">
        <ele>215.80000305176</ele>
        <time>2015-06-24T11:52:46Z</time>
      </trkpt>
      <trkpt lat="43.41579" lon="6.0704">
        <ele>215.80000305176</ele>
        <time>2015-06-24T11:52:48Z</time>
      </trkpt>
      <trkpt lat="43.41578" lon="6.0704">
        <ele>215.80000305176</ele>
        <time>2015-06-24T11:52:50Z</time>
      </trkpt>
      <trkpt lat="43.41579" lon="6.07039">
        <ele>216</ele>
        <time>2015-06-24T11:52:52Z</time>
      </trkpt>
      <trkpt lat="43.41579" lon="6.07039">
        <ele>215.60000610352</ele>
        <time>2015-06-24T11:52:54Z</time>
      </trkpt>
      <trkpt lat="43.41579" lon="6.0704">
        <ele>216</ele>
        <time>2015-06-24T11:52:56Z</time>
      </trkpt>
      <trkpt lat="43.41579" lon="6.0704">
        <ele>216.19999694824</ele>
        <time>2015-06-24T11:53:00Z</time>
      </trkpt>
      <trkpt lat="43.41579" lon="6.0704">
        <ele>216.60000610352</ele>
        <time>2015-06-24T11:53:03Z</time>
      </trkpt>
      <trkpt lat="43.41579" lon="6.0704">
        <ele>216.39999389648</ele>
        <time>2015-06-24T11:53:08Z</time>
      </trkpt>
      <trkpt lat="43.4158" lon="6.0704">
        <ele>216.39999389648</ele>
        <time>2015-06-24T11:53:10Z</time>
      </trkpt>
      <trkpt lat="43.4158" lon="6.0704">
        <ele>216.39999389648</ele>
        <time>2015-06-24T11:53:12Z</time>
      </trkpt>
      <trkpt lat="43.4158" lon="6.0704">
        <ele>216.19999694824</ele>
        <time>2015-06-24T11:53:14Z</time>
      </trkpt>
      <trkpt lat="43.41581" lon="6.0704">
        <ele>216.19999694824</ele>
        <time>2015-06-24T11:53:20Z</time>
      </trkpt>
      <trkpt lat="43.41581" lon="6.07041">
        <ele>216.39999389648</ele>
        <time>2015-06-24T11:53:22Z</time>
      </trkpt>
      <trkpt lat="43.41581" lon="6.07041">
        <ele>216.60000610352</ele>
        <time>2015-06-24T11:53:24Z</time>
      </trkpt>
      <trkpt lat="43.4158" lon="6.0704">
        <ele>216.80000305176</ele>
        <time>2015-06-24T11:53:26Z</time>
      </trkpt>
      <trkpt lat="43.4158" lon="6.07041">
        <ele>216.60000610352</ele>
        <time>2015-06-24T11:53:28Z</time>
      </trkpt>
      <trkpt lat="43.41579" lon="6.07041">
        <ele>216.39999389648</ele>
        <time>2015-06-24T11:53:30Z</time>
      </trkpt>
      <trkpt lat="43.41578" lon="6.07041">
        <ele>216.39999389648</ele>
        <time>2015-06-24T11:53:32Z</time>
      </trkpt>
      <trkpt lat="43.41578" lon="6.0704">
        <ele>216.60000610352</ele>
        <time>2015-06-24T11:53:34Z</time>
      </trkpt>
      <trkpt lat="43.41579" lon="6.07039">
        <ele>216.39999389648</ele>
        <time>2015-06-24T11:53:38Z</time>
      </trkpt>
      <trkpt lat="43.41578" lon="6.07039">
        <ele>216.39999389648</ele>
        <time>2015-06-24T11:53:40Z</time>
      </trkpt>
      <trkpt lat="43.41578" lon="6.07038">
        <ele>216.19999694824</ele>
        <time>2015-06-24T11:53:42Z</time>
      </trkpt>
      <trkpt lat="43.41579" lon="6.07038">
        <ele>216.19999694824</ele>
        <time>2015-06-24T11:53:43Z</time>
      </trkpt>
      <trkpt lat="43.41579" lon="6.07038">
        <ele>216.19999694824</ele>
        <time>2015-06-24T11:53:44Z</time>
      </trkpt>
      <trkpt lat="43.41579" lon="6.07037">
        <ele>216.19999694824</ele>
        <time>2015-06-24T11:53:46Z</time>
      </trkpt>
      <trkpt lat="43.41579" lon="6.07037">
        <ele>216.39999389648</ele>
        <time>2015-06-24T11:53:48Z</time>
      </trkpt>
      <trkpt lat="43.41579" lon="6.07038">
        <ele>216.39999389648</ele>
        <time>2015-06-24T11:53:56Z</time>
      </trkpt>
      <trkpt lat="43.41579" lon="6.07038">
        <ele>216.19999694824</ele>
        <time>2015-06-24T11:53:58Z</time>
      </trkpt>
      <trkpt lat="43.41579" lon="6.07038">
        <ele>216</ele>
        <time>2015-06-24T11:54:00Z</time>
      </trkpt>
      <trkpt lat="43.41579" lon="6.07038">
        <ele>215.80000305176</ele>
        <time>2015-06-24T11:54:02Z</time>
      </trkpt>
      <trkpt lat="43.41579" lon="6.07038">
        <ele>215.80000305176</ele>
        <time>2015-06-24T11:54:04Z</time>
      </trkpt>
      <trkpt lat="43.41579" lon="6.07037">
        <ele>215.80000305176</ele>
        <time>2015-06-24T11:54:06Z</time>
      </trkpt>
      <trkpt lat="43.41579" lon="6.07037">
        <ele>216</ele>
        <time>2015-06-24T11:54:08Z</time>
      </trkpt>
      <trkpt lat="43.4158" lon="6.07037">
        <ele>216</ele>
        <time>2015-06-24T11:54:10Z</time>
      </trkpt>
      <trkpt lat="43.4158" lon="6.07037">
        <ele>216</ele>
        <time>2015-06-24T11:54:12Z</time>
      </trkpt>
      <trkpt lat="43.4158" lon="6.07038">
        <ele>216</ele>
        <time>2015-06-24T11:54:14Z</time>
      </trkpt>
      <trkpt lat="43.4158" lon="6.07038">
        <ele>216</ele>
        <time>2015-06-24T11:54:16Z</time>
      </trkpt>
      <trkpt lat="43.4158" lon="6.07037">
        <ele>216</ele>
        <time>2015-06-24T11:54:18Z</time>
      </trkpt>
      <trkpt lat="43.4158" lon="6.07037">
        <ele>216</ele>
        <time>2015-06-24T11:54:20Z</time>
      </trkpt>
      <trkpt lat="43.4158" lon="6.07037">
        <ele>215.80000305176</ele>
        <time>2015-06-24T11:54:22Z</time>
      </trkpt>
      <trkpt lat="43.4158" lon="6.07037">
        <ele>216</ele>
        <time>2015-06-24T11:54:24Z</time>
      </trkpt>
      <trkpt lat="43.4158" lon="6.07037">
        <ele>216</ele>
        <time>2015-06-24T11:54:26Z</time>
      </trkpt>
      <trkpt lat="43.4158" lon="6.07037">
        <ele>216</ele>
        <time>2015-06-24T11:54:28Z</time>
      </trkpt>
      <trkpt lat="43.4158" lon="6.07037">
        <ele>216</ele>
        <time>2015-06-24T11:54:29Z</time>
      </trkpt>
      <trkpt lat="43.41579" lon="6.07037">
        <ele>215.80000305176</ele>
        <time>2015-06-24T11:54:30Z</time>
      </trkpt>
      <trkpt lat="43.4158" lon="6.07037">
        <ele>215.80000305176</ele>
        <time>2015-06-24T11:54:32Z</time>
      </trkpt>
      <trkpt lat="43.4158" lon="6.07036">
        <ele>215.80000305176</ele>
        <time>2015-06-24T11:54:36Z</time>
      </trkpt>
      <trkpt lat="43.4158" lon="6.07036">
        <ele>215.80000305176</ele>
        <time>2015-06-24T11:54:38Z</time>
      </trkpt>
      <trkpt lat="43.4158" lon="6.07036">
        <ele>215.80000305176</ele>
        <time>2015-06-24T11:54:39Z</time>
      </trkpt>
      <trkpt lat="43.4158" lon="6.07036">
        <ele>216</ele>
        <time>2015-06-24T11:54:40Z</time>
      </trkpt>
      <trkpt lat="43.4158" lon="6.07035">
        <ele>216</ele>
        <time>2015-06-24T11:54:42Z</time>
      </trkpt>
      <trkpt lat="43.41579" lon="6.07034">
        <ele>216</ele>
        <time>2015-06-24T11:54:44Z</time>
      </trkpt>
      <trkpt lat="43.41579" lon="6.07034">
        <ele>216</ele>
        <time>2015-06-24T11:54:46Z</time>
      </trkpt>
      <trkpt lat="43.41579" lon="6.07033">
        <ele>216</ele>
        <time>2015-06-24T11:54:48Z</time>
      </trkpt>
      <trkpt lat="43.41579" lon="6.07033">
        <ele>216</ele>
        <time>2015-06-24T11:54:50Z</time>
      </trkpt>
      <trkpt lat="43.41579" lon="6.07033">
        <ele>216</ele>
        <time>2015-06-24T11:54:52Z</time>
      </trkpt>
      <trkpt lat="43.41579" lon="6.07033">
        <ele>216.19999694824</ele>
        <time>2015-06-24T11:54:54Z</time>
      </trkpt>
      <trkpt lat="43.41579" lon="6.07033">
        <ele>216.19999694824</ele>
        <time>2015-06-24T11:54:56Z</time>
      </trkpt>
      <trkpt lat="43.41579" lon="6.07033">
        <ele>216.19999694824</ele>
        <time>2015-06-24T11:54:57Z</time>
      </trkpt>
      <trkpt lat="43.41579" lon="6.07033">
        <ele>216.19999694824</ele>
        <time>2015-06-24T11:54:58Z</time>
      </trkpt>
      <trkpt lat="43.41579" lon="6.07033">
        <ele>216</ele>
        <time>2015-06-24T11:55:00Z</time>
      </trkpt>
      <trkpt lat="43.41578" lon="6.07034">
        <ele>216.19999694824</ele>
        <time>2015-06-24T11:55:04Z</time>
      </trkpt>
      <trkpt lat="43.41578" lon="6.07035">
        <ele>216.19999694824</ele>
        <time>2015-06-24T11:55:06Z</time>
      </trkpt>
      <trkpt lat="43.41578" lon="6.07035">
        <ele>216</ele>
        <time>2015-06-24T11:55:08Z</time>
      </trkpt>
      <trkpt lat="43.41579" lon="6.07035">
        <ele>216</ele>
        <time>2015-06-24T11:55:11Z</time>
      </trkpt>
      <trkpt lat="43.41579" lon="6.07035">
        <ele>216</ele>
        <time>2015-06-24T11:55:12Z</time>
      </trkpt>
      <trkpt lat="43.41579" lon="6.07036">
        <ele>216</ele>
        <time>2015-06-24T11:55:14Z</time>
      </trkpt>
      <trkpt lat="43.41578" lon="6.07037">
        <ele>216.19999694824</ele>
        <time>2015-06-24T11:55:18Z</time>
      </trkpt>
      <trkpt lat="43.41578" lon="6.07037">
        <ele>216</ele>
        <time>2015-06-24T11:55:20Z</time>
      </trkpt>
      <trkpt lat="43.41578" lon="6.07038">
        <ele>216.19999694824</ele>
        <time>2015-06-24T11:55:24Z</time>
      </trkpt>
      <trkpt lat="43.41578" lon="6.07038">
        <ele>216</ele>
        <time>2015-06-24T11:55:26Z</time>
      </trkpt>
      <trkpt lat="43.41578" lon="6.07038">
        <ele>216.19999694824</ele>
        <time>2015-06-24T11:55:30Z</time>
      </trkpt>
      <trkpt lat="43.41578" lon="6.07038">
        <ele>216.19999694824</ele>
        <time>2015-06-24T11:55:32Z</time>
      </trkpt>
      <trkpt lat="43.41578" lon="6.07038">
        <ele>216.19999694824</ele>
        <time>2015-06-24T11:55:34Z</time>
      </trkpt>
      <trkpt lat="43.41578" lon="6.07037">
        <ele>216.19999694824</ele>
        <time>2015-06-24T11:55:36Z</time>
      </trkpt>
      <trkpt lat="43.41578" lon="6.07036">
        <ele>216.19999694824</ele>
        <time>2015-06-24T11:55:38Z</time>
      </trkpt>
      <trkpt lat="43.41579" lon="6.07036">
        <ele>216.19999694824</ele>
        <time>2015-06-24T11:55:40Z</time>
      </trkpt>
      <trkpt lat="43.41579" lon="6.07036">
        <ele>216.19999694824</ele>
        <time>2015-06-24T11:55:44Z</time>
      </trkpt>
      <trkpt lat="43.41579" lon="6.07036">
        <ele>216.19999694824</ele>
        <time>2015-06-24T11:55:46Z</time>
      </trkpt>
      <trkpt lat="43.41578" lon="6.07036">
        <ele>216.39999389648</ele>
        <time>2015-06-24T11:55:48Z</time>
      </trkpt>
      <trkpt lat="43.41579" lon="6.07036">
        <ele>216.39999389648</ele>
        <time>2015-06-24T11:55:50Z</time>
      </trkpt>
      <trkpt lat="43.41579" lon="6.07036">
        <ele>216.19999694824</ele>
        <time>2015-06-24T11:55:52Z</time>
      </trkpt>
      <trkpt lat="43.41578" lon="6.07036">
        <ele>215.80000305176</ele>
        <time>2015-06-24T11:55:58Z</time>
      </trkpt>
      <trkpt lat="43.41578" lon="6.07037">
        <ele>216</ele>
        <time>2015-06-24T11:56:00Z</time>
      </trkpt>
      <trkpt lat="43.41578" lon="6.07037">
        <ele>216</ele>
        <time>2015-06-24T11:56:01Z</time>
      </trkpt>
      <trkpt lat="43.41578" lon="6.07037">
        <ele>216</ele>
        <time>2015-06-24T11:56:02Z</time>
      </trkpt>
      <trkpt lat="43.41578" lon="6.07037">
        <ele>216</ele>
        <time>2015-06-24T11:56:04Z</time>
      </trkpt>
      <trkpt lat="43.41579" lon="6.07037">
        <ele>216</ele>
        <time>2015-06-24T11:56:06Z</time>
      </trkpt>
      <trkpt lat="43.41578" lon="6.07037">
        <ele>216</ele>
        <time>2015-06-24T11:56:08Z</time>
      </trkpt>
      <trkpt lat="43.41578" lon="6.07037">
        <ele>216</ele>
        <time>2015-06-24T11:56:10Z</time>
      </trkpt>
      <trkpt lat="43.41578" lon="6.07037">
        <ele>216</ele>
        <time>2015-06-24T11:56:12Z</time>
      </trkpt>
      <trkpt lat="43.41578" lon="6.07037">
        <ele>216</ele>
        <time>2015-06-24T11:56:14Z</time>
      </trkpt>
      <trkpt lat="43.41579" lon="6.07037">
        <ele>216</ele>
        <time>2015-06-24T11:56:16Z</time>
      </trkpt>
      <trkpt lat="43.41579" lon="6.07037">
        <ele>216.19999694824</ele>
        <time>2015-06-24T11:56:20Z</time>
      </trkpt>
      <trkpt lat="43.41579" lon="6.07037">
        <ele>216</ele>
        <time>2015-06-24T11:56:22Z</time>
      </trkpt>
      <trkpt lat="43.41579" lon="6.07037">
        <ele>216</ele>
        <time>2015-06-24T11:56:24Z</time>
      </trkpt>
      <trkpt lat="43.41578" lon="6.07037">
        <ele>216.19999694824</ele>
        <time>2015-06-24T11:56:26Z</time>
      </trkpt>
      <trkpt lat="43.41579" lon="6.07037">
        <ele>216.19999694824</ele>
        <time>2015-06-24T11:56:28Z</time>
      </trkpt>
      <trkpt lat="43.41579" lon="6.07037">
        <ele>216.19999694824</ele>
        <time>2015-06-24T11:56:30Z</time>
      </trkpt>
      <trkpt lat="43.41579" lon="6.07037">
        <ele>216.19999694824</ele>
        <time>2015-06-24T11:56:32Z</time>
      </trkpt>
      <trkpt lat="43.41579" lon="6.07037">
        <ele>216.19999694824</ele>
        <time>2015-06-24T11:56:38Z</time>
      </trkpt>
      <trkpt lat="43.41579" lon="6.07037">
        <ele>216</ele>
        <time>2015-06-24T11:56:50Z</time>
      </trkpt>
      <trkpt lat="43.41579" lon="6.07037">
        <ele>216</ele>
        <time>2015-06-24T11:56:52Z</time>
      </trkpt>
      <trkpt lat="43.41579" lon="6.07037">
        <ele>216</ele>
        <time>2015-06-24T11:56:58Z</time>
      </trkpt>
      <trkpt lat="43.41579" lon="6.07037">
        <ele>216.19999694824</ele>
        <time>2015-06-24T11:57:01Z</time>
      </trkpt>
      <trkpt lat="43.41579" lon="6.07037">
        <ele>216.60000610352</ele>
        <time>2015-06-24T11:58:04Z</time>
      </trkpt>
      <trkpt lat="43.41579" lon="6.07037">
        <ele>216.60000610352</ele>
        <time>2015-06-24T11:58:10Z</time>
      </trkpt>
      <trkpt lat="43.41579" lon="6.07037">
        <ele>216.80000305176</ele>
        <time>2015-06-24T11:58:13Z</time>
      </trkpt>
      <trkpt lat="43.41579" lon="6.07037">
        <ele>216.60000610352</ele>
        <time>2015-06-24T11:58:16Z</time>
      </trkpt>
      <trkpt lat="43.41578" lon="6.07037">
        <ele>216.60000610352</ele>
        <time>2015-06-24T11:58:18Z</time>
      </trkpt>
      <trkpt lat="43.41579" lon="6.07037">
        <ele>216.60000610352</ele>
        <time>2015-06-24T11:58:20Z</time>
      </trkpt>
      <trkpt lat="43.41579" lon="6.07037">
        <ele>216.60000610352</ele>
        <time>2015-06-24T11:58:22Z</time>
      </trkpt>
      <trkpt lat="43.41579" lon="6.07041">
        <ele>216.60000610352</ele>
        <time>2015-06-24T11:58:25Z</time>
      </trkpt>
      <trkpt lat="43.41579" lon="6.07043">
        <ele>216.60000610352</ele>
        <time>2015-06-24T11:58:26Z</time>
      </trkpt>
      <trkpt lat="43.41579" lon="6.07047">
        <ele>216.60000610352</ele>
        <time>2015-06-24T11:58:28Z</time>
      </trkpt>
      <trkpt lat="43.4158" lon="6.07052">
        <ele>216.60000610352</ele>
        <time>2015-06-24T11:58:30Z</time>
      </trkpt>
      <trkpt lat="43.41581" lon="6.07055">
        <ele>216.60000610352</ele>
        <time>2015-06-24T11:58:31Z</time>
      </trkpt>
      <trkpt lat="43.41581" lon="6.07058">
        <ele>216.80000305176</ele>
        <time>2015-06-24T11:58:32Z</time>
      </trkpt>
      <trkpt lat="43.41581" lon="6.07065">
        <ele>216.39999389648</ele>
        <time>2015-06-24T11:58:34Z</time>
      </trkpt>
      <trkpt lat="43.41582" lon="6.07073">
        <ele>216.39999389648</ele>
        <time>2015-06-24T11:58:36Z</time>
      </trkpt>
      <trkpt lat="43.41583" lon="6.0708">
        <ele>216.19999694824</ele>
        <time>2015-06-24T11:58:38Z</time>
      </trkpt>
      <trkpt lat="43.41584" lon="6.07086">
        <ele>216.39999389648</ele>
        <time>2015-06-24T11:58:40Z</time>
      </trkpt>
      <trkpt lat="43.41584" lon="6.07091">
        <ele>216.39999389648</ele>
        <time>2015-06-24T11:58:42Z</time>
      </trkpt>
      <trkpt lat="43.41584" lon="6.07098">
        <ele>216.60000610352</ele>
        <time>2015-06-24T11:58:44Z</time>
      </trkpt>
      <trkpt lat="43.41584" lon="6.07104">
        <ele>216.39999389648</ele>
        <time>2015-06-24T11:58:46Z</time>
      </trkpt>
      <trkpt lat="43.41584" lon="6.07107">
        <ele>216.19999694824</ele>
        <time>2015-06-24T11:58:47Z</time>
      </trkpt>
      <trkpt lat="43.41584" lon="6.07109">
        <ele>216.39999389648</ele>
        <time>2015-06-24T11:58:48Z</time>
      </trkpt>
      <trkpt lat="43.41582" lon="6.07111">
        <ele>216.19999694824</ele>
        <time>2015-06-24T11:58:49Z</time>
      </trkpt>
      <trkpt lat="43.41581" lon="6.07111">
        <ele>216.19999694824</ele>
        <time>2015-06-24T11:58:50Z</time>
      </trkpt>
      <trkpt lat="43.41579" lon="6.0711">
        <ele>216.19999694824</ele>
        <time>2015-06-24T11:58:51Z</time>
      </trkpt>
      <trkpt lat="43.41577" lon="6.0711">
        <ele>216.39999389648</ele>
        <time>2015-06-24T11:58:52Z</time>
      </trkpt>
      <trkpt lat="43.41574" lon="6.07112">
        <ele>216.39999389648</ele>
        <time>2015-06-24T11:58:53Z</time>
      </trkpt>
      <trkpt lat="43.41572" lon="6.07113">
        <ele>216</ele>
        <time>2015-06-24T11:58:54Z</time>
      </trkpt>
      <trkpt lat="43.41567" lon="6.07116">
        <ele>216.19999694824</ele>
        <time>2015-06-24T11:58:56Z</time>
      </trkpt>
      <trkpt lat="43.41562" lon="6.07118">
        <ele>216.19999694824</ele>
        <time>2015-06-24T11:58:58Z</time>
      </trkpt>
      <trkpt lat="43.41552" lon="6.07119">
        <ele>216.19999694824</ele>
        <time>2015-06-24T11:59:02Z</time>
      </trkpt>
      <trkpt lat="43.41547" lon="6.07116">
        <ele>216.19999694824</ele>
        <time>2015-06-24T11:59:04Z</time>
      </trkpt>
      <trkpt lat="43.41546" lon="6.07114">
        <ele>216.39999389648</ele>
        <time>2015-06-24T11:59:05Z</time>
      </trkpt>
      <trkpt lat="43.41545" lon="6.0711">
        <ele>216.39999389648</ele>
        <time>2015-06-24T11:59:06Z</time>
      </trkpt>
      <trkpt lat="43.41544" lon="6.07104">
        <ele>216.19999694824</ele>
        <time>2015-06-24T11:59:08Z</time>
      </trkpt>
      <trkpt lat="43.41541" lon="6.07084">
        <ele>216.19999694824</ele>
        <time>2015-06-24T11:59:14Z</time>
      </trkpt>
      <trkpt lat="43.41537" lon="6.07078">
        <ele>216.19999694824</ele>
        <time>2015-06-24T11:59:16Z</time>
      </trkpt>
      <trkpt lat="43.41534" lon="6.07078">
        <ele>216.19999694824</ele>
        <time>2015-06-24T11:59:17Z</time>
      </trkpt>
      <trkpt lat="43.41531" lon="6.07077">
        <ele>216</ele>
        <time>2015-06-24T11:59:18Z</time>
      </trkpt>
      <trkpt lat="43.4152" lon="6.07078">
        <ele>215.39999389648</ele>
        <time>2015-06-24T11:59:21Z</time>
      </trkpt>
      <trkpt lat="43.41516" lon="6.07079">
        <ele>215.60000610352</ele>
        <time>2015-06-24T11:59:22Z</time>
      </trkpt>
      <trkpt lat="43.41512" lon="6.07081">
        <ele>216</ele>
        <time>2015-06-24T11:59:23Z</time>
      </trkpt>
      <trkpt lat="43.41508" lon="6.07082">
        <ele>215.80000305176</ele>
        <time>2015-06-24T11:59:24Z</time>
      </trkpt>
      <trkpt lat="43.41501" lon="6.07084">
        <ele>215</ele>
        <time>2015-06-24T11:59:26Z</time>
      </trkpt>
      <trkpt lat="43.41495" lon="6.07083">
        <ele>215</ele>
        <time>2015-06-24T11:59:28Z</time>
      </trkpt>
      <trkpt lat="43.41488" lon="6.0708">
        <ele>214.80000305176</ele>
        <time>2015-06-24T11:59:30Z</time>
      </trkpt>
      <trkpt lat="43.41482" lon="6.07077">
        <ele>214.60000610352</ele>
        <time>2015-06-24T11:59:32Z</time>
      </trkpt>
      <trkpt lat="43.41477" lon="6.07075">
        <ele>215</ele>
        <time>2015-06-24T11:59:34Z</time>
      </trkpt>
      <trkpt lat="43.41469" lon="6.07072">
        <ele>214.60000610352</ele>
        <time>2015-06-24T11:59:38Z</time>
      </trkpt>
      <trkpt lat="43.41467" lon="6.07071">
        <ele>214.19999694824</ele>
        <time>2015-06-24T11:59:39Z</time>
      </trkpt>
      <trkpt lat="43.41466" lon="6.07069">
        <ele>214</ele>
        <time>2015-06-24T11:59:40Z</time>
      </trkpt>
      <trkpt lat="43.41465" lon="6.07066">
        <ele>213.80000305176</ele>
        <time>2015-06-24T11:59:42Z</time>
      </trkpt>
      <trkpt lat="43.41467" lon="6.0706">
        <ele>213.60000610352</ele>
        <time>2015-06-24T11:59:44Z</time>
      </trkpt>
      <trkpt lat="43.41471" lon="6.07053">
        <ele>213.80000305176</ele>
        <time>2015-06-24T11:59:46Z</time>
      </trkpt>
      <trkpt lat="43.41475" lon="6.07044">
        <ele>213.80000305176</ele>
        <time>2015-06-24T11:59:48Z</time>
      </trkpt>
      <trkpt lat="43.41479" lon="6.07034">
        <ele>214.19999694824</ele>
        <time>2015-06-24T11:59:50Z</time>
      </trkpt>
      <trkpt lat="43.41484" lon="6.07023">
        <ele>214.39999389648</ele>
        <time>2015-06-24T11:59:52Z</time>
      </trkpt>
      <trkpt lat="43.41488" lon="6.07012">
        <ele>214.39999389648</ele>
        <time>2015-06-24T11:59:54Z</time>
      </trkpt>
      <trkpt lat="43.41492" lon="6.07001">
        <ele>214.39999389648</ele>
        <time>2015-06-24T11:59:56Z</time>
      </trkpt>
      <trkpt lat="43.41493" lon="6.0699">
        <ele>214.39999389648</ele>
        <time>2015-06-24T11:59:58Z</time>
      </trkpt>
      <trkpt lat="43.41492" lon="6.0698">
        <ele>214.60000610352</ele>
        <time>2015-06-24T12:00:00Z</time>
      </trkpt>
      <trkpt lat="43.41489" lon="6.06971">
        <ele>215</ele>
        <time>2015-06-24T12:00:02Z</time>
      </trkpt>
      <trkpt lat="43.41487" lon="6.06966">
        <ele>215.19999694824</ele>
        <time>2015-06-24T12:00:03Z</time>
      </trkpt>
      <trkpt lat="43.41485" lon="6.06962">
        <ele>215.39999389648</ele>
        <time>2015-06-24T12:00:04Z</time>
      </trkpt>
      <trkpt lat="43.41476" lon="6.06945">
        <ele>215.39999389648</ele>
        <time>2015-06-24T12:00:08Z</time>
      </trkpt>
      <trkpt lat="43.41471" lon="6.06938">
        <ele>215.39999389648</ele>
        <time>2015-06-24T12:00:10Z</time>
      </trkpt>
      <trkpt lat="43.41467" lon="6.06931">
        <ele>215.80000305176</ele>
        <time>2015-06-24T12:00:12Z</time>
      </trkpt>
      <trkpt lat="43.41464" lon="6.06927">
        <ele>215.60000610352</ele>
        <time>2015-06-24T12:00:14Z</time>
      </trkpt>
      <trkpt lat="43.41463" lon="6.06924">
        <ele>215.60000610352</ele>
        <time>2015-06-24T12:00:15Z</time>
      </trkpt>
      <trkpt lat="43.41462" lon="6.06922">
        <ele>215.80000305176</ele>
        <time>2015-06-24T12:00:16Z</time>
      </trkpt>
      <trkpt lat="43.4146" lon="6.06918">
        <ele>215.80000305176</ele>
        <time>2015-06-24T12:00:17Z</time>
      </trkpt>
      <trkpt lat="43.41461" lon="6.06913">
        <ele>215.80000305176</ele>
        <time>2015-06-24T12:00:18Z</time>
      </trkpt>
      <trkpt lat="43.41462" lon="6.06908">
        <ele>215.80000305176</ele>
        <time>2015-06-24T12:00:19Z</time>
      </trkpt>
      <trkpt lat="43.41462" lon="6.06902">
        <ele>216</ele>
        <time>2015-06-24T12:00:20Z</time>
      </trkpt>
      <trkpt lat="43.41463" lon="6.0689">
        <ele>216.19999694824</ele>
        <time>2015-06-24T12:00:22Z</time>
      </trkpt>
      <trkpt lat="43.41461" lon="6.06883">
        <ele>216</ele>
        <time>2015-06-24T12:00:23Z</time>
      </trkpt>
      <trkpt lat="43.41459" lon="6.06877">
        <ele>216.19999694824</ele>
        <time>2015-06-24T12:00:24Z</time>
      </trkpt>
      <trkpt lat="43.41455" lon="6.06871">
        <ele>216.19999694824</ele>
        <time>2015-06-24T12:00:25Z</time>
      </trkpt>
      <trkpt lat="43.41451" lon="6.06867">
        <ele>216.19999694824</ele>
        <time>2015-06-24T12:00:26Z</time>
      </trkpt>
      <trkpt lat="43.41447" lon="6.06863">
        <ele>216.19999694824</ele>
        <time>2015-06-24T12:00:27Z</time>
      </trkpt>
      <trkpt lat="43.41441" lon="6.0686">
        <ele>216.39999389648</ele>
        <time>2015-06-24T12:00:28Z</time>
      </trkpt>
      <trkpt lat="43.41436" lon="6.06859">
        <ele>216.60000610352</ele>
        <time>2015-06-24T12:00:29Z</time>
      </trkpt>
      <trkpt lat="43.4143" lon="6.06858">
        <ele>216.60000610352</ele>
        <time>2015-06-24T12:00:30Z</time>
      </trkpt>
      <trkpt lat="43.41419" lon="6.06856">
        <ele>216.39999389648</ele>
        <time>2015-06-24T12:00:32Z</time>
      </trkpt>
      <trkpt lat="43.41413" lon="6.06854">
        <ele>216.39999389648</ele>
        <time>2015-06-24T12:00:33Z</time>
      </trkpt>
      <trkpt lat="43.41408" lon="6.06852">
        <ele>216.39999389648</ele>
        <time>2015-06-24T12:00:34Z</time>
      </trkpt>
      <trkpt lat="43.414" lon="6.06843">
        <ele>216.19999694824</ele>
        <time>2015-06-24T12:00:36Z</time>
      </trkpt>
      <trkpt lat="43.41391" lon="6.06835">
        <ele>216.19999694824</ele>
        <time>2015-06-24T12:00:38Z</time>
      </trkpt>
      <trkpt lat="43.41382" lon="6.06829">
        <ele>217</ele>
        <time>2015-06-24T12:00:40Z</time>
      </trkpt>
      <trkpt lat="43.41367" lon="6.0682">
        <ele>217</ele>
        <time>2015-06-24T12:00:43Z</time>
      </trkpt>
      <trkpt lat="43.41361" lon="6.06817">
        <ele>217</ele>
        <time>2015-06-24T12:00:44Z</time>
      </trkpt>
      <trkpt lat="43.41351" lon="6.06813">
        <ele>217.39999389648</ele>
        <time>2015-06-24T12:00:46Z</time>
      </trkpt>
      <trkpt lat="43.4134" lon="6.06808">
        <ele>217</ele>
        <time>2015-06-24T12:00:48Z</time>
      </trkpt>
      <trkpt lat="43.41329" lon="6.06801">
        <ele>216.80000305176</ele>
        <time>2015-06-24T12:00:50Z</time>
      </trkpt>
      <trkpt lat="43.41307" lon="6.06786">
        <ele>216.19999694824</ele>
        <time>2015-06-24T12:00:54Z</time>
      </trkpt>
      <trkpt lat="43.41292" lon="6.0677">
        <ele>215.80000305176</ele>
        <time>2015-06-24T12:00:57Z</time>
      </trkpt>
      <trkpt lat="43.41288" lon="6.06764">
        <ele>215.60000610352</ele>
        <time>2015-06-24T12:00:58Z</time>
      </trkpt>
      <trkpt lat="43.41284" lon="6.06756">
        <ele>215.39999389648</ele>
        <time>2015-06-24T12:00:59Z</time>
      </trkpt>
      <trkpt lat="43.4128" lon="6.06748">
        <ele>215.39999389648</ele>
        <time>2015-06-24T12:01:00Z</time>
      </trkpt>
      <trkpt lat="43.41278" lon="6.0674">
        <ele>215.19999694824</ele>
        <time>2015-06-24T12:01:01Z</time>
      </trkpt>
      <trkpt lat="43.41276" lon="6.06732">
        <ele>215.19999694824</ele>
        <time>2015-06-24T12:01:02Z</time>
      </trkpt>
      <trkpt lat="43.41274" lon="6.06716">
        <ele>215.60000610352</ele>
        <time>2015-06-24T12:01:04Z</time>
      </trkpt>
      <trkpt lat="43.41273" lon="6.06711">
        <ele>215.39999389648</ele>
        <time>2015-06-24T12:01:05Z</time>
      </trkpt>
      <trkpt lat="43.41273" lon="6.06706">
        <ele>215.19999694824</ele>
        <time>2015-06-24T12:01:06Z</time>
      </trkpt>
      <trkpt lat="43.41273" lon="6.067">
        <ele>215.19999694824</ele>
        <time>2015-06-24T12:01:08Z</time>
      </trkpt>
      <trkpt lat="43.41273" lon="6.06698">
        <ele>215.60000610352</ele>
        <time>2015-06-24T12:01:09Z</time>
      </trkpt>
      <trkpt lat="43.41273" lon="6.06696">
        <ele>215.60000610352</ele>
        <time>2015-06-24T12:01:10Z</time>
      </trkpt>
      <trkpt lat="43.41274" lon="6.06695">
        <ele>215.80000305176</ele>
        <time>2015-06-24T12:01:11Z</time>
      </trkpt>
      <trkpt lat="43.41275" lon="6.06694">
        <ele>215.80000305176</ele>
        <time>2015-06-24T12:01:12Z</time>
      </trkpt>
      <trkpt lat="43.41273" lon="6.0669">
        <ele>215.80000305176</ele>
        <time>2015-06-24T12:01:14Z</time>
      </trkpt>
      <trkpt lat="43.4127" lon="6.06686">
        <ele>216</ele>
        <time>2015-06-24T12:01:16Z</time>
      </trkpt>
      <trkpt lat="43.41266" lon="6.06684">
        <ele>216</ele>
        <time>2015-06-24T12:01:17Z</time>
      </trkpt>
      <trkpt lat="43.41262" lon="6.06683">
        <ele>216</ele>
        <time>2015-06-24T12:01:18Z</time>
      </trkpt>
      <trkpt lat="43.41253" lon="6.06686">
        <ele>215.60000610352</ele>
        <time>2015-06-24T12:01:20Z</time>
      </trkpt>
      <trkpt lat="43.41249" lon="6.0669">
        <ele>214.80000305176</ele>
        <time>2015-06-24T12:01:21Z</time>
      </trkpt>
      <trkpt lat="43.41246" lon="6.06693">
        <ele>214.19999694824</ele>
        <time>2015-06-24T12:01:22Z</time>
      </trkpt>
      <trkpt lat="43.41246" lon="6.06699">
        <ele>213.80000305176</ele>
        <time>2015-06-24T12:01:23Z</time>
      </trkpt>
      <trkpt lat="43.41246" lon="6.0671">
        <ele>213.39999389648</ele>
        <time>2015-06-24T12:01:26Z</time>
      </trkpt>
      <trkpt lat="43.41245" lon="6.06712">
        <ele>213.19999694824</ele>
        <time>2015-06-24T12:01:27Z</time>
      </trkpt>
      <trkpt lat="43.41243" lon="6.06713">
        <ele>213</ele>
        <time>2015-06-24T12:01:28Z</time>
      </trkpt>
      <trkpt lat="43.4124" lon="6.06712">
        <ele>212.80000305176</ele>
        <time>2015-06-24T12:01:29Z</time>
      </trkpt>
      <trkpt lat="43.41236" lon="6.06712">
        <ele>212.60000610352</ele>
        <time>2015-06-24T12:01:30Z</time>
      </trkpt>
      <trkpt lat="43.41233" lon="6.06711">
        <ele>213</ele>
        <time>2015-06-24T12:01:31Z</time>
      </trkpt>
      <trkpt lat="43.41229" lon="6.06712">
        <ele>212.80000305176</ele>
        <time>2015-06-24T12:01:32Z</time>
      </trkpt>
      <trkpt lat="43.41224" lon="6.06713">
        <ele>212.19999694824</ele>
        <time>2015-06-24T12:01:33Z</time>
      </trkpt>
      <trkpt lat="43.41219" lon="6.06714">
        <ele>212</ele>
        <time>2015-06-24T12:01:34Z</time>
      </trkpt>
      <trkpt lat="43.41215" lon="6.06714">
        <ele>212</ele>
        <time>2015-06-24T12:01:35Z</time>
      </trkpt>
      <trkpt lat="43.4121" lon="6.06715">
        <ele>211.80000305176</ele>
        <time>2015-06-24T12:01:36Z</time>
      </trkpt>
      <trkpt lat="43.41195" lon="6.06715">
        <ele>212.60000610352</ele>
        <time>2015-06-24T12:01:39Z</time>
      </trkpt>
      <trkpt lat="43.41179" lon="6.06714">
        <ele>212</ele>
        <time>2015-06-24T12:01:42Z</time>
      </trkpt>
      <trkpt lat="43.41157" lon="6.06712">
        <ele>212.39999389648</ele>
        <time>2015-06-24T12:01:46Z</time>
      </trkpt>
      <trkpt lat="43.41145" lon="6.06714">
        <ele>212</ele>
        <time>2015-06-24T12:01:48Z</time>
      </trkpt>
      <trkpt lat="43.41135" lon="6.06717">
        <ele>211.60000610352</ele>
        <time>2015-06-24T12:01:50Z</time>
      </trkpt>
      <trkpt lat="43.4112" lon="6.06723">
        <ele>210.80000305176</ele>
        <time>2015-06-24T12:01:53Z</time>
      </trkpt>
      <trkpt lat="43.41115" lon="6.06726">
        <ele>211</ele>
        <time>2015-06-24T12:01:54Z</time>
      </trkpt>
      <trkpt lat="43.41106" lon="6.06733">
        <ele>211.19999694824</ele>
        <time>2015-06-24T12:01:56Z</time>
      </trkpt>
      <trkpt lat="43.41098" lon="6.06738">
        <ele>211.39999389648</ele>
        <time>2015-06-24T12:01:58Z</time>
      </trkpt>
      <trkpt lat="43.41091" lon="6.06742">
        <ele>210.80000305176</ele>
        <time>2015-06-24T12:02:00Z</time>
      </trkpt>
      <trkpt lat="43.41087" lon="6.06747">
        <ele>210.39999389648</ele>
        <time>2015-06-24T12:02:02Z</time>
      </trkpt>
      <trkpt lat="43.41085" lon="6.06754">
        <ele>210.60000610352</ele>
        <time>2015-06-24T12:02:04Z</time>
      </trkpt>
      <trkpt lat="43.41083" lon="6.06763">
        <ele>210.39999389648</ele>
        <time>2015-06-24T12:02:06Z</time>
      </trkpt>
      <trkpt lat="43.41081" lon="6.06772">
        <ele>210.39999389648</ele>
        <time>2015-06-24T12:02:08Z</time>
      </trkpt>
      <trkpt lat="43.4108" lon="6.06783">
        <ele>210.60000610352</ele>
        <time>2015-06-24T12:02:10Z</time>
      </trkpt>
      <trkpt lat="43.41078" lon="6.06794">
        <ele>210.39999389648</ele>
        <time>2015-06-24T12:02:12Z</time>
      </trkpt>
      <trkpt lat="43.41075" lon="6.06805">
        <ele>210.19999694824</ele>
        <time>2015-06-24T12:02:14Z</time>
      </trkpt>
      <trkpt lat="43.41074" lon="6.0681">
        <ele>210.19999694824</ele>
        <time>2015-06-24T12:02:15Z</time>
      </trkpt>
      <trkpt lat="43.41071" lon="6.06822">
        <ele>210.60000610352</ele>
        <time>2015-06-24T12:02:17Z</time>
      </trkpt>
      <trkpt lat="43.4107" lon="6.06827">
        <ele>210.60000610352</ele>
        <time>2015-06-24T12:02:18Z</time>
      </trkpt>
      <trkpt lat="43.41068" lon="6.06838">
        <ele>210.60000610352</ele>
        <time>2015-06-24T12:02:20Z</time>
      </trkpt>
      <trkpt lat="43.41068" lon="6.06842">
        <ele>210.39999389648</ele>
        <time>2015-06-24T12:02:21Z</time>
      </trkpt>
      <trkpt lat="43.41067" lon="6.06846">
        <ele>210.19999694824</ele>
        <time>2015-06-24T12:02:22Z</time>
      </trkpt>
      <trkpt lat="43.41066" lon="6.06852">
        <ele>210.19999694824</ele>
        <time>2015-06-24T12:02:24Z</time>
      </trkpt>
      <trkpt lat="43.41066" lon="6.0686">
        <ele>210.60000610352</ele>
        <time>2015-06-24T12:02:26Z</time>
      </trkpt>
      <trkpt lat="43.41066" lon="6.06867">
        <ele>211.39999389648</ele>
        <time>2015-06-24T12:02:28Z</time>
      </trkpt>
      <trkpt lat="43.41064" lon="6.06869">
        <ele>211.60000610352</ele>
        <time>2015-06-24T12:02:29Z</time>
      </trkpt>
      <trkpt lat="43.41063" lon="6.0687">
        <ele>211.80000305176</ele>
        <time>2015-06-24T12:02:30Z</time>
      </trkpt>
      <trkpt lat="43.4106" lon="6.06871">
        <ele>212</ele>
        <time>2015-06-24T12:02:31Z</time>
      </trkpt>
      <trkpt lat="43.41058" lon="6.06871">
        <ele>212.19999694824</ele>
        <time>2015-06-24T12:02:32Z</time>
      </trkpt>
      <trkpt lat="43.41052" lon="6.06874">
        <ele>212</ele>
        <time>2015-06-24T12:02:34Z</time>
      </trkpt>
      <trkpt lat="43.41048" lon="6.06875">
        <ele>212</ele>
        <time>2015-06-24T12:02:36Z</time>
      </trkpt>
      <trkpt lat="43.41046" lon="6.06876">
        <ele>212</ele>
        <time>2015-06-24T12:02:37Z</time>
      </trkpt>
      <trkpt lat="43.41039" lon="6.06879">
        <ele>211.60000610352</ele>
        <time>2015-06-24T12:02:39Z</time>
      </trkpt>
      <trkpt lat="43.41035" lon="6.06881">
        <ele>211.19999694824</ele>
        <time>2015-06-24T12:02:40Z</time>
      </trkpt>
      <trkpt lat="43.41031" lon="6.06883">
        <ele>210.80000305176</ele>
        <time>2015-06-24T12:02:41Z</time>
      </trkpt>
      <trkpt lat="43.41027" lon="6.06885">
        <ele>210.60000610352</ele>
        <time>2015-06-24T12:02:42Z</time>
      </trkpt>
      <trkpt lat="43.41022" lon="6.06887">
        <ele>210.60000610352</ele>
        <time>2015-06-24T12:02:44Z</time>
      </trkpt>
      <trkpt lat="43.4102" lon="6.06888">
        <ele>210.39999389648</ele>
        <time>2015-06-24T12:02:45Z</time>
      </trkpt>
      <trkpt lat="43.41018" lon="6.06888">
        <ele>210.39999389648</ele>
        <time>2015-06-24T12:02:46Z</time>
      </trkpt>
      <trkpt lat="43.41017" lon="6.06888">
        <ele>210.19999694824</ele>
        <time>2015-06-24T12:02:48Z</time>
      </trkpt>
      <trkpt lat="43.41016" lon="6.0689">
        <ele>210.39999389648</ele>
        <time>2015-06-24T12:02:50Z</time>
      </trkpt>
      <trkpt lat="43.41015" lon="6.06891">
        <ele>210.39999389648</ele>
        <time>2015-06-24T12:02:51Z</time>
      </trkpt>
      <trkpt lat="43.41014" lon="6.06893">
        <ele>210.39999389648</ele>
        <time>2015-06-24T12:02:52Z</time>
      </trkpt>
      <trkpt lat="43.41012" lon="6.06899">
        <ele>210.39999389648</ele>
        <time>2015-06-24T12:02:54Z</time>
      </trkpt>
      <trkpt lat="43.41011" lon="6.06903">
        <ele>210.60000610352</ele>
        <time>2015-06-24T12:02:55Z</time>
      </trkpt>
      <trkpt lat="43.41009" lon="6.06906">
        <ele>210.60000610352</ele>
        <time>2015-06-24T12:02:56Z</time>
      </trkpt>
      <trkpt lat="43.41003" lon="6.06911">
        <ele>210.39999389648</ele>
        <time>2015-06-24T12:02:58Z</time>
      </trkpt>
      <trkpt lat="43.40998" lon="6.06913">
        <ele>210.39999389648</ele>
        <time>2015-06-24T12:02:59Z</time>
      </trkpt>
      <trkpt lat="43.40995" lon="6.06915">
        <ele>210.39999389648</ele>
        <time>2015-06-24T12:03:00Z</time>
      </trkpt>
      <trkpt lat="43.40986" lon="6.0692">
        <ele>210.19999694824</ele>
        <time>2015-06-24T12:03:02Z</time>
      </trkpt>
      <trkpt lat="43.40976" lon="6.06925">
        <ele>210</ele>
        <time>2015-06-24T12:03:04Z</time>
      </trkpt>
      <trkpt lat="43.40971" lon="6.06928">
        <ele>210</ele>
        <time>2015-06-24T12:03:05Z</time>
      </trkpt>
      <trkpt lat="43.40965" lon="6.0693">
        <ele>210</ele>
        <time>2015-06-24T12:03:06Z</time>
      </trkpt>
      <trkpt lat="43.40954" lon="6.06934">
        <ele>209.80000305176</ele>
        <time>2015-06-24T12:03:08Z</time>
      </trkpt>
      <trkpt lat="43.40942" lon="6.06937">
        <ele>210.19999694824</ele>
        <time>2015-06-24T12:03:10Z</time>
      </trkpt>
      <trkpt lat="43.40937" lon="6.06939">
        <ele>210.19999694824</ele>
        <time>2015-06-24T12:03:11Z</time>
      </trkpt>
      <trkpt lat="43.40931" lon="6.06941">
        <ele>210.19999694824</ele>
        <time>2015-06-24T12:03:12Z</time>
      </trkpt>
      <trkpt lat="43.40926" lon="6.06942">
        <ele>210.19999694824</ele>
        <time>2015-06-24T12:03:13Z</time>
      </trkpt>
      <trkpt lat="43.40916" lon="6.06946">
        <ele>210.39999389648</ele>
        <time>2015-06-24T12:03:15Z</time>
      </trkpt>
      <trkpt lat="43.40911" lon="6.06949">
        <ele>210.39999389648</ele>
        <time>2015-06-24T12:03:16Z</time>
      </trkpt>
      <trkpt lat="43.40909" lon="6.06954">
        <ele>210.39999389648</ele>
        <time>2015-06-24T12:03:17Z</time>
      </trkpt>
      <trkpt lat="43.40904" lon="6.06966">
        <ele>210.60000610352</ele>
        <time>2015-06-24T12:03:19Z</time>
      </trkpt>
      <trkpt lat="43.409" lon="6.0698">
        <ele>210.80000305176</ele>
        <time>2015-06-24T12:03:21Z</time>
      </trkpt>
      <trkpt lat="43.40898" lon="6.06986">
        <ele>211</ele>
        <time>2015-06-24T12:03:22Z</time>
      </trkpt>
      <trkpt lat="43.40894" lon="6.0699">
        <ele>211</ele>
        <time>2015-06-24T12:03:23Z</time>
      </trkpt>
      <trkpt lat="43.4088" lon="6.06996">
        <ele>211</ele>
        <time>2015-06-24T12:03:26Z</time>
      </trkpt>
      <trkpt lat="43.4087" lon="6.06998">
        <ele>210.80000305176</ele>
        <time>2015-06-24T12:03:28Z</time>
      </trkpt>
      <trkpt lat="43.40862" lon="6.07001">
        <ele>211</ele>
        <time>2015-06-24T12:03:30Z</time>
      </trkpt>
      <trkpt lat="43.40855" lon="6.07003">
        <ele>210.80000305176</ele>
        <time>2015-06-24T12:03:32Z</time>
      </trkpt>
      <trkpt lat="43.4085" lon="6.07004">
        <ele>210.80000305176</ele>
        <time>2015-06-24T12:03:34Z</time>
      </trkpt>
      <trkpt lat="43.40849" lon="6.07005">
        <ele>210.80000305176</ele>
        <time>2015-06-24T12:03:35Z</time>
      </trkpt>
      <trkpt lat="43.40847" lon="6.07006">
        <ele>210.80000305176</ele>
        <time>2015-06-24T12:03:36Z</time>
      </trkpt>
      <trkpt lat="43.40844" lon="6.07009">
        <ele>210.80000305176</ele>
        <time>2015-06-24T12:03:38Z</time>
      </trkpt>
      <trkpt lat="43.40842" lon="6.07011">
        <ele>210.80000305176</ele>
        <time>2015-06-24T12:03:39Z</time>
      </trkpt>
      <trkpt lat="43.40841" lon="6.07015">
        <ele>210.80000305176</ele>
        <time>2015-06-24T12:03:40Z</time>
      </trkpt>
      <trkpt lat="43.4084" lon="6.07022">
        <ele>210.80000305176</ele>
        <time>2015-06-24T12:03:41Z</time>
      </trkpt>
      <trkpt lat="43.40841" lon="6.07028">
        <ele>211</ele>
        <time>2015-06-24T12:03:42Z</time>
      </trkpt>
      <trkpt lat="43.40841" lon="6.07034">
        <ele>210.80000305176</ele>
        <time>2015-06-24T12:03:43Z</time>
      </trkpt>
      <trkpt lat="43.40842" lon="6.07041">
        <ele>211</ele>
        <time>2015-06-24T12:03:44Z</time>
      </trkpt>
      <trkpt lat="43.40844" lon="6.07054">
        <ele>211</ele>
        <time>2015-06-24T12:03:46Z</time>
      </trkpt>
      <trkpt lat="43.40844" lon="6.07061">
        <ele>211</ele>
        <time>2015-06-24T12:03:47Z</time>
      </trkpt>
      <trkpt lat="43.40845" lon="6.07068">
        <ele>211</ele>
        <time>2015-06-24T12:03:48Z</time>
      </trkpt>
      <trkpt lat="43.40845" lon="6.07083">
        <ele>211</ele>
        <time>2015-06-24T12:03:50Z</time>
      </trkpt>
      <trkpt lat="43.40845" lon="6.07096">
        <ele>211</ele>
        <time>2015-06-24T12:03:52Z</time>
      </trkpt>
      <trkpt lat="43.40844" lon="6.07109">
        <ele>211</ele>
        <time>2015-06-24T12:03:54Z</time>
      </trkpt>
      <trkpt lat="43.40841" lon="6.07123">
        <ele>210.80000305176</ele>
        <time>2015-06-24T12:03:56Z</time>
      </trkpt>
      <trkpt lat="43.4084" lon="6.07129">
        <ele>210.80000305176</ele>
        <time>2015-06-24T12:03:57Z</time>
      </trkpt>
      <trkpt lat="43.40838" lon="6.07135">
        <ele>210.80000305176</ele>
        <time>2015-06-24T12:03:58Z</time>
      </trkpt>
      <trkpt lat="43.40835" lon="6.07149">
        <ele>211.19999694824</ele>
        <time>2015-06-24T12:04:00Z</time>
      </trkpt>
      <trkpt lat="43.40831" lon="6.07161">
        <ele>211</ele>
        <time>2015-06-24T12:04:02Z</time>
      </trkpt>
      <trkpt lat="43.40826" lon="6.07172">
        <ele>211</ele>
        <time>2015-06-24T12:04:04Z</time>
      </trkpt>
      <trkpt lat="43.40824" lon="6.07177">
        <ele>211.19999694824</ele>
        <time>2015-06-24T12:04:05Z</time>
      </trkpt>
      <trkpt lat="43.40816" lon="6.07193">
        <ele>211.19999694824</ele>
        <time>2015-06-24T12:04:08Z</time>
      </trkpt>
      <trkpt lat="43.4081" lon="6.07203">
        <ele>211</ele>
        <time>2015-06-24T12:04:10Z</time>
      </trkpt>
      <trkpt lat="43.40804" lon="6.07212">
        <ele>211.19999694824</ele>
        <time>2015-06-24T12:04:12Z</time>
      </trkpt>
      <trkpt lat="43.40799" lon="6.07216">
        <ele>211.19999694824</ele>
        <time>2015-06-24T12:04:13Z</time>
      </trkpt>
      <trkpt lat="43.40788" lon="6.07229">
        <ele>211.19999694824</ele>
        <time>2015-06-24T12:04:16Z</time>
      </trkpt>
      <trkpt lat="43.40783" lon="6.07232">
        <ele>211.19999694824</ele>
        <time>2015-06-24T12:04:17Z</time>
      </trkpt>
      <trkpt lat="43.40779" lon="6.07236">
        <ele>211.19999694824</ele>
        <time>2015-06-24T12:04:18Z</time>
      </trkpt>
      <trkpt lat="43.4077" lon="6.07243">
        <ele>211.39999389648</ele>
        <time>2015-06-24T12:04:20Z</time>
      </trkpt>
      <trkpt lat="43.40765" lon="6.07246">
        <ele>211.39999389648</ele>
        <time>2015-06-24T12:04:21Z</time>
      </trkpt>
      <trkpt lat="43.40761" lon="6.07249">
        <ele>211.60000610352</ele>
        <time>2015-06-24T12:04:22Z</time>
      </trkpt>
      <trkpt lat="43.40752" lon="6.07253">
        <ele>211.39999389648</ele>
        <time>2015-06-24T12:04:24Z</time>
      </trkpt>
      <trkpt lat="43.40744" lon="6.07258">
        <ele>211.39999389648</ele>
        <time>2015-06-24T12:04:26Z</time>
      </trkpt>
      <trkpt lat="43.40736" lon="6.07263">
        <ele>211.60000610352</ele>
        <time>2015-06-24T12:04:28Z</time>
      </trkpt>
      <trkpt lat="43.40727" lon="6.07268">
        <ele>211.39999389648</ele>
        <time>2015-06-24T12:04:30Z</time>
      </trkpt>
      <trkpt lat="43.40718" lon="6.07273">
        <ele>211.60000610352</ele>
        <time>2015-06-24T12:04:32Z</time>
      </trkpt>
      <trkpt lat="43.4071" lon="6.07278">
        <ele>212</ele>
        <time>2015-06-24T12:04:34Z</time>
      </trkpt>
      <trkpt lat="43.40701" lon="6.07283">
        <ele>212</ele>
        <time>2015-06-24T12:04:36Z</time>
      </trkpt>
      <trkpt lat="43.40693" lon="6.07288">
        <ele>212.19999694824</ele>
        <time>2015-06-24T12:04:38Z</time>
      </trkpt>
      <trkpt lat="43.40684" lon="6.07293">
        <ele>212.39999389648</ele>
        <time>2015-06-24T12:04:40Z</time>
      </trkpt>
      <trkpt lat="43.40669" lon="6.07302">
        <ele>212.80000305176</ele>
        <time>2015-06-24T12:04:44Z</time>
      </trkpt>
      <trkpt lat="43.40662" lon="6.07306">
        <ele>213</ele>
        <time>2015-06-24T12:04:46Z</time>
      </trkpt>
      <trkpt lat="43.40655" lon="6.07311">
        <ele>213.39999389648</ele>
        <time>2015-06-24T12:04:48Z</time>
      </trkpt>
      <trkpt lat="43.40651" lon="6.07313">
        <ele>213.39999389648</ele>
        <time>2015-06-24T12:04:49Z</time>
      </trkpt>
      <trkpt lat="43.4064" lon="6.07318">
        <ele>213.80000305176</ele>
        <time>2015-06-24T12:04:52Z</time>
      </trkpt>
      <trkpt lat="43.40633" lon="6.07323">
        <ele>214.39999389648</ele>
        <time>2015-06-24T12:04:54Z</time>
      </trkpt>
      <trkpt lat="43.40629" lon="6.07323">
        <ele>214.80000305176</ele>
        <time>2015-06-24T12:04:55Z</time>
      </trkpt>
      <trkpt lat="43.40625" lon="6.07321">
        <ele>214.80000305176</ele>
        <time>2015-06-24T12:04:56Z</time>
      </trkpt>
      <trkpt lat="43.40618" lon="6.07316">
        <ele>214.80000305176</ele>
        <time>2015-06-24T12:04:58Z</time>
      </trkpt>
      <trkpt lat="43.40612" lon="6.07309">
        <ele>215</ele>
        <time>2015-06-24T12:05:00Z</time>
      </trkpt>
      <trkpt lat="43.40606" lon="6.07303">
        <ele>215.39999389648</ele>
        <time>2015-06-24T12:05:02Z</time>
      </trkpt>
      <trkpt lat="43.40602" lon="6.07298">
        <ele>215.80000305176</ele>
        <time>2015-06-24T12:05:04Z</time>
      </trkpt>
      <trkpt lat="43.40599" lon="6.07295">
        <ele>215.80000305176</ele>
        <time>2015-06-24T12:05:06Z</time>
      </trkpt>
      <trkpt lat="43.40599" lon="6.07294">
        <ele>216</ele>
        <time>2015-06-24T12:05:08Z</time>
      </trkpt>
      <trkpt lat="43.40599" lon="6.07294">
        <ele>216</ele>
        <time>2015-06-24T12:05:10Z</time>
      </trkpt>
      <trkpt lat="43.40598" lon="6.07294">
        <ele>215.80000305176</ele>
        <time>2015-06-24T12:05:12Z</time>
      </trkpt>
      <trkpt lat="43.40598" lon="6.07294">
        <ele>215.80000305176</ele>
        <time>2015-06-24T12:05:14Z</time>
      </trkpt>
      <trkpt lat="43.40598" lon="6.07294">
        <ele>215.80000305176</ele>
        <time>2015-06-24T12:05:16Z</time>
      </trkpt>
      <trkpt lat="43.40598" lon="6.07294">
        <ele>215.60000610352</ele>
        <time>2015-06-24T12:05:28Z</time>
      </trkpt>
      <trkpt lat="43.40598" lon="6.07294">
        <ele>215.80000305176</ele>
        <time>2015-06-24T12:05:36Z</time>
      </trkpt>
      <trkpt lat="43.40599" lon="6.07294">
        <ele>215.80000305176</ele>
        <time>2015-06-24T12:05:38Z</time>
      </trkpt>
      <trkpt lat="43.40599" lon="6.07294">
        <ele>215.60000610352</ele>
        <time>2015-06-24T12:05:40Z</time>
      </trkpt>
      <trkpt lat="43.40598" lon="6.07294">
        <ele>215.80000305176</ele>
        <time>2015-06-24T12:05:42Z</time>
      </trkpt>
      <trkpt lat="43.40599" lon="6.07294">
        <ele>215.80000305176</ele>
        <time>2015-06-24T12:05:44Z</time>
      </trkpt>
      <trkpt lat="43.40599" lon="6.07294">
        <ele>215.80000305176</ele>
        <time>2015-06-24T12:05:48Z</time>
      </trkpt>
      <trkpt lat="43.40599" lon="6.07294">
        <ele>215.80000305176</ele>
        <time>2015-06-24T12:05:52Z</time>
      </trkpt>
      <trkpt lat="43.40598" lon="6.07294">
        <ele>215.80000305176</ele>
        <time>2015-06-24T12:05:54Z</time>
      </trkpt>
      <trkpt lat="43.40598" lon="6.07294">
        <ele>215.80000305176</ele>
        <time>2015-06-24T12:05:56Z</time>
      </trkpt>
      <trkpt lat="43.40598" lon="6.07294">
        <ele>215.39999389648</ele>
        <time>2015-06-24T12:06:00Z</time>
      </trkpt>
      <trkpt lat="43.40598" lon="6.07294">
        <ele>215.60000610352</ele>
        <time>2015-06-24T12:06:12Z</time>
      </trkpt>
      <trkpt lat="43.40598" lon="6.07294">
        <ele>215.60000610352</ele>
        <time>2015-06-24T12:06:16Z</time>
      </trkpt>
      <trkpt lat="43.40599" lon="6.07294">
        <ele>215.39999389648</ele>
        <time>2015-06-24T12:06:18Z</time>
      </trkpt>
      <trkpt lat="43.40598" lon="6.07294">
        <ele>215.39999389648</ele>
        <time>2015-06-24T12:06:20Z</time>
      </trkpt>
      <trkpt lat="43.40598" lon="6.07294">
        <ele>215.39999389648</ele>
        <time>2015-06-24T12:06:22Z</time>
      </trkpt>
      <trkpt lat="43.40598" lon="6.07294">
        <ele>215.39999389648</ele>
        <time>2015-06-24T12:06:26Z</time>
      </trkpt>
      <trkpt lat="43.40598" lon="6.07294">
        <ele>215.39999389648</ele>
        <time>2015-06-24T12:06:30Z</time>
      </trkpt>
      <trkpt lat="43.40598" lon="6.07294">
        <ele>215.39999389648</ele>
        <time>2015-06-24T12:06:34Z</time>
      </trkpt>
      <trkpt lat="43.40598" lon="6.07294">
        <ele>215.60000610352</ele>
        <time>2015-06-24T12:06:37Z</time>
      </trkpt>
      <trkpt lat="43.40598" lon="6.07294">
        <ele>215.80000305176</ele>
        <time>2015-06-24T12:06:38Z</time>
      </trkpt>
      <trkpt lat="43.40597" lon="6.07293">
        <ele>215.60000610352</ele>
        <time>2015-06-24T12:06:40Z</time>
      </trkpt>
      <trkpt lat="43.40595" lon="6.07291">
        <ele>215.80000305176</ele>
        <time>2015-06-24T12:06:41Z</time>
      </trkpt>
      <trkpt lat="43.40593" lon="6.07291">
        <ele>216</ele>
        <time>2015-06-24T12:06:42Z</time>
      </trkpt>
      <trkpt lat="43.40588" lon="6.07292">
        <ele>216</ele>
        <time>2015-06-24T12:06:44Z</time>
      </trkpt>
      <trkpt lat="43.40582" lon="6.07295">
        <ele>216.19999694824</ele>
        <time>2015-06-24T12:06:46Z</time>
      </trkpt>
      <trkpt lat="43.40579" lon="6.07298">
        <ele>216.19999694824</ele>
        <time>2015-06-24T12:06:47Z</time>
      </trkpt>
      <trkpt lat="43.40575" lon="6.07299">
        <ele>216</ele>
        <time>2015-06-24T12:06:48Z</time>
      </trkpt>
      <trkpt lat="43.40567" lon="6.07299">
        <ele>216.39999389648</ele>
        <time>2015-06-24T12:06:50Z</time>
      </trkpt>
      <trkpt lat="43.40559" lon="6.07298">
        <ele>216.60000610352</ele>
        <time>2015-06-24T12:06:52Z</time>
      </trkpt>
      <trkpt lat="43.40551" lon="6.07297">
        <ele>217</ele>
        <time>2015-06-24T12:06:54Z</time>
      </trkpt>
      <trkpt lat="43.40542" lon="6.07295">
        <ele>217.39999389648</ele>
        <time>2015-06-24T12:06:56Z</time>
      </trkpt>
      <trkpt lat="43.40533" lon="6.07293">
        <ele>217.80000305176</ele>
        <time>2015-06-24T12:06:58Z</time>
      </trkpt>
      <trkpt lat="43.40516" lon="6.07284">
        <ele>218</ele>
        <time>2015-06-24T12:07:02Z</time>
      </trkpt>
      <trkpt lat="43.40508" lon="6.0728">
        <ele>218</ele>
        <time>2015-06-24T12:07:04Z</time>
      </trkpt>
      <trkpt lat="43.40499" lon="6.07276">
        <ele>218</ele>
        <time>2015-06-24T12:07:06Z</time>
      </trkpt>
      <trkpt lat="43.40491" lon="6.07274">
        <ele>218</ele>
        <time>2015-06-24T12:07:08Z</time>
      </trkpt>
      <trkpt lat="43.40487" lon="6.07273">
        <ele>218.19999694824</ele>
        <time>2015-06-24T12:07:09Z</time>
      </trkpt>
      <trkpt lat="43.40479" lon="6.07273">
        <ele>218.39999389648</ele>
        <time>2015-06-24T12:07:11Z</time>
      </trkpt>
      <trkpt lat="43.40474" lon="6.07274">
        <ele>218.60000610352</ele>
        <time>2015-06-24T12:07:12Z</time>
      </trkpt>
      <trkpt lat="43.40466" lon="6.07274">
        <ele>218.80000305176</ele>
        <time>2015-06-24T12:07:14Z</time>
      </trkpt>
      <trkpt lat="43.40458" lon="6.07275">
        <ele>219</ele>
        <time>2015-06-24T12:07:16Z</time>
      </trkpt>
      <trkpt lat="43.40451" lon="6.07275">
        <ele>219.19999694824</ele>
        <time>2015-06-24T12:07:18Z</time>
      </trkpt>
      <trkpt lat="43.40435" lon="6.07277">
        <ele>220.19999694824</ele>
        <time>2015-06-24T12:07:22Z</time>
      </trkpt>
      <trkpt lat="43.40428" lon="6.07277">
        <ele>220.60000610352</ele>
        <time>2015-06-24T12:07:24Z</time>
      </trkpt>
      <trkpt lat="43.40424" lon="6.07277">
        <ele>220.80000305176</ele>
        <time>2015-06-24T12:07:25Z</time>
      </trkpt>
      <trkpt lat="43.40416" lon="6.07278">
        <ele>221</ele>
        <time>2015-06-24T12:07:27Z</time>
      </trkpt>
      <trkpt lat="43.40405" lon="6.07276">
        <ele>221.19999694824</ele>
        <time>2015-06-24T12:07:30Z</time>
      </trkpt>
      <trkpt lat="43.40402" lon="6.07273">
        <ele>221.39999389648</ele>
        <time>2015-06-24T12:07:31Z</time>
      </trkpt>
      <trkpt lat="43.40399" lon="6.0727">
        <ele>221.60000610352</ele>
        <time>2015-06-24T12:07:32Z</time>
      </trkpt>
      <trkpt lat="43.40395" lon="6.07262">
        <ele>221.80000305176</ele>
        <time>2015-06-24T12:07:34Z</time>
      </trkpt>
      <trkpt lat="43.40393" lon="6.07257">
        <ele>221.80000305176</ele>
        <time>2015-06-24T12:07:35Z</time>
      </trkpt>
      <trkpt lat="43.4039" lon="6.07253">
        <ele>222</ele>
        <time>2015-06-24T12:07:36Z</time>
      </trkpt>
      <trkpt lat="43.40387" lon="6.07249">
        <ele>222</ele>
        <time>2015-06-24T12:07:37Z</time>
      </trkpt>
      <trkpt lat="43.40384" lon="6.07246">
        <ele>222.39999389648</ele>
        <time>2015-06-24T12:07:38Z</time>
      </trkpt>
      <trkpt lat="43.40376" lon="6.07242">
        <ele>222.60000610352</ele>
        <time>2015-06-24T12:07:40Z</time>
      </trkpt>
      <trkpt lat="43.40367" lon="6.07241">
        <ele>222.60000610352</ele>
        <time>2015-06-24T12:07:42Z</time>
      </trkpt>
      <trkpt lat="43.40353" lon="6.0723">
        <ele>223</ele>
        <time>2015-06-24T12:07:46Z</time>
      </trkpt>
      <trkpt lat="43.40346" lon="6.07225">
        <ele>223</ele>
        <time>2015-06-24T12:07:48Z</time>
      </trkpt>
      <trkpt lat="43.40339" lon="6.07222">
        <ele>223.80000305176</ele>
        <time>2015-06-24T12:07:50Z</time>
      </trkpt>
      <trkpt lat="43.40335" lon="6.0722">
        <ele>223.80000305176</ele>
        <time>2015-06-24T12:07:51Z</time>
      </trkpt>
      <trkpt lat="43.40331" lon="6.07218">
        <ele>223.60000610352</ele>
        <time>2015-06-24T12:07:52Z</time>
      </trkpt>
      <trkpt lat="43.40327" lon="6.07217">
        <ele>223.80000305176</ele>
        <time>2015-06-24T12:07:53Z</time>
      </trkpt>
      <trkpt lat="43.40316" lon="6.07212">
        <ele>224.19999694824</ele>
        <time>2015-06-24T12:07:56Z</time>
      </trkpt>
      <trkpt lat="43.40308" lon="6.07209">
        <ele>224.39999389648</ele>
        <time>2015-06-24T12:07:58Z</time>
      </trkpt>
      <trkpt lat="43.40302" lon="6.07205">
        <ele>224.60000610352</ele>
        <time>2015-06-24T12:08:00Z</time>
      </trkpt>
      <trkpt lat="43.40295" lon="6.07199">
        <ele>224.80000305176</ele>
        <time>2015-06-24T12:08:02Z</time>
      </trkpt>
      <trkpt lat="43.40289" lon="6.07193">
        <ele>225</ele>
        <time>2015-06-24T12:08:04Z</time>
      </trkpt>
      <trkpt lat="43.40284" lon="6.07185">
        <ele>225</ele>
        <time>2015-06-24T12:08:06Z</time>
      </trkpt>
      <trkpt lat="43.40277" lon="6.07176">
        <ele>225.19999694824</ele>
        <time>2015-06-24T12:08:08Z</time>
      </trkpt>
      <trkpt lat="43.40275" lon="6.07171">
        <ele>225.19999694824</ele>
        <time>2015-06-24T12:08:09Z</time>
      </trkpt>
      <trkpt lat="43.40273" lon="6.07166">
        <ele>225.19999694824</ele>
        <time>2015-06-24T12:08:10Z</time>
      </trkpt>
      <trkpt lat="43.40271" lon="6.07153">
        <ele>225</ele>
        <time>2015-06-24T12:08:12Z</time>
      </trkpt>
      <trkpt lat="43.40271" lon="6.07145">
        <ele>225</ele>
        <time>2015-06-24T12:08:13Z</time>
      </trkpt>
      <trkpt lat="43.40271" lon="6.07138">
        <ele>224.80000305176</ele>
        <time>2015-06-24T12:08:14Z</time>
      </trkpt>
      <trkpt lat="43.40271" lon="6.07123">
        <ele>225</ele>
        <time>2015-06-24T12:08:16Z</time>
      </trkpt>
      <trkpt lat="43.40271" lon="6.07108">
        <ele>224.39999389648</ele>
        <time>2015-06-24T12:08:18Z</time>
      </trkpt>
      <trkpt lat="43.40271" lon="6.07093">
        <ele>224.80000305176</ele>
        <time>2015-06-24T12:08:20Z</time>
      </trkpt>
      <trkpt lat="43.40271" lon="6.07064">
        <ele>224.80000305176</ele>
        <time>2015-06-24T12:08:24Z</time>
      </trkpt>
      <trkpt lat="43.40271" lon="6.0705">
        <ele>225.19999694824</ele>
        <time>2015-06-24T12:08:26Z</time>
      </trkpt>
      <trkpt lat="43.4027" lon="6.07037">
        <ele>225.19999694824</ele>
        <time>2015-06-24T12:08:28Z</time>
      </trkpt>
      <trkpt lat="43.4027" lon="6.07024">
        <ele>225</ele>
        <time>2015-06-24T12:08:30Z</time>
      </trkpt>
      <trkpt lat="43.4027" lon="6.06998">
        <ele>225.60000610352</ele>
        <time>2015-06-24T12:08:34Z</time>
      </trkpt>
      <trkpt lat="43.40271" lon="6.06986">
        <ele>225.60000610352</ele>
        <time>2015-06-24T12:08:36Z</time>
      </trkpt>
      <trkpt lat="43.40271" lon="6.06973">
        <ele>225.60000610352</ele>
        <time>2015-06-24T12:08:38Z</time>
      </trkpt>
      <trkpt lat="43.40271" lon="6.06954">
        <ele>226</ele>
        <time>2015-06-24T12:08:41Z</time>
      </trkpt>
      <trkpt lat="43.40271" lon="6.06948">
        <ele>226</ele>
        <time>2015-06-24T12:08:42Z</time>
      </trkpt>
      <trkpt lat="43.40271" lon="6.06935">
        <ele>226.19999694824</ele>
        <time>2015-06-24T12:08:44Z</time>
      </trkpt>
      <trkpt lat="43.40271" lon="6.06923">
        <ele>226.39999389648</ele>
        <time>2015-06-24T12:08:46Z</time>
      </trkpt>
      <trkpt lat="43.40271" lon="6.06911">
        <ele>226.60000610352</ele>
        <time>2015-06-24T12:08:48Z</time>
      </trkpt>
      <trkpt lat="43.4027" lon="6.06899">
        <ele>226.80000305176</ele>
        <time>2015-06-24T12:08:50Z</time>
      </trkpt>
      <trkpt lat="43.4027" lon="6.06893">
        <ele>226.80000305176</ele>
        <time>2015-06-24T12:08:51Z</time>
      </trkpt>
      <trkpt lat="43.4027" lon="6.06887">
        <ele>227</ele>
        <time>2015-06-24T12:08:52Z</time>
      </trkpt>
      <trkpt lat="43.4027" lon="6.06877">
        <ele>227.19999694824</ele>
        <time>2015-06-24T12:08:54Z</time>
      </trkpt>
      <trkpt lat="43.4027" lon="6.06867">
        <ele>227.19999694824</ele>
        <time>2015-06-24T12:08:56Z</time>
      </trkpt>
      <trkpt lat="43.4027" lon="6.06864">
        <ele>227.19999694824</ele>
        <time>2015-06-24T12:08:57Z</time>
      </trkpt>
      <trkpt lat="43.40271" lon="6.06861">
        <ele>227.19999694824</ele>
        <time>2015-06-24T12:08:58Z</time>
      </trkpt>
      <trkpt lat="43.40269" lon="6.06856">
        <ele>227.39999389648</ele>
        <time>2015-06-24T12:09:00Z</time>
      </trkpt>
      <trkpt lat="43.40268" lon="6.06853">
        <ele>227.19999694824</ele>
        <time>2015-06-24T12:09:01Z</time>
      </trkpt>
      <trkpt lat="43.40262" lon="6.06843">
        <ele>227.60000610352</ele>
        <time>2015-06-24T12:09:04Z</time>
      </trkpt>
      <trkpt lat="43.40257" lon="6.06835">
        <ele>227.60000610352</ele>
        <time>2015-06-24T12:09:06Z</time>
      </trkpt>
      <trkpt lat="43.4025" lon="6.06827">
        <ele>227.80000305176</ele>
        <time>2015-06-24T12:09:08Z</time>
      </trkpt>
      <trkpt lat="43.40245" lon="6.06817">
        <ele>227.80000305176</ele>
        <time>2015-06-24T12:09:10Z</time>
      </trkpt>
      <trkpt lat="43.40243" lon="6.06812">
        <ele>228</ele>
        <time>2015-06-24T12:09:11Z</time>
      </trkpt>
      <trkpt lat="43.40239" lon="6.06802">
        <ele>228</ele>
        <time>2015-06-24T12:09:13Z</time>
      </trkpt>
      <trkpt lat="43.40236" lon="6.06797">
        <ele>228.19999694824</ele>
        <time>2015-06-24T12:09:14Z</time>
      </trkpt>
      <trkpt lat="43.40232" lon="6.06786">
        <ele>228.39999389648</ele>
        <time>2015-06-24T12:09:16Z</time>
      </trkpt>
      <trkpt lat="43.40229" lon="6.06775">
        <ele>228.39999389648</ele>
        <time>2015-06-24T12:09:18Z</time>
      </trkpt>
      <trkpt lat="43.40224" lon="6.06764">
        <ele>228.60000610352</ele>
        <time>2015-06-24T12:09:20Z</time>
      </trkpt>
      <trkpt lat="43.40216" lon="6.06741">
        <ele>228.80000305176</ele>
        <time>2015-06-24T12:09:24Z</time>
      </trkpt>
      <trkpt lat="43.40208" lon="6.06717">
        <ele>228.80000305176</ele>
        <time>2015-06-24T12:09:28Z</time>
      </trkpt>
      <trkpt lat="43.40205" lon="6.06703">
        <ele>229</ele>
        <time>2015-06-24T12:09:30Z</time>
      </trkpt>
      <trkpt lat="43.40203" lon="6.06689">
        <ele>229</ele>
        <time>2015-06-24T12:09:32Z</time>
      </trkpt>
      <trkpt lat="43.40203" lon="6.06682">
        <ele>229.19999694824</ele>
        <time>2015-06-24T12:09:33Z</time>
      </trkpt>
      <trkpt lat="43.40203" lon="6.06668">
        <ele>228.60000610352</ele>
        <time>2015-06-24T12:09:35Z</time>
      </trkpt>
      <trkpt lat="43.40204" lon="6.06662">
        <ele>228.60000610352</ele>
        <time>2015-06-24T12:09:36Z</time>
      </trkpt>
      <trkpt lat="43.40205" lon="6.06655">
        <ele>228.60000610352</ele>
        <time>2015-06-24T12:09:37Z</time>
      </trkpt>
      <trkpt lat="43.40207" lon="6.06648">
        <ele>228.60000610352</ele>
        <time>2015-06-24T12:09:38Z</time>
      </trkpt>
      <trkpt lat="43.40211" lon="6.06634">
        <ele>228.80000305176</ele>
        <time>2015-06-24T12:09:40Z</time>
      </trkpt>
      <trkpt lat="43.40214" lon="6.06629">
        <ele>229</ele>
        <time>2015-06-24T12:09:41Z</time>
      </trkpt>
      <trkpt lat="43.40218" lon="6.06623">
        <ele>229</ele>
        <time>2015-06-24T12:09:42Z</time>
      </trkpt>
      <trkpt lat="43.40226" lon="6.06613">
        <ele>228.60000610352</ele>
        <time>2015-06-24T12:09:44Z</time>
      </trkpt>
      <trkpt lat="43.40232" lon="6.06602">
        <ele>228.60000610352</ele>
        <time>2015-06-24T12:09:46Z</time>
      </trkpt>
      <trkpt lat="43.40235" lon="6.06596">
        <ele>228.80000305176</ele>
        <time>2015-06-24T12:09:47Z</time>
      </trkpt>
      <trkpt lat="43.40239" lon="6.06585">
        <ele>229</ele>
        <time>2015-06-24T12:09:49Z</time>
      </trkpt>
      <trkpt lat="43.40239" lon="6.06579">
        <ele>229</ele>
        <time>2015-06-24T12:09:50Z</time>
      </trkpt>
      <trkpt lat="43.40237" lon="6.06575">
        <ele>229.19999694824</ele>
        <time>2015-06-24T12:09:51Z</time>
      </trkpt>
      <trkpt lat="43.40235" lon="6.0657">
        <ele>229.39999389648</ele>
        <time>2015-06-24T12:09:52Z</time>
      </trkpt>
      <trkpt lat="43.40232" lon="6.06566">
        <ele>229.60000610352</ele>
        <time>2015-06-24T12:09:53Z</time>
      </trkpt>
      <trkpt lat="43.40229" lon="6.06562">
        <ele>229.60000610352</ele>
        <time>2015-06-24T12:09:54Z</time>
      </trkpt>
      <trkpt lat="43.40224" lon="6.06551">
        <ele>229.80000305176</ele>
        <time>2015-06-24T12:09:56Z</time>
      </trkpt>
      <trkpt lat="43.40217" lon="6.06542">
        <ele>230</ele>
        <time>2015-06-24T12:09:58Z</time>
      </trkpt>
      <trkpt lat="43.40214" lon="6.06537">
        <ele>230</ele>
        <time>2015-06-24T12:09:59Z</time>
      </trkpt>
      <trkpt lat="43.40211" lon="6.06532">
        <ele>230.19999694824</ele>
        <time>2015-06-24T12:10:00Z</time>
      </trkpt>
      <trkpt lat="43.40199" lon="6.06509">
        <ele>230.60000610352</ele>
        <time>2015-06-24T12:10:04Z</time>
      </trkpt>
      <trkpt lat="43.40192" lon="6.06499">
        <ele>230.60000610352</ele>
        <time>2015-06-24T12:10:06Z</time>
      </trkpt>
      <trkpt lat="43.40179" lon="6.06484">
        <ele>230.60000610352</ele>
        <time>2015-06-24T12:10:09Z</time>
      </trkpt>
      <trkpt lat="43.40174" lon="6.0648">
        <ele>230.60000610352</ele>
        <time>2015-06-24T12:10:10Z</time>
      </trkpt>
      <trkpt lat="43.40166" lon="6.0647">
        <ele>230.80000305176</ele>
        <time>2015-06-24T12:10:12Z</time>
      </trkpt>
      <trkpt lat="43.40157" lon="6.0646">
        <ele>230.80000305176</ele>
        <time>2015-06-24T12:10:14Z</time>
      </trkpt>
      <trkpt lat="43.40149" lon="6.0645">
        <ele>230.80000305176</ele>
        <time>2015-06-24T12:10:16Z</time>
      </trkpt>
      <trkpt lat="43.40142" lon="6.06438">
        <ele>230.80000305176</ele>
        <time>2015-06-24T12:10:18Z</time>
      </trkpt>
      <trkpt lat="43.40136" lon="6.06426">
        <ele>231</ele>
        <time>2015-06-24T12:10:20Z</time>
      </trkpt>
      <trkpt lat="43.40129" lon="6.06414">
        <ele>231.19999694824</ele>
        <time>2015-06-24T12:10:22Z</time>
      </trkpt>
      <trkpt lat="43.40117" lon="6.0639">
        <ele>231.19999694824</ele>
        <time>2015-06-24T12:10:26Z</time>
      </trkpt>
      <trkpt lat="43.40112" lon="6.06377">
        <ele>231.19999694824</ele>
        <time>2015-06-24T12:10:28Z</time>
      </trkpt>
      <trkpt lat="43.40108" lon="6.06371">
        <ele>231.19999694824</ele>
        <time>2015-06-24T12:10:29Z</time>
      </trkpt>
      <trkpt lat="43.40106" lon="6.06366">
        <ele>231.60000610352</ele>
        <time>2015-06-24T12:10:30Z</time>
      </trkpt>
      <trkpt lat="43.401" lon="6.06357">
        <ele>231.39999389648</ele>
        <time>2015-06-24T12:10:32Z</time>
      </trkpt>
      <trkpt lat="43.40096" lon="6.06348">
        <ele>231.60000610352</ele>
        <time>2015-06-24T12:10:34Z</time>
      </trkpt>
      <trkpt lat="43.40091" lon="6.0634">
        <ele>231.60000610352</ele>
        <time>2015-06-24T12:10:36Z</time>
      </trkpt>
      <trkpt lat="43.40088" lon="6.06334">
        <ele>231.39999389648</ele>
        <time>2015-06-24T12:10:38Z</time>
      </trkpt>
      <trkpt lat="43.40087" lon="6.06332">
        <ele>231.39999389648</ele>
        <time>2015-06-24T12:10:39Z</time>
      </trkpt>
      <trkpt lat="43.40087" lon="6.0633">
        <ele>231.39999389648</ele>
        <time>2015-06-24T12:10:40Z</time>
      </trkpt>
      <trkpt lat="43.40086" lon="6.06328">
        <ele>231.19999694824</ele>
        <time>2015-06-24T12:10:42Z</time>
      </trkpt>
      <trkpt lat="43.40085" lon="6.06326">
        <ele>231</ele>
        <time>2015-06-24T12:10:44Z</time>
      </trkpt>
      <trkpt lat="43.40083" lon="6.06324">
        <ele>231.19999694824</ele>
        <time>2015-06-24T12:10:46Z</time>
      </trkpt>
      <trkpt lat="43.40083" lon="6.06328">
        <ele>231.19999694824</ele>
        <time>2015-06-24T12:10:48Z</time>
      </trkpt>
      <trkpt lat="43.40085" lon="6.06329">
        <ele>231.39999389648</ele>
        <time>2015-06-24T12:10:50Z</time>
      </trkpt>
      <trkpt lat="43.40086" lon="6.06327">
        <ele>231.19999694824</ele>
        <time>2015-06-24T12:10:52Z</time>
      </trkpt>
      <trkpt lat="43.40086" lon="6.06327">
        <ele>231</ele>
        <time>2015-06-24T12:10:54Z</time>
      </trkpt>
      <trkpt lat="43.40086" lon="6.06327">
        <ele>231</ele>
        <time>2015-06-24T12:10:56Z</time>
      </trkpt>
      <trkpt lat="43.40086" lon="6.06327">
        <ele>231.19999694824</ele>
        <time>2015-06-24T12:10:58Z</time>
      </trkpt>
      <trkpt lat="43.40086" lon="6.06327">
        <ele>231</ele>
        <time>2015-06-24T12:11:10Z</time>
      </trkpt>
      <trkpt lat="43.40086" lon="6.06327">
        <ele>230.60000610352</ele>
        <time>2015-06-24T12:11:12Z</time>
      </trkpt>
      <trkpt lat="43.40086" lon="6.06327">
        <ele>230.80000305176</ele>
        <time>2015-06-24T12:11:20Z</time>
      </trkpt>
      <trkpt lat="43.40086" lon="6.06327">
        <ele>230.80000305176</ele>
        <time>2015-06-24T12:11:26Z</time>
      </trkpt>
      <trkpt lat="43.40086" lon="6.06327">
        <ele>231</ele>
        <time>2015-06-24T12:11:36Z</time>
      </trkpt>
      <trkpt lat="43.40086" lon="6.06327">
        <ele>231</ele>
        <time>2015-06-24T12:11:40Z</time>
      </trkpt>
      <trkpt lat="43.40086" lon="6.06326">
        <ele>231</ele>
        <time>2015-06-24T12:11:41Z</time>
      </trkpt>
      <trkpt lat="43.40086" lon="6.06326">
        <ele>231</ele>
        <time>2015-06-24T12:11:42Z</time>
      </trkpt>
      <trkpt lat="43.40088" lon="6.06324">
        <ele>231</ele>
        <time>2015-06-24T12:11:44Z</time>
      </trkpt>
      <trkpt lat="43.40092" lon="6.06324">
        <ele>230.80000305176</ele>
        <time>2015-06-24T12:11:46Z</time>
      </trkpt>
      <trkpt lat="43.40099" lon="6.06325">
        <ele>230.60000610352</ele>
        <time>2015-06-24T12:11:48Z</time>
      </trkpt>
      <trkpt lat="43.40106" lon="6.06326">
        <ele>230.60000610352</ele>
        <time>2015-06-24T12:11:50Z</time>
      </trkpt>
      <trkpt lat="43.40112" lon="6.06327">
        <ele>230.19999694824</ele>
        <time>2015-06-24T12:11:52Z</time>
      </trkpt>
      <trkpt lat="43.40115" lon="6.06327">
        <ele>230.19999694824</ele>
        <time>2015-06-24T12:11:54Z</time>
      </trkpt>
      <trkpt lat="43.40118" lon="6.06327">
        <ele>230</ele>
        <time>2015-06-24T12:11:56Z</time>
      </trkpt>
      <trkpt lat="43.40118" lon="6.06327">
        <ele>230</ele>
        <time>2015-06-24T12:11:57Z</time>
      </trkpt>
      <trkpt lat="43.40119" lon="6.06327">
        <ele>230</ele>
        <time>2015-06-24T12:11:58Z</time>
      </trkpt>
      <trkpt lat="43.40119" lon="6.06327">
        <ele>230</ele>
        <time>2015-06-24T12:12:00Z</time>
      </trkpt>
      <trkpt lat="43.40119" lon="6.06327">
        <ele>229.80000305176</ele>
        <time>2015-06-24T12:12:04Z</time>
      </trkpt>
      <trkpt lat="43.40119" lon="6.06326">
        <ele>229.80000305176</ele>
        <time>2015-06-24T12:12:11Z</time>
      </trkpt>
      <trkpt lat="43.40119" lon="6.06326">
        <ele>229.80000305176</ele>
        <time>2015-06-24T12:12:16Z</time>
      </trkpt>
      <trkpt lat="43.40119" lon="6.06326">
        <ele>229.60000610352</ele>
        <time>2015-06-24T12:12:20Z</time>
      </trkpt>
      <trkpt lat="43.4012" lon="6.06327">
        <ele>229.60000610352</ele>
        <time>2015-06-24T12:12:22Z</time>
      </trkpt>
      <trkpt lat="43.40123" lon="6.06328">
        <ele>229.80000305176</ele>
        <time>2015-06-24T12:12:24Z</time>
      </trkpt>
      <trkpt lat="43.40125" lon="6.06327">
        <ele>229.80000305176</ele>
        <time>2015-06-24T12:12:26Z</time>
      </trkpt>
      <trkpt lat="43.40126" lon="6.06326">
        <ele>230</ele>
        <time>2015-06-24T12:12:27Z</time>
      </trkpt>
      <trkpt lat="43.40127" lon="6.06326">
        <ele>230</ele>
        <time>2015-06-24T12:12:28Z</time>
      </trkpt>
      <trkpt lat="43.40129" lon="6.06328">
        <ele>230</ele>
        <time>2015-06-24T12:12:30Z</time>
      </trkpt>
      <trkpt lat="43.40129" lon="6.06328">
        <ele>230</ele>
        <time>2015-06-24T12:12:32Z</time>
      </trkpt>
      <trkpt lat="43.40129" lon="6.06328">
        <ele>230</ele>
        <time>2015-06-24T12:12:34Z</time>
      </trkpt>
      <trkpt lat="43.40129" lon="6.06328">
        <ele>229.80000305176</ele>
        <time>2015-06-24T12:12:36Z</time>
      </trkpt>
      <trkpt lat="43.40129" lon="6.06328">
        <ele>229.80000305176</ele>
        <time>2015-06-24T12:12:38Z</time>
      </trkpt>
      <trkpt lat="43.40129" lon="6.06328">
        <ele>229.80000305176</ele>
        <time>2015-06-24T12:12:46Z</time>
      </trkpt>
      <trkpt lat="43.40129" lon="6.06328">
        <ele>230</ele>
        <time>2015-06-24T12:12:52Z</time>
      </trkpt>
      <trkpt lat="43.40129" lon="6.06328">
        <ele>229.80000305176</ele>
        <time>2015-06-24T12:12:58Z</time>
      </trkpt>
      <trkpt lat="43.40129" lon="6.06328">
        <ele>229.80000305176</ele>
        <time>2015-06-24T12:13:16Z</time>
      </trkpt>
      <trkpt lat="43.40129" lon="6.06328">
        <ele>229.60000610352</ele>
        <time>2015-06-24T12:13:18Z</time>
      </trkpt>
      <trkpt lat="43.40129" lon="6.06328">
        <ele>229.60000610352</ele>
        <time>2015-06-24T12:13:20Z</time>
      </trkpt>
      <trkpt lat="43.40129" lon="6.06328">
        <ele>229.80000305176</ele>
        <time>2015-06-24T12:13:26Z</time>
      </trkpt>
      <trkpt lat="43.40129" lon="6.06328">
        <ele>229.80000305176</ele>
        <time>2015-06-24T12:13:30Z</time>
      </trkpt>
      <trkpt lat="43.40129" lon="6.06328">
        <ele>229.80000305176</ele>
        <time>2015-06-24T12:13:34Z</time>
      </trkpt>
      <trkpt lat="43.40129" lon="6.06328">
        <ele>230</ele>
        <time>2015-06-24T12:13:36Z</time>
      </trkpt>
      <trkpt lat="43.40129" lon="6.06328">
        <ele>230</ele>
        <time>2015-06-24T12:13:38Z</time>
      </trkpt>
      <trkpt lat="43.40129" lon="6.06328">
        <ele>230</ele>
        <time>2015-06-24T12:13:42Z</time>
      </trkpt>
      <trkpt lat="43.40129" lon="6.06328">
        <ele>229.60000610352</ele>
        <time>2015-06-24T12:13:50Z</time>
      </trkpt>
      <trkpt lat="43.40129" lon="6.06328">
        <ele>229.39999389648</ele>
        <time>2015-06-24T12:14:20Z</time>
      </trkpt>
      <trkpt lat="43.40129" lon="6.06328">
        <ele>229.39999389648</ele>
        <time>2015-06-24T12:14:22Z</time>
      </trkpt>
      <trkpt lat="43.40129" lon="6.06328">
        <ele>229.60000610352</ele>
        <time>2015-06-24T12:14:24Z</time>
      </trkpt>
      <trkpt lat="43.40129" lon="6.06328">
        <ele>229.39999389648</ele>
        <time>2015-06-24T12:14:28Z</time>
      </trkpt>
      <trkpt lat="43.40129" lon="6.06328">
        <ele>229.80000305176</ele>
        <time>2015-06-24T12:15:42Z</time>
      </trkpt>
      <trkpt lat="43.40129" lon="6.06328">
        <ele>229.80000305176</ele>
        <time>2015-06-24T12:16:02Z</time>
      </trkpt>
      <trkpt lat="43.40129" lon="6.06328">
        <ele>229.80000305176</ele>
        <time>2015-06-24T12:16:08Z</time>
      </trkpt>
      <trkpt lat="43.40129" lon="6.06328">
        <ele>229.80000305176</ele>
        <time>2015-06-24T12:16:14Z</time>
      </trkpt>
      <trkpt lat="43.40129" lon="6.06329">
        <ele>229.80000305176</ele>
        <time>2015-06-24T12:16:16Z</time>
      </trkpt>
      <trkpt lat="43.40129" lon="6.06329">
        <ele>229.80000305176</ele>
        <time>2015-06-24T12:16:18Z</time>
      </trkpt>
      <trkpt lat="43.40129" lon="6.06329">
        <ele>229.80000305176</ele>
        <time>2015-06-24T12:16:20Z</time>
      </trkpt>
      <trkpt lat="43.40129" lon="6.06329">
        <ele>229.80000305176</ele>
        <time>2015-06-24T12:16:22Z</time>
      </trkpt>
      <trkpt lat="43.40129" lon="6.06329">
        <ele>229.80000305176</ele>
        <time>2015-06-24T12:16:24Z</time>
      </trkpt>
      <trkpt lat="43.40129" lon="6.06329">
        <ele>229.80000305176</ele>
        <time>2015-06-24T12:16:26Z</time>
      </trkpt>
      <trkpt lat="43.40129" lon="6.06329">
        <ele>229.80000305176</ele>
        <time>2015-06-24T12:16:28Z</time>
      </trkpt>
      <trkpt lat="43.40129" lon="6.06329">
        <ele>230</ele>
        <time>2015-06-24T12:16:33Z</time>
      </trkpt>
      <trkpt lat="43.40129" lon="6.06329">
        <ele>229.80000305176</ele>
        <time>2015-06-24T12:16:44Z</time>
      </trkpt>
      <trkpt lat="43.40129" lon="6.06329">
        <ele>230</ele>
        <time>2015-06-24T12:16:48Z</time>
      </trkpt>
      <trkpt lat="43.40129" lon="6.06329">
        <ele>230</ele>
        <time>2015-06-24T12:16:50Z</time>
      </trkpt>
      <trkpt lat="43.40129" lon="6.06329">
        <ele>230</ele>
        <time>2015-06-24T12:16:56Z</time>
      </trkpt>
      <trkpt lat="43.40129" lon="6.06329">
        <ele>230</ele>
        <time>2015-06-24T12:17:04Z</time>
      </trkpt>
      <trkpt lat="43.40129" lon="6.06329">
        <ele>230</ele>
        <time>2015-06-24T12:17:26Z</time>
      </trkpt>
      <trkpt lat="43.40129" lon="6.06329">
        <ele>230.19999694824</ele>
        <time>2015-06-24T12:17:28Z</time>
      </trkpt>
      <trkpt lat="43.40129" lon="6.06329">
        <ele>229.80000305176</ele>
        <time>2015-06-24T12:17:34Z</time>
      </trkpt>
      <trkpt lat="43.40129" lon="6.06329">
        <ele>229.80000305176</ele>
        <time>2015-06-24T12:18:20Z</time>
      </trkpt>
      <trkpt lat="43.40129" lon="6.06329">
        <ele>229.80000305176</ele>
        <time>2015-06-24T12:18:28Z</time>
      </trkpt>
      <trkpt lat="43.40129" lon="6.06329">
        <ele>229.80000305176</ele>
        <time>2015-06-24T12:18:34Z</time>
      </trkpt>
      <trkpt lat="43.40129" lon="6.06329">
        <ele>230</ele>
        <time>2015-06-24T12:18:52Z</time>
      </trkpt>
      <trkpt lat="43.40129" lon="6.06329">
        <ele>230</ele>
        <time>2015-06-24T12:18:58Z</time>
      </trkpt>
      <trkpt lat="43.40129" lon="6.06329">
        <ele>229.60000610352</ele>
        <time>2015-06-24T12:19:06Z</time>
      </trkpt>
      <trkpt lat="43.40129" lon="6.06329">
        <ele>229.39999389648</ele>
        <time>2015-06-24T12:19:14Z</time>
      </trkpt>
      <trkpt lat="43.40129" lon="6.06329">
        <ele>229.39999389648</ele>
        <time>2015-06-24T12:19:54Z</time>
      </trkpt>
      <trkpt lat="43.40129" lon="6.06329">
        <ele>229.60000610352</ele>
        <time>2015-06-24T12:20:02Z</time>
      </trkpt>
      <trkpt lat="43.40129" lon="6.06329">
        <ele>229.60000610352</ele>
        <time>2015-06-24T12:20:06Z</time>
      </trkpt>
      <trkpt lat="43.40129" lon="6.0633">
        <ele>229.60000610352</ele>
        <time>2015-06-24T12:20:16Z</time>
      </trkpt>
      <trkpt lat="43.40129" lon="6.0633">
        <ele>229.60000610352</ele>
        <time>2015-06-24T12:20:18Z</time>
      </trkpt>
      <trkpt lat="43.40129" lon="6.0633">
        <ele>229.60000610352</ele>
        <time>2015-06-24T12:20:20Z</time>
      </trkpt>
      <trkpt lat="43.40129" lon="6.0633">
        <ele>229.39999389648</ele>
        <time>2015-06-24T12:20:22Z</time>
      </trkpt>
      <trkpt lat="43.40129" lon="6.0633">
        <ele>229.60000610352</ele>
        <time>2015-06-24T12:20:28Z</time>
      </trkpt>
      <trkpt lat="43.40129" lon="6.0633">
        <ele>229.60000610352</ele>
        <time>2015-06-24T12:20:30Z</time>
      </trkpt>
      <trkpt lat="43.40129" lon="6.0633">
        <ele>229.60000610352</ele>
        <time>2015-06-24T12:20:32Z</time>
      </trkpt>
      <trkpt lat="43.40129" lon="6.0633">
        <ele>229.60000610352</ele>
        <time>2015-06-24T12:20:33Z</time>
      </trkpt>
      <trkpt lat="43.40129" lon="6.0633">
        <ele>229.60000610352</ele>
        <time>2015-06-24T12:20:34Z</time>
      </trkpt>
      <trkpt lat="43.40129" lon="6.0633">
        <ele>229.60000610352</ele>
        <time>2015-06-24T12:20:36Z</time>
      </trkpt>
      <trkpt lat="43.40129" lon="6.0633">
        <ele>229.60000610352</ele>
        <time>2015-06-24T12:20:38Z</time>
      </trkpt>
      <trkpt lat="43.40129" lon="6.0633">
        <ele>229.60000610352</ele>
        <time>2015-06-24T12:20:40Z</time>
      </trkpt>
      <trkpt lat="43.40129" lon="6.0633">
        <ele>229.80000305176</ele>
        <time>2015-06-24T12:20:42Z</time>
      </trkpt>
      <trkpt lat="43.40129" lon="6.0633">
        <ele>229.80000305176</ele>
        <time>2015-06-24T12:20:44Z</time>
      </trkpt>
      <trkpt lat="43.40129" lon="6.0633">
        <ele>229.80000305176</ele>
        <time>2015-06-24T12:20:46Z</time>
      </trkpt>
      <trkpt lat="43.40129" lon="6.0633">
        <ele>230</ele>
        <time>2015-06-24T12:20:48Z</time>
      </trkpt>
      <trkpt lat="43.40129" lon="6.0633">
        <ele>229.60000610352</ele>
        <time>2015-06-24T12:20:50Z</time>
      </trkpt>
      <trkpt lat="43.40129" lon="6.0633">
        <ele>229.60000610352</ele>
        <time>2015-06-24T12:20:52Z</time>
      </trkpt>
      <trkpt lat="43.40129" lon="6.0633">
        <ele>229.80000305176</ele>
        <time>2015-06-24T12:20:53Z</time>
      </trkpt>
      <trkpt lat="43.40129" lon="6.0633">
        <ele>229.80000305176</ele>
        <time>2015-06-24T12:20:58Z</time>
      </trkpt>
      <trkpt lat="43.40129" lon="6.0633">
        <ele>229.80000305176</ele>
        <time>2015-06-24T12:21:02Z</time>
      </trkpt>
      <trkpt lat="43.40129" lon="6.0633">
        <ele>230</ele>
        <time>2015-06-24T12:21:04Z</time>
      </trkpt>
      <trkpt lat="43.40129" lon="6.0633">
        <ele>230</ele>
        <time>2015-06-24T12:21:06Z</time>
      </trkpt>
      <trkpt lat="43.40129" lon="6.0633">
        <ele>230</ele>
        <time>2015-06-24T12:21:08Z</time>
      </trkpt>
      <trkpt lat="43.40129" lon="6.0633">
        <ele>230</ele>
        <time>2015-06-24T12:21:10Z</time>
      </trkpt>
      <trkpt lat="43.40129" lon="6.0633">
        <ele>230</ele>
        <time>2015-06-24T12:21:12Z</time>
      </trkpt>
      <trkpt lat="43.40129" lon="6.0633">
        <ele>230.19999694824</ele>
        <time>2015-06-24T12:21:18Z</time>
      </trkpt>
      <trkpt lat="43.40129" lon="6.0633">
        <ele>230.39999389648</ele>
        <time>2015-06-24T12:21:20Z</time>
      </trkpt>
      <trkpt lat="43.40129" lon="6.0633">
        <ele>230.19999694824</ele>
        <time>2015-06-24T12:21:22Z</time>
      </trkpt>
      <trkpt lat="43.40129" lon="6.0633">
        <ele>230.19999694824</ele>
        <time>2015-06-24T12:21:24Z</time>
      </trkpt>
      <trkpt lat="43.40129" lon="6.0633">
        <ele>230.19999694824</ele>
        <time>2015-06-24T12:21:26Z</time>
      </trkpt>
      <trkpt lat="43.40129" lon="6.0633">
        <ele>230.60000610352</ele>
        <time>2015-06-24T12:21:30Z</time>
      </trkpt>
      <trkpt lat="43.40129" lon="6.0633">
        <ele>230.60000610352</ele>
        <time>2015-06-24T12:21:33Z</time>
      </trkpt>
      <trkpt lat="43.40129" lon="6.0633">
        <ele>230.39999389648</ele>
        <time>2015-06-24T12:21:40Z</time>
      </trkpt>
      <trkpt lat="43.40129" lon="6.0633">
        <ele>230.19999694824</ele>
        <time>2015-06-24T12:21:50Z</time>
      </trkpt>
      <trkpt lat="43.40129" lon="6.06329">
        <ele>230</ele>
        <time>2015-06-24T12:22:18Z</time>
      </trkpt>
      <trkpt lat="43.40129" lon="6.06329">
        <ele>230</ele>
        <time>2015-06-24T12:22:20Z</time>
      </trkpt>
      <trkpt lat="43.40129" lon="6.06329">
        <ele>229.80000305176</ele>
        <time>2015-06-24T12:22:22Z</time>
      </trkpt>
      <trkpt lat="43.40129" lon="6.06329">
        <ele>230</ele>
        <time>2015-06-24T12:22:24Z</time>
      </trkpt>
      <trkpt lat="43.40129" lon="6.06329">
        <ele>230</ele>
        <time>2015-06-24T12:22:28Z</time>
      </trkpt>
      <trkpt lat="43.40129" lon="6.06329">
        <ele>230</ele>
        <time>2015-06-24T12:22:30Z</time>
      </trkpt>
      <trkpt lat="43.40129" lon="6.06329">
        <ele>229.80000305176</ele>
        <time>2015-06-24T12:22:32Z</time>
      </trkpt>
      <trkpt lat="43.40129" lon="6.06329">
        <ele>229.80000305176</ele>
        <time>2015-06-24T12:22:38Z</time>
      </trkpt>
      <trkpt lat="43.40129" lon="6.0633">
        <ele>229.60000610352</ele>
        <time>2015-06-24T12:22:44Z</time>
      </trkpt>
      <trkpt lat="43.40129" lon="6.0633">
        <ele>229.60000610352</ele>
        <time>2015-06-24T12:22:50Z</time>
      </trkpt>
      <trkpt lat="43.40129" lon="6.0633">
        <ele>229.60000610352</ele>
        <time>2015-06-24T12:22:54Z</time>
      </trkpt>
      <trkpt lat="43.40129" lon="6.0633">
        <ele>229.60000610352</ele>
        <time>2015-06-24T12:22:56Z</time>
      </trkpt>
      <trkpt lat="43.40129" lon="6.0633">
        <ele>229.60000610352</ele>
        <time>2015-06-24T12:22:58Z</time>
      </trkpt>
      <trkpt lat="43.40129" lon="6.0633">
        <ele>229.60000610352</ele>
        <time>2015-06-24T12:23:00Z</time>
      </trkpt>
      <trkpt lat="43.40129" lon="6.0633">
        <ele>229.60000610352</ele>
        <time>2015-06-24T12:23:02Z</time>
      </trkpt>
      <trkpt lat="43.40129" lon="6.0633">
        <ele>229.60000610352</ele>
        <time>2015-06-24T12:23:04Z</time>
      </trkpt>
      <trkpt lat="43.40129" lon="6.0633">
        <ele>229.80000305176</ele>
        <time>2015-06-24T12:23:06Z</time>
      </trkpt>
      <trkpt lat="43.40129" lon="6.0633">
        <ele>229.80000305176</ele>
        <time>2015-06-24T12:23:08Z</time>
      </trkpt>
      <trkpt lat="43.40129" lon="6.0633">
        <ele>229.60000610352</ele>
        <time>2015-06-24T12:23:14Z</time>
      </trkpt>
      <trkpt lat="43.40129" lon="6.0633">
        <ele>230</ele>
        <time>2015-06-24T12:23:18Z</time>
      </trkpt>
      <trkpt lat="43.40129" lon="6.0633">
        <ele>230</ele>
        <time>2015-06-24T12:23:20Z</time>
      </trkpt>
      <trkpt lat="43.40129" lon="6.0633">
        <ele>229.80000305176</ele>
        <time>2015-06-24T12:23:22Z</time>
      </trkpt>
      <trkpt lat="43.40129" lon="6.0633">
        <ele>229.80000305176</ele>
        <time>2015-06-24T12:23:24Z</time>
      </trkpt>
      <trkpt lat="43.40129" lon="6.0633">
        <ele>230</ele>
        <time>2015-06-24T12:23:28Z</time>
      </trkpt>
      <trkpt lat="43.40129" lon="6.0633">
        <ele>229.80000305176</ele>
        <time>2015-06-24T12:23:34Z</time>
      </trkpt>
      <trkpt lat="43.40129" lon="6.0633">
        <ele>229.80000305176</ele>
        <time>2015-06-24T12:23:36Z</time>
      </trkpt>
      <trkpt lat="43.40129" lon="6.0633">
        <ele>229.60000610352</ele>
        <time>2015-06-24T12:23:38Z</time>
      </trkpt>
      <trkpt lat="43.40129" lon="6.0633">
        <ele>229.60000610352</ele>
        <time>2015-06-24T12:23:40Z</time>
      </trkpt>
      <trkpt lat="43.40129" lon="6.0633">
        <ele>229.60000610352</ele>
        <time>2015-06-24T12:23:42Z</time>
      </trkpt>
      <trkpt lat="43.40129" lon="6.0633">
        <ele>229.60000610352</ele>
        <time>2015-06-24T12:23:44Z</time>
      </trkpt>
      <trkpt lat="43.40129" lon="6.0633">
        <ele>229.60000610352</ele>
        <time>2015-06-24T12:23:46Z</time>
      </trkpt>
      <trkpt lat="43.40129" lon="6.0633">
        <ele>229.60000610352</ele>
        <time>2015-06-24T12:23:48Z</time>
      </trkpt>
      <trkpt lat="43.40129" lon="6.06331">
        <ele>229.60000610352</ele>
        <time>2015-06-24T12:23:50Z</time>
      </trkpt>
      <trkpt lat="43.40128" lon="6.06331">
        <ele>229.60000610352</ele>
        <time>2015-06-24T12:23:52Z</time>
      </trkpt>
      <trkpt lat="43.40129" lon="6.06331">
        <ele>229.60000610352</ele>
        <time>2015-06-24T12:23:54Z</time>
      </trkpt>
      <trkpt lat="43.40129" lon="6.06331">
        <ele>230</ele>
        <time>2015-06-24T12:23:58Z</time>
      </trkpt>
      <trkpt lat="43.40129" lon="6.06331">
        <ele>229.60000610352</ele>
        <time>2015-06-24T12:24:02Z</time>
      </trkpt>
      <trkpt lat="43.40129" lon="6.06331">
        <ele>229.60000610352</ele>
        <time>2015-06-24T12:24:08Z</time>
      </trkpt>
      <trkpt lat="43.40129" lon="6.06331">
        <ele>229.60000610352</ele>
        <time>2015-06-24T12:25:06Z</time>
      </trkpt>
      <trkpt lat="43.40129" lon="6.06331">
        <ele>229.80000305176</ele>
        <time>2015-06-24T12:25:20Z</time>
      </trkpt>
      <trkpt lat="43.40129" lon="6.06331">
        <ele>229.80000305176</ele>
        <time>2015-06-24T12:25:26Z</time>
      </trkpt>
      <trkpt lat="43.40129" lon="6.06331">
        <ele>229.80000305176</ele>
        <time>2015-06-24T12:25:28Z</time>
      </trkpt>
      <trkpt lat="43.40129" lon="6.06331">
        <ele>229.80000305176</ele>
        <time>2015-06-24T12:25:32Z</time>
      </trkpt>
      <trkpt lat="43.40129" lon="6.06331">
        <ele>229.60000610352</ele>
        <time>2015-06-24T12:26:02Z</time>
      </trkpt>
      <trkpt lat="43.40129" lon="6.06331">
        <ele>229.60000610352</ele>
        <time>2015-06-24T12:26:12Z</time>
      </trkpt>
      <trkpt lat="43.40129" lon="6.06331">
        <ele>229.80000305176</ele>
        <time>2015-06-24T12:26:58Z</time>
      </trkpt>
      <trkpt lat="43.40129" lon="6.06331">
        <ele>229.60000610352</ele>
        <time>2015-06-24T12:27:01Z</time>
      </trkpt>
      <trkpt lat="43.40129" lon="6.06331">
        <ele>229.39999389648</ele>
        <time>2015-06-24T12:27:06Z</time>
      </trkpt>
      <trkpt lat="43.40129" lon="6.06331">
        <ele>229.60000610352</ele>
        <time>2015-06-24T12:27:20Z</time>
      </trkpt>
      <trkpt lat="43.40129" lon="6.06331">
        <ele>229.60000610352</ele>
        <time>2015-06-24T12:27:24Z</time>
      </trkpt>
      <trkpt lat="43.40128" lon="6.06331">
        <ele>229.60000610352</ele>
        <time>2015-06-24T12:27:26Z</time>
      </trkpt>
      <trkpt lat="43.40128" lon="6.06331">
        <ele>229.60000610352</ele>
        <time>2015-06-24T12:27:28Z</time>
      </trkpt>
      <trkpt lat="43.40128" lon="6.06331">
        <ele>229.80000305176</ele>
        <time>2015-06-24T12:27:30Z</time>
      </trkpt>
      <trkpt lat="43.40129" lon="6.06331">
        <ele>229.80000305176</ele>
        <time>2015-06-24T12:27:34Z</time>
      </trkpt>
      <trkpt lat="43.40128" lon="6.06331">
        <ele>229.80000305176</ele>
        <time>2015-06-24T12:27:36Z</time>
      </trkpt>
      <trkpt lat="43.40128" lon="6.06332">
        <ele>229.80000305176</ele>
        <time>2015-06-24T12:27:40Z</time>
      </trkpt>
      <trkpt lat="43.40128" lon="6.06332">
        <ele>230</ele>
        <time>2015-06-24T12:27:44Z</time>
      </trkpt>
      <trkpt lat="43.40128" lon="6.06332">
        <ele>229.60000610352</ele>
        <time>2015-06-24T12:27:54Z</time>
      </trkpt>
      <trkpt lat="43.40128" lon="6.06332">
        <ele>229.60000610352</ele>
        <time>2015-06-24T12:28:14Z</time>
      </trkpt>
      <trkpt lat="43.40129" lon="6.06332">
        <ele>229.60000610352</ele>
        <time>2015-06-24T12:28:16Z</time>
      </trkpt>
      <trkpt lat="43.40128" lon="6.06332">
        <ele>229.80000305176</ele>
        <time>2015-06-24T12:28:18Z</time>
      </trkpt>
      <trkpt lat="43.40129" lon="6.06332">
        <ele>229.60000610352</ele>
        <time>2015-06-24T12:28:20Z</time>
      </trkpt>
      <trkpt lat="43.40129" lon="6.06332">
        <ele>229.60000610352</ele>
        <time>2015-06-24T12:28:21Z</time>
      </trkpt>
      <trkpt lat="43.40129" lon="6.06332">
        <ele>230</ele>
        <time>2015-06-24T12:28:26Z</time>
      </trkpt>
      <trkpt lat="43.40129" lon="6.06332">
        <ele>230</ele>
        <time>2015-06-24T12:28:36Z</time>
      </trkpt>
      <trkpt lat="43.40129" lon="6.06332">
        <ele>230</ele>
        <time>2015-06-24T12:28:40Z</time>
      </trkpt>
      <trkpt lat="43.40129" lon="6.06332">
        <ele>230</ele>
        <time>2015-06-24T12:28:44Z</time>
      </trkpt>
      <trkpt lat="43.40128" lon="6.06332">
        <ele>230</ele>
        <time>2015-06-24T12:28:46Z</time>
      </trkpt>
      <trkpt lat="43.40128" lon="6.06332">
        <ele>229.80000305176</ele>
        <time>2015-06-24T12:28:48Z</time>
      </trkpt>
      <trkpt lat="43.40128" lon="6.06332">
        <ele>230</ele>
        <time>2015-06-24T12:28:52Z</time>
      </trkpt>
      <trkpt lat="43.40128" lon="6.06332">
        <ele>230</ele>
        <time>2015-06-24T12:28:54Z</time>
      </trkpt>
      <trkpt lat="43.40128" lon="6.06332">
        <ele>230</ele>
        <time>2015-06-24T12:28:58Z</time>
      </trkpt>
      <trkpt lat="43.40129" lon="6.06332">
        <ele>229.80000305176</ele>
        <time>2015-06-24T12:29:02Z</time>
      </trkpt>
      <trkpt lat="43.40128" lon="6.06332">
        <ele>230</ele>
        <time>2015-06-24T12:29:06Z</time>
      </trkpt>
      <trkpt lat="43.40128" lon="6.06332">
        <ele>229.80000305176</ele>
        <time>2015-06-24T12:29:12Z</time>
      </trkpt>
      <trkpt lat="43.40128" lon="6.06332">
        <ele>230</ele>
        <time>2015-06-24T12:29:18Z</time>
      </trkpt>
      <trkpt lat="43.40128" lon="6.06332">
        <ele>229.60000610352</ele>
        <time>2015-06-24T12:29:26Z</time>
      </trkpt>
      <trkpt lat="43.40128" lon="6.06332">
        <ele>229.39999389648</ele>
        <time>2015-06-24T12:29:30Z</time>
      </trkpt>
      <trkpt lat="43.40129" lon="6.06332">
        <ele>229.60000610352</ele>
        <time>2015-06-24T12:29:32Z</time>
      </trkpt>
      <trkpt lat="43.40128" lon="6.06332">
        <ele>229.80000305176</ele>
        <time>2015-06-24T12:29:34Z</time>
      </trkpt>
      <trkpt lat="43.40128" lon="6.06332">
        <ele>230</ele>
        <time>2015-06-24T12:29:38Z</time>
      </trkpt>
      <trkpt lat="43.40128" lon="6.06332">
        <ele>229.60000610352</ele>
        <time>2015-06-24T12:29:43Z</time>
      </trkpt>
      <trkpt lat="43.40128" lon="6.06332">
        <ele>229.19999694824</ele>
        <time>2015-06-24T12:29:56Z</time>
      </trkpt>
      <trkpt lat="43.40128" lon="6.06332">
        <ele>229.39999389648</ele>
        <time>2015-06-24T12:30:00Z</time>
      </trkpt>
      <trkpt lat="43.40128" lon="6.06332">
        <ele>229.39999389648</ele>
        <time>2015-06-24T12:30:04Z</time>
      </trkpt>
      <trkpt lat="43.40128" lon="6.06332">
        <ele>229.39999389648</ele>
        <time>2015-06-24T12:30:22Z</time>
      </trkpt>
      <trkpt lat="43.40128" lon="6.06332">
        <ele>229.39999389648</ele>
        <time>2015-06-24T12:30:24Z</time>
      </trkpt>
      <trkpt lat="43.40128" lon="6.06332">
        <ele>229.39999389648</ele>
        <time>2015-06-24T12:30:30Z</time>
      </trkpt>
      <trkpt lat="43.40128" lon="6.06332">
        <ele>229.39999389648</ele>
        <time>2015-06-24T12:30:42Z</time>
      </trkpt>
      <trkpt lat="43.40128" lon="6.06332">
        <ele>229.19999694824</ele>
        <time>2015-06-24T12:30:46Z</time>
      </trkpt>
      <trkpt lat="43.40129" lon="6.06332">
        <ele>229.19999694824</ele>
        <time>2015-06-24T12:30:48Z</time>
      </trkpt>
      <trkpt lat="43.40128" lon="6.06332">
        <ele>229.39999389648</ele>
        <time>2015-06-24T12:30:50Z</time>
      </trkpt>
      <trkpt lat="43.40128" lon="6.06332">
        <ele>229.39999389648</ele>
        <time>2015-06-24T12:30:52Z</time>
      </trkpt>
      <trkpt lat="43.40128" lon="6.06332">
        <ele>229.60000610352</ele>
        <time>2015-06-24T12:30:56Z</time>
      </trkpt>
      <trkpt lat="43.40128" lon="6.06332">
        <ele>229.39999389648</ele>
        <time>2015-06-24T12:31:00Z</time>
      </trkpt>
      <trkpt lat="43.40128" lon="6.06332">
        <ele>229.39999389648</ele>
        <time>2015-06-24T12:31:04Z</time>
      </trkpt>
      <trkpt lat="43.40129" lon="6.06332">
        <ele>229.39999389648</ele>
        <time>2015-06-24T12:31:06Z</time>
      </trkpt>
      <trkpt lat="43.40129" lon="6.06332">
        <ele>229.39999389648</ele>
        <time>2015-06-24T12:31:10Z</time>
      </trkpt>
      <trkpt lat="43.40129" lon="6.06332">
        <ele>229.39999389648</ele>
        <time>2015-06-24T12:31:12Z</time>
      </trkpt>
      <trkpt lat="43.40128" lon="6.06332">
        <ele>229.39999389648</ele>
        <time>2015-06-24T12:31:14Z</time>
      </trkpt>
      <trkpt lat="43.40128" lon="6.06332">
        <ele>229.60000610352</ele>
        <time>2015-06-24T12:31:16Z</time>
      </trkpt>
      <trkpt lat="43.40129" lon="6.06332">
        <ele>229.60000610352</ele>
        <time>2015-06-24T12:31:18Z</time>
      </trkpt>
      <trkpt lat="43.40128" lon="6.06332">
        <ele>229.39999389648</ele>
        <time>2015-06-24T12:31:20Z</time>
      </trkpt>
      <trkpt lat="43.40129" lon="6.06332">
        <ele>229.39999389648</ele>
        <time>2015-06-24T12:31:22Z</time>
      </trkpt>
      <trkpt lat="43.40128" lon="6.06332">
        <ele>229.39999389648</ele>
        <time>2015-06-24T12:31:24Z</time>
      </trkpt>
      <trkpt lat="43.40128" lon="6.06332">
        <ele>229.60000610352</ele>
        <time>2015-06-24T12:31:30Z</time>
      </trkpt>
      <trkpt lat="43.40128" lon="6.06332">
        <ele>229.19999694824</ele>
        <time>2015-06-24T12:31:56Z</time>
      </trkpt>
      <trkpt lat="43.40128" lon="6.06332">
        <ele>229</ele>
        <time>2015-06-24T12:32:06Z</time>
      </trkpt>
      <trkpt lat="43.40128" lon="6.06332">
        <ele>229.19999694824</ele>
        <time>2015-06-24T12:32:14Z</time>
      </trkpt>
      <trkpt lat="43.40128" lon="6.06332">
        <ele>229.19999694824</ele>
        <time>2015-06-24T12:32:50Z</time>
      </trkpt>
      <trkpt lat="43.40128" lon="6.06332">
        <ele>229.19999694824</ele>
        <time>2015-06-24T12:32:58Z</time>
      </trkpt>
      <trkpt lat="43.40128" lon="6.06332">
        <ele>229.39999389648</ele>
        <time>2015-06-24T12:33:02Z</time>
      </trkpt>
      <trkpt lat="43.40129" lon="6.06332">
        <ele>229.39999389648</ele>
        <time>2015-06-24T12:33:04Z</time>
      </trkpt>
      <trkpt lat="43.40128" lon="6.06332">
        <ele>229.19999694824</ele>
        <time>2015-06-24T12:33:06Z</time>
      </trkpt>
      <trkpt lat="43.40128" lon="6.06332">
        <ele>229.39999389648</ele>
        <time>2015-06-24T12:33:08Z</time>
      </trkpt>
      <trkpt lat="43.40128" lon="6.06332">
        <ele>229.39999389648</ele>
        <time>2015-06-24T12:33:12Z</time>
      </trkpt>
      <trkpt lat="43.40128" lon="6.06332">
        <ele>229.39999389648</ele>
        <time>2015-06-24T12:33:18Z</time>
      </trkpt>
      <trkpt lat="43.40128" lon="6.06332">
        <ele>229.19999694824</ele>
        <time>2015-06-24T12:33:20Z</time>
      </trkpt>
      <trkpt lat="43.40129" lon="6.06332">
        <ele>228.80000305176</ele>
        <time>2015-06-24T12:33:22Z</time>
      </trkpt>
      <trkpt lat="43.40129" lon="6.06332">
        <ele>229</ele>
        <time>2015-06-24T12:33:24Z</time>
      </trkpt>
      <trkpt lat="43.40128" lon="6.06332">
        <ele>229.19999694824</ele>
        <time>2015-06-24T12:33:26Z</time>
      </trkpt>
      <trkpt lat="43.40128" lon="6.06332">
        <ele>229.19999694824</ele>
        <time>2015-06-24T12:33:32Z</time>
      </trkpt>
      <trkpt lat="43.40128" lon="6.06332">
        <ele>229.19999694824</ele>
        <time>2015-06-24T12:33:38Z</time>
      </trkpt>
      <trkpt lat="43.40128" lon="6.06332">
        <ele>229.39999389648</ele>
        <time>2015-06-24T12:35:06Z</time>
      </trkpt>
      <trkpt lat="43.40128" lon="6.06332">
        <ele>229.19999694824</ele>
        <time>2015-06-24T12:35:26Z</time>
      </trkpt>
      <trkpt lat="43.40128" lon="6.06332">
        <ele>229.39999389648</ele>
        <time>2015-06-24T12:35:54Z</time>
      </trkpt>
      <trkpt lat="43.40128" lon="6.06332">
        <ele>229.19999694824</ele>
        <time>2015-06-24T12:36:03Z</time>
      </trkpt>
      <trkpt lat="43.40128" lon="6.06332">
        <ele>229.19999694824</ele>
        <time>2015-06-24T12:36:08Z</time>
      </trkpt>
      <trkpt lat="43.40128" lon="6.06332">
        <ele>229.39999389648</ele>
        <time>2015-06-24T12:36:20Z</time>
      </trkpt>
      <trkpt lat="43.40128" lon="6.06332">
        <ele>229.39999389648</ele>
        <time>2015-06-24T12:36:23Z</time>
      </trkpt>
      <trkpt lat="43.40128" lon="6.06333">
        <ele>229.19999694824</ele>
        <time>2015-06-24T12:36:25Z</time>
      </trkpt>
      <trkpt lat="43.40126" lon="6.06334">
        <ele>229.19999694824</ele>
        <time>2015-06-24T12:36:26Z</time>
      </trkpt>
      <trkpt lat="43.40124" lon="6.06335">
        <ele>229.39999389648</ele>
        <time>2015-06-24T12:36:28Z</time>
      </trkpt>
      <trkpt lat="43.40117" lon="6.06337">
        <ele>229.39999389648</ele>
        <time>2015-06-24T12:36:32Z</time>
      </trkpt>
      <trkpt lat="43.40115" lon="6.06337">
        <ele>229.19999694824</ele>
        <time>2015-06-24T12:36:33Z</time>
      </trkpt>
      <trkpt lat="43.40113" lon="6.06337">
        <ele>229</ele>
        <time>2015-06-24T12:36:34Z</time>
      </trkpt>
      <trkpt lat="43.40109" lon="6.06336">
        <ele>229.39999389648</ele>
        <time>2015-06-24T12:36:36Z</time>
      </trkpt>
      <trkpt lat="43.40105" lon="6.06333">
        <ele>229.60000610352</ele>
        <time>2015-06-24T12:36:38Z</time>
      </trkpt>
      <trkpt lat="43.40102" lon="6.06329">
        <ele>230</ele>
        <time>2015-06-24T12:36:40Z</time>
      </trkpt>
      <trkpt lat="43.401" lon="6.06327">
        <ele>230.19999694824</ele>
        <time>2015-06-24T12:36:41Z</time>
      </trkpt>
      <trkpt lat="43.40098" lon="6.06325">
        <ele>230.19999694824</ele>
        <time>2015-06-24T12:36:42Z</time>
      </trkpt>
      <trkpt lat="43.40094" lon="6.06324">
        <ele>230</ele>
        <time>2015-06-24T12:36:44Z</time>
      </trkpt>
      <trkpt lat="43.40092" lon="6.06324">
        <ele>230.19999694824</ele>
        <time>2015-06-24T12:36:45Z</time>
      </trkpt>
      <trkpt lat="43.40091" lon="6.06324">
        <ele>230.39999389648</ele>
        <time>2015-06-24T12:36:46Z</time>
      </trkpt>
      <trkpt lat="43.4009" lon="6.06324">
        <ele>230.39999389648</ele>
        <time>2015-06-24T12:36:48Z</time>
      </trkpt>
      <trkpt lat="43.40091" lon="6.06324">
        <ele>230.60000610352</ele>
        <time>2015-06-24T12:36:50Z</time>
      </trkpt>
      <trkpt lat="43.40091" lon="6.06324">
        <ele>230.60000610352</ele>
        <time>2015-06-24T12:36:52Z</time>
      </trkpt>
      <trkpt lat="43.40091" lon="6.06324">
        <ele>230.60000610352</ele>
        <time>2015-06-24T12:36:54Z</time>
      </trkpt>
      <trkpt lat="43.4009" lon="6.06323">
        <ele>230.60000610352</ele>
        <time>2015-06-24T12:36:56Z</time>
      </trkpt>
      <trkpt lat="43.40089" lon="6.06324">
        <ele>230.60000610352</ele>
        <time>2015-06-24T12:36:58Z</time>
      </trkpt>
      <trkpt lat="43.40089" lon="6.06325">
        <ele>230.60000610352</ele>
        <time>2015-06-24T12:37:00Z</time>
      </trkpt>
      <trkpt lat="43.40089" lon="6.06327">
        <ele>230.80000305176</ele>
        <time>2015-06-24T12:37:02Z</time>
      </trkpt>
      <trkpt lat="43.40088" lon="6.06327">
        <ele>230.80000305176</ele>
        <time>2015-06-24T12:37:04Z</time>
      </trkpt>
      <trkpt lat="43.40088" lon="6.06327">
        <ele>230.80000305176</ele>
        <time>2015-06-24T12:37:06Z</time>
      </trkpt>
      <trkpt lat="43.40087" lon="6.06326">
        <ele>231.19999694824</ele>
        <time>2015-06-24T12:37:10Z</time>
      </trkpt>
      <trkpt lat="43.40087" lon="6.06326">
        <ele>231</ele>
        <time>2015-06-24T12:37:12Z</time>
      </trkpt>
      <trkpt lat="43.40087" lon="6.06325">
        <ele>230.80000305176</ele>
        <time>2015-06-24T12:37:14Z</time>
      </trkpt>
      <trkpt lat="43.40086" lon="6.06325">
        <ele>230.80000305176</ele>
        <time>2015-06-24T12:37:16Z</time>
      </trkpt>
      <trkpt lat="43.40085" lon="6.06323">
        <ele>230.80000305176</ele>
        <time>2015-06-24T12:37:18Z</time>
      </trkpt>
      <trkpt lat="43.40084" lon="6.0632">
        <ele>231</ele>
        <time>2015-06-24T12:37:20Z</time>
      </trkpt>
      <trkpt lat="43.40082" lon="6.06317">
        <ele>231</ele>
        <time>2015-06-24T12:37:22Z</time>
      </trkpt>
      <trkpt lat="43.4008" lon="6.06313">
        <ele>231.19999694824</ele>
        <time>2015-06-24T12:37:24Z</time>
      </trkpt>
      <trkpt lat="43.40078" lon="6.06307">
        <ele>231</ele>
        <time>2015-06-24T12:37:26Z</time>
      </trkpt>
      <trkpt lat="43.40076" lon="6.06302">
        <ele>231.19999694824</ele>
        <time>2015-06-24T12:37:28Z</time>
      </trkpt>
      <trkpt lat="43.40075" lon="6.06299">
        <ele>231.19999694824</ele>
        <time>2015-06-24T12:37:29Z</time>
      </trkpt>
      <trkpt lat="43.40075" lon="6.06296">
        <ele>231.39999389648</ele>
        <time>2015-06-24T12:37:30Z</time>
      </trkpt>
      <trkpt lat="43.40074" lon="6.0629">
        <ele>231.39999389648</ele>
        <time>2015-06-24T12:37:32Z</time>
      </trkpt>
      <trkpt lat="43.40072" lon="6.06283">
        <ele>231.60000610352</ele>
        <time>2015-06-24T12:37:34Z</time>
      </trkpt>
      <trkpt lat="43.4007" lon="6.06277">
        <ele>231.80000305176</ele>
        <time>2015-06-24T12:37:36Z</time>
      </trkpt>
      <trkpt lat="43.40068" lon="6.06271">
        <ele>231.60000610352</ele>
        <time>2015-06-24T12:37:38Z</time>
      </trkpt>
      <trkpt lat="43.40067" lon="6.06265">
        <ele>232</ele>
        <time>2015-06-24T12:37:40Z</time>
      </trkpt>
      <trkpt lat="43.40065" lon="6.06261">
        <ele>232.39999389648</ele>
        <time>2015-06-24T12:37:42Z</time>
      </trkpt>
      <trkpt lat="43.40064" lon="6.06259">
        <ele>232.39999389648</ele>
        <time>2015-06-24T12:37:43Z</time>
      </trkpt>
      <trkpt lat="43.40063" lon="6.06258">
        <ele>232.60000610352</ele>
        <time>2015-06-24T12:37:44Z</time>
      </trkpt>
      <trkpt lat="43.4006" lon="6.06257">
        <ele>232.39999389648</ele>
        <time>2015-06-24T12:37:46Z</time>
      </trkpt>
      <trkpt lat="43.40056" lon="6.06257">
        <ele>232.39999389648</ele>
        <time>2015-06-24T12:37:48Z</time>
      </trkpt>
      <trkpt lat="43.40051" lon="6.06257">
        <ele>232.39999389648</ele>
        <time>2015-06-24T12:37:50Z</time>
      </trkpt>
      <trkpt lat="43.40046" lon="6.06258">
        <ele>232.60000610352</ele>
        <time>2015-06-24T12:37:52Z</time>
      </trkpt>
      <trkpt lat="43.40039" lon="6.06257">
        <ele>233.19999694824</ele>
        <time>2015-06-24T12:37:54Z</time>
      </trkpt>
      <trkpt lat="43.40036" lon="6.06258">
        <ele>233.19999694824</ele>
        <time>2015-06-24T12:37:55Z</time>
      </trkpt>
      <trkpt lat="43.40033" lon="6.06258">
        <ele>233.19999694824</ele>
        <time>2015-06-24T12:37:56Z</time>
      </trkpt>
      <trkpt lat="43.40021" lon="6.06259">
        <ele>233.39999389648</ele>
        <time>2015-06-24T12:38:00Z</time>
      </trkpt>
      <trkpt lat="43.40015" lon="6.06259">
        <ele>233.39999389648</ele>
        <time>2015-06-24T12:38:02Z</time>
      </trkpt>
      <trkpt lat="43.40009" lon="6.06259">
        <ele>233.60000610352</ele>
        <time>2015-06-24T12:38:04Z</time>
      </trkpt>
      <trkpt lat="43.39998" lon="6.0626">
        <ele>233.80000305176</ele>
        <time>2015-06-24T12:38:08Z</time>
      </trkpt>
      <trkpt lat="43.39995" lon="6.0626">
        <ele>233.60000610352</ele>
        <time>2015-06-24T12:38:09Z</time>
      </trkpt>
      <trkpt lat="43.39992" lon="6.0626">
        <ele>233.60000610352</ele>
        <time>2015-06-24T12:38:10Z</time>
      </trkpt>
      <trkpt lat="43.39986" lon="6.06261">
        <ele>233.80000305176</ele>
        <time>2015-06-24T12:38:12Z</time>
      </trkpt>
      <trkpt lat="43.39979" lon="6.06259">
        <ele>234</ele>
        <time>2015-06-24T12:38:14Z</time>
      </trkpt>
      <trkpt lat="43.39976" lon="6.06257">
        <ele>234</ele>
        <time>2015-06-24T12:38:15Z</time>
      </trkpt>
      <trkpt lat="43.39972" lon="6.06255">
        <ele>234</ele>
        <time>2015-06-24T12:38:16Z</time>
      </trkpt>
      <trkpt lat="43.39967" lon="6.06251">
        <ele>234.39999389648</ele>
        <time>2015-06-24T12:38:18Z</time>
      </trkpt>
      <trkpt lat="43.39962" lon="6.06247">
        <ele>234.60000610352</ele>
        <time>2015-06-24T12:38:20Z</time>
      </trkpt>
      <trkpt lat="43.3996" lon="6.06244">
        <ele>234.60000610352</ele>
        <time>2015-06-24T12:38:21Z</time>
      </trkpt>
      <trkpt lat="43.39958" lon="6.06241">
        <ele>234.19999694824</ele>
        <time>2015-06-24T12:38:22Z</time>
      </trkpt>
      <trkpt lat="43.39955" lon="6.06235">
        <ele>234.19999694824</ele>
        <time>2015-06-24T12:38:24Z</time>
      </trkpt>
      <trkpt lat="43.39947" lon="6.06214">
        <ele>235.19999694824</ele>
        <time>2015-06-24T12:38:30Z</time>
      </trkpt>
      <trkpt lat="43.39947" lon="6.06206">
        <ele>235.60000610352</ele>
        <time>2015-06-24T12:38:32Z</time>
      </trkpt>
      <trkpt lat="43.39948" lon="6.06198">
        <ele>235.60000610352</ele>
        <time>2015-06-24T12:38:34Z</time>
      </trkpt>
      <trkpt lat="43.39954" lon="6.06184">
        <ele>235.80000305176</ele>
        <time>2015-06-24T12:38:38Z</time>
      </trkpt>
      <trkpt lat="43.39957" lon="6.06176">
        <ele>235.60000610352</ele>
        <time>2015-06-24T12:38:40Z</time>
      </trkpt>
      <trkpt lat="43.3996" lon="6.06169">
        <ele>235.60000610352</ele>
        <time>2015-06-24T12:38:42Z</time>
      </trkpt>
      <trkpt lat="43.39965" lon="6.06164">
        <ele>236.80000305176</ele>
        <time>2015-06-24T12:38:44Z</time>
      </trkpt>
      <trkpt lat="43.39972" lon="6.06162">
        <ele>236.80000305176</ele>
        <time>2015-06-24T12:38:46Z</time>
      </trkpt>
      <trkpt lat="43.3998" lon="6.06162">
        <ele>235.80000305176</ele>
        <time>2015-06-24T12:38:48Z</time>
      </trkpt>
      <trkpt lat="43.39992" lon="6.06161">
        <ele>234.60000610352</ele>
        <time>2015-06-24T12:38:51Z</time>
      </trkpt>
      <trkpt lat="43.39997" lon="6.0616">
        <ele>234.19999694824</ele>
        <time>2015-06-24T12:38:52Z</time>
      </trkpt>
      <trkpt lat="43.40005" lon="6.06156">
        <ele>234.39999389648</ele>
        <time>2015-06-24T12:38:54Z</time>
      </trkpt>
      <trkpt lat="43.4001" lon="6.06155">
        <ele>234.80000305176</ele>
        <time>2015-06-24T12:38:55Z</time>
      </trkpt>
      <trkpt lat="43.40015" lon="6.06154">
        <ele>235.19999694824</ele>
        <time>2015-06-24T12:38:56Z</time>
      </trkpt>
      <trkpt lat="43.40029" lon="6.06159">
        <ele>234.39999389648</ele>
        <time>2015-06-24T12:38:59Z</time>
      </trkpt>
      <trkpt lat="43.40033" lon="6.06162">
        <ele>234.19999694824</ele>
        <time>2015-06-24T12:39:00Z</time>
      </trkpt>
      <trkpt lat="43.40043" lon="6.06166">
        <ele>233.19999694824</ele>
        <time>2015-06-24T12:39:02Z</time>
      </trkpt>
      <trkpt lat="43.40048" lon="6.06168">
        <ele>233</ele>
        <time>2015-06-24T12:39:03Z</time>
      </trkpt>
      <trkpt lat="43.40053" lon="6.06168">
        <ele>233.19999694824</ele>
        <time>2015-06-24T12:39:04Z</time>
      </trkpt>
      <trkpt lat="43.40058" lon="6.06168">
        <ele>233</ele>
        <time>2015-06-24T12:39:05Z</time>
      </trkpt>
      <trkpt lat="43.40063" lon="6.06168">
        <ele>232.60000610352</ele>
        <time>2015-06-24T12:39:06Z</time>
      </trkpt>
      <trkpt lat="43.40073" lon="6.06166">
        <ele>232.19999694824</ele>
        <time>2015-06-24T12:39:08Z</time>
      </trkpt>
      <trkpt lat="43.40081" lon="6.06165">
        <ele>231.80000305176</ele>
        <time>2015-06-24T12:39:10Z</time>
      </trkpt>
      <trkpt lat="43.40087" lon="6.06164">
        <ele>231.60000610352</ele>
        <time>2015-06-24T12:39:12Z</time>
      </trkpt>
      <trkpt lat="43.4009" lon="6.06163">
        <ele>231.60000610352</ele>
        <time>2015-06-24T12:39:14Z</time>
      </trkpt>
      <trkpt lat="43.4009" lon="6.06162">
        <ele>231.60000610352</ele>
        <time>2015-06-24T12:39:15Z</time>
      </trkpt>
      <trkpt lat="43.4009" lon="6.06162">
        <ele>231.39999389648</ele>
        <time>2015-06-24T12:39:16Z</time>
      </trkpt>
      <trkpt lat="43.40091" lon="6.06161">
        <ele>231.19999694824</ele>
        <time>2015-06-24T12:39:18Z</time>
      </trkpt>
      <trkpt lat="43.40091" lon="6.0616">
        <ele>231.19999694824</ele>
        <time>2015-06-24T12:39:21Z</time>
      </trkpt>
      <trkpt lat="43.40091" lon="6.0616">
        <ele>231.19999694824</ele>
        <time>2015-06-24T12:39:23Z</time>
      </trkpt>
      <trkpt lat="43.40091" lon="6.0616">
        <ele>231</ele>
        <time>2015-06-24T12:39:28Z</time>
      </trkpt>
      <trkpt lat="43.40091" lon="6.0616">
        <ele>231</ele>
        <time>2015-06-24T12:39:32Z</time>
      </trkpt>
      <trkpt lat="43.40091" lon="6.0616">
        <ele>231</ele>
        <time>2015-06-24T12:39:34Z</time>
      </trkpt>
      <trkpt lat="43.4009" lon="6.0616">
        <ele>231</ele>
        <time>2015-06-24T12:39:36Z</time>
      </trkpt>
      <trkpt lat="43.40089" lon="6.0616">
        <ele>230.80000305176</ele>
        <time>2015-06-24T12:39:38Z</time>
      </trkpt>
      <trkpt lat="43.40087" lon="6.06161">
        <ele>231</ele>
        <time>2015-06-24T12:39:40Z</time>
      </trkpt>
      <trkpt lat="43.40087" lon="6.06162">
        <ele>231</ele>
        <time>2015-06-24T12:39:41Z</time>
      </trkpt>
      <trkpt lat="43.40087" lon="6.06163">
        <ele>231</ele>
        <time>2015-06-24T12:39:42Z</time>
      </trkpt>
      <trkpt lat="43.40089" lon="6.06162">
        <ele>231</ele>
        <time>2015-06-24T12:39:44Z</time>
      </trkpt>
      <trkpt lat="43.4009" lon="6.06161">
        <ele>231.19999694824</ele>
        <time>2015-06-24T12:39:45Z</time>
      </trkpt>
      <trkpt lat="43.40091" lon="6.06161">
        <ele>231</ele>
        <time>2015-06-24T12:39:46Z</time>
      </trkpt>
      <trkpt lat="43.40091" lon="6.06159">
        <ele>231.19999694824</ele>
        <time>2015-06-24T12:39:48Z</time>
      </trkpt>
      <trkpt lat="43.40091" lon="6.06158">
        <ele>231</ele>
        <time>2015-06-24T12:39:50Z</time>
      </trkpt>
      <trkpt lat="43.40092" lon="6.06158">
        <ele>231</ele>
        <time>2015-06-24T12:39:51Z</time>
      </trkpt>
      <trkpt lat="43.40093" lon="6.06159">
        <ele>231</ele>
        <time>2015-06-24T12:39:52Z</time>
      </trkpt>
      <trkpt lat="43.40093" lon="6.06162">
        <ele>231</ele>
        <time>2015-06-24T12:39:54Z</time>
      </trkpt>
      <trkpt lat="43.40091" lon="6.06161">
        <ele>231.19999694824</ele>
        <time>2015-06-24T12:39:56Z</time>
      </trkpt>
      <trkpt lat="43.40091" lon="6.0616">
        <ele>231.19999694824</ele>
        <time>2015-06-24T12:39:57Z</time>
      </trkpt>
      <trkpt lat="43.40091" lon="6.06159">
        <ele>231</ele>
        <time>2015-06-24T12:39:58Z</time>
      </trkpt>
      <trkpt lat="43.40091" lon="6.06155">
        <ele>231</ele>
        <time>2015-06-24T12:40:00Z</time>
      </trkpt>
      <trkpt lat="43.40092" lon="6.06149">
        <ele>230.39999389648</ele>
        <time>2015-06-24T12:40:02Z</time>
      </trkpt>
      <trkpt lat="43.40092" lon="6.06147">
        <ele>229.39999389648</ele>
        <time>2015-06-24T12:40:03Z</time>
      </trkpt>
      <trkpt lat="43.40092" lon="6.06146">
        <ele>229</ele>
        <time>2015-06-24T12:40:04Z</time>
      </trkpt>
      <trkpt lat="43.40092" lon="6.06145">
        <ele>229.19999694824</ele>
        <time>2015-06-24T12:40:06Z</time>
      </trkpt>
      <trkpt lat="43.40093" lon="6.06142">
        <ele>229</ele>
        <time>2015-06-24T12:40:08Z</time>
      </trkpt>
      <trkpt lat="43.40093" lon="6.06137">
        <ele>228.80000305176</ele>
        <time>2015-06-24T12:40:10Z</time>
      </trkpt>
      <trkpt lat="43.40093" lon="6.06131">
        <ele>228.80000305176</ele>
        <time>2015-06-24T12:40:12Z</time>
      </trkpt>
      <trkpt lat="43.40093" lon="6.06123">
        <ele>228.39999389648</ele>
        <time>2015-06-24T12:40:14Z</time>
      </trkpt>
      <trkpt lat="43.40094" lon="6.06118">
        <ele>228.19999694824</ele>
        <time>2015-06-24T12:40:15Z</time>
      </trkpt>
      <trkpt lat="43.40094" lon="6.06112">
        <ele>228</ele>
        <time>2015-06-24T12:40:16Z</time>
      </trkpt>
      <trkpt lat="43.40094" lon="6.06101">
        <ele>228.19999694824</ele>
        <time>2015-06-24T12:40:18Z</time>
      </trkpt>
      <trkpt lat="43.40093" lon="6.06075">
        <ele>228.19999694824</ele>
        <time>2015-06-24T12:40:22Z</time>
      </trkpt>
      <trkpt lat="43.40092" lon="6.06061">
        <ele>228</ele>
        <time>2015-06-24T12:40:24Z</time>
      </trkpt>
      <trkpt lat="43.40092" lon="6.06046">
        <ele>227.60000610352</ele>
        <time>2015-06-24T12:40:26Z</time>
      </trkpt>
      <trkpt lat="43.40092" lon="6.06023">
        <ele>227.19999694824</ele>
        <time>2015-06-24T12:40:29Z</time>
      </trkpt>
      <trkpt lat="43.40092" lon="6.06015">
        <ele>226.60000610352</ele>
        <time>2015-06-24T12:40:30Z</time>
      </trkpt>
      <trkpt lat="43.40091" lon="6.05998">
        <ele>226.39999389648</ele>
        <time>2015-06-24T12:40:32Z</time>
      </trkpt>
      <trkpt lat="43.40091" lon="6.05982">
        <ele>226</ele>
        <time>2015-06-24T12:40:34Z</time>
      </trkpt>
      <trkpt lat="43.40091" lon="6.05973">
        <ele>225.39999389648</ele>
        <time>2015-06-24T12:40:35Z</time>
      </trkpt>
      <trkpt lat="43.40091" lon="6.05965">
        <ele>225.39999389648</ele>
        <time>2015-06-24T12:40:36Z</time>
      </trkpt>
      <trkpt lat="43.40091" lon="6.05957">
        <ele>225.80000305176</ele>
        <time>2015-06-24T12:40:37Z</time>
      </trkpt>
      <trkpt lat="43.40091" lon="6.05949">
        <ele>225.80000305176</ele>
        <time>2015-06-24T12:40:38Z</time>
      </trkpt>
      <trkpt lat="43.40092" lon="6.05937">
        <ele>225.39999389648</ele>
        <time>2015-06-24T12:40:40Z</time>
      </trkpt>
      <trkpt lat="43.40092" lon="6.05931">
        <ele>225.60000610352</ele>
        <time>2015-06-24T12:40:41Z</time>
      </trkpt>
      <trkpt lat="43.40091" lon="6.05926">
        <ele>225.39999389648</ele>
        <time>2015-06-24T12:40:42Z</time>
      </trkpt>
      <trkpt lat="43.40091" lon="6.05914">
        <ele>225.19999694824</ele>
        <time>2015-06-24T12:40:44Z</time>
      </trkpt>
      <trkpt lat="43.4009" lon="6.05904">
        <ele>225</ele>
        <time>2015-06-24T12:40:46Z</time>
      </trkpt>
      <trkpt lat="43.4009" lon="6.05896">
        <ele>225.39999389648</ele>
        <time>2015-06-24T12:40:48Z</time>
      </trkpt>
      <trkpt lat="43.40088" lon="6.0589">
        <ele>225.39999389648</ele>
        <time>2015-06-24T12:40:50Z</time>
      </trkpt>
      <trkpt lat="43.40084" lon="6.05886">
        <ele>224.80000305176</ele>
        <time>2015-06-24T12:40:52Z</time>
      </trkpt>
      <trkpt lat="43.40079" lon="6.05884">
        <ele>224.60000610352</ele>
        <time>2015-06-24T12:40:54Z</time>
      </trkpt>
      <trkpt lat="43.40071" lon="6.05882">
        <ele>224.80000305176</ele>
        <time>2015-06-24T12:40:56Z</time>
      </trkpt>
      <trkpt lat="43.40067" lon="6.05881">
        <ele>225</ele>
        <time>2015-06-24T12:40:57Z</time>
      </trkpt>
      <trkpt lat="43.40063" lon="6.05879">
        <ele>225</ele>
        <time>2015-06-24T12:40:58Z</time>
      </trkpt>
      <trkpt lat="43.40056" lon="6.05875">
        <ele>225</ele>
        <time>2015-06-24T12:41:00Z</time>
      </trkpt>
      <trkpt lat="43.40047" lon="6.0587">
        <ele>225.19999694824</ele>
        <time>2015-06-24T12:41:02Z</time>
      </trkpt>
      <trkpt lat="43.4004" lon="6.05866">
        <ele>225.60000610352</ele>
        <time>2015-06-24T12:41:04Z</time>
      </trkpt>
      <trkpt lat="43.40022" lon="6.05861">
        <ele>226.19999694824</ele>
        <time>2015-06-24T12:41:08Z</time>
      </trkpt>
      <trkpt lat="43.40014" lon="6.05859">
        <ele>226.19999694824</ele>
        <time>2015-06-24T12:41:10Z</time>
      </trkpt>
      <trkpt lat="43.40009" lon="6.05857">
        <ele>226.19999694824</ele>
        <time>2015-06-24T12:41:11Z</time>
      </trkpt>
      <trkpt lat="43.40005" lon="6.05856">
        <ele>226.39999389648</ele>
        <time>2015-06-24T12:41:12Z</time>
      </trkpt>
      <trkpt lat="43.40002" lon="6.05853">
        <ele>226.60000610352</ele>
        <time>2015-06-24T12:41:13Z</time>
      </trkpt>
      <trkpt lat="43.39997" lon="6.05851">
        <ele>226.80000305176</ele>
        <time>2015-06-24T12:41:14Z</time>
      </trkpt>
      <trkpt lat="43.39993" lon="6.05849">
        <ele>227</ele>
        <time>2015-06-24T12:41:15Z</time>
      </trkpt>
      <trkpt lat="43.39989" lon="6.05848">
        <ele>227.19999694824</ele>
        <time>2015-06-24T12:41:16Z</time>
      </trkpt>
      <trkpt lat="43.39981" lon="6.05844">
        <ele>227.19999694824</ele>
        <time>2015-06-24T12:41:18Z</time>
      </trkpt>
      <trkpt lat="43.39973" lon="6.0584">
        <ele>227.60000610352</ele>
        <time>2015-06-24T12:41:20Z</time>
      </trkpt>
      <trkpt lat="43.39969" lon="6.05838">
        <ele>227.80000305176</ele>
        <time>2015-06-24T12:41:21Z</time>
      </trkpt>
      <trkpt lat="43.39961" lon="6.05833">
        <ele>228</ele>
        <time>2015-06-24T12:41:23Z</time>
      </trkpt>
      <trkpt lat="43.39949" lon="6.05826">
        <ele>228.19999694824</ele>
        <time>2015-06-24T12:41:26Z</time>
      </trkpt>
      <trkpt lat="43.39941" lon="6.05821">
        <ele>228.60000610352</ele>
        <time>2015-06-24T12:41:28Z</time>
      </trkpt>
      <trkpt lat="43.39933" lon="6.05816">
        <ele>229</ele>
        <time>2015-06-24T12:41:30Z</time>
      </trkpt>
      <trkpt lat="43.39926" lon="6.05809">
        <ele>229</ele>
        <time>2015-06-24T12:41:32Z</time>
      </trkpt>
      <trkpt lat="43.39919" lon="6.05802">
        <ele>229</ele>
        <time>2015-06-24T12:41:34Z</time>
      </trkpt>
      <trkpt lat="43.39912" lon="6.05794">
        <ele>228.80000305176</ele>
        <time>2015-06-24T12:41:36Z</time>
      </trkpt>
      <trkpt lat="43.39909" lon="6.05789">
        <ele>229</ele>
        <time>2015-06-24T12:41:37Z</time>
      </trkpt>
      <trkpt lat="43.39906" lon="6.05785">
        <ele>229</ele>
        <time>2015-06-24T12:41:38Z</time>
      </trkpt>
      <trkpt lat="43.39896" lon="6.05769">
        <ele>230.39999389648</ele>
        <time>2015-06-24T12:41:42Z</time>
      </trkpt>
      <trkpt lat="43.39891" lon="6.05761">
        <ele>230</ele>
        <time>2015-06-24T12:41:44Z</time>
      </trkpt>
      <trkpt lat="43.39888" lon="6.05757">
        <ele>230</ele>
        <time>2015-06-24T12:41:45Z</time>
      </trkpt>
      <trkpt lat="43.39886" lon="6.05753">
        <ele>230</ele>
        <time>2015-06-24T12:41:46Z</time>
      </trkpt>
      <trkpt lat="43.3988" lon="6.05745">
        <ele>230</ele>
        <time>2015-06-24T12:41:48Z</time>
      </trkpt>
      <trkpt lat="43.39875" lon="6.05739">
        <ele>230.39999389648</ele>
        <time>2015-06-24T12:41:50Z</time>
      </trkpt>
      <trkpt lat="43.39873" lon="6.05737">
        <ele>230.60000610352</ele>
        <time>2015-06-24T12:41:51Z</time>
      </trkpt>
      <trkpt lat="43.39871" lon="6.05735">
        <ele>230.60000610352</ele>
        <time>2015-06-24T12:41:52Z</time>
      </trkpt>
      <trkpt lat="43.39869" lon="6.05732">
        <ele>231.19999694824</ele>
        <time>2015-06-24T12:41:54Z</time>
      </trkpt>
      <trkpt lat="43.39869" lon="6.0573">
        <ele>231.19999694824</ele>
        <time>2015-06-24T12:41:55Z</time>
      </trkpt>
      <trkpt lat="43.39869" lon="6.05729">
        <ele>231</ele>
        <time>2015-06-24T12:41:56Z</time>
      </trkpt>
      <trkpt lat="43.39867" lon="6.05724">
        <ele>231.19999694824</ele>
        <time>2015-06-24T12:41:58Z</time>
      </trkpt>
      <trkpt lat="43.39865" lon="6.05718">
        <ele>231</ele>
        <time>2015-06-24T12:42:00Z</time>
      </trkpt>
      <trkpt lat="43.39862" lon="6.05713">
        <ele>230.60000610352</ele>
        <time>2015-06-24T12:42:01Z</time>
      </trkpt>
      <trkpt lat="43.3986" lon="6.05707">
        <ele>230</ele>
        <time>2015-06-24T12:42:02Z</time>
      </trkpt>
      <trkpt lat="43.39857" lon="6.05702">
        <ele>229.80000305176</ele>
        <time>2015-06-24T12:42:03Z</time>
      </trkpt>
      <trkpt lat="43.39854" lon="6.05698">
        <ele>229.80000305176</ele>
        <time>2015-06-24T12:42:04Z</time>
      </trkpt>
      <trkpt lat="43.39849" lon="6.05688">
        <ele>229.80000305176</ele>
        <time>2015-06-24T12:42:06Z</time>
      </trkpt>
      <trkpt lat="43.39839" lon="6.05669">
        <ele>229.19999694824</ele>
        <time>2015-06-24T12:42:10Z</time>
      </trkpt>
      <trkpt lat="43.39835" lon="6.0566">
        <ele>229.39999389648</ele>
        <time>2015-06-24T12:42:12Z</time>
      </trkpt>
      <trkpt lat="43.39833" lon="6.05656">
        <ele>229.39999389648</ele>
        <time>2015-06-24T12:42:13Z</time>
      </trkpt>
      <trkpt lat="43.39827" lon="6.05643">
        <ele>229.60000610352</ele>
        <time>2015-06-24T12:42:16Z</time>
      </trkpt>
      <trkpt lat="43.39823" lon="6.05634">
        <ele>229.39999389648</ele>
        <time>2015-06-24T12:42:18Z</time>
      </trkpt>
      <trkpt lat="43.39822" lon="6.0563">
        <ele>229.19999694824</ele>
        <time>2015-06-24T12:42:19Z</time>
      </trkpt>
      <trkpt lat="43.3982" lon="6.05626">
        <ele>229</ele>
        <time>2015-06-24T12:42:20Z</time>
      </trkpt>
      <trkpt lat="43.39818" lon="6.05618">
        <ele>229.39999389648</ele>
        <time>2015-06-24T12:42:22Z</time>
      </trkpt>
      <trkpt lat="43.39816" lon="6.05614">
        <ele>229</ele>
        <time>2015-06-24T12:42:24Z</time>
      </trkpt>
      <trkpt lat="43.39816" lon="6.05612">
        <ele>229</ele>
        <time>2015-06-24T12:42:25Z</time>
      </trkpt>
      <trkpt lat="43.39815" lon="6.05611">
        <ele>228.80000305176</ele>
        <time>2015-06-24T12:42:26Z</time>
      </trkpt>
      <trkpt lat="43.39815" lon="6.0561">
        <ele>228.60000610352</ele>
        <time>2015-06-24T12:42:28Z</time>
      </trkpt>
      <trkpt lat="43.39815" lon="6.0561">
        <ele>228.39999389648</ele>
        <time>2015-06-24T12:42:30Z</time>
      </trkpt>
      <trkpt lat="43.39815" lon="6.0561">
        <ele>228.60000610352</ele>
        <time>2015-06-24T12:42:32Z</time>
      </trkpt>
      <trkpt lat="43.39815" lon="6.05609">
        <ele>229</ele>
        <time>2015-06-24T12:42:34Z</time>
      </trkpt>
      <trkpt lat="43.39815" lon="6.05609">
        <ele>229</ele>
        <time>2015-06-24T12:42:36Z</time>
      </trkpt>
      <trkpt lat="43.39815" lon="6.05607">
        <ele>229</ele>
        <time>2015-06-24T12:42:38Z</time>
      </trkpt>
      <trkpt lat="43.39814" lon="6.05606">
        <ele>228.80000305176</ele>
        <time>2015-06-24T12:42:40Z</time>
      </trkpt>
      <trkpt lat="43.39814" lon="6.05603">
        <ele>228.19999694824</ele>
        <time>2015-06-24T12:42:42Z</time>
      </trkpt>
      <trkpt lat="43.39813" lon="6.05601">
        <ele>227.80000305176</ele>
        <time>2015-06-24T12:42:44Z</time>
      </trkpt>
      <trkpt lat="43.39812" lon="6.05599">
        <ele>227.60000610352</ele>
        <time>2015-06-24T12:42:46Z</time>
      </trkpt>
      <trkpt lat="43.39812" lon="6.05598">
        <ele>227.60000610352</ele>
        <time>2015-06-24T12:42:48Z</time>
      </trkpt>
      <trkpt lat="43.39812" lon="6.05595">
        <ele>227.80000305176</ele>
        <time>2015-06-24T12:42:50Z</time>
      </trkpt>
      <trkpt lat="43.39811" lon="6.05591">
        <ele>227.60000610352</ele>
        <time>2015-06-24T12:42:52Z</time>
      </trkpt>
      <trkpt lat="43.3981" lon="6.05589">
        <ele>227.60000610352</ele>
        <time>2015-06-24T12:42:53Z</time>
      </trkpt>
      <trkpt lat="43.39809" lon="6.05587">
        <ele>228</ele>
        <time>2015-06-24T12:42:54Z</time>
      </trkpt>
      <trkpt lat="43.39808" lon="6.05583">
        <ele>228.39999389648</ele>
        <time>2015-06-24T12:42:56Z</time>
      </trkpt>
      <trkpt lat="43.39806" lon="6.05579">
        <ele>228.80000305176</ele>
        <time>2015-06-24T12:42:58Z</time>
      </trkpt>
      <trkpt lat="43.39803" lon="6.05575">
        <ele>229.39999389648</ele>
        <time>2015-06-24T12:43:00Z</time>
      </trkpt>
      <trkpt lat="43.39803" lon="6.05573">
        <ele>229.60000610352</ele>
        <time>2015-06-24T12:43:01Z</time>
      </trkpt>
      <trkpt lat="43.39801" lon="6.05571">
        <ele>229.80000305176</ele>
        <time>2015-06-24T12:43:02Z</time>
      </trkpt>
      <trkpt lat="43.398" lon="6.05569">
        <ele>230</ele>
        <time>2015-06-24T12:43:04Z</time>
      </trkpt>
      <trkpt lat="43.398" lon="6.05568">
        <ele>230.19999694824</ele>
        <time>2015-06-24T12:43:06Z</time>
      </trkpt>
      <trkpt lat="43.398" lon="6.05568">
        <ele>230.19999694824</ele>
        <time>2015-06-24T12:43:07Z</time>
      </trkpt>
      <trkpt lat="43.398" lon="6.05568">
        <ele>230.39999389648</ele>
        <time>2015-06-24T12:43:09Z</time>
      </trkpt>
      <trkpt lat="43.398" lon="6.05567">
        <ele>230.39999389648</ele>
        <time>2015-06-24T12:43:12Z</time>
      </trkpt>
      <trkpt lat="43.398" lon="6.05566">
        <ele>230.39999389648</ele>
        <time>2015-06-24T12:43:14Z</time>
      </trkpt>
      <trkpt lat="43.39799" lon="6.05565">
        <ele>230.60000610352</ele>
        <time>2015-06-24T12:43:16Z</time>
      </trkpt>
      <trkpt lat="43.39799" lon="6.05564">
        <ele>230.60000610352</ele>
        <time>2015-06-24T12:43:18Z</time>
      </trkpt>
      <trkpt lat="43.398" lon="6.05563">
        <ele>230</ele>
        <time>2015-06-24T12:43:20Z</time>
      </trkpt>
      <trkpt lat="43.39801" lon="6.05563">
        <ele>229.80000305176</ele>
        <time>2015-06-24T12:43:22Z</time>
      </trkpt>
      <trkpt lat="43.39801" lon="6.05561">
        <ele>229.39999389648</ele>
        <time>2015-06-24T12:43:24Z</time>
      </trkpt>
      <trkpt lat="43.39801" lon="6.05561">
        <ele>229.39999389648</ele>
        <time>2015-06-24T12:43:25Z</time>
      </trkpt>
      <trkpt lat="43.39801" lon="6.0556">
        <ele>229.39999389648</ele>
        <time>2015-06-24T12:43:26Z</time>
      </trkpt>
      <trkpt lat="43.398" lon="6.05558">
        <ele>229.39999389648</ele>
        <time>2015-06-24T12:43:28Z</time>
      </trkpt>
      <trkpt lat="43.39798" lon="6.05554">
        <ele>228.80000305176</ele>
        <time>2015-06-24T12:43:30Z</time>
      </trkpt>
      <trkpt lat="43.39797" lon="6.05551">
        <ele>228.60000610352</ele>
        <time>2015-06-24T12:43:31Z</time>
      </trkpt>
      <trkpt lat="43.39795" lon="6.05548">
        <ele>228.19999694824</ele>
        <time>2015-06-24T12:43:32Z</time>
      </trkpt>
      <trkpt lat="43.39793" lon="6.05542">
        <ele>228</ele>
        <time>2015-06-24T12:43:34Z</time>
      </trkpt>
      <trkpt lat="43.39793" lon="6.05535">
        <ele>228</ele>
        <time>2015-06-24T12:43:36Z</time>
      </trkpt>
      <trkpt lat="43.39792" lon="6.05526">
        <ele>227.60000610352</ele>
        <time>2015-06-24T12:43:38Z</time>
      </trkpt>
      <trkpt lat="43.39788" lon="6.05519">
        <ele>227.39999389648</ele>
        <time>2015-06-24T12:43:40Z</time>
      </trkpt>
      <trkpt lat="43.39781" lon="6.05506">
        <ele>228.39999389648</ele>
        <time>2015-06-24T12:43:44Z</time>
      </trkpt>
      <trkpt lat="43.39779" lon="6.055">
        <ele>228.80000305176</ele>
        <time>2015-06-24T12:43:46Z</time>
      </trkpt>
      <trkpt lat="43.39777" lon="6.05492">
        <ele>229.19999694824</ele>
        <time>2015-06-24T12:43:48Z</time>
      </trkpt>
      <trkpt lat="43.39775" lon="6.05488">
        <ele>229.19999694824</ele>
        <time>2015-06-24T12:43:49Z</time>
      </trkpt>
      <trkpt lat="43.39771" lon="6.05476">
        <ele>229.19999694824</ele>
        <time>2015-06-24T12:43:52Z</time>
      </trkpt>
      <trkpt lat="43.39769" lon="6.05467">
        <ele>229.19999694824</ele>
        <time>2015-06-24T12:43:54Z</time>
      </trkpt>
      <trkpt lat="43.39766" lon="6.05456">
        <ele>229</ele>
        <time>2015-06-24T12:43:56Z</time>
      </trkpt>
      <trkpt lat="43.39764" lon="6.05446">
        <ele>228.39999389648</ele>
        <time>2015-06-24T12:43:58Z</time>
      </trkpt>
      <trkpt lat="43.39763" lon="6.05441">
        <ele>228.19999694824</ele>
        <time>2015-06-24T12:43:59Z</time>
      </trkpt>
      <trkpt lat="43.39762" lon="6.05436">
        <ele>228.19999694824</ele>
        <time>2015-06-24T12:44:00Z</time>
      </trkpt>
      <trkpt lat="43.39759" lon="6.05424">
        <ele>228.60000610352</ele>
        <time>2015-06-24T12:44:02Z</time>
      </trkpt>
      <trkpt lat="43.39756" lon="6.05413">
        <ele>228.60000610352</ele>
        <time>2015-06-24T12:44:04Z</time>
      </trkpt>
      <trkpt lat="43.39753" lon="6.054">
        <ele>228.60000610352</ele>
        <time>2015-06-24T12:44:06Z</time>
      </trkpt>
      <trkpt lat="43.39749" lon="6.05388">
        <ele>228.19999694824</ele>
        <time>2015-06-24T12:44:08Z</time>
      </trkpt>
      <trkpt lat="43.39745" lon="6.05377">
        <ele>228.60000610352</ele>
        <time>2015-06-24T12:44:10Z</time>
      </trkpt>
      <trkpt lat="43.39738" lon="6.05356">
        <ele>228.19999694824</ele>
        <time>2015-06-24T12:44:14Z</time>
      </trkpt>
      <trkpt lat="43.39734" lon="6.05347">
        <ele>228.19999694824</ele>
        <time>2015-06-24T12:44:16Z</time>
      </trkpt>
      <trkpt lat="43.39732" lon="6.05342">
        <ele>228.19999694824</ele>
        <time>2015-06-24T12:44:17Z</time>
      </trkpt>
      <trkpt lat="43.39732" lon="6.05338">
        <ele>228</ele>
        <time>2015-06-24T12:44:18Z</time>
      </trkpt>
      <trkpt lat="43.3973" lon="6.05329">
        <ele>227.60000610352</ele>
        <time>2015-06-24T12:44:20Z</time>
      </trkpt>
      <trkpt lat="43.39727" lon="6.05318">
        <ele>227.60000610352</ele>
        <time>2015-06-24T12:44:22Z</time>
      </trkpt>
      <trkpt lat="43.39725" lon="6.05306">
        <ele>227.60000610352</ele>
        <time>2015-06-24T12:44:24Z</time>
      </trkpt>
      <trkpt lat="43.39723" lon="6.05293">
        <ele>227.39999389648</ele>
        <time>2015-06-24T12:44:26Z</time>
      </trkpt>
      <trkpt lat="43.39722" lon="6.0528">
        <ele>227.19999694824</ele>
        <time>2015-06-24T12:44:28Z</time>
      </trkpt>
      <trkpt lat="43.39721" lon="6.05273">
        <ele>227</ele>
        <time>2015-06-24T12:44:29Z</time>
      </trkpt>
      <trkpt lat="43.3972" lon="6.05266">
        <ele>227.19999694824</ele>
        <time>2015-06-24T12:44:30Z</time>
      </trkpt>
      <trkpt lat="43.39718" lon="6.05238">
        <ele>227.39999389648</ele>
        <time>2015-06-24T12:44:34Z</time>
      </trkpt>
      <trkpt lat="43.39714" lon="6.05198">
        <ele>227.80000305176</ele>
        <time>2015-06-24T12:44:40Z</time>
      </trkpt>
      <trkpt lat="43.39713" lon="6.05184">
        <ele>227.39999389648</ele>
        <time>2015-06-24T12:44:42Z</time>
      </trkpt>
      <trkpt lat="43.39711" lon="6.05171">
        <ele>227.19999694824</ele>
        <time>2015-06-24T12:44:44Z</time>
      </trkpt>
      <trkpt lat="43.39709" lon="6.05159">
        <ele>227.60000610352</ele>
        <time>2015-06-24T12:44:46Z</time>
      </trkpt>
      <trkpt lat="43.39707" lon="6.05147">
        <ele>227.60000610352</ele>
        <time>2015-06-24T12:44:48Z</time>
      </trkpt>
      <trkpt lat="43.39707" lon="6.05141">
        <ele>228</ele>
        <time>2015-06-24T12:44:49Z</time>
      </trkpt>
      <trkpt lat="43.39706" lon="6.05134">
        <ele>228.19999694824</ele>
        <time>2015-06-24T12:44:50Z</time>
      </trkpt>
      <trkpt lat="43.39705" lon="6.05122">
        <ele>228</ele>
        <time>2015-06-24T12:44:52Z</time>
      </trkpt>
      <trkpt lat="43.39703" lon="6.05109">
        <ele>227.80000305176</ele>
        <time>2015-06-24T12:44:54Z</time>
      </trkpt>
      <trkpt lat="43.397" lon="6.05097">
        <ele>228.19999694824</ele>
        <time>2015-06-24T12:44:56Z</time>
      </trkpt>
      <trkpt lat="43.39697" lon="6.05085">
        <ele>228</ele>
        <time>2015-06-24T12:44:58Z</time>
      </trkpt>
      <trkpt lat="43.3969" lon="6.05063">
        <ele>228.60000610352</ele>
        <time>2015-06-24T12:45:02Z</time>
      </trkpt>
      <trkpt lat="43.39686" lon="6.05054">
        <ele>228.60000610352</ele>
        <time>2015-06-24T12:45:04Z</time>
      </trkpt>
      <trkpt lat="43.39677" lon="6.05034">
        <ele>229.39999389648</ele>
        <time>2015-06-24T12:45:08Z</time>
      </trkpt>
      <trkpt lat="43.39672" lon="6.05025">
        <ele>229.39999389648</ele>
        <time>2015-06-24T12:45:10Z</time>
      </trkpt>
      <trkpt lat="43.39671" lon="6.0502">
        <ele>229.60000610352</ele>
        <time>2015-06-24T12:45:11Z</time>
      </trkpt>
      <trkpt lat="43.39669" lon="6.05015">
        <ele>230</ele>
        <time>2015-06-24T12:45:12Z</time>
      </trkpt>
      <trkpt lat="43.39664" lon="6.05008">
        <ele>230</ele>
        <time>2015-06-24T12:45:14Z</time>
      </trkpt>
      <trkpt lat="43.39659" lon="6.05005">
        <ele>230.80000305176</ele>
        <time>2015-06-24T12:45:16Z</time>
      </trkpt>
      <trkpt lat="43.39654" lon="6.05003">
        <ele>231</ele>
        <time>2015-06-24T12:45:18Z</time>
      </trkpt>
      <trkpt lat="43.39648" lon="6.05005">
        <ele>231.60000610352</ele>
        <time>2015-06-24T12:45:21Z</time>
      </trkpt>
      <trkpt lat="43.39645" lon="6.05005">
        <ele>232</ele>
        <time>2015-06-24T12:45:22Z</time>
      </trkpt>
      <trkpt lat="43.39641" lon="6.05006">
        <ele>232.39999389648</ele>
        <time>2015-06-24T12:45:24Z</time>
      </trkpt>
      <trkpt lat="43.39639" lon="6.05005">
        <ele>232.60000610352</ele>
        <time>2015-06-24T12:45:25Z</time>
      </trkpt>
      <trkpt lat="43.39637" lon="6.05005">
        <ele>233</ele>
        <time>2015-06-24T12:45:26Z</time>
      </trkpt>
      <trkpt lat="43.39635" lon="6.05003">
        <ele>233.19999694824</ele>
        <time>2015-06-24T12:45:27Z</time>
      </trkpt>
      <trkpt lat="43.39631" lon="6.04995">
        <ele>233.80000305176</ele>
        <time>2015-06-24T12:45:30Z</time>
      </trkpt>
      <trkpt lat="43.3963" lon="6.0499">
        <ele>234.19999694824</ele>
        <time>2015-06-24T12:45:32Z</time>
      </trkpt>
      <trkpt lat="43.39627" lon="6.04985">
        <ele>234.60000610352</ele>
        <time>2015-06-24T12:45:34Z</time>
      </trkpt>
      <trkpt lat="43.39627" lon="6.04982">
        <ele>234.80000305176</ele>
        <time>2015-06-24T12:45:35Z</time>
      </trkpt>
      <trkpt lat="43.39626" lon="6.0498">
        <ele>235</ele>
        <time>2015-06-24T12:45:36Z</time>
      </trkpt>
      <trkpt lat="43.39624" lon="6.04974">
        <ele>235.80000305176</ele>
        <time>2015-06-24T12:45:38Z</time>
      </trkpt>
      <trkpt lat="43.39621" lon="6.04969">
        <ele>236</ele>
        <time>2015-06-24T12:45:40Z</time>
      </trkpt>
      <trkpt lat="43.39618" lon="6.04964">
        <ele>236.19999694824</ele>
        <time>2015-06-24T12:45:42Z</time>
      </trkpt>
      <trkpt lat="43.39616" lon="6.04959">
        <ele>236.60000610352</ele>
        <time>2015-06-24T12:45:44Z</time>
      </trkpt>
      <trkpt lat="43.39613" lon="6.04954">
        <ele>237.19999694824</ele>
        <time>2015-06-24T12:45:46Z</time>
      </trkpt>
      <trkpt lat="43.39607" lon="6.04942">
        <ele>238</ele>
        <time>2015-06-24T12:45:51Z</time>
      </trkpt>
      <trkpt lat="43.39606" lon="6.0494">
        <ele>238.19999694824</ele>
        <time>2015-06-24T12:45:52Z</time>
      </trkpt>
      <trkpt lat="43.39603" lon="6.04936">
        <ele>238.60000610352</ele>
        <time>2015-06-24T12:45:54Z</time>
      </trkpt>
      <trkpt lat="43.39602" lon="6.04934">
        <ele>238.80000305176</ele>
        <time>2015-06-24T12:45:55Z</time>
      </trkpt>
      <trkpt lat="43.39595" lon="6.04922">
        <ele>239.39999389648</ele>
        <time>2015-06-24T12:46:00Z</time>
      </trkpt>
      <trkpt lat="43.3959" lon="6.04912">
        <ele>240.19999694824</ele>
        <time>2015-06-24T12:46:04Z</time>
      </trkpt>
      <trkpt lat="43.39585" lon="6.04904">
        <ele>241</ele>
        <time>2015-06-24T12:46:08Z</time>
      </trkpt>
      <trkpt lat="43.39584" lon="6.04903">
        <ele>241.19999694824</ele>
        <time>2015-06-24T12:46:09Z</time>
      </trkpt>
      <trkpt lat="43.39584" lon="6.04901">
        <ele>241.39999389648</ele>
        <time>2015-06-24T12:46:10Z</time>
      </trkpt>
      <trkpt lat="43.39581" lon="6.04897">
        <ele>241.60000610352</ele>
        <time>2015-06-24T12:46:12Z</time>
      </trkpt>
      <trkpt lat="43.39579" lon="6.04893">
        <ele>242.19999694824</ele>
        <time>2015-06-24T12:46:14Z</time>
      </trkpt>
      <trkpt lat="43.39578" lon="6.04891">
        <ele>242.19999694824</ele>
        <time>2015-06-24T12:46:15Z</time>
      </trkpt>
      <trkpt lat="43.39574" lon="6.04885">
        <ele>242.60000610352</ele>
        <time>2015-06-24T12:46:18Z</time>
      </trkpt>
      <trkpt lat="43.39568" lon="6.04877">
        <ele>243</ele>
        <time>2015-06-24T12:46:22Z</time>
      </trkpt>
      <trkpt lat="43.39566" lon="6.04873">
        <ele>243.39999389648</ele>
        <time>2015-06-24T12:46:24Z</time>
      </trkpt>
      <trkpt lat="43.39564" lon="6.0487">
        <ele>243.60000610352</ele>
        <time>2015-06-24T12:46:26Z</time>
      </trkpt>
      <trkpt lat="43.3956" lon="6.04863">
        <ele>243.60000610352</ele>
        <time>2015-06-24T12:46:29Z</time>
      </trkpt>
      <trkpt lat="43.39559" lon="6.04861">
        <ele>243.80000305176</ele>
        <time>2015-06-24T12:46:30Z</time>
      </trkpt>
      <trkpt lat="43.39556" lon="6.04856">
        <ele>244.39999389648</ele>
        <time>2015-06-24T12:46:33Z</time>
      </trkpt>
      <trkpt lat="43.39554" lon="6.04852">
        <ele>245</ele>
        <time>2015-06-24T12:46:35Z</time>
      </trkpt>
      <trkpt lat="43.39552" lon="6.04851">
        <ele>245.19999694824</ele>
        <time>2015-06-24T12:46:36Z</time>
      </trkpt>
      <trkpt lat="43.3955" lon="6.04848">
        <ele>245.60000610352</ele>
        <time>2015-06-24T12:46:38Z</time>
      </trkpt>
      <trkpt lat="43.39547" lon="6.04848">
        <ele>246</ele>
        <time>2015-06-24T12:46:40Z</time>
      </trkpt>
      <trkpt lat="43.39545" lon="6.04849">
        <ele>246.39999389648</ele>
        <time>2015-06-24T12:46:42Z</time>
      </trkpt>
      <trkpt lat="43.39542" lon="6.0485">
        <ele>247</ele>
        <time>2015-06-24T12:46:44Z</time>
      </trkpt>
      <trkpt lat="43.39539" lon="6.04852">
        <ele>247.60000610352</ele>
        <time>2015-06-24T12:46:46Z</time>
      </trkpt>
      <trkpt lat="43.39535" lon="6.04856">
        <ele>248.80000305176</ele>
        <time>2015-06-24T12:46:50Z</time>
      </trkpt>
      <trkpt lat="43.39532" lon="6.04858">
        <ele>249.19999694824</ele>
        <time>2015-06-24T12:46:52Z</time>
      </trkpt>
      <trkpt lat="43.39529" lon="6.0486">
        <ele>249.80000305176</ele>
        <time>2015-06-24T12:46:54Z</time>
      </trkpt>
      <trkpt lat="43.39526" lon="6.04863">
        <ele>250.39999389648</ele>
        <time>2015-06-24T12:46:56Z</time>
      </trkpt>
      <trkpt lat="43.39524" lon="6.04866">
        <ele>251.19999694824</ele>
        <time>2015-06-24T12:46:58Z</time>
      </trkpt>
      <trkpt lat="43.39521" lon="6.04869">
        <ele>251.60000610352</ele>
        <time>2015-06-24T12:47:00Z</time>
      </trkpt>
      <trkpt lat="43.39518" lon="6.04872">
        <ele>252.19999694824</ele>
        <time>2015-06-24T12:47:02Z</time>
      </trkpt>
      <trkpt lat="43.39515" lon="6.04874">
        <ele>252.39999389648</ele>
        <time>2015-06-24T12:47:04Z</time>
      </trkpt>
      <trkpt lat="43.39509" lon="6.04879">
        <ele>253</ele>
        <time>2015-06-24T12:47:08Z</time>
      </trkpt>
      <trkpt lat="43.39506" lon="6.04881">
        <ele>253.39999389648</ele>
        <time>2015-06-24T12:47:10Z</time>
      </trkpt>
      <trkpt lat="43.39504" lon="6.04881">
        <ele>253.39999389648</ele>
        <time>2015-06-24T12:47:11Z</time>
      </trkpt>
      <trkpt lat="43.39499" lon="6.04883">
        <ele>253.39999389648</ele>
        <time>2015-06-24T12:47:14Z</time>
      </trkpt>
      <trkpt lat="43.39495" lon="6.04883">
        <ele>253.60000610352</ele>
        <time>2015-06-24T12:47:16Z</time>
      </trkpt>
      <trkpt lat="43.39491" lon="6.04883">
        <ele>253.80000305176</ele>
        <time>2015-06-24T12:47:18Z</time>
      </trkpt>
      <trkpt lat="43.39486" lon="6.04882">
        <ele>254.19999694824</ele>
        <time>2015-06-24T12:47:20Z</time>
      </trkpt>
      <trkpt lat="43.39481" lon="6.04882">
        <ele>254.19999694824</ele>
        <time>2015-06-24T12:47:22Z</time>
      </trkpt>
      <trkpt lat="43.39476" lon="6.04881">
        <ele>254.19999694824</ele>
        <time>2015-06-24T12:47:24Z</time>
      </trkpt>
      <trkpt lat="43.39472" lon="6.0488">
        <ele>254</ele>
        <time>2015-06-24T12:47:26Z</time>
      </trkpt>
      <trkpt lat="43.39466" lon="6.0488">
        <ele>253.80000305176</ele>
        <time>2015-06-24T12:47:28Z</time>
      </trkpt>
      <trkpt lat="43.39461" lon="6.04879">
        <ele>253.60000610352</ele>
        <time>2015-06-24T12:47:30Z</time>
      </trkpt>
      <trkpt lat="43.39455" lon="6.04878">
        <ele>253.60000610352</ele>
        <time>2015-06-24T12:47:32Z</time>
      </trkpt>
      <trkpt lat="43.3945" lon="6.04876">
        <ele>253.60000610352</ele>
        <time>2015-06-24T12:47:34Z</time>
      </trkpt>
      <trkpt lat="43.39444" lon="6.04875">
        <ele>253.80000305176</ele>
        <time>2015-06-24T12:47:36Z</time>
      </trkpt>
      <trkpt lat="43.39434" lon="6.04873">
        <ele>254.19999694824</ele>
        <time>2015-06-24T12:47:40Z</time>
      </trkpt>
      <trkpt lat="43.39429" lon="6.04872">
        <ele>254.39999389648</ele>
        <time>2015-06-24T12:47:42Z</time>
      </trkpt>
      <trkpt lat="43.39423" lon="6.04872">
        <ele>254.39999389648</ele>
        <time>2015-06-24T12:47:44Z</time>
      </trkpt>
      <trkpt lat="43.39418" lon="6.04871">
        <ele>254.80000305176</ele>
        <time>2015-06-24T12:47:46Z</time>
      </trkpt>
      <trkpt lat="43.39414" lon="6.04872">
        <ele>255.19999694824</ele>
        <time>2015-06-24T12:47:48Z</time>
      </trkpt>
      <trkpt lat="43.39408" lon="6.04872">
        <ele>255.19999694824</ele>
        <time>2015-06-24T12:47:50Z</time>
      </trkpt>
      <trkpt lat="43.39404" lon="6.04874">
        <ele>255.39999389648</ele>
        <time>2015-06-24T12:47:52Z</time>
      </trkpt>
      <trkpt lat="43.39399" lon="6.04875">
        <ele>255.80000305176</ele>
        <time>2015-06-24T12:47:54Z</time>
      </trkpt>
      <trkpt lat="43.39394" lon="6.04877">
        <ele>256.20001220703</ele>
        <time>2015-06-24T12:47:56Z</time>
      </trkpt>
      <trkpt lat="43.39388" lon="6.04879">
        <ele>256.60000610352</ele>
        <time>2015-06-24T12:47:59Z</time>
      </trkpt>
      <trkpt lat="43.39386" lon="6.0488">
        <ele>256.79998779297</ele>
        <time>2015-06-24T12:48:00Z</time>
      </trkpt>
      <trkpt lat="43.39381" lon="6.04882">
        <ele>257</ele>
        <time>2015-06-24T12:48:02Z</time>
      </trkpt>
      <trkpt lat="43.39372" lon="6.04886">
        <ele>257.60000610352</ele>
        <time>2015-06-24T12:48:06Z</time>
      </trkpt>
      <trkpt lat="43.39367" lon="6.04889">
        <ele>257.60000610352</ele>
        <time>2015-06-24T12:48:08Z</time>
      </trkpt>
      <trkpt lat="43.39363" lon="6.04891">
        <ele>257.60000610352</ele>
        <time>2015-06-24T12:48:10Z</time>
      </trkpt>
      <trkpt lat="43.39359" lon="6.04894">
        <ele>257.60000610352</ele>
        <time>2015-06-24T12:48:12Z</time>
      </trkpt>
      <trkpt lat="43.39353" lon="6.04899">
        <ele>257.60000610352</ele>
        <time>2015-06-24T12:48:14Z</time>
      </trkpt>
      <trkpt lat="43.39347" lon="6.04904">
        <ele>257.20001220703</ele>
        <time>2015-06-24T12:48:16Z</time>
      </trkpt>
      <trkpt lat="43.39341" lon="6.04909">
        <ele>257.60000610352</ele>
        <time>2015-06-24T12:48:18Z</time>
      </trkpt>
      <trkpt lat="43.39335" lon="6.04913">
        <ele>257.39999389648</ele>
        <time>2015-06-24T12:48:20Z</time>
      </trkpt>
      <trkpt lat="43.39331" lon="6.04916">
        <ele>257.39999389648</ele>
        <time>2015-06-24T12:48:22Z</time>
      </trkpt>
      <trkpt lat="43.39326" lon="6.04918">
        <ele>258</ele>
        <time>2015-06-24T12:48:24Z</time>
      </trkpt>
      <trkpt lat="43.39322" lon="6.0492">
        <ele>258.39999389648</ele>
        <time>2015-06-24T12:48:26Z</time>
      </trkpt>
      <trkpt lat="43.3932" lon="6.04921">
        <ele>258.60000610352</ele>
        <time>2015-06-24T12:48:27Z</time>
      </trkpt>
      <trkpt lat="43.39318" lon="6.04922">
        <ele>259</ele>
        <time>2015-06-24T12:48:28Z</time>
      </trkpt>
      <trkpt lat="43.39314" lon="6.04924">
        <ele>259.39999389648</ele>
        <time>2015-06-24T12:48:30Z</time>
      </trkpt>
      <trkpt lat="43.39312" lon="6.04925">
        <ele>259.60000610352</ele>
        <time>2015-06-24T12:48:31Z</time>
      </trkpt>
      <trkpt lat="43.39309" lon="6.04927">
        <ele>259.79998779297</ele>
        <time>2015-06-24T12:48:32Z</time>
      </trkpt>
      <trkpt lat="43.39304" lon="6.04929">
        <ele>260.39999389648</ele>
        <time>2015-06-24T12:48:34Z</time>
      </trkpt>
      <trkpt lat="43.393" lon="6.04931">
        <ele>260.79998779297</ele>
        <time>2015-06-24T12:48:36Z</time>
      </trkpt>
      <trkpt lat="43.39296" lon="6.04933">
        <ele>261.39999389648</ele>
        <time>2015-06-24T12:48:38Z</time>
      </trkpt>
      <trkpt lat="43.39292" lon="6.04935">
        <ele>261.79998779297</ele>
        <time>2015-06-24T12:48:40Z</time>
      </trkpt>
      <trkpt lat="43.3929" lon="6.04936">
        <ele>262.20001220703</ele>
        <time>2015-06-24T12:48:41Z</time>
      </trkpt>
      <trkpt lat="43.39288" lon="6.04937">
        <ele>262.60000610352</ele>
        <time>2015-06-24T12:48:42Z</time>
      </trkpt>
      <trkpt lat="43.39285" lon="6.04939">
        <ele>263.20001220703</ele>
        <time>2015-06-24T12:48:44Z</time>
      </trkpt>
      <trkpt lat="43.39282" lon="6.04941">
        <ele>264</ele>
        <time>2015-06-24T12:48:46Z</time>
      </trkpt>
      <trkpt lat="43.39276" lon="6.04944">
        <ele>265</ele>
        <time>2015-06-24T12:48:50Z</time>
      </trkpt>
      <trkpt lat="43.39273" lon="6.04946">
        <ele>265.39999389648</ele>
        <time>2015-06-24T12:48:52Z</time>
      </trkpt>
      <trkpt lat="43.39265" lon="6.04951">
        <ele>266</ele>
        <time>2015-06-24T12:48:56Z</time>
      </trkpt>
      <trkpt lat="43.39264" lon="6.04952">
        <ele>266.20001220703</ele>
        <time>2015-06-24T12:48:57Z</time>
      </trkpt>
      <trkpt lat="43.39262" lon="6.04953">
        <ele>266.39999389648</ele>
        <time>2015-06-24T12:48:58Z</time>
      </trkpt>
      <trkpt lat="43.39256" lon="6.04956">
        <ele>266.79998779297</ele>
        <time>2015-06-24T12:49:01Z</time>
      </trkpt>
      <trkpt lat="43.39252" lon="6.04958">
        <ele>267.20001220703</ele>
        <time>2015-06-24T12:49:03Z</time>
      </trkpt>
      <trkpt lat="43.3925" lon="6.04959">
        <ele>267.39999389648</ele>
        <time>2015-06-24T12:49:04Z</time>
      </trkpt>
      <trkpt lat="43.39243" lon="6.04963">
        <ele>268.39999389648</ele>
        <time>2015-06-24T12:49:08Z</time>
      </trkpt>
      <trkpt lat="43.39238" lon="6.04965">
        <ele>269</ele>
        <time>2015-06-24T12:49:11Z</time>
      </trkpt>
      <trkpt lat="43.39231" lon="6.04967">
        <ele>270.20001220703</ele>
        <time>2015-06-24T12:49:15Z</time>
      </trkpt>
      <trkpt lat="43.39223" lon="6.04971">
        <ele>271.20001220703</ele>
        <time>2015-06-24T12:49:20Z</time>
      </trkpt>
      <trkpt lat="43.3922" lon="6.04971">
        <ele>271.79998779297</ele>
        <time>2015-06-24T12:49:22Z</time>
      </trkpt>
      <trkpt lat="43.39217" lon="6.04972">
        <ele>272.39999389648</ele>
        <time>2015-06-24T12:49:24Z</time>
      </trkpt>
      <trkpt lat="43.39215" lon="6.04974">
        <ele>273</ele>
        <time>2015-06-24T12:49:26Z</time>
      </trkpt>
      <trkpt lat="43.39212" lon="6.04977">
        <ele>273.20001220703</ele>
        <time>2015-06-24T12:49:28Z</time>
      </trkpt>
      <trkpt lat="43.39209" lon="6.0498">
        <ele>273.60000610352</ele>
        <time>2015-06-24T12:49:30Z</time>
      </trkpt>
      <trkpt lat="43.39208" lon="6.04981">
        <ele>273.60000610352</ele>
        <time>2015-06-24T12:49:31Z</time>
      </trkpt>
      <trkpt lat="43.39205" lon="6.04986">
        <ele>273.79998779297</ele>
        <time>2015-06-24T12:49:34Z</time>
      </trkpt>
      <trkpt lat="43.39203" lon="6.0499">
        <ele>273.79998779297</ele>
        <time>2015-06-24T12:49:36Z</time>
      </trkpt>
      <trkpt lat="43.39202" lon="6.04996">
        <ele>274</ele>
        <time>2015-06-24T12:49:38Z</time>
      </trkpt>
      <trkpt lat="43.39201" lon="6.05001">
        <ele>273.60000610352</ele>
        <time>2015-06-24T12:49:40Z</time>
      </trkpt>
      <trkpt lat="43.392" lon="6.05007">
        <ele>273.39999389648</ele>
        <time>2015-06-24T12:49:42Z</time>
      </trkpt>
      <trkpt lat="43.39199" lon="6.05014">
        <ele>273</ele>
        <time>2015-06-24T12:49:44Z</time>
      </trkpt>
      <trkpt lat="43.39197" lon="6.05023">
        <ele>274</ele>
        <time>2015-06-24T12:49:46Z</time>
      </trkpt>
      <trkpt lat="43.39194" lon="6.05034">
        <ele>272.79998779297</ele>
        <time>2015-06-24T12:49:48Z</time>
      </trkpt>
      <trkpt lat="43.39193" lon="6.0504">
        <ele>272.20001220703</ele>
        <time>2015-06-24T12:49:49Z</time>
      </trkpt>
      <trkpt lat="43.39191" lon="6.05046">
        <ele>271.79998779297</ele>
        <time>2015-06-24T12:49:50Z</time>
      </trkpt>
      <trkpt lat="43.39186" lon="6.05059">
        <ele>271.60000610352</ele>
        <time>2015-06-24T12:49:52Z</time>
      </trkpt>
      <trkpt lat="43.3918" lon="6.0507">
        <ele>271.20001220703</ele>
        <time>2015-06-24T12:49:54Z</time>
      </trkpt>
      <trkpt lat="43.39177" lon="6.05076">
        <ele>270.79998779297</ele>
        <time>2015-06-24T12:49:55Z</time>
      </trkpt>
      <trkpt lat="43.39175" lon="6.0508">
        <ele>270.60000610352</ele>
        <time>2015-06-24T12:49:56Z</time>
      </trkpt>
      <trkpt lat="43.39171" lon="6.05086">
        <ele>270.20001220703</ele>
        <time>2015-06-24T12:49:58Z</time>
      </trkpt>
      <trkpt lat="43.39169" lon="6.0509">
        <ele>270</ele>
        <time>2015-06-24T12:50:00Z</time>
      </trkpt>
      <trkpt lat="43.39168" lon="6.05091">
        <ele>270</ele>
        <time>2015-06-24T12:50:01Z</time>
      </trkpt>
      <trkpt lat="43.39166" lon="6.05094">
        <ele>270.60000610352</ele>
        <time>2015-06-24T12:50:04Z</time>
      </trkpt>
      <trkpt lat="43.39166" lon="6.05095">
        <ele>270.79998779297</ele>
        <time>2015-06-24T12:50:06Z</time>
      </trkpt>
      <trkpt lat="43.39166" lon="6.05096">
        <ele>270.79998779297</ele>
        <time>2015-06-24T12:50:08Z</time>
      </trkpt>
      <trkpt lat="43.39166" lon="6.05096">
        <ele>270.60000610352</ele>
        <time>2015-06-24T12:50:10Z</time>
      </trkpt>
      <trkpt lat="43.39166" lon="6.05096">
        <ele>270.60000610352</ele>
        <time>2015-06-24T12:50:12Z</time>
      </trkpt>
      <trkpt lat="43.39166" lon="6.05096">
        <ele>270.60000610352</ele>
        <time>2015-06-24T12:50:14Z</time>
      </trkpt>
      <trkpt lat="43.39166" lon="6.05096">
        <ele>270.39999389648</ele>
        <time>2015-06-24T12:50:20Z</time>
      </trkpt>
      <trkpt lat="43.39166" lon="6.05096">
        <ele>270.39999389648</ele>
        <time>2015-06-24T12:50:22Z</time>
      </trkpt>
      <trkpt lat="43.39166" lon="6.05096">
        <ele>270.20001220703</ele>
        <time>2015-06-24T12:50:24Z</time>
      </trkpt>
      <trkpt lat="43.39166" lon="6.05096">
        <ele>270.20001220703</ele>
        <time>2015-06-24T12:50:26Z</time>
      </trkpt>
      <trkpt lat="43.39166" lon="6.05097">
        <ele>270.60000610352</ele>
        <time>2015-06-24T12:50:29Z</time>
      </trkpt>
      <trkpt lat="43.39165" lon="6.05097">
        <ele>270.60000610352</ele>
        <time>2015-06-24T12:50:32Z</time>
      </trkpt>
      <trkpt lat="43.39164" lon="6.05098">
        <ele>270.60000610352</ele>
        <time>2015-06-24T12:50:34Z</time>
      </trkpt>
      <trkpt lat="43.39162" lon="6.051">
        <ele>271</ele>
        <time>2015-06-24T12:50:36Z</time>
      </trkpt>
      <trkpt lat="43.39161" lon="6.05101">
        <ele>271.20001220703</ele>
        <time>2015-06-24T12:50:37Z</time>
      </trkpt>
      <trkpt lat="43.39159" lon="6.05102">
        <ele>271.60000610352</ele>
        <time>2015-06-24T12:50:38Z</time>
      </trkpt>
      <trkpt lat="43.39157" lon="6.05103">
        <ele>272.20001220703</ele>
        <time>2015-06-24T12:50:40Z</time>
      </trkpt>
      <trkpt lat="43.39155" lon="6.05103">
        <ele>272.60000610352</ele>
        <time>2015-06-24T12:50:42Z</time>
      </trkpt>
      <trkpt lat="43.39153" lon="6.05103">
        <ele>272.79998779297</ele>
        <time>2015-06-24T12:50:44Z</time>
      </trkpt>
      <trkpt lat="43.39151" lon="6.05103">
        <ele>273.60000610352</ele>
        <time>2015-06-24T12:50:46Z</time>
      </trkpt>
      <trkpt lat="43.39148" lon="6.05104">
        <ele>273.79998779297</ele>
        <time>2015-06-24T12:50:48Z</time>
      </trkpt>
      <trkpt lat="43.39145" lon="6.05103">
        <ele>274</ele>
        <time>2015-06-24T12:50:50Z</time>
      </trkpt>
      <trkpt lat="43.39139" lon="6.05102">
        <ele>274.79998779297</ele>
        <time>2015-06-24T12:50:54Z</time>
      </trkpt>
      <trkpt lat="43.39137" lon="6.05101">
        <ele>275.20001220703</ele>
        <time>2015-06-24T12:50:56Z</time>
      </trkpt>
      <trkpt lat="43.39133" lon="6.05102">
        <ele>276</ele>
        <time>2015-06-24T12:50:58Z</time>
      </trkpt>
      <trkpt lat="43.39131" lon="6.05102">
        <ele>276.20001220703</ele>
        <time>2015-06-24T12:51:00Z</time>
      </trkpt>
      <trkpt lat="43.39128" lon="6.05103">
        <ele>276.60000610352</ele>
        <time>2015-06-24T12:51:02Z</time>
      </trkpt>
      <trkpt lat="43.39125" lon="6.05103">
        <ele>276.60000610352</ele>
        <time>2015-06-24T12:51:04Z</time>
      </trkpt>
      <trkpt lat="43.39124" lon="6.05103">
        <ele>277.20001220703</ele>
        <time>2015-06-24T12:51:05Z</time>
      </trkpt>
      <trkpt lat="43.3912" lon="6.05103">
        <ele>277.79998779297</ele>
        <time>2015-06-24T12:51:08Z</time>
      </trkpt>
      <trkpt lat="43.39119" lon="6.05103">
        <ele>278.20001220703</ele>
        <time>2015-06-24T12:51:09Z</time>
      </trkpt>
      <trkpt lat="43.39117" lon="6.05103">
        <ele>278.39999389648</ele>
        <time>2015-06-24T12:51:10Z</time>
      </trkpt>
      <trkpt lat="43.39114" lon="6.05103">
        <ele>279</ele>
        <time>2015-06-24T12:51:13Z</time>
      </trkpt>
      <trkpt lat="43.39113" lon="6.05103">
        <ele>279.60000610352</ele>
        <time>2015-06-24T12:51:14Z</time>
      </trkpt>
      <trkpt lat="43.39111" lon="6.05104">
        <ele>280</ele>
        <time>2015-06-24T12:51:16Z</time>
      </trkpt>
      <trkpt lat="43.39108" lon="6.05105">
        <ele>280.20001220703</ele>
        <time>2015-06-24T12:51:19Z</time>
      </trkpt>
      <trkpt lat="43.39107" lon="6.05106">
        <ele>280.39999389648</ele>
        <time>2015-06-24T12:51:20Z</time>
      </trkpt>
      <trkpt lat="43.39106" lon="6.05107">
        <ele>280.79998779297</ele>
        <time>2015-06-24T12:51:21Z</time>
      </trkpt>
      <trkpt lat="43.39103" lon="6.05109">
        <ele>282</ele>
        <time>2015-06-24T12:51:24Z</time>
      </trkpt>
      <trkpt lat="43.391" lon="6.05111">
        <ele>282.60000610352</ele>
        <time>2015-06-24T12:51:27Z</time>
      </trkpt>
      <trkpt lat="43.39098" lon="6.05111">
        <ele>282.60000610352</ele>
        <time>2015-06-24T12:51:28Z</time>
      </trkpt>
      <trkpt lat="43.39097" lon="6.05112">
        <ele>283</ele>
        <time>2015-06-24T12:51:30Z</time>
      </trkpt>
      <trkpt lat="43.39096" lon="6.05114">
        <ele>283.39999389648</ele>
        <time>2015-06-24T12:51:32Z</time>
      </trkpt>
      <trkpt lat="43.39096" lon="6.05114">
        <ele>283.20001220703</ele>
        <time>2015-06-24T12:51:34Z</time>
      </trkpt>
      <trkpt lat="43.39095" lon="6.05115">
        <ele>283.20001220703</ele>
        <time>2015-06-24T12:51:35Z</time>
      </trkpt>
      <trkpt lat="43.39095" lon="6.05115">
        <ele>283.39999389648</ele>
        <time>2015-06-24T12:51:36Z</time>
      </trkpt>
      <trkpt lat="43.39093" lon="6.05116">
        <ele>283.79998779297</ele>
        <time>2015-06-24T12:51:38Z</time>
      </trkpt>
      <trkpt lat="43.39091" lon="6.05116">
        <ele>284</ele>
        <time>2015-06-24T12:51:40Z</time>
      </trkpt>
      <trkpt lat="43.3909" lon="6.05118">
        <ele>284.20001220703</ele>
        <time>2015-06-24T12:51:41Z</time>
      </trkpt>
      <trkpt lat="43.3909" lon="6.05118">
        <ele>284.20001220703</ele>
        <time>2015-06-24T12:51:42Z</time>
      </trkpt>
      <trkpt lat="43.39088" lon="6.05119">
        <ele>284.39999389648</ele>
        <time>2015-06-24T12:51:44Z</time>
      </trkpt>
      <trkpt lat="43.39088" lon="6.0512">
        <ele>284.60000610352</ele>
        <time>2015-06-24T12:51:46Z</time>
      </trkpt>
      <trkpt lat="43.39087" lon="6.05121">
        <ele>284.79998779297</ele>
        <time>2015-06-24T12:51:48Z</time>
      </trkpt>
      <trkpt lat="43.39085" lon="6.05122">
        <ele>285</ele>
        <time>2015-06-24T12:51:51Z</time>
      </trkpt>
      <trkpt lat="43.39085" lon="6.05123">
        <ele>285.20001220703</ele>
        <time>2015-06-24T12:51:52Z</time>
      </trkpt>
      <trkpt lat="43.39084" lon="6.05123">
        <ele>285.20001220703</ele>
        <time>2015-06-24T12:51:53Z</time>
      </trkpt>
      <trkpt lat="43.39084" lon="6.05124">
        <ele>285.20001220703</ele>
        <time>2015-06-24T12:51:54Z</time>
      </trkpt>
      <trkpt lat="43.39084" lon="6.05124">
        <ele>285.60000610352</ele>
        <time>2015-06-24T12:51:56Z</time>
      </trkpt>
      <trkpt lat="43.39083" lon="6.05125">
        <ele>285.79998779297</ele>
        <time>2015-06-24T12:51:58Z</time>
      </trkpt>
      <trkpt lat="43.39083" lon="6.05126">
        <ele>285.60000610352</ele>
        <time>2015-06-24T12:52:00Z</time>
      </trkpt>
      <trkpt lat="43.39083" lon="6.05127">
        <ele>285.79998779297</ele>
        <time>2015-06-24T12:52:02Z</time>
      </trkpt>
      <trkpt lat="43.39083" lon="6.05127">
        <ele>285.79998779297</ele>
        <time>2015-06-24T12:52:08Z</time>
      </trkpt>
      <trkpt lat="43.39083" lon="6.05127">
        <ele>285.60000610352</ele>
        <time>2015-06-24T12:52:20Z</time>
      </trkpt>
      <trkpt lat="43.39083" lon="6.05127">
        <ele>285.79998779297</ele>
        <time>2015-06-24T12:52:22Z</time>
      </trkpt>
      <trkpt lat="43.39082" lon="6.05127">
        <ele>285.79998779297</ele>
        <time>2015-06-24T12:52:24Z</time>
      </trkpt>
      <trkpt lat="43.39083" lon="6.05127">
        <ele>286</ele>
        <time>2015-06-24T12:52:26Z</time>
      </trkpt>
      <trkpt lat="43.39083" lon="6.0513">
        <ele>286.20001220703</ele>
        <time>2015-06-24T12:52:30Z</time>
      </trkpt>
      <trkpt lat="43.39083" lon="6.05133">
        <ele>286.20001220703</ele>
        <time>2015-06-24T12:52:32Z</time>
      </trkpt>
      <trkpt lat="43.39083" lon="6.05135">
        <ele>286.39999389648</ele>
        <time>2015-06-24T12:52:34Z</time>
      </trkpt>
      <trkpt lat="43.39083" lon="6.05136">
        <ele>286.60000610352</ele>
        <time>2015-06-24T12:52:38Z</time>
      </trkpt>
      <trkpt lat="43.39083" lon="6.05137">
        <ele>286.60000610352</ele>
        <time>2015-06-24T12:52:40Z</time>
      </trkpt>
      <trkpt lat="43.39083" lon="6.05137">
        <ele>286.60000610352</ele>
        <time>2015-06-24T12:52:41Z</time>
      </trkpt>
      <trkpt lat="43.39083" lon="6.05139">
        <ele>286.60000610352</ele>
        <time>2015-06-24T12:52:42Z</time>
      </trkpt>
      <trkpt lat="43.39082" lon="6.05141">
        <ele>286.79998779297</ele>
        <time>2015-06-24T12:52:44Z</time>
      </trkpt>
      <trkpt lat="43.39081" lon="6.05144">
        <ele>287</ele>
        <time>2015-06-24T12:52:46Z</time>
      </trkpt>
      <trkpt lat="43.3908" lon="6.05146">
        <ele>287.20001220703</ele>
        <time>2015-06-24T12:52:47Z</time>
      </trkpt>
      <trkpt lat="43.3908" lon="6.05147">
        <ele>287.20001220703</ele>
        <time>2015-06-24T12:52:48Z</time>
      </trkpt>
      <trkpt lat="43.3908" lon="6.05151">
        <ele>287.79998779297</ele>
        <time>2015-06-24T12:52:50Z</time>
      </trkpt>
      <trkpt lat="43.39078" lon="6.05158">
        <ele>288.60000610352</ele>
        <time>2015-06-24T12:52:54Z</time>
      </trkpt>
      <trkpt lat="43.39075" lon="6.05163">
        <ele>289.20001220703</ele>
        <time>2015-06-24T12:52:57Z</time>
      </trkpt>
      <trkpt lat="43.39072" lon="6.05171">
        <ele>290.39999389648</ele>
        <time>2015-06-24T12:53:02Z</time>
      </trkpt>
      <trkpt lat="43.39071" lon="6.05174">
        <ele>290.39999389648</ele>
        <time>2015-06-24T12:53:04Z</time>
      </trkpt>
      <trkpt lat="43.39069" lon="6.05176">
        <ele>290.39999389648</ele>
        <time>2015-06-24T12:53:06Z</time>
      </trkpt>
      <trkpt lat="43.39068" lon="6.05178">
        <ele>290.79998779297</ele>
        <time>2015-06-24T12:53:08Z</time>
      </trkpt>
      <trkpt lat="43.39067" lon="6.05181">
        <ele>291.20001220703</ele>
        <time>2015-06-24T12:53:10Z</time>
      </trkpt>
      <trkpt lat="43.39065" lon="6.05184">
        <ele>291.60000610352</ele>
        <time>2015-06-24T12:53:12Z</time>
      </trkpt>
      <trkpt lat="43.39064" lon="6.05186">
        <ele>292</ele>
        <time>2015-06-24T12:53:14Z</time>
      </trkpt>
      <trkpt lat="43.39062" lon="6.05189">
        <ele>292.20001220703</ele>
        <time>2015-06-24T12:53:16Z</time>
      </trkpt>
      <trkpt lat="43.39061" lon="6.05192">
        <ele>292.60000610352</ele>
        <time>2015-06-24T12:53:18Z</time>
      </trkpt>
      <trkpt lat="43.39059" lon="6.05194">
        <ele>292.60000610352</ele>
        <time>2015-06-24T12:53:20Z</time>
      </trkpt>
      <trkpt lat="43.39058" lon="6.05197">
        <ele>293</ele>
        <time>2015-06-24T12:53:22Z</time>
      </trkpt>
      <trkpt lat="43.39054" lon="6.05207">
        <ele>294</ele>
        <time>2015-06-24T12:53:28Z</time>
      </trkpt>
      <trkpt lat="43.39053" lon="6.05214">
        <ele>295</ele>
        <time>2015-06-24T12:53:32Z</time>
      </trkpt>
      <trkpt lat="43.39052" lon="6.05218">
        <ele>295.39999389648</ele>
        <time>2015-06-24T12:53:34Z</time>
      </trkpt>
      <trkpt lat="43.3905" lon="6.05225">
        <ele>295.60000610352</ele>
        <time>2015-06-24T12:53:38Z</time>
      </trkpt>
      <trkpt lat="43.3905" lon="6.05228">
        <ele>295.79998779297</ele>
        <time>2015-06-24T12:53:40Z</time>
      </trkpt>
      <trkpt lat="43.3905" lon="6.0523">
        <ele>296</ele>
        <time>2015-06-24T12:53:41Z</time>
      </trkpt>
      <trkpt lat="43.3905" lon="6.05231">
        <ele>296.20001220703</ele>
        <time>2015-06-24T12:53:42Z</time>
      </trkpt>
      <trkpt lat="43.39048" lon="6.05233">
        <ele>296.39999389648</ele>
        <time>2015-06-24T12:53:44Z</time>
      </trkpt>
      <trkpt lat="43.39048" lon="6.05236">
        <ele>296.79998779297</ele>
        <time>2015-06-24T12:53:46Z</time>
      </trkpt>
      <trkpt lat="43.39047" lon="6.05237">
        <ele>297</ele>
        <time>2015-06-24T12:53:47Z</time>
      </trkpt>
      <trkpt lat="43.39045" lon="6.05243">
        <ele>297.79998779297</ele>
        <time>2015-06-24T12:53:52Z</time>
      </trkpt>
      <trkpt lat="43.39043" lon="6.05245">
        <ele>298.20001220703</ele>
        <time>2015-06-24T12:53:54Z</time>
      </trkpt>
      <trkpt lat="43.39042" lon="6.05246">
        <ele>298.20001220703</ele>
        <time>2015-06-24T12:53:55Z</time>
      </trkpt>
      <trkpt lat="43.39037" lon="6.05247">
        <ele>298.79998779297</ele>
        <time>2015-06-24T12:54:00Z</time>
      </trkpt>
      <trkpt lat="43.39035" lon="6.05246">
        <ele>299.20001220703</ele>
        <time>2015-06-24T12:54:02Z</time>
      </trkpt>
      <trkpt lat="43.39031" lon="6.05244">
        <ele>299.79998779297</ele>
        <time>2015-06-24T12:54:06Z</time>
      </trkpt>
      <trkpt lat="43.39029" lon="6.05242">
        <ele>300.20001220703</ele>
        <time>2015-06-24T12:54:08Z</time>
      </trkpt>
      <trkpt lat="43.39027" lon="6.05239">
        <ele>300.20001220703</ele>
        <time>2015-06-24T12:54:10Z</time>
      </trkpt>
      <trkpt lat="43.39026" lon="6.05236">
        <ele>300.39999389648</ele>
        <time>2015-06-24T12:54:12Z</time>
      </trkpt>
      <trkpt lat="43.39025" lon="6.05233">
        <ele>301</ele>
        <time>2015-06-24T12:54:14Z</time>
      </trkpt>
      <trkpt lat="43.39024" lon="6.0523">
        <ele>301.39999389648</ele>
        <time>2015-06-24T12:54:16Z</time>
      </trkpt>
      <trkpt lat="43.39022" lon="6.05227">
        <ele>301.39999389648</ele>
        <time>2015-06-24T12:54:18Z</time>
      </trkpt>
      <trkpt lat="43.39022" lon="6.05223">
        <ele>301.60000610352</ele>
        <time>2015-06-24T12:54:20Z</time>
      </trkpt>
      <trkpt lat="43.39021" lon="6.05216">
        <ele>302.39999389648</ele>
        <time>2015-06-24T12:54:24Z</time>
      </trkpt>
      <trkpt lat="43.3902" lon="6.05213">
        <ele>302.79998779297</ele>
        <time>2015-06-24T12:54:26Z</time>
      </trkpt>
      <trkpt lat="43.39019" lon="6.0521">
        <ele>303.20001220703</ele>
        <time>2015-06-24T12:54:28Z</time>
      </trkpt>
      <trkpt lat="43.39019" lon="6.05208">
        <ele>303.39999389648</ele>
        <time>2015-06-24T12:54:29Z</time>
      </trkpt>
      <trkpt lat="43.39019" lon="6.05206">
        <ele>303.60000610352</ele>
        <time>2015-06-24T12:54:30Z</time>
      </trkpt>
      <trkpt lat="43.39019" lon="6.05204">
        <ele>303.60000610352</ele>
        <time>2015-06-24T12:54:31Z</time>
      </trkpt>
      <trkpt lat="43.39019" lon="6.05198">
        <ele>304</ele>
        <time>2015-06-24T12:54:34Z</time>
      </trkpt>
      <trkpt lat="43.39021" lon="6.05189">
        <ele>305</ele>
        <time>2015-06-24T12:54:40Z</time>
      </trkpt>
      <trkpt lat="43.39021" lon="6.05187">
        <ele>305.20001220703</ele>
        <time>2015-06-24T12:54:42Z</time>
      </trkpt>
      <trkpt lat="43.39021" lon="6.05181">
        <ele>305.79998779297</ele>
        <time>2015-06-24T12:54:46Z</time>
      </trkpt>
      <trkpt lat="43.3902" lon="6.05179">
        <ele>305.79998779297</ele>
        <time>2015-06-24T12:54:48Z</time>
      </trkpt>
      <trkpt lat="43.39019" lon="6.05175">
        <ele>306</ele>
        <time>2015-06-24T12:54:51Z</time>
      </trkpt>
      <trkpt lat="43.39018" lon="6.05174">
        <ele>306.20001220703</ele>
        <time>2015-06-24T12:54:52Z</time>
      </trkpt>
      <trkpt lat="43.39017" lon="6.05173">
        <ele>306.79998779297</ele>
        <time>2015-06-24T12:54:53Z</time>
      </trkpt>
      <trkpt lat="43.39015" lon="6.05171">
        <ele>307.39999389648</ele>
        <time>2015-06-24T12:54:56Z</time>
      </trkpt>
      <trkpt lat="43.39011" lon="6.05171">
        <ele>307.79998779297</ele>
        <time>2015-06-24T12:54:59Z</time>
      </trkpt>
      <trkpt lat="43.39009" lon="6.05172">
        <ele>308.20001220703</ele>
        <time>2015-06-24T12:55:02Z</time>
      </trkpt>
      <trkpt lat="43.39006" lon="6.05172">
        <ele>308.60000610352</ele>
        <time>2015-06-24T12:55:04Z</time>
      </trkpt>
      <trkpt lat="43.39005" lon="6.05172">
        <ele>309.20001220703</ele>
        <time>2015-06-24T12:55:06Z</time>
      </trkpt>
      <trkpt lat="43.39002" lon="6.05174">
        <ele>309.39999389648</ele>
        <time>2015-06-24T12:55:08Z</time>
      </trkpt>
      <trkpt lat="43.39001" lon="6.05176">
        <ele>309.60000610352</ele>
        <time>2015-06-24T12:55:10Z</time>
      </trkpt>
      <trkpt lat="43.38999" lon="6.05178">
        <ele>309.79998779297</ele>
        <time>2015-06-24T12:55:12Z</time>
      </trkpt>
      <trkpt lat="43.38999" lon="6.0518">
        <ele>309.79998779297</ele>
        <time>2015-06-24T12:55:13Z</time>
      </trkpt>
      <trkpt lat="43.38997" lon="6.05182">
        <ele>310.39999389648</ele>
        <time>2015-06-24T12:55:15Z</time>
      </trkpt>
      <trkpt lat="43.38996" lon="6.05187">
        <ele>310.79998779297</ele>
        <time>2015-06-24T12:55:18Z</time>
      </trkpt>
      <trkpt lat="43.38996" lon="6.0519">
        <ele>311</ele>
        <time>2015-06-24T12:55:20Z</time>
      </trkpt>
      <trkpt lat="43.38995" lon="6.05194">
        <ele>311.20001220703</ele>
        <time>2015-06-24T12:55:22Z</time>
      </trkpt>
      <trkpt lat="43.38995" lon="6.05201">
        <ele>311.60000610352</ele>
        <time>2015-06-24T12:55:26Z</time>
      </trkpt>
      <trkpt lat="43.38994" lon="6.05204">
        <ele>312</ele>
        <time>2015-06-24T12:55:28Z</time>
      </trkpt>
      <trkpt lat="43.38994" lon="6.05206">
        <ele>312</ele>
        <time>2015-06-24T12:55:29Z</time>
      </trkpt>
      <trkpt lat="43.38993" lon="6.05211">
        <ele>312.39999389648</ele>
        <time>2015-06-24T12:55:32Z</time>
      </trkpt>
      <trkpt lat="43.38993" lon="6.05215">
        <ele>312.39999389648</ele>
        <time>2015-06-24T12:55:34Z</time>
      </trkpt>
      <trkpt lat="43.38993" lon="6.05225">
        <ele>313.20001220703</ele>
        <time>2015-06-24T12:55:40Z</time>
      </trkpt>
      <trkpt lat="43.38993" lon="6.05229">
        <ele>313.20001220703</ele>
        <time>2015-06-24T12:55:42Z</time>
      </trkpt>
      <trkpt lat="43.38995" lon="6.05237">
        <ele>313.60000610352</ele>
        <time>2015-06-24T12:55:46Z</time>
      </trkpt>
      <trkpt lat="43.38995" lon="6.05242">
        <ele>313.60000610352</ele>
        <time>2015-06-24T12:55:48Z</time>
      </trkpt>
      <trkpt lat="43.38997" lon="6.05246">
        <ele>313.60000610352</ele>
        <time>2015-06-24T12:55:50Z</time>
      </trkpt>
      <trkpt lat="43.38997" lon="6.05251">
        <ele>313.79998779297</ele>
        <time>2015-06-24T12:55:52Z</time>
      </trkpt>
      <trkpt lat="43.38998" lon="6.05253">
        <ele>314.20001220703</ele>
        <time>2015-06-24T12:55:53Z</time>
      </trkpt>
      <trkpt lat="43.39" lon="6.0526">
        <ele>314.60000610352</ele>
        <time>2015-06-24T12:55:56Z</time>
      </trkpt>
      <trkpt lat="43.39" lon="6.05264">
        <ele>314.60000610352</ele>
        <time>2015-06-24T12:55:58Z</time>
      </trkpt>
      <trkpt lat="43.39001" lon="6.0527">
        <ele>314.60000610352</ele>
        <time>2015-06-24T12:56:00Z</time>
      </trkpt>
      <trkpt lat="43.39003" lon="6.05272">
        <ele>314.79998779297</ele>
        <time>2015-06-24T12:56:01Z</time>
      </trkpt>
      <trkpt lat="43.39003" lon="6.05274">
        <ele>314.79998779297</ele>
        <time>2015-06-24T12:56:02Z</time>
      </trkpt>
      <trkpt lat="43.39005" lon="6.0528">
        <ele>314.79998779297</ele>
        <time>2015-06-24T12:56:04Z</time>
      </trkpt>
      <trkpt lat="43.39008" lon="6.05289">
        <ele>315</ele>
        <time>2015-06-24T12:56:07Z</time>
      </trkpt>
      <trkpt lat="43.39009" lon="6.05292">
        <ele>315</ele>
        <time>2015-06-24T12:56:08Z</time>
      </trkpt>
      <trkpt lat="43.39011" lon="6.053">
        <ele>314.79998779297</ele>
        <time>2015-06-24T12:56:10Z</time>
      </trkpt>
      <trkpt lat="43.39013" lon="6.05306">
        <ele>314.79998779297</ele>
        <time>2015-06-24T12:56:12Z</time>
      </trkpt>
      <trkpt lat="43.39017" lon="6.05318">
        <ele>315.20001220703</ele>
        <time>2015-06-24T12:56:16Z</time>
      </trkpt>
      <trkpt lat="43.39019" lon="6.05324">
        <ele>315.79998779297</ele>
        <time>2015-06-24T12:56:18Z</time>
      </trkpt>
      <trkpt lat="43.39024" lon="6.05335">
        <ele>315.79998779297</ele>
        <time>2015-06-24T12:56:22Z</time>
      </trkpt>
      <trkpt lat="43.39027" lon="6.0534">
        <ele>316.20001220703</ele>
        <time>2015-06-24T12:56:24Z</time>
      </trkpt>
      <trkpt lat="43.39029" lon="6.05344">
        <ele>316.79998779297</ele>
        <time>2015-06-24T12:56:26Z</time>
      </trkpt>
      <trkpt lat="43.3903" lon="6.05347">
        <ele>316.79998779297</ele>
        <time>2015-06-24T12:56:27Z</time>
      </trkpt>
      <trkpt lat="43.39032" lon="6.05349">
        <ele>317</ele>
        <time>2015-06-24T12:56:28Z</time>
      </trkpt>
      <trkpt lat="43.39035" lon="6.05353">
        <ele>317.39999389648</ele>
        <time>2015-06-24T12:56:30Z</time>
      </trkpt>
      <trkpt lat="43.39039" lon="6.05357">
        <ele>317.79998779297</ele>
        <time>2015-06-24T12:56:32Z</time>
      </trkpt>
      <trkpt lat="43.39042" lon="6.0536">
        <ele>318</ele>
        <time>2015-06-24T12:56:34Z</time>
      </trkpt>
      <trkpt lat="43.39046" lon="6.05363">
        <ele>318.39999389648</ele>
        <time>2015-06-24T12:56:36Z</time>
      </trkpt>
      <trkpt lat="43.3905" lon="6.05366">
        <ele>318.39999389648</ele>
        <time>2015-06-24T12:56:38Z</time>
      </trkpt>
      <trkpt lat="43.39057" lon="6.05372">
        <ele>319.20001220703</ele>
        <time>2015-06-24T12:56:42Z</time>
      </trkpt>
      <trkpt lat="43.39061" lon="6.05374">
        <ele>319.39999389648</ele>
        <time>2015-06-24T12:56:44Z</time>
      </trkpt>
      <trkpt lat="43.39064" lon="6.05376">
        <ele>319.79998779297</ele>
        <time>2015-06-24T12:56:46Z</time>
      </trkpt>
      <trkpt lat="43.39068" lon="6.05378">
        <ele>320.20001220703</ele>
        <time>2015-06-24T12:56:48Z</time>
      </trkpt>
      <trkpt lat="43.39072" lon="6.05379">
        <ele>320.20001220703</ele>
        <time>2015-06-24T12:56:50Z</time>
      </trkpt>
      <trkpt lat="43.39077" lon="6.0538">
        <ele>320.60000610352</ele>
        <time>2015-06-24T12:56:52Z</time>
      </trkpt>
      <trkpt lat="43.39081" lon="6.05382">
        <ele>320.60000610352</ele>
        <time>2015-06-24T12:56:54Z</time>
      </trkpt>
      <trkpt lat="43.39086" lon="6.05384">
        <ele>320.79998779297</ele>
        <time>2015-06-24T12:56:56Z</time>
      </trkpt>
      <trkpt lat="43.3909" lon="6.05387">
        <ele>321</ele>
        <time>2015-06-24T12:56:58Z</time>
      </trkpt>
      <trkpt lat="43.39095" lon="6.05391">
        <ele>321.20001220703</ele>
        <time>2015-06-24T12:57:00Z</time>
      </trkpt>
      <trkpt lat="43.39102" lon="6.05399">
        <ele>320.79998779297</ele>
        <time>2015-06-24T12:57:04Z</time>
      </trkpt>
      <trkpt lat="43.39105" lon="6.05404">
        <ele>321.39999389648</ele>
        <time>2015-06-24T12:57:06Z</time>
      </trkpt>
      <trkpt lat="43.39107" lon="6.0541">
        <ele>321.20001220703</ele>
        <time>2015-06-24T12:57:08Z</time>
      </trkpt>
      <trkpt lat="43.39109" lon="6.05415">
        <ele>321</ele>
        <time>2015-06-24T12:57:10Z</time>
      </trkpt>
      <trkpt lat="43.39111" lon="6.05422">
        <ele>321.20001220703</ele>
        <time>2015-06-24T12:57:12Z</time>
      </trkpt>
      <trkpt lat="43.39112" lon="6.05428">
        <ele>321.39999389648</ele>
        <time>2015-06-24T12:57:14Z</time>
      </trkpt>
      <trkpt lat="43.39114" lon="6.05434">
        <ele>321.39999389648</ele>
        <time>2015-06-24T12:57:16Z</time>
      </trkpt>
      <trkpt lat="43.39116" lon="6.05441">
        <ele>321.60000610352</ele>
        <time>2015-06-24T12:57:18Z</time>
      </trkpt>
      <trkpt lat="43.39118" lon="6.05448">
        <ele>321.60000610352</ele>
        <time>2015-06-24T12:57:20Z</time>
      </trkpt>
      <trkpt lat="43.3912" lon="6.05455">
        <ele>321.79998779297</ele>
        <time>2015-06-24T12:57:22Z</time>
      </trkpt>
      <trkpt lat="43.39125" lon="6.05471">
        <ele>321.79998779297</ele>
        <time>2015-06-24T12:57:26Z</time>
      </trkpt>
      <trkpt lat="43.39129" lon="6.05491">
        <ele>322.39999389648</ele>
        <time>2015-06-24T12:57:31Z</time>
      </trkpt>
      <trkpt lat="43.39131" lon="6.05504">
        <ele>322</ele>
        <time>2015-06-24T12:57:34Z</time>
      </trkpt>
      <trkpt lat="43.39132" lon="6.05513">
        <ele>322.39999389648</ele>
        <time>2015-06-24T12:57:36Z</time>
      </trkpt>
      <trkpt lat="43.39132" lon="6.05517">
        <ele>322.39999389648</ele>
        <time>2015-06-24T12:57:37Z</time>
      </trkpt>
      <trkpt lat="43.39132" lon="6.05522">
        <ele>322.20001220703</ele>
        <time>2015-06-24T12:57:38Z</time>
      </trkpt>
      <trkpt lat="43.39127" lon="6.05536">
        <ele>322.60000610352</ele>
        <time>2015-06-24T12:57:42Z</time>
      </trkpt>
      <trkpt lat="43.39125" lon="6.05543">
        <ele>322.60000610352</ele>
        <time>2015-06-24T12:57:44Z</time>
      </trkpt>
      <trkpt lat="43.39123" lon="6.0555">
        <ele>322.39999389648</ele>
        <time>2015-06-24T12:57:46Z</time>
      </trkpt>
      <trkpt lat="43.3912" lon="6.05556">
        <ele>322.79998779297</ele>
        <time>2015-06-24T12:57:48Z</time>
      </trkpt>
      <trkpt lat="43.39119" lon="6.05559">
        <ele>323.20001220703</ele>
        <time>2015-06-24T12:57:49Z</time>
      </trkpt>
      <trkpt lat="43.39117" lon="6.05562">
        <ele>323.60000610352</ele>
        <time>2015-06-24T12:57:50Z</time>
      </trkpt>
      <trkpt lat="43.3911" lon="6.05573">
        <ele>324</ele>
        <time>2015-06-24T12:57:54Z</time>
      </trkpt>
      <trkpt lat="43.39107" lon="6.05578">
        <ele>323.79998779297</ele>
        <time>2015-06-24T12:57:56Z</time>
      </trkpt>
      <trkpt lat="43.391" lon="6.05589">
        <ele>324.79998779297</ele>
        <time>2015-06-24T12:58:00Z</time>
      </trkpt>
      <trkpt lat="43.39097" lon="6.05595">
        <ele>325</ele>
        <time>2015-06-24T12:58:02Z</time>
      </trkpt>
      <trkpt lat="43.39095" lon="6.056">
        <ele>325.39999389648</ele>
        <time>2015-06-24T12:58:04Z</time>
      </trkpt>
      <trkpt lat="43.39092" lon="6.05605">
        <ele>325.39999389648</ele>
        <time>2015-06-24T12:58:06Z</time>
      </trkpt>
      <trkpt lat="43.39089" lon="6.0561">
        <ele>325.60000610352</ele>
        <time>2015-06-24T12:58:08Z</time>
      </trkpt>
      <trkpt lat="43.39087" lon="6.05615">
        <ele>326.20001220703</ele>
        <time>2015-06-24T12:58:10Z</time>
      </trkpt>
      <trkpt lat="43.39083" lon="6.0562">
        <ele>326.20001220703</ele>
        <time>2015-06-24T12:58:12Z</time>
      </trkpt>
      <trkpt lat="43.39077" lon="6.05629">
        <ele>326.79998779297</ele>
        <time>2015-06-24T12:58:16Z</time>
      </trkpt>
      <trkpt lat="43.39068" lon="6.05642">
        <ele>327.39999389648</ele>
        <time>2015-06-24T12:58:22Z</time>
      </trkpt>
      <trkpt lat="43.39066" lon="6.05647">
        <ele>327.60000610352</ele>
        <time>2015-06-24T12:58:24Z</time>
      </trkpt>
      <trkpt lat="43.39065" lon="6.05654">
        <ele>328.20001220703</ele>
        <time>2015-06-24T12:58:26Z</time>
      </trkpt>
      <trkpt lat="43.39065" lon="6.05661">
        <ele>328</ele>
        <time>2015-06-24T12:58:28Z</time>
      </trkpt>
      <trkpt lat="43.39064" lon="6.05668">
        <ele>328</ele>
        <time>2015-06-24T12:58:30Z</time>
      </trkpt>
      <trkpt lat="43.39064" lon="6.05674">
        <ele>328</ele>
        <time>2015-06-24T12:58:32Z</time>
      </trkpt>
      <trkpt lat="43.39064" lon="6.0568">
        <ele>328.39999389648</ele>
        <time>2015-06-24T12:58:34Z</time>
      </trkpt>
      <trkpt lat="43.39065" lon="6.05686">
        <ele>329</ele>
        <time>2015-06-24T12:58:36Z</time>
      </trkpt>
      <trkpt lat="43.39066" lon="6.0569">
        <ele>329.20001220703</ele>
        <time>2015-06-24T12:58:38Z</time>
      </trkpt>
      <trkpt lat="43.39067" lon="6.05694">
        <ele>328.79998779297</ele>
        <time>2015-06-24T12:58:40Z</time>
      </trkpt>
      <trkpt lat="43.39068" lon="6.05697">
        <ele>329.39999389648</ele>
        <time>2015-06-24T12:58:42Z</time>
      </trkpt>
      <trkpt lat="43.39068" lon="6.05698">
        <ele>329.60000610352</ele>
        <time>2015-06-24T12:58:44Z</time>
      </trkpt>
      <trkpt lat="43.39068" lon="6.05699">
        <ele>329.39999389648</ele>
        <time>2015-06-24T12:58:46Z</time>
      </trkpt>
      <trkpt lat="43.39068" lon="6.05699">
        <ele>329.60000610352</ele>
        <time>2015-06-24T12:58:50Z</time>
      </trkpt>
      <trkpt lat="43.39068" lon="6.05699">
        <ele>329.60000610352</ele>
        <time>2015-06-24T12:58:52Z</time>
      </trkpt>
      <trkpt lat="43.39068" lon="6.05699">
        <ele>329.60000610352</ele>
        <time>2015-06-24T12:58:54Z</time>
      </trkpt>
      <trkpt lat="43.39069" lon="6.05698">
        <ele>329.39999389648</ele>
        <time>2015-06-24T12:58:56Z</time>
      </trkpt>
      <trkpt lat="43.39068" lon="6.05698">
        <ele>329.20001220703</ele>
        <time>2015-06-24T12:58:57Z</time>
      </trkpt>
      <trkpt lat="43.39068" lon="6.05698">
        <ele>329.20001220703</ele>
        <time>2015-06-24T12:58:58Z</time>
      </trkpt>
      <trkpt lat="43.39068" lon="6.05698">
        <ele>328.79998779297</ele>
        <time>2015-06-24T12:59:00Z</time>
      </trkpt>
      <trkpt lat="43.39068" lon="6.05699">
        <ele>328.79998779297</ele>
        <time>2015-06-24T12:59:02Z</time>
      </trkpt>
      <trkpt lat="43.39068" lon="6.05699">
        <ele>328.60000610352</ele>
        <time>2015-06-24T12:59:06Z</time>
      </trkpt>
      <trkpt lat="43.39068" lon="6.05699">
        <ele>328.60000610352</ele>
        <time>2015-06-24T12:59:08Z</time>
      </trkpt>
      <trkpt lat="43.39068" lon="6.05699">
        <ele>328.79998779297</ele>
        <time>2015-06-24T12:59:10Z</time>
      </trkpt>
      <trkpt lat="43.39068" lon="6.05699">
        <ele>328.60000610352</ele>
        <time>2015-06-24T12:59:14Z</time>
      </trkpt>
      <trkpt lat="43.39068" lon="6.05699">
        <ele>328.60000610352</ele>
        <time>2015-06-24T12:59:16Z</time>
      </trkpt>
      <trkpt lat="43.39068" lon="6.05699">
        <ele>328.20001220703</ele>
        <time>2015-06-24T12:59:20Z</time>
      </trkpt>
      <trkpt lat="43.39068" lon="6.05699">
        <ele>328.39999389648</ele>
        <time>2015-06-24T12:59:22Z</time>
      </trkpt>
      <trkpt lat="43.39068" lon="6.05699">
        <ele>328.60000610352</ele>
        <time>2015-06-24T12:59:24Z</time>
      </trkpt>
      <trkpt lat="43.39068" lon="6.05699">
        <ele>328.60000610352</ele>
        <time>2015-06-24T12:59:26Z</time>
      </trkpt>
      <trkpt lat="43.39068" lon="6.05699">
        <ele>328.60000610352</ele>
        <time>2015-06-24T12:59:28Z</time>
      </trkpt>
      <trkpt lat="43.39069" lon="6.05699">
        <ele>329</ele>
        <time>2015-06-24T12:59:32Z</time>
      </trkpt>
      <trkpt lat="43.39069" lon="6.057">
        <ele>328.79998779297</ele>
        <time>2015-06-24T12:59:34Z</time>
      </trkpt>
      <trkpt lat="43.39069" lon="6.057">
        <ele>328.60000610352</ele>
        <time>2015-06-24T12:59:38Z</time>
      </trkpt>
      <trkpt lat="43.39069" lon="6.057">
        <ele>328.79998779297</ele>
        <time>2015-06-24T12:59:40Z</time>
      </trkpt>
      <trkpt lat="43.39069" lon="6.057">
        <ele>328.79998779297</ele>
        <time>2015-06-24T12:59:44Z</time>
      </trkpt>
      <trkpt lat="43.39069" lon="6.057">
        <ele>328.79998779297</ele>
        <time>2015-06-24T12:59:46Z</time>
      </trkpt>
      <trkpt lat="43.39069" lon="6.057">
        <ele>329</ele>
        <time>2015-06-24T12:59:48Z</time>
      </trkpt>
      <trkpt lat="43.3907" lon="6.05699">
        <ele>329</ele>
        <time>2015-06-24T12:59:52Z</time>
      </trkpt>
      <trkpt lat="43.3907" lon="6.05699">
        <ele>329</ele>
        <time>2015-06-24T12:59:54Z</time>
      </trkpt>
      <trkpt lat="43.3907" lon="6.05699">
        <ele>328.79998779297</ele>
        <time>2015-06-24T12:59:56Z</time>
      </trkpt>
      <trkpt lat="43.3907" lon="6.05699">
        <ele>328.60000610352</ele>
        <time>2015-06-24T12:59:58Z</time>
      </trkpt>
      <trkpt lat="43.39069" lon="6.05699">
        <ele>328.60000610352</ele>
        <time>2015-06-24T13:00:00Z</time>
      </trkpt>
      <trkpt lat="43.39069" lon="6.05699">
        <ele>328.60000610352</ele>
        <time>2015-06-24T13:00:02Z</time>
      </trkpt>
      <trkpt lat="43.39069" lon="6.05699">
        <ele>328.79998779297</ele>
        <time>2015-06-24T13:00:04Z</time>
      </trkpt>
      <trkpt lat="43.39069" lon="6.05699">
        <ele>328.79998779297</ele>
        <time>2015-06-24T13:00:06Z</time>
      </trkpt>
      <trkpt lat="43.39069" lon="6.05699">
        <ele>328.60000610352</ele>
        <time>2015-06-24T13:00:08Z</time>
      </trkpt>
      <trkpt lat="43.39069" lon="6.05699">
        <ele>328.60000610352</ele>
        <time>2015-06-24T13:00:10Z</time>
      </trkpt>
      <trkpt lat="43.39069" lon="6.05699">
        <ele>328.60000610352</ele>
        <time>2015-06-24T13:00:12Z</time>
      </trkpt>
      <trkpt lat="43.39069" lon="6.05699">
        <ele>328.79998779297</ele>
        <time>2015-06-24T13:00:14Z</time>
      </trkpt>
      <trkpt lat="43.39069" lon="6.05699">
        <ele>328.79998779297</ele>
        <time>2015-06-24T13:00:16Z</time>
      </trkpt>
      <trkpt lat="43.39069" lon="6.05699">
        <ele>329</ele>
        <time>2015-06-24T13:00:24Z</time>
      </trkpt>
      <trkpt lat="43.39069" lon="6.05699">
        <ele>329</ele>
        <time>2015-06-24T13:00:30Z</time>
      </trkpt>
      <trkpt lat="43.39069" lon="6.05699">
        <ele>328.79998779297</ele>
        <time>2015-06-24T13:00:32Z</time>
      </trkpt>
      <trkpt lat="43.3907" lon="6.05699">
        <ele>328.79998779297</ele>
        <time>2015-06-24T13:00:34Z</time>
      </trkpt>
      <trkpt lat="43.3907" lon="6.05699">
        <ele>328.79998779297</ele>
        <time>2015-06-24T13:00:36Z</time>
      </trkpt>
      <trkpt lat="43.3907" lon="6.05699">
        <ele>328.79998779297</ele>
        <time>2015-06-24T13:00:38Z</time>
      </trkpt>
      <trkpt lat="43.3907" lon="6.05699">
        <ele>328.60000610352</ele>
        <time>2015-06-24T13:00:40Z</time>
      </trkpt>
      <trkpt lat="43.3907" lon="6.05698">
        <ele>328.60000610352</ele>
        <time>2015-06-24T13:00:41Z</time>
      </trkpt>
      <trkpt lat="43.3907" lon="6.05698">
        <ele>328.79998779297</ele>
        <time>2015-06-24T13:00:42Z</time>
      </trkpt>
      <trkpt lat="43.3907" lon="6.05698">
        <ele>328.79998779297</ele>
        <time>2015-06-24T13:00:44Z</time>
      </trkpt>
      <trkpt lat="43.3907" lon="6.05698">
        <ele>328.79998779297</ele>
        <time>2015-06-24T13:00:48Z</time>
      </trkpt>
      <trkpt lat="43.3907" lon="6.05698">
        <ele>328.79998779297</ele>
        <time>2015-06-24T13:00:50Z</time>
      </trkpt>
      <trkpt lat="43.3907" lon="6.05698">
        <ele>329</ele>
        <time>2015-06-24T13:00:52Z</time>
      </trkpt>
      <trkpt lat="43.3907" lon="6.05698">
        <ele>328.79998779297</ele>
        <time>2015-06-24T13:00:53Z</time>
      </trkpt>
      <trkpt lat="43.3907" lon="6.05698">
        <ele>328.79998779297</ele>
        <time>2015-06-24T13:00:54Z</time>
      </trkpt>
      <trkpt lat="43.3907" lon="6.05698">
        <ele>328.79998779297</ele>
        <time>2015-06-24T13:00:56Z</time>
      </trkpt>
      <trkpt lat="43.3907" lon="6.05698">
        <ele>328.79998779297</ele>
        <time>2015-06-24T13:00:58Z</time>
      </trkpt>
      <trkpt lat="43.3907" lon="6.05698">
        <ele>328.79998779297</ele>
        <time>2015-06-24T13:01:00Z</time>
      </trkpt>
      <trkpt lat="43.3907" lon="6.05698">
        <ele>328.79998779297</ele>
        <time>2015-06-24T13:01:02Z</time>
      </trkpt>
      <trkpt lat="43.3907" lon="6.05697">
        <ele>328.79998779297</ele>
        <time>2015-06-24T13:01:04Z</time>
      </trkpt>
      <trkpt lat="43.39069" lon="6.05697">
        <ele>328.60000610352</ele>
        <time>2015-06-24T13:01:10Z</time>
      </trkpt>
      <trkpt lat="43.39069" lon="6.05697">
        <ele>328.60000610352</ele>
        <time>2015-06-24T13:01:12Z</time>
      </trkpt>
      <trkpt lat="43.39069" lon="6.05697">
        <ele>328.79998779297</ele>
        <time>2015-06-24T13:01:16Z</time>
      </trkpt>
      <trkpt lat="43.39069" lon="6.05696">
        <ele>328.79998779297</ele>
        <time>2015-06-24T13:01:18Z</time>
      </trkpt>
      <trkpt lat="43.39069" lon="6.05696">
        <ele>328.60000610352</ele>
        <time>2015-06-24T13:01:20Z</time>
      </trkpt>
      <trkpt lat="43.39069" lon="6.05696">
        <ele>328.60000610352</ele>
        <time>2015-06-24T13:01:22Z</time>
      </trkpt>
      <trkpt lat="43.39069" lon="6.05696">
        <ele>328.39999389648</ele>
        <time>2015-06-24T13:01:24Z</time>
      </trkpt>
      <trkpt lat="43.39069" lon="6.05696">
        <ele>328.20001220703</ele>
        <time>2015-06-24T13:01:28Z</time>
      </trkpt>
      <trkpt lat="43.39069" lon="6.05696">
        <ele>328.20001220703</ele>
        <time>2015-06-24T13:01:29Z</time>
      </trkpt>
      <trkpt lat="43.39069" lon="6.05697">
        <ele>328.39999389648</ele>
        <time>2015-06-24T13:01:32Z</time>
      </trkpt>
      <trkpt lat="43.39069" lon="6.05697">
        <ele>328.20001220703</ele>
        <time>2015-06-24T13:01:34Z</time>
      </trkpt>
      <trkpt lat="43.39069" lon="6.05697">
        <ele>328.20001220703</ele>
        <time>2015-06-24T13:01:36Z</time>
      </trkpt>
      <trkpt lat="43.39069" lon="6.05697">
        <ele>328.20001220703</ele>
        <time>2015-06-24T13:01:42Z</time>
      </trkpt>
      <trkpt lat="43.39069" lon="6.05697">
        <ele>328.20001220703</ele>
        <time>2015-06-24T13:01:44Z</time>
      </trkpt>
      <trkpt lat="43.3907" lon="6.05696">
        <ele>328.39999389648</ele>
        <time>2015-06-24T13:01:48Z</time>
      </trkpt>
      <trkpt lat="43.39069" lon="6.05696">
        <ele>328.20001220703</ele>
        <time>2015-06-24T13:01:50Z</time>
      </trkpt>
      <trkpt lat="43.39069" lon="6.05696">
        <ele>328.20001220703</ele>
        <time>2015-06-24T13:01:52Z</time>
      </trkpt>
      <trkpt lat="43.39069" lon="6.05696">
        <ele>328.39999389648</ele>
        <time>2015-06-24T13:01:54Z</time>
      </trkpt>
      <trkpt lat="43.39069" lon="6.05696">
        <ele>328.20001220703</ele>
        <time>2015-06-24T13:01:56Z</time>
      </trkpt>
      <trkpt lat="43.39069" lon="6.05696">
        <ele>328.20001220703</ele>
        <time>2015-06-24T13:01:58Z</time>
      </trkpt>
      <trkpt lat="43.39069" lon="6.05696">
        <ele>328.60000610352</ele>
        <time>2015-06-24T13:02:00Z</time>
      </trkpt>
      <trkpt lat="43.39069" lon="6.05696">
        <ele>328.79998779297</ele>
        <time>2015-06-24T13:02:02Z</time>
      </trkpt>
      <trkpt lat="43.39069" lon="6.05696">
        <ele>329</ele>
        <time>2015-06-24T13:02:04Z</time>
      </trkpt>
      <trkpt lat="43.39069" lon="6.05697">
        <ele>329.20001220703</ele>
        <time>2015-06-24T13:02:06Z</time>
      </trkpt>
      <trkpt lat="43.39069" lon="6.05697">
        <ele>329.20001220703</ele>
        <time>2015-06-24T13:02:08Z</time>
      </trkpt>
      <trkpt lat="43.39069" lon="6.05697">
        <ele>329.20001220703</ele>
        <time>2015-06-24T13:02:10Z</time>
      </trkpt>
      <trkpt lat="43.39068" lon="6.05697">
        <ele>329.20001220703</ele>
        <time>2015-06-24T13:02:12Z</time>
      </trkpt>
      <trkpt lat="43.39068" lon="6.05697">
        <ele>329.20001220703</ele>
        <time>2015-06-24T13:02:14Z</time>
      </trkpt>
      <trkpt lat="43.39068" lon="6.05697">
        <ele>329.20001220703</ele>
        <time>2015-06-24T13:02:18Z</time>
      </trkpt>
      <trkpt lat="43.39068" lon="6.05697">
        <ele>329.20001220703</ele>
        <time>2015-06-24T13:02:20Z</time>
      </trkpt>
      <trkpt lat="43.39068" lon="6.05697">
        <ele>329.20001220703</ele>
        <time>2015-06-24T13:02:22Z</time>
      </trkpt>
      <trkpt lat="43.39068" lon="6.05697">
        <ele>329.39999389648</ele>
        <time>2015-06-24T13:02:24Z</time>
      </trkpt>
      <trkpt lat="43.39068" lon="6.05698">
        <ele>329</ele>
        <time>2015-06-24T13:02:28Z</time>
      </trkpt>
      <trkpt lat="43.39068" lon="6.05698">
        <ele>328.79998779297</ele>
        <time>2015-06-24T13:02:30Z</time>
      </trkpt>
      <trkpt lat="43.39068" lon="6.05698">
        <ele>329</ele>
        <time>2015-06-24T13:02:32Z</time>
      </trkpt>
      <trkpt lat="43.39068" lon="6.05698">
        <ele>329</ele>
        <time>2015-06-24T13:02:34Z</time>
      </trkpt>
      <trkpt lat="43.39068" lon="6.05698">
        <ele>329</ele>
        <time>2015-06-24T13:02:36Z</time>
      </trkpt>
      <trkpt lat="43.39068" lon="6.05698">
        <ele>329</ele>
        <time>2015-06-24T13:02:38Z</time>
      </trkpt>
      <trkpt lat="43.39068" lon="6.05698">
        <ele>329</ele>
        <time>2015-06-24T13:02:40Z</time>
      </trkpt>
      <trkpt lat="43.39068" lon="6.05698">
        <ele>329</ele>
        <time>2015-06-24T13:02:42Z</time>
      </trkpt>
      <trkpt lat="43.39068" lon="6.05698">
        <ele>328.79998779297</ele>
        <time>2015-06-24T13:02:44Z</time>
      </trkpt>
      <trkpt lat="43.39068" lon="6.05699">
        <ele>329.20001220703</ele>
        <time>2015-06-24T13:02:48Z</time>
      </trkpt>
      <trkpt lat="43.39067" lon="6.05701">
        <ele>329</ele>
        <time>2015-06-24T13:02:50Z</time>
      </trkpt>
      <trkpt lat="43.39067" lon="6.05703">
        <ele>329.20001220703</ele>
        <time>2015-06-24T13:02:51Z</time>
      </trkpt>
      <trkpt lat="43.39068" lon="6.05704">
        <ele>329.39999389648</ele>
        <time>2015-06-24T13:02:52Z</time>
      </trkpt>
      <trkpt lat="43.3907" lon="6.05705">
        <ele>329.79998779297</ele>
        <time>2015-06-24T13:02:54Z</time>
      </trkpt>
      <trkpt lat="43.3907" lon="6.05706">
        <ele>329.79998779297</ele>
        <time>2015-06-24T13:02:55Z</time>
      </trkpt>
      <trkpt lat="43.3907" lon="6.05708">
        <ele>329.60000610352</ele>
        <time>2015-06-24T13:02:56Z</time>
      </trkpt>
      <trkpt lat="43.3907" lon="6.0571">
        <ele>330</ele>
        <time>2015-06-24T13:02:58Z</time>
      </trkpt>
      <trkpt lat="43.39068" lon="6.05711">
        <ele>330.39999389648</ele>
        <time>2015-06-24T13:03:00Z</time>
      </trkpt>
      <trkpt lat="43.39069" lon="6.05712">
        <ele>330.60000610352</ele>
        <time>2015-06-24T13:03:02Z</time>
      </trkpt>
      <trkpt lat="43.39069" lon="6.05711">
        <ele>330.79998779297</ele>
        <time>2015-06-24T13:03:04Z</time>
      </trkpt>
      <trkpt lat="43.39069" lon="6.05714">
        <ele>330.79998779297</ele>
        <time>2015-06-24T13:03:08Z</time>
      </trkpt>
      <trkpt lat="43.39071" lon="6.05713">
        <ele>330.79998779297</ele>
        <time>2015-06-24T13:03:10Z</time>
      </trkpt>
      <trkpt lat="43.39072" lon="6.05713">
        <ele>330.60000610352</ele>
        <time>2015-06-24T13:03:12Z</time>
      </trkpt>
      <trkpt lat="43.39074" lon="6.05714">
        <ele>330.39999389648</ele>
        <time>2015-06-24T13:03:14Z</time>
      </trkpt>
      <trkpt lat="43.39076" lon="6.05714">
        <ele>330.20001220703</ele>
        <time>2015-06-24T13:03:16Z</time>
      </trkpt>
      <trkpt lat="43.39077" lon="6.05713">
        <ele>330.20001220703</ele>
        <time>2015-06-24T13:03:18Z</time>
      </trkpt>
      <trkpt lat="43.39077" lon="6.05713">
        <ele>330</ele>
        <time>2015-06-24T13:03:19Z</time>
      </trkpt>
      <trkpt lat="43.39077" lon="6.05713">
        <ele>330</ele>
        <time>2015-06-24T13:03:20Z</time>
      </trkpt>
      <trkpt lat="43.39077" lon="6.05713">
        <ele>330</ele>
        <time>2015-06-24T13:03:22Z</time>
      </trkpt>
      <trkpt lat="43.39077" lon="6.05713">
        <ele>330</ele>
        <time>2015-06-24T13:03:24Z</time>
      </trkpt>
      <trkpt lat="43.39077" lon="6.05713">
        <ele>330</ele>
        <time>2015-06-24T13:03:26Z</time>
      </trkpt>
      <trkpt lat="43.39077" lon="6.05713">
        <ele>329.79998779297</ele>
        <time>2015-06-24T13:03:28Z</time>
      </trkpt>
      <trkpt lat="43.39077" lon="6.05713">
        <ele>329.79998779297</ele>
        <time>2015-06-24T13:03:30Z</time>
      </trkpt>
      <trkpt lat="43.39076" lon="6.05713">
        <ele>329.79998779297</ele>
        <time>2015-06-24T13:03:32Z</time>
      </trkpt>
      <trkpt lat="43.39076" lon="6.05713">
        <ele>329.60000610352</ele>
        <time>2015-06-24T13:03:34Z</time>
      </trkpt>
      <trkpt lat="43.39077" lon="6.05713">
        <ele>329.79998779297</ele>
        <time>2015-06-24T13:03:36Z</time>
      </trkpt>
      <trkpt lat="43.39077" lon="6.05713">
        <ele>329.79998779297</ele>
        <time>2015-06-24T13:03:38Z</time>
      </trkpt>
      <trkpt lat="43.39077" lon="6.05713">
        <ele>329.60000610352</ele>
        <time>2015-06-24T13:03:42Z</time>
      </trkpt>
      <trkpt lat="43.39077" lon="6.05713">
        <ele>329.79998779297</ele>
        <time>2015-06-24T13:03:44Z</time>
      </trkpt>
      <trkpt lat="43.39077" lon="6.05713">
        <ele>330</ele>
        <time>2015-06-24T13:03:48Z</time>
      </trkpt>
      <trkpt lat="43.39077" lon="6.05713">
        <ele>329.79998779297</ele>
        <time>2015-06-24T13:03:54Z</time>
      </trkpt>
      <trkpt lat="43.39076" lon="6.05713">
        <ele>330</ele>
        <time>2015-06-24T13:03:56Z</time>
      </trkpt>
      <trkpt lat="43.39076" lon="6.05713">
        <ele>330</ele>
        <time>2015-06-24T13:03:58Z</time>
      </trkpt>
      <trkpt lat="43.39076" lon="6.05713">
        <ele>330</ele>
        <time>2015-06-24T13:04:00Z</time>
      </trkpt>
      <trkpt lat="43.39076" lon="6.05713">
        <ele>329.79998779297</ele>
        <time>2015-06-24T13:04:02Z</time>
      </trkpt>
      <trkpt lat="43.39076" lon="6.05713">
        <ele>329.79998779297</ele>
        <time>2015-06-24T13:04:04Z</time>
      </trkpt>
      <trkpt lat="43.39076" lon="6.05714">
        <ele>330</ele>
        <time>2015-06-24T13:04:06Z</time>
      </trkpt>
      <trkpt lat="43.39076" lon="6.05714">
        <ele>330</ele>
        <time>2015-06-24T13:04:12Z</time>
      </trkpt>
      <trkpt lat="43.39076" lon="6.05714">
        <ele>330</ele>
        <time>2015-06-24T13:04:14Z</time>
      </trkpt>
      <trkpt lat="43.39076" lon="6.05714">
        <ele>330</ele>
        <time>2015-06-24T13:04:16Z</time>
      </trkpt>
      <trkpt lat="43.39077" lon="6.05714">
        <ele>329.79998779297</ele>
        <time>2015-06-24T13:04:18Z</time>
      </trkpt>
      <trkpt lat="43.39077" lon="6.05713">
        <ele>329.79998779297</ele>
        <time>2015-06-24T13:04:20Z</time>
      </trkpt>
      <trkpt lat="43.39077" lon="6.05713">
        <ele>329.60000610352</ele>
        <time>2015-06-24T13:04:22Z</time>
      </trkpt>
      <trkpt lat="43.39077" lon="6.05713">
        <ele>329.60000610352</ele>
        <time>2015-06-24T13:04:24Z</time>
      </trkpt>
      <trkpt lat="43.39077" lon="6.05713">
        <ele>329.60000610352</ele>
        <time>2015-06-24T13:04:30Z</time>
      </trkpt>
      <trkpt lat="43.39077" lon="6.05713">
        <ele>329.79998779297</ele>
        <time>2015-06-24T13:04:34Z</time>
      </trkpt>
      <trkpt lat="43.39076" lon="6.05713">
        <ele>329.60000610352</ele>
        <time>2015-06-24T13:04:36Z</time>
      </trkpt>
      <trkpt lat="43.39074" lon="6.05713">
        <ele>329.60000610352</ele>
        <time>2015-06-24T13:04:38Z</time>
      </trkpt>
      <trkpt lat="43.39072" lon="6.05713">
        <ele>329.79998779297</ele>
        <time>2015-06-24T13:04:40Z</time>
      </trkpt>
      <trkpt lat="43.39069" lon="6.05713">
        <ele>331</ele>
        <time>2015-06-24T13:04:42Z</time>
      </trkpt>
      <trkpt lat="43.39068" lon="6.05712">
        <ele>331.39999389648</ele>
        <time>2015-06-24T13:04:43Z</time>
      </trkpt>
      <trkpt lat="43.39067" lon="6.05711">
        <ele>331.39999389648</ele>
        <time>2015-06-24T13:04:44Z</time>
      </trkpt>
      <trkpt lat="43.39066" lon="6.05711">
        <ele>331.79998779297</ele>
        <time>2015-06-24T13:04:46Z</time>
      </trkpt>
      <trkpt lat="43.39064" lon="6.05711">
        <ele>332.20001220703</ele>
        <time>2015-06-24T13:04:48Z</time>
      </trkpt>
      <trkpt lat="43.39064" lon="6.05712">
        <ele>332.20001220703</ele>
        <time>2015-06-24T13:04:50Z</time>
      </trkpt>
      <trkpt lat="43.39063" lon="6.05713">
        <ele>332.20001220703</ele>
        <time>2015-06-24T13:04:52Z</time>
      </trkpt>
      <trkpt lat="43.39062" lon="6.05712">
        <ele>332.39999389648</ele>
        <time>2015-06-24T13:04:54Z</time>
      </trkpt>
      <trkpt lat="43.39061" lon="6.05712">
        <ele>332.60000610352</ele>
        <time>2015-06-24T13:04:56Z</time>
      </trkpt>
      <trkpt lat="43.39059" lon="6.05711">
        <ele>332.39999389648</ele>
        <time>2015-06-24T13:04:58Z</time>
      </trkpt>
      <trkpt lat="43.39058" lon="6.0571">
        <ele>332.60000610352</ele>
        <time>2015-06-24T13:04:59Z</time>
      </trkpt>
      <trkpt lat="43.39057" lon="6.05709">
        <ele>332.60000610352</ele>
        <time>2015-06-24T13:05:00Z</time>
      </trkpt>
      <trkpt lat="43.39055" lon="6.05707">
        <ele>332.79998779297</ele>
        <time>2015-06-24T13:05:02Z</time>
      </trkpt>
      <trkpt lat="43.39053" lon="6.05705">
        <ele>333</ele>
        <time>2015-06-24T13:05:04Z</time>
      </trkpt>
      <trkpt lat="43.39052" lon="6.05703">
        <ele>333.20001220703</ele>
        <time>2015-06-24T13:05:05Z</time>
      </trkpt>
      <trkpt lat="43.3905" lon="6.057">
        <ele>334.39999389648</ele>
        <time>2015-06-24T13:05:07Z</time>
      </trkpt>
      <trkpt lat="43.3905" lon="6.05698">
        <ele>334.60000610352</ele>
        <time>2015-06-24T13:05:08Z</time>
      </trkpt>
      <trkpt lat="43.39048" lon="6.05696">
        <ele>335</ele>
        <time>2015-06-24T13:05:10Z</time>
      </trkpt>
      <trkpt lat="43.39046" lon="6.05694">
        <ele>335</ele>
        <time>2015-06-24T13:05:12Z</time>
      </trkpt>
      <trkpt lat="43.39044" lon="6.05691">
        <ele>335.60000610352</ele>
        <time>2015-06-24T13:05:14Z</time>
      </trkpt>
      <trkpt lat="43.39043" lon="6.0569">
        <ele>336.20001220703</ele>
        <time>2015-06-24T13:05:15Z</time>
      </trkpt>
      <trkpt lat="43.39042" lon="6.05689">
        <ele>336.60000610352</ele>
        <time>2015-06-24T13:05:16Z</time>
      </trkpt>
      <trkpt lat="43.39041" lon="6.05688">
        <ele>336.60000610352</ele>
        <time>2015-06-24T13:05:18Z</time>
      </trkpt>
      <trkpt lat="43.39041" lon="6.05687">
        <ele>336.60000610352</ele>
        <time>2015-06-24T13:05:20Z</time>
      </trkpt>
      <trkpt lat="43.39041" lon="6.05687">
        <ele>336.39999389648</ele>
        <time>2015-06-24T13:05:22Z</time>
      </trkpt>
      <trkpt lat="43.39041" lon="6.05688">
        <ele>336.60000610352</ele>
        <time>2015-06-24T13:05:26Z</time>
      </trkpt>
      <trkpt lat="43.3904" lon="6.05688">
        <ele>336.39999389648</ele>
        <time>2015-06-24T13:05:28Z</time>
      </trkpt>
      <trkpt lat="43.3904" lon="6.05687">
        <ele>336.60000610352</ele>
        <time>2015-06-24T13:05:29Z</time>
      </trkpt>
      <trkpt lat="43.3904" lon="6.05687">
        <ele>336.60000610352</ele>
        <time>2015-06-24T13:05:30Z</time>
      </trkpt>
      <trkpt lat="43.3904" lon="6.05686">
        <ele>336.39999389648</ele>
        <time>2015-06-24T13:05:32Z</time>
      </trkpt>
      <trkpt lat="43.39038" lon="6.05685">
        <ele>336.39999389648</ele>
        <time>2015-06-24T13:05:34Z</time>
      </trkpt>
      <trkpt lat="43.39037" lon="6.05682">
        <ele>336.60000610352</ele>
        <time>2015-06-24T13:05:36Z</time>
      </trkpt>
      <trkpt lat="43.39037" lon="6.05681">
        <ele>336.79998779297</ele>
        <time>2015-06-24T13:05:37Z</time>
      </trkpt>
      <trkpt lat="43.39035" lon="6.05679">
        <ele>337</ele>
        <time>2015-06-24T13:05:38Z</time>
      </trkpt>
      <trkpt lat="43.39034" lon="6.05679">
        <ele>337</ele>
        <time>2015-06-24T13:05:40Z</time>
      </trkpt>
      <trkpt lat="43.39035" lon="6.05678">
        <ele>337.20001220703</ele>
        <time>2015-06-24T13:05:42Z</time>
      </trkpt>
      <trkpt lat="43.39034" lon="6.05677">
        <ele>337.20001220703</ele>
        <time>2015-06-24T13:05:44Z</time>
      </trkpt>
      <trkpt lat="43.39033" lon="6.05676">
        <ele>337.60000610352</ele>
        <time>2015-06-24T13:05:46Z</time>
      </trkpt>
      <trkpt lat="43.39032" lon="6.05675">
        <ele>337.60000610352</ele>
        <time>2015-06-24T13:05:48Z</time>
      </trkpt>
      <trkpt lat="43.3903" lon="6.05674">
        <ele>337.79998779297</ele>
        <time>2015-06-24T13:05:50Z</time>
      </trkpt>
      <trkpt lat="43.39029" lon="6.05673">
        <ele>338</ele>
        <time>2015-06-24T13:05:52Z</time>
      </trkpt>
      <trkpt lat="43.39028" lon="6.05672">
        <ele>338.39999389648</ele>
        <time>2015-06-24T13:05:55Z</time>
      </trkpt>
      <trkpt lat="43.39028" lon="6.05672">
        <ele>338.39999389648</ele>
        <time>2015-06-24T13:05:56Z</time>
      </trkpt>
      <trkpt lat="43.39027" lon="6.05672">
        <ele>338.79998779297</ele>
        <time>2015-06-24T13:05:58Z</time>
      </trkpt>
      <trkpt lat="43.39028" lon="6.05673">
        <ele>339</ele>
        <time>2015-06-24T13:06:00Z</time>
      </trkpt>
      <trkpt lat="43.39028" lon="6.05674">
        <ele>338.79998779297</ele>
        <time>2015-06-24T13:06:02Z</time>
      </trkpt>
      <trkpt lat="43.39028" lon="6.05674">
        <ele>339</ele>
        <time>2015-06-24T13:06:04Z</time>
      </trkpt>
      <trkpt lat="43.39028" lon="6.05674">
        <ele>338.79998779297</ele>
        <time>2015-06-24T13:06:06Z</time>
      </trkpt>
      <trkpt lat="43.39028" lon="6.05675">
        <ele>339</ele>
        <time>2015-06-24T13:06:07Z</time>
      </trkpt>
      <trkpt lat="43.39029" lon="6.05676">
        <ele>339</ele>
        <time>2015-06-24T13:06:08Z</time>
      </trkpt>
      <trkpt lat="43.39029" lon="6.05678">
        <ele>339.20001220703</ele>
        <time>2015-06-24T13:06:10Z</time>
      </trkpt>
      <trkpt lat="43.3903" lon="6.05681">
        <ele>339.20001220703</ele>
        <time>2015-06-24T13:06:12Z</time>
      </trkpt>
      <trkpt lat="43.3903" lon="6.05683">
        <ele>339.20001220703</ele>
        <time>2015-06-24T13:06:13Z</time>
      </trkpt>
      <trkpt lat="43.3903" lon="6.05685">
        <ele>339.39999389648</ele>
        <time>2015-06-24T13:06:14Z</time>
      </trkpt>
      <trkpt lat="43.3903" lon="6.05686">
        <ele>339.20001220703</ele>
        <time>2015-06-24T13:06:16Z</time>
      </trkpt>
      <trkpt lat="43.3903" lon="6.05686">
        <ele>339.39999389648</ele>
        <time>2015-06-24T13:06:18Z</time>
      </trkpt>
      <trkpt lat="43.3903" lon="6.05686">
        <ele>339.39999389648</ele>
        <time>2015-06-24T13:06:20Z</time>
      </trkpt>
      <trkpt lat="43.3903" lon="6.05686">
        <ele>339.39999389648</ele>
        <time>2015-06-24T13:06:22Z</time>
      </trkpt>
      <trkpt lat="43.39031" lon="6.05686">
        <ele>339.20001220703</ele>
        <time>2015-06-24T13:06:24Z</time>
      </trkpt>
      <trkpt lat="43.39031" lon="6.05687">
        <ele>339.20001220703</ele>
        <time>2015-06-24T13:06:26Z</time>
      </trkpt>
      <trkpt lat="43.39031" lon="6.05687">
        <ele>339.20001220703</ele>
        <time>2015-06-24T13:06:28Z</time>
      </trkpt>
      <trkpt lat="43.3903" lon="6.05689">
        <ele>339.20001220703</ele>
        <time>2015-06-24T13:06:30Z</time>
      </trkpt>
      <trkpt lat="43.3903" lon="6.05691">
        <ele>339.20001220703</ele>
        <time>2015-06-24T13:06:32Z</time>
      </trkpt>
      <trkpt lat="43.39029" lon="6.05693">
        <ele>339.39999389648</ele>
        <time>2015-06-24T13:06:34Z</time>
      </trkpt>
      <trkpt lat="43.39029" lon="6.05695">
        <ele>339.79998779297</ele>
        <time>2015-06-24T13:06:36Z</time>
      </trkpt>
      <trkpt lat="43.3903" lon="6.05697">
        <ele>340</ele>
        <time>2015-06-24T13:06:38Z</time>
      </trkpt>
      <trkpt lat="43.3903" lon="6.05698">
        <ele>340</ele>
        <time>2015-06-24T13:06:40Z</time>
      </trkpt>
      <trkpt lat="43.3903" lon="6.05699">
        <ele>340.20001220703</ele>
        <time>2015-06-24T13:06:42Z</time>
      </trkpt>
      <trkpt lat="43.3903" lon="6.05699">
        <ele>340</ele>
        <time>2015-06-24T13:06:44Z</time>
      </trkpt>
      <trkpt lat="43.3903" lon="6.057">
        <ele>340.20001220703</ele>
        <time>2015-06-24T13:06:48Z</time>
      </trkpt>
      <trkpt lat="43.3903" lon="6.05701">
        <ele>340.39999389648</ele>
        <time>2015-06-24T13:06:50Z</time>
      </trkpt>
      <trkpt lat="43.3903" lon="6.05701">
        <ele>340.39999389648</ele>
        <time>2015-06-24T13:06:52Z</time>
      </trkpt>
      <trkpt lat="43.3903" lon="6.05701">
        <ele>340.20001220703</ele>
        <time>2015-06-24T13:06:54Z</time>
      </trkpt>
      <trkpt lat="43.3903" lon="6.05702">
        <ele>340.39999389648</ele>
        <time>2015-06-24T13:06:56Z</time>
      </trkpt>
      <trkpt lat="43.3903" lon="6.05702">
        <ele>340.39999389648</ele>
        <time>2015-06-24T13:06:58Z</time>
      </trkpt>
      <trkpt lat="43.39029" lon="6.05702">
        <ele>340.60000610352</ele>
        <time>2015-06-24T13:07:00Z</time>
      </trkpt>
      <trkpt lat="43.39029" lon="6.05702">
        <ele>340.60000610352</ele>
        <time>2015-06-24T13:07:02Z</time>
      </trkpt>
      <trkpt lat="43.39029" lon="6.05703">
        <ele>340.60000610352</ele>
        <time>2015-06-24T13:07:04Z</time>
      </trkpt>
      <trkpt lat="43.39028" lon="6.05705">
        <ele>340.60000610352</ele>
        <time>2015-06-24T13:07:06Z</time>
      </trkpt>
      <trkpt lat="43.39028" lon="6.05706">
        <ele>341</ele>
        <time>2015-06-24T13:07:08Z</time>
      </trkpt>
      <trkpt lat="43.39027" lon="6.05707">
        <ele>341.20001220703</ele>
        <time>2015-06-24T13:07:10Z</time>
      </trkpt>
      <trkpt lat="43.39027" lon="6.05708">
        <ele>341.39999389648</ele>
        <time>2015-06-24T13:07:11Z</time>
      </trkpt>
      <trkpt lat="43.39027" lon="6.05711">
        <ele>341.79998779297</ele>
        <time>2015-06-24T13:07:14Z</time>
      </trkpt>
      <trkpt lat="43.39027" lon="6.05713">
        <ele>342</ele>
        <time>2015-06-24T13:07:16Z</time>
      </trkpt>
      <trkpt lat="43.39027" lon="6.05715">
        <ele>342.39999389648</ele>
        <time>2015-06-24T13:07:18Z</time>
      </trkpt>
      <trkpt lat="43.39027" lon="6.05716">
        <ele>342.60000610352</ele>
        <time>2015-06-24T13:07:20Z</time>
      </trkpt>
      <trkpt lat="43.39027" lon="6.05716">
        <ele>342.60000610352</ele>
        <time>2015-06-24T13:07:22Z</time>
      </trkpt>
      <trkpt lat="43.39027" lon="6.05716">
        <ele>342.60000610352</ele>
        <time>2015-06-24T13:07:24Z</time>
      </trkpt>
      <trkpt lat="43.39027" lon="6.05716">
        <ele>342.79998779297</ele>
        <time>2015-06-24T13:07:25Z</time>
      </trkpt>
      <trkpt lat="43.39027" lon="6.05717">
        <ele>342.60000610352</ele>
        <time>2015-06-24T13:07:26Z</time>
      </trkpt>
      <trkpt lat="43.39027" lon="6.05719">
        <ele>342.60000610352</ele>
        <time>2015-06-24T13:07:28Z</time>
      </trkpt>
      <trkpt lat="43.39027" lon="6.05719">
        <ele>343</ele>
        <time>2015-06-24T13:07:30Z</time>
      </trkpt>
      <trkpt lat="43.39027" lon="6.0572">
        <ele>343.20001220703</ele>
        <time>2015-06-24T13:07:32Z</time>
      </trkpt>
      <trkpt lat="43.39027" lon="6.05721">
        <ele>343.20001220703</ele>
        <time>2015-06-24T13:07:34Z</time>
      </trkpt>
      <trkpt lat="43.39027" lon="6.05721">
        <ele>343.20001220703</ele>
        <time>2015-06-24T13:07:36Z</time>
      </trkpt>
      <trkpt lat="43.39028" lon="6.05722">
        <ele>343.20001220703</ele>
        <time>2015-06-24T13:07:37Z</time>
      </trkpt>
      <trkpt lat="43.39028" lon="6.05721">
        <ele>343.39999389648</ele>
        <time>2015-06-24T13:07:40Z</time>
      </trkpt>
      <trkpt lat="43.39028" lon="6.05721">
        <ele>343.39999389648</ele>
        <time>2015-06-24T13:07:42Z</time>
      </trkpt>
      <trkpt lat="43.39028" lon="6.05722">
        <ele>343.60000610352</ele>
        <time>2015-06-24T13:07:44Z</time>
      </trkpt>
      <trkpt lat="43.39028" lon="6.05722">
        <ele>343.60000610352</ele>
        <time>2015-06-24T13:07:46Z</time>
      </trkpt>
      <trkpt lat="43.39028" lon="6.05722">
        <ele>343.60000610352</ele>
        <time>2015-06-24T13:07:48Z</time>
      </trkpt>
      <trkpt lat="43.39028" lon="6.05723">
        <ele>343.60000610352</ele>
        <time>2015-06-24T13:07:50Z</time>
      </trkpt>
      <trkpt lat="43.39028" lon="6.05725">
        <ele>343.79998779297</ele>
        <time>2015-06-24T13:07:52Z</time>
      </trkpt>
      <trkpt lat="43.39029" lon="6.05726">
        <ele>344.39999389648</ele>
        <time>2015-06-24T13:07:54Z</time>
      </trkpt>
      <trkpt lat="43.39029" lon="6.05728">
        <ele>344.60000610352</ele>
        <time>2015-06-24T13:07:55Z</time>
      </trkpt>
      <trkpt lat="43.39029" lon="6.05728">
        <ele>344.20001220703</ele>
        <time>2015-06-24T13:07:56Z</time>
      </trkpt>
      <trkpt lat="43.3903" lon="6.05729">
        <ele>344.20001220703</ele>
        <time>2015-06-24T13:07:58Z</time>
      </trkpt>
      <trkpt lat="43.39029" lon="6.05729">
        <ele>344.39999389648</ele>
        <time>2015-06-24T13:08:00Z</time>
      </trkpt>
      <trkpt lat="43.39029" lon="6.05731">
        <ele>344.39999389648</ele>
        <time>2015-06-24T13:08:02Z</time>
      </trkpt>
      <trkpt lat="43.3903" lon="6.05734">
        <ele>344.60000610352</ele>
        <time>2015-06-24T13:08:04Z</time>
      </trkpt>
      <trkpt lat="43.3903" lon="6.05736">
        <ele>345</ele>
        <time>2015-06-24T13:08:05Z</time>
      </trkpt>
      <trkpt lat="43.3903" lon="6.05738">
        <ele>345.60000610352</ele>
        <time>2015-06-24T13:08:06Z</time>
      </trkpt>
      <trkpt lat="43.3903" lon="6.05742">
        <ele>346.20001220703</ele>
        <time>2015-06-24T13:08:08Z</time>
      </trkpt>
      <trkpt lat="43.3903" lon="6.05748">
        <ele>347.39999389648</ele>
        <time>2015-06-24T13:08:12Z</time>
      </trkpt>
      <trkpt lat="43.39031" lon="6.05752">
        <ele>348.20001220703</ele>
        <time>2015-06-24T13:08:14Z</time>
      </trkpt>
      <trkpt lat="43.39032" lon="6.05755">
        <ele>349</ele>
        <time>2015-06-24T13:08:16Z</time>
      </trkpt>
      <trkpt lat="43.39033" lon="6.05758">
        <ele>349.60000610352</ele>
        <time>2015-06-24T13:08:18Z</time>
      </trkpt>
      <trkpt lat="43.39033" lon="6.05761">
        <ele>350</ele>
        <time>2015-06-24T13:08:20Z</time>
      </trkpt>
      <trkpt lat="43.39034" lon="6.05762">
        <ele>350.20001220703</ele>
        <time>2015-06-24T13:08:22Z</time>
      </trkpt>
      <trkpt lat="43.39034" lon="6.05762">
        <ele>350.20001220703</ele>
        <time>2015-06-24T13:08:24Z</time>
      </trkpt>
      <trkpt lat="43.39034" lon="6.05762">
        <ele>350.20001220703</ele>
        <time>2015-06-24T13:08:26Z</time>
      </trkpt>
      <trkpt lat="43.39035" lon="6.05763">
        <ele>350.60000610352</ele>
        <time>2015-06-24T13:08:28Z</time>
      </trkpt>
      <trkpt lat="43.39034" lon="6.05764">
        <ele>350.79998779297</ele>
        <time>2015-06-24T13:08:30Z</time>
      </trkpt>
      <trkpt lat="43.39034" lon="6.05765">
        <ele>351.20001220703</ele>
        <time>2015-06-24T13:08:32Z</time>
      </trkpt>
      <trkpt lat="43.39034" lon="6.05765">
        <ele>351.39999389648</ele>
        <time>2015-06-24T13:08:34Z</time>
      </trkpt>
      <trkpt lat="43.39034" lon="6.05767">
        <ele>351.39999389648</ele>
        <time>2015-06-24T13:08:38Z</time>
      </trkpt>
      <trkpt lat="43.39034" lon="6.05769">
        <ele>352</ele>
        <time>2015-06-24T13:08:40Z</time>
      </trkpt>
      <trkpt lat="43.39034" lon="6.05771">
        <ele>352.20001220703</ele>
        <time>2015-06-24T13:08:44Z</time>
      </trkpt>
      <trkpt lat="43.39034" lon="6.05773">
        <ele>352.79998779297</ele>
        <time>2015-06-24T13:08:46Z</time>
      </trkpt>
      <trkpt lat="43.39034" lon="6.05773">
        <ele>353</ele>
        <time>2015-06-24T13:08:48Z</time>
      </trkpt>
      <trkpt lat="43.39034" lon="6.05774">
        <ele>353</ele>
        <time>2015-06-24T13:08:50Z</time>
      </trkpt>
      <trkpt lat="43.39034" lon="6.05774">
        <ele>352.79998779297</ele>
        <time>2015-06-24T13:08:51Z</time>
      </trkpt>
      <trkpt lat="43.39034" lon="6.05774">
        <ele>352.79998779297</ele>
        <time>2015-06-24T13:08:52Z</time>
      </trkpt>
      <trkpt lat="43.39034" lon="6.05773">
        <ele>352.79998779297</ele>
        <time>2015-06-24T13:08:54Z</time>
      </trkpt>
      <trkpt lat="43.39034" lon="6.05773">
        <ele>352.79998779297</ele>
        <time>2015-06-24T13:08:56Z</time>
      </trkpt>
      <trkpt lat="43.39034" lon="6.05773">
        <ele>352.79998779297</ele>
        <time>2015-06-24T13:08:58Z</time>
      </trkpt>
      <trkpt lat="43.39034" lon="6.05773">
        <ele>353</ele>
        <time>2015-06-24T13:09:00Z</time>
      </trkpt>
      <trkpt lat="43.39034" lon="6.05773">
        <ele>352.79998779297</ele>
        <time>2015-06-24T13:09:02Z</time>
      </trkpt>
      <trkpt lat="43.39034" lon="6.05774">
        <ele>352.79998779297</ele>
        <time>2015-06-24T13:09:04Z</time>
      </trkpt>
      <trkpt lat="43.39033" lon="6.05777">
        <ele>353.20001220703</ele>
        <time>2015-06-24T13:09:06Z</time>
      </trkpt>
      <trkpt lat="43.39034" lon="6.05779">
        <ele>353.39999389648</ele>
        <time>2015-06-24T13:09:07Z</time>
      </trkpt>
      <trkpt lat="43.39034" lon="6.05781">
        <ele>353.39999389648</ele>
        <time>2015-06-24T13:09:08Z</time>
      </trkpt>
      <trkpt lat="43.39034" lon="6.05785">
        <ele>354.20001220703</ele>
        <time>2015-06-24T13:09:10Z</time>
      </trkpt>
      <trkpt lat="43.39035" lon="6.05789">
        <ele>355</ele>
        <time>2015-06-24T13:09:12Z</time>
      </trkpt>
      <trkpt lat="43.39036" lon="6.05792">
        <ele>355.20001220703</ele>
        <time>2015-06-24T13:09:14Z</time>
      </trkpt>
      <trkpt lat="43.39036" lon="6.05795">
        <ele>356.39999389648</ele>
        <time>2015-06-24T13:09:16Z</time>
      </trkpt>
      <trkpt lat="43.39036" lon="6.05798">
        <ele>357</ele>
        <time>2015-06-24T13:09:18Z</time>
      </trkpt>
      <trkpt lat="43.39036" lon="6.05802">
        <ele>357.39999389648</ele>
        <time>2015-06-24T13:09:20Z</time>
      </trkpt>
      <trkpt lat="43.39036" lon="6.05805">
        <ele>357.79998779297</ele>
        <time>2015-06-24T13:09:22Z</time>
      </trkpt>
      <trkpt lat="43.39036" lon="6.05806">
        <ele>358</ele>
        <time>2015-06-24T13:09:23Z</time>
      </trkpt>
      <trkpt lat="43.39036" lon="6.05807">
        <ele>358</ele>
        <time>2015-06-24T13:09:24Z</time>
      </trkpt>
      <trkpt lat="43.39036" lon="6.0581">
        <ele>358.39999389648</ele>
        <time>2015-06-24T13:09:26Z</time>
      </trkpt>
      <trkpt lat="43.39035" lon="6.05811">
        <ele>358.60000610352</ele>
        <time>2015-06-24T13:09:27Z</time>
      </trkpt>
      <trkpt lat="43.39035" lon="6.05813">
        <ele>358.79998779297</ele>
        <time>2015-06-24T13:09:28Z</time>
      </trkpt>
      <trkpt lat="43.39035" lon="6.05816">
        <ele>359</ele>
        <time>2015-06-24T13:09:30Z</time>
      </trkpt>
      <trkpt lat="43.39035" lon="6.05819">
        <ele>359.60000610352</ele>
        <time>2015-06-24T13:09:32Z</time>
      </trkpt>
      <trkpt lat="43.39036" lon="6.05824">
        <ele>359.60000610352</ele>
        <time>2015-06-24T13:09:34Z</time>
      </trkpt>
      <trkpt lat="43.39038" lon="6.05829">
        <ele>359.39999389648</ele>
        <time>2015-06-24T13:09:36Z</time>
      </trkpt>
      <trkpt lat="43.39037" lon="6.05834">
        <ele>359.20001220703</ele>
        <time>2015-06-24T13:09:38Z</time>
      </trkpt>
      <trkpt lat="43.39036" lon="6.05837">
        <ele>359.39999389648</ele>
        <time>2015-06-24T13:09:40Z</time>
      </trkpt>
      <trkpt lat="43.39036" lon="6.0584">
        <ele>359.60000610352</ele>
        <time>2015-06-24T13:09:42Z</time>
      </trkpt>
      <trkpt lat="43.39034" lon="6.05843">
        <ele>359.79998779297</ele>
        <time>2015-06-24T13:09:44Z</time>
      </trkpt>
      <trkpt lat="43.39033" lon="6.05846">
        <ele>359.60000610352</ele>
        <time>2015-06-24T13:09:46Z</time>
      </trkpt>
      <trkpt lat="43.3903" lon="6.05853">
        <ele>360.39999389648</ele>
        <time>2015-06-24T13:09:50Z</time>
      </trkpt>
      <trkpt lat="43.39029" lon="6.05856">
        <ele>360.39999389648</ele>
        <time>2015-06-24T13:09:52Z</time>
      </trkpt>
      <trkpt lat="43.39026" lon="6.05864">
        <ele>360.60000610352</ele>
        <time>2015-06-24T13:09:56Z</time>
      </trkpt>
      <trkpt lat="43.39025" lon="6.05868">
        <ele>360.60000610352</ele>
        <time>2015-06-24T13:09:58Z</time>
      </trkpt>
      <trkpt lat="43.39024" lon="6.05872">
        <ele>360.39999389648</ele>
        <time>2015-06-24T13:10:00Z</time>
      </trkpt>
      <trkpt lat="43.39021" lon="6.05879">
        <ele>360.60000610352</ele>
        <time>2015-06-24T13:10:04Z</time>
      </trkpt>
      <trkpt lat="43.3902" lon="6.05883">
        <ele>360.79998779297</ele>
        <time>2015-06-24T13:10:06Z</time>
      </trkpt>
      <trkpt lat="43.39019" lon="6.05886">
        <ele>361.20001220703</ele>
        <time>2015-06-24T13:10:08Z</time>
      </trkpt>
      <trkpt lat="43.39018" lon="6.0589">
        <ele>361.39999389648</ele>
        <time>2015-06-24T13:10:10Z</time>
      </trkpt>
      <trkpt lat="43.39017" lon="6.05895">
        <ele>361.39999389648</ele>
        <time>2015-06-24T13:10:12Z</time>
      </trkpt>
      <trkpt lat="43.39017" lon="6.05897">
        <ele>361.39999389648</ele>
        <time>2015-06-24T13:10:13Z</time>
      </trkpt>
      <trkpt lat="43.39016" lon="6.05899">
        <ele>361.39999389648</ele>
        <time>2015-06-24T13:10:14Z</time>
      </trkpt>
      <trkpt lat="43.39015" lon="6.05902">
        <ele>361.60000610352</ele>
        <time>2015-06-24T13:10:16Z</time>
      </trkpt>
      <trkpt lat="43.39014" lon="6.05905">
        <ele>362</ele>
        <time>2015-06-24T13:10:18Z</time>
      </trkpt>
      <trkpt lat="43.39011" lon="6.05911">
        <ele>362.39999389648</ele>
        <time>2015-06-24T13:10:22Z</time>
      </trkpt>
      <trkpt lat="43.39009" lon="6.05914">
        <ele>363</ele>
        <time>2015-06-24T13:10:24Z</time>
      </trkpt>
      <trkpt lat="43.39009" lon="6.05916">
        <ele>363.39999389648</ele>
        <time>2015-06-24T13:10:26Z</time>
      </trkpt>
      <trkpt lat="43.39008" lon="6.05918">
        <ele>363.60000610352</ele>
        <time>2015-06-24T13:10:27Z</time>
      </trkpt>
      <trkpt lat="43.39008" lon="6.05919">
        <ele>363.60000610352</ele>
        <time>2015-06-24T13:10:28Z</time>
      </trkpt>
      <trkpt lat="43.39008" lon="6.0592">
        <ele>363.60000610352</ele>
        <time>2015-06-24T13:10:29Z</time>
      </trkpt>
      <trkpt lat="43.39007" lon="6.05922">
        <ele>363.79998779297</ele>
        <time>2015-06-24T13:10:30Z</time>
      </trkpt>
      <trkpt lat="43.39006" lon="6.05925">
        <ele>364.20001220703</ele>
        <time>2015-06-24T13:10:32Z</time>
      </trkpt>
      <trkpt lat="43.39006" lon="6.05927">
        <ele>364.39999389648</ele>
        <time>2015-06-24T13:10:33Z</time>
      </trkpt>
      <trkpt lat="43.39005" lon="6.05931">
        <ele>365</ele>
        <time>2015-06-24T13:10:36Z</time>
      </trkpt>
      <trkpt lat="43.39005" lon="6.05934">
        <ele>365.39999389648</ele>
        <time>2015-06-24T13:10:38Z</time>
      </trkpt>
      <trkpt lat="43.39004" lon="6.05937">
        <ele>365.60000610352</ele>
        <time>2015-06-24T13:10:40Z</time>
      </trkpt>
      <trkpt lat="43.39003" lon="6.0594">
        <ele>366</ele>
        <time>2015-06-24T13:10:42Z</time>
      </trkpt>
      <trkpt lat="43.39003" lon="6.05949">
        <ele>365.60000610352</ele>
        <time>2015-06-24T13:10:46Z</time>
      </trkpt>
      <trkpt lat="43.39003" lon="6.05954">
        <ele>366</ele>
        <time>2015-06-24T13:10:48Z</time>
      </trkpt>
      <trkpt lat="43.39004" lon="6.05959">
        <ele>365.79998779297</ele>
        <time>2015-06-24T13:10:50Z</time>
      </trkpt>
      <trkpt lat="43.39005" lon="6.05969">
        <ele>366</ele>
        <time>2015-06-24T13:10:54Z</time>
      </trkpt>
      <trkpt lat="43.39006" lon="6.05973">
        <ele>366.39999389648</ele>
        <time>2015-06-24T13:10:56Z</time>
      </trkpt>
      <trkpt lat="43.39007" lon="6.05975">
        <ele>366.60000610352</ele>
        <time>2015-06-24T13:10:57Z</time>
      </trkpt>
      <trkpt lat="43.39008" lon="6.05985">
        <ele>366.60000610352</ele>
        <time>2015-06-24T13:11:01Z</time>
      </trkpt>
      <trkpt lat="43.39008" lon="6.05987">
        <ele>366.79998779297</ele>
        <time>2015-06-24T13:11:02Z</time>
      </trkpt>
      <trkpt lat="43.3901" lon="6.0599">
        <ele>366.39999389648</ele>
        <time>2015-06-24T13:11:04Z</time>
      </trkpt>
      <trkpt lat="43.39013" lon="6.05997">
        <ele>366.79998779297</ele>
        <time>2015-06-24T13:11:07Z</time>
      </trkpt>
      <trkpt lat="43.39014" lon="6.05999">
        <ele>367</ele>
        <time>2015-06-24T13:11:08Z</time>
      </trkpt>
      <trkpt lat="43.39016" lon="6.06003">
        <ele>367</ele>
        <time>2015-06-24T13:11:10Z</time>
      </trkpt>
      <trkpt lat="43.39017" lon="6.06011">
        <ele>367.20001220703</ele>
        <time>2015-06-24T13:11:14Z</time>
      </trkpt>
      <trkpt lat="43.39017" lon="6.06013">
        <ele>368</ele>
        <time>2015-06-24T13:11:15Z</time>
      </trkpt>
      <trkpt lat="43.39017" lon="6.06014">
        <ele>368</ele>
        <time>2015-06-24T13:11:16Z</time>
      </trkpt>
      <trkpt lat="43.39018" lon="6.06018">
        <ele>368.20001220703</ele>
        <time>2015-06-24T13:11:18Z</time>
      </trkpt>
      <trkpt lat="43.39019" lon="6.06022">
        <ele>368.60000610352</ele>
        <time>2015-06-24T13:11:20Z</time>
      </trkpt>
      <trkpt lat="43.3902" lon="6.06026">
        <ele>368.39999389648</ele>
        <time>2015-06-24T13:11:22Z</time>
      </trkpt>
      <trkpt lat="43.39021" lon="6.0603">
        <ele>369.20001220703</ele>
        <time>2015-06-24T13:11:24Z</time>
      </trkpt>
      <trkpt lat="43.39022" lon="6.06034">
        <ele>369.60000610352</ele>
        <time>2015-06-24T13:11:26Z</time>
      </trkpt>
      <trkpt lat="43.39023" lon="6.06039">
        <ele>369.39999389648</ele>
        <time>2015-06-24T13:11:28Z</time>
      </trkpt>
      <trkpt lat="43.39024" lon="6.06044">
        <ele>369</ele>
        <time>2015-06-24T13:11:30Z</time>
      </trkpt>
      <trkpt lat="43.39025" lon="6.06048">
        <ele>369.20001220703</ele>
        <time>2015-06-24T13:11:32Z</time>
      </trkpt>
      <trkpt lat="43.39028" lon="6.06058">
        <ele>369.39999389648</ele>
        <time>2015-06-24T13:11:36Z</time>
      </trkpt>
      <trkpt lat="43.39029" lon="6.06063">
        <ele>369.60000610352</ele>
        <time>2015-06-24T13:11:38Z</time>
      </trkpt>
      <trkpt lat="43.3903" lon="6.06069">
        <ele>369.39999389648</ele>
        <time>2015-06-24T13:11:40Z</time>
      </trkpt>
      <trkpt lat="43.3903" lon="6.06074">
        <ele>369.79998779297</ele>
        <time>2015-06-24T13:11:42Z</time>
      </trkpt>
      <trkpt lat="43.39031" lon="6.06077">
        <ele>369.60000610352</ele>
        <time>2015-06-24T13:11:43Z</time>
      </trkpt>
      <trkpt lat="43.39032" lon="6.0608">
        <ele>369.20001220703</ele>
        <time>2015-06-24T13:11:44Z</time>
      </trkpt>
      <trkpt lat="43.39033" lon="6.06086">
        <ele>368.79998779297</ele>
        <time>2015-06-24T13:11:46Z</time>
      </trkpt>
      <trkpt lat="43.39033" lon="6.06091">
        <ele>369</ele>
        <time>2015-06-24T13:11:48Z</time>
      </trkpt>
      <trkpt lat="43.39034" lon="6.06096">
        <ele>369.20001220703</ele>
        <time>2015-06-24T13:11:50Z</time>
      </trkpt>
      <trkpt lat="43.39034" lon="6.06102">
        <ele>368.79998779297</ele>
        <time>2015-06-24T13:11:52Z</time>
      </trkpt>
      <trkpt lat="43.39035" lon="6.06106">
        <ele>369</ele>
        <time>2015-06-24T13:11:53Z</time>
      </trkpt>
      <trkpt lat="43.39035" lon="6.06109">
        <ele>369</ele>
        <time>2015-06-24T13:11:54Z</time>
      </trkpt>
      <trkpt lat="43.39036" lon="6.06116">
        <ele>368.79998779297</ele>
        <time>2015-06-24T13:11:56Z</time>
      </trkpt>
      <trkpt lat="43.39037" lon="6.06122">
        <ele>368.79998779297</ele>
        <time>2015-06-24T13:11:58Z</time>
      </trkpt>
      <trkpt lat="43.39037" lon="6.06125">
        <ele>368.79998779297</ele>
        <time>2015-06-24T13:11:59Z</time>
      </trkpt>
      <trkpt lat="43.39037" lon="6.06127">
        <ele>368.60000610352</ele>
        <time>2015-06-24T13:12:00Z</time>
      </trkpt>
      <trkpt lat="43.39037" lon="6.06131">
        <ele>368.60000610352</ele>
        <time>2015-06-24T13:12:02Z</time>
      </trkpt>
      <trkpt lat="43.39038" lon="6.06131">
        <ele>368.60000610352</ele>
        <time>2015-06-24T13:12:05Z</time>
      </trkpt>
      <trkpt lat="43.39038" lon="6.06132">
        <ele>368.60000610352</ele>
        <time>2015-06-24T13:12:06Z</time>
      </trkpt>
      <trkpt lat="43.39038" lon="6.06132">
        <ele>368.60000610352</ele>
        <time>2015-06-24T13:12:10Z</time>
      </trkpt>
      <trkpt lat="43.39038" lon="6.06133">
        <ele>368.79998779297</ele>
        <time>2015-06-24T13:12:16Z</time>
      </trkpt>
      <trkpt lat="43.39038" lon="6.06133">
        <ele>369</ele>
        <time>2015-06-24T13:12:18Z</time>
      </trkpt>
      <trkpt lat="43.39038" lon="6.06133">
        <ele>369</ele>
        <time>2015-06-24T13:12:20Z</time>
      </trkpt>
      <trkpt lat="43.39038" lon="6.06132">
        <ele>369.20001220703</ele>
        <time>2015-06-24T13:12:34Z</time>
      </trkpt>
      <trkpt lat="43.39038" lon="6.06133">
        <ele>369</ele>
        <time>2015-06-24T13:12:36Z</time>
      </trkpt>
      <trkpt lat="43.39038" lon="6.06133">
        <ele>369</ele>
        <time>2015-06-24T13:12:38Z</time>
      </trkpt>
      <trkpt lat="43.39038" lon="6.06133">
        <ele>369</ele>
        <time>2015-06-24T13:12:42Z</time>
      </trkpt>
      <trkpt lat="43.39038" lon="6.06133">
        <ele>369.20001220703</ele>
        <time>2015-06-24T13:12:47Z</time>
      </trkpt>
      <trkpt lat="43.39038" lon="6.06133">
        <ele>369</ele>
        <time>2015-06-24T13:12:52Z</time>
      </trkpt>
      <trkpt lat="43.39038" lon="6.06133">
        <ele>368.79998779297</ele>
        <time>2015-06-24T13:13:14Z</time>
      </trkpt>
      <trkpt lat="43.39038" lon="6.06134">
        <ele>369</ele>
        <time>2015-06-24T13:13:22Z</time>
      </trkpt>
      <trkpt lat="43.39038" lon="6.06134">
        <ele>369</ele>
        <time>2015-06-24T13:13:24Z</time>
      </trkpt>
      <trkpt lat="43.39038" lon="6.06134">
        <ele>368.60000610352</ele>
        <time>2015-06-24T13:13:28Z</time>
      </trkpt>
      <trkpt lat="43.39037" lon="6.06135">
        <ele>368.79998779297</ele>
        <time>2015-06-24T13:13:30Z</time>
      </trkpt>
      <trkpt lat="43.39038" lon="6.06136">
        <ele>368.60000610352</ele>
        <time>2015-06-24T13:13:31Z</time>
      </trkpt>
      <trkpt lat="43.39038" lon="6.06138">
        <ele>368.79998779297</ele>
        <time>2015-06-24T13:13:32Z</time>
      </trkpt>
      <trkpt lat="43.3904" lon="6.06144">
        <ele>368.60000610352</ele>
        <time>2015-06-24T13:13:34Z</time>
      </trkpt>
      <trkpt lat="43.39042" lon="6.06147">
        <ele>368.39999389648</ele>
        <time>2015-06-24T13:13:35Z</time>
      </trkpt>
      <trkpt lat="43.39042" lon="6.0615">
        <ele>368.20001220703</ele>
        <time>2015-06-24T13:13:36Z</time>
      </trkpt>
      <trkpt lat="43.39042" lon="6.06153">
        <ele>368</ele>
        <time>2015-06-24T13:13:37Z</time>
      </trkpt>
      <trkpt lat="43.3904" lon="6.06156">
        <ele>367.60000610352</ele>
        <time>2015-06-24T13:13:38Z</time>
      </trkpt>
      <trkpt lat="43.39039" lon="6.06161">
        <ele>367.79998779297</ele>
        <time>2015-06-24T13:13:40Z</time>
      </trkpt>
      <trkpt lat="43.39041" lon="6.06165">
        <ele>367.79998779297</ele>
        <time>2015-06-24T13:13:42Z</time>
      </trkpt>
      <trkpt lat="43.39042" lon="6.06167">
        <ele>367.79998779297</ele>
        <time>2015-06-24T13:13:43Z</time>
      </trkpt>
      <trkpt lat="43.39043" lon="6.06172">
        <ele>368</ele>
        <time>2015-06-24T13:13:45Z</time>
      </trkpt>
      <trkpt lat="43.39045" lon="6.06174">
        <ele>367.79998779297</ele>
        <time>2015-06-24T13:13:46Z</time>
      </trkpt>
      <trkpt lat="43.39047" lon="6.06176">
        <ele>367.39999389648</ele>
        <time>2015-06-24T13:13:47Z</time>
      </trkpt>
      <trkpt lat="43.39049" lon="6.06176">
        <ele>367.39999389648</ele>
        <time>2015-06-24T13:13:48Z</time>
      </trkpt>
      <trkpt lat="43.39053" lon="6.06179">
        <ele>366.60000610352</ele>
        <time>2015-06-24T13:13:50Z</time>
      </trkpt>
      <trkpt lat="43.39054" lon="6.06182">
        <ele>366.39999389648</ele>
        <time>2015-06-24T13:13:51Z</time>
      </trkpt>
      <trkpt lat="43.39055" lon="6.06185">
        <ele>366.39999389648</ele>
        <time>2015-06-24T13:13:52Z</time>
      </trkpt>
      <trkpt lat="43.39054" lon="6.06195">
        <ele>366.39999389648</ele>
        <time>2015-06-24T13:13:55Z</time>
      </trkpt>
      <trkpt lat="43.39054" lon="6.06197">
        <ele>366.39999389648</ele>
        <time>2015-06-24T13:13:56Z</time>
      </trkpt>
      <trkpt lat="43.39054" lon="6.062">
        <ele>366.39999389648</ele>
        <time>2015-06-24T13:13:57Z</time>
      </trkpt>
      <trkpt lat="43.39058" lon="6.06209">
        <ele>367</ele>
        <time>2015-06-24T13:14:00Z</time>
      </trkpt>
      <trkpt lat="43.3906" lon="6.06213">
        <ele>367.20001220703</ele>
        <time>2015-06-24T13:14:01Z</time>
      </trkpt>
      <trkpt lat="43.39061" lon="6.06217">
        <ele>367.60000610352</ele>
        <time>2015-06-24T13:14:02Z</time>
      </trkpt>
      <trkpt lat="43.39062" lon="6.06224">
        <ele>367.79998779297</ele>
        <time>2015-06-24T13:14:04Z</time>
      </trkpt>
      <trkpt lat="43.39063" lon="6.06231">
        <ele>367.20001220703</ele>
        <time>2015-06-24T13:14:06Z</time>
      </trkpt>
      <trkpt lat="43.39064" lon="6.06239">
        <ele>367.79998779297</ele>
        <time>2015-06-24T13:14:08Z</time>
      </trkpt>
      <trkpt lat="43.39066" lon="6.06246">
        <ele>368.60000610352</ele>
        <time>2015-06-24T13:14:10Z</time>
      </trkpt>
      <trkpt lat="43.39069" lon="6.06252">
        <ele>367.79998779297</ele>
        <time>2015-06-24T13:14:12Z</time>
      </trkpt>
      <trkpt lat="43.39071" lon="6.06261">
        <ele>368.20001220703</ele>
        <time>2015-06-24T13:14:14Z</time>
      </trkpt>
      <trkpt lat="43.39072" lon="6.06269">
        <ele>367.60000610352</ele>
        <time>2015-06-24T13:14:16Z</time>
      </trkpt>
      <trkpt lat="43.39074" lon="6.06276">
        <ele>366.79998779297</ele>
        <time>2015-06-24T13:14:18Z</time>
      </trkpt>
      <trkpt lat="43.39075" lon="6.06285">
        <ele>367.20001220703</ele>
        <time>2015-06-24T13:14:20Z</time>
      </trkpt>
      <trkpt lat="43.39077" lon="6.06292">
        <ele>366.79998779297</ele>
        <time>2015-06-24T13:14:22Z</time>
      </trkpt>
      <trkpt lat="43.39079" lon="6.06296">
        <ele>367.20001220703</ele>
        <time>2015-06-24T13:14:23Z</time>
      </trkpt>
      <trkpt lat="43.39082" lon="6.06314">
        <ele>367.39999389648</ele>
        <time>2015-06-24T13:14:28Z</time>
      </trkpt>
      <trkpt lat="43.39083" lon="6.0632">
        <ele>367.20001220703</ele>
        <time>2015-06-24T13:14:30Z</time>
      </trkpt>
      <trkpt lat="43.39086" lon="6.06338">
        <ele>368.79998779297</ele>
        <time>2015-06-24T13:14:36Z</time>
      </trkpt>
      <trkpt lat="43.39087" lon="6.06343">
        <ele>368.79998779297</ele>
        <time>2015-06-24T13:14:38Z</time>
      </trkpt>
      <trkpt lat="43.39088" lon="6.06348">
        <ele>369.60000610352</ele>
        <time>2015-06-24T13:14:40Z</time>
      </trkpt>
      <trkpt lat="43.3909" lon="6.06354">
        <ele>370.20001220703</ele>
        <time>2015-06-24T13:14:42Z</time>
      </trkpt>
      <trkpt lat="43.3909" lon="6.06359">
        <ele>370.39999389648</ele>
        <time>2015-06-24T13:14:44Z</time>
      </trkpt>
      <trkpt lat="43.39092" lon="6.06371">
        <ele>371.20001220703</ele>
        <time>2015-06-24T13:14:49Z</time>
      </trkpt>
      <trkpt lat="43.39093" lon="6.06378">
        <ele>371.79998779297</ele>
        <time>2015-06-24T13:14:52Z</time>
      </trkpt>
      <trkpt lat="43.39094" lon="6.06382">
        <ele>372.20001220703</ele>
        <time>2015-06-24T13:14:54Z</time>
      </trkpt>
      <trkpt lat="43.39094" lon="6.06388">
        <ele>372.60000610352</ele>
        <time>2015-06-24T13:14:57Z</time>
      </trkpt>
      <trkpt lat="43.39095" lon="6.0639">
        <ele>373</ele>
        <time>2015-06-24T13:14:58Z</time>
      </trkpt>
      <trkpt lat="43.39095" lon="6.06394">
        <ele>373</ele>
        <time>2015-06-24T13:15:00Z</time>
      </trkpt>
      <trkpt lat="43.39096" lon="6.06396">
        <ele>373.20001220703</ele>
        <time>2015-06-24T13:15:01Z</time>
      </trkpt>
      <trkpt lat="43.39096" lon="6.06399">
        <ele>373.20001220703</ele>
        <time>2015-06-24T13:15:02Z</time>
      </trkpt>
      <trkpt lat="43.39096" lon="6.06402">
        <ele>373.79998779297</ele>
        <time>2015-06-24T13:15:04Z</time>
      </trkpt>
      <trkpt lat="43.39096" lon="6.06404">
        <ele>373.79998779297</ele>
        <time>2015-06-24T13:15:05Z</time>
      </trkpt>
      <trkpt lat="43.39096" lon="6.06405">
        <ele>373.60000610352</ele>
        <time>2015-06-24T13:15:06Z</time>
      </trkpt>
      <trkpt lat="43.39097" lon="6.06409">
        <ele>374</ele>
        <time>2015-06-24T13:15:08Z</time>
      </trkpt>
      <trkpt lat="43.39097" lon="6.06414">
        <ele>374.60000610352</ele>
        <time>2015-06-24T13:15:10Z</time>
      </trkpt>
      <trkpt lat="43.39097" lon="6.06418">
        <ele>374.60000610352</ele>
        <time>2015-06-24T13:15:12Z</time>
      </trkpt>
      <trkpt lat="43.39097" lon="6.06423">
        <ele>374.39999389648</ele>
        <time>2015-06-24T13:15:14Z</time>
      </trkpt>
      <trkpt lat="43.39096" lon="6.06427">
        <ele>374.60000610352</ele>
        <time>2015-06-24T13:15:16Z</time>
      </trkpt>
      <trkpt lat="43.39096" lon="6.06428">
        <ele>375</ele>
        <time>2015-06-24T13:15:17Z</time>
      </trkpt>
      <trkpt lat="43.39096" lon="6.06429">
        <ele>375.39999389648</ele>
        <time>2015-06-24T13:15:18Z</time>
      </trkpt>
      <trkpt lat="43.39096" lon="6.0643">
        <ele>375.60000610352</ele>
        <time>2015-06-24T13:15:20Z</time>
      </trkpt>
      <trkpt lat="43.39096" lon="6.06431">
        <ele>375.79998779297</ele>
        <time>2015-06-24T13:15:22Z</time>
      </trkpt>
      <trkpt lat="43.39096" lon="6.06431">
        <ele>376</ele>
        <time>2015-06-24T13:15:24Z</time>
      </trkpt>
      <trkpt lat="43.39095" lon="6.06431">
        <ele>375.79998779297</ele>
        <time>2015-06-24T13:15:28Z</time>
      </trkpt>
      <trkpt lat="43.39096" lon="6.06431">
        <ele>376</ele>
        <time>2015-06-24T13:15:30Z</time>
      </trkpt>
      <trkpt lat="43.39096" lon="6.06431">
        <ele>376</ele>
        <time>2015-06-24T13:15:32Z</time>
      </trkpt>
      <trkpt lat="43.39096" lon="6.06431">
        <ele>376.20001220703</ele>
        <time>2015-06-24T13:15:33Z</time>
      </trkpt>
      <trkpt lat="43.39096" lon="6.06433">
        <ele>376.20001220703</ele>
        <time>2015-06-24T13:15:34Z</time>
      </trkpt>
      <trkpt lat="43.39096" lon="6.06434">
        <ele>376.39999389648</ele>
        <time>2015-06-24T13:15:35Z</time>
      </trkpt>
      <trkpt lat="43.39096" lon="6.06436">
        <ele>376.60000610352</ele>
        <time>2015-06-24T13:15:36Z</time>
      </trkpt>
      <trkpt lat="43.39096" lon="6.06436">
        <ele>376.79998779297</ele>
        <time>2015-06-24T13:15:38Z</time>
      </trkpt>
      <trkpt lat="43.39096" lon="6.06436">
        <ele>376.79998779297</ele>
        <time>2015-06-24T13:15:40Z</time>
      </trkpt>
      <trkpt lat="43.39096" lon="6.06437">
        <ele>376.79998779297</ele>
        <time>2015-06-24T13:15:42Z</time>
      </trkpt>
      <trkpt lat="43.39096" lon="6.06436">
        <ele>376.79998779297</ele>
        <time>2015-06-24T13:15:44Z</time>
      </trkpt>
      <trkpt lat="43.39096" lon="6.06433">
        <ele>376.79998779297</ele>
        <time>2015-06-24T13:15:48Z</time>
      </trkpt>
      <trkpt lat="43.39096" lon="6.06431">
        <ele>376.79998779297</ele>
        <time>2015-06-24T13:15:50Z</time>
      </trkpt>
      <trkpt lat="43.39097" lon="6.06429">
        <ele>376.20001220703</ele>
        <time>2015-06-24T13:15:52Z</time>
      </trkpt>
      <trkpt lat="43.39098" lon="6.06425">
        <ele>376.20001220703</ele>
        <time>2015-06-24T13:15:54Z</time>
      </trkpt>
      <trkpt lat="43.39098" lon="6.06422">
        <ele>375.79998779297</ele>
        <time>2015-06-24T13:15:56Z</time>
      </trkpt>
      <trkpt lat="43.39098" lon="6.06421">
        <ele>375.39999389648</ele>
        <time>2015-06-24T13:15:57Z</time>
      </trkpt>
      <trkpt lat="43.39098" lon="6.06419">
        <ele>375.39999389648</ele>
        <time>2015-06-24T13:15:58Z</time>
      </trkpt>
      <trkpt lat="43.39098" lon="6.06418">
        <ele>375</ele>
        <time>2015-06-24T13:16:00Z</time>
      </trkpt>
      <trkpt lat="43.39098" lon="6.06417">
        <ele>374.79998779297</ele>
        <time>2015-06-24T13:16:02Z</time>
      </trkpt>
      <trkpt lat="43.39098" lon="6.06416">
        <ele>374.39999389648</ele>
        <time>2015-06-24T13:16:04Z</time>
      </trkpt>
      <trkpt lat="43.39098" lon="6.06416">
        <ele>374.20001220703</ele>
        <time>2015-06-24T13:16:06Z</time>
      </trkpt>
      <trkpt lat="43.39098" lon="6.06416">
        <ele>374</ele>
        <time>2015-06-24T13:16:08Z</time>
      </trkpt>
      <trkpt lat="43.39098" lon="6.06416">
        <ele>373.79998779297</ele>
        <time>2015-06-24T13:16:12Z</time>
      </trkpt>
      <trkpt lat="43.39098" lon="6.06416">
        <ele>374</ele>
        <time>2015-06-24T13:16:14Z</time>
      </trkpt>
      <trkpt lat="43.39098" lon="6.06417">
        <ele>373.79998779297</ele>
        <time>2015-06-24T13:16:20Z</time>
      </trkpt>
      <trkpt lat="43.39097" lon="6.06417">
        <ele>373.79998779297</ele>
        <time>2015-06-24T13:16:22Z</time>
      </trkpt>
      <trkpt lat="43.39097" lon="6.06417">
        <ele>373.79998779297</ele>
        <time>2015-06-24T13:16:28Z</time>
      </trkpt>
      <trkpt lat="43.39097" lon="6.06417">
        <ele>373.79998779297</ele>
        <time>2015-06-24T13:16:30Z</time>
      </trkpt>
      <trkpt lat="43.39097" lon="6.06417">
        <ele>373.79998779297</ele>
        <time>2015-06-24T13:16:32Z</time>
      </trkpt>
      <trkpt lat="43.39098" lon="6.06417">
        <ele>374.20001220703</ele>
        <time>2015-06-24T13:16:34Z</time>
      </trkpt>
      <trkpt lat="43.39098" lon="6.06417">
        <ele>374.39999389648</ele>
        <time>2015-06-24T13:16:36Z</time>
      </trkpt>
      <trkpt lat="43.39098" lon="6.06417">
        <ele>374.60000610352</ele>
        <time>2015-06-24T13:16:38Z</time>
      </trkpt>
      <trkpt lat="43.39097" lon="6.06418">
        <ele>374.60000610352</ele>
        <time>2015-06-24T13:16:40Z</time>
      </trkpt>
      <trkpt lat="43.39098" lon="6.06418">
        <ele>374.79998779297</ele>
        <time>2015-06-24T13:16:41Z</time>
      </trkpt>
      <trkpt lat="43.39098" lon="6.06418">
        <ele>374.79998779297</ele>
        <time>2015-06-24T13:16:42Z</time>
      </trkpt>
      <trkpt lat="43.39098" lon="6.06418">
        <ele>374.79998779297</ele>
        <time>2015-06-24T13:16:44Z</time>
      </trkpt>
      <trkpt lat="43.39098" lon="6.06418">
        <ele>374.79998779297</ele>
        <time>2015-06-24T13:16:46Z</time>
      </trkpt>
      <trkpt lat="43.39097" lon="6.06418">
        <ele>374.79998779297</ele>
        <time>2015-06-24T13:16:48Z</time>
      </trkpt>
      <trkpt lat="43.39097" lon="6.06421">
        <ele>375</ele>
        <time>2015-06-24T13:16:50Z</time>
      </trkpt>
      <trkpt lat="43.39096" lon="6.06426">
        <ele>375.20001220703</ele>
        <time>2015-06-24T13:16:52Z</time>
      </trkpt>
      <trkpt lat="43.39096" lon="6.06432">
        <ele>376</ele>
        <time>2015-06-24T13:16:54Z</time>
      </trkpt>
      <trkpt lat="43.39095" lon="6.06436">
        <ele>376.60000610352</ele>
        <time>2015-06-24T13:16:56Z</time>
      </trkpt>
      <trkpt lat="43.39094" lon="6.0644">
        <ele>377</ele>
        <time>2015-06-24T13:16:58Z</time>
      </trkpt>
      <trkpt lat="43.39094" lon="6.06445">
        <ele>377.20001220703</ele>
        <time>2015-06-24T13:17:00Z</time>
      </trkpt>
      <trkpt lat="43.39093" lon="6.0645">
        <ele>377.60000610352</ele>
        <time>2015-06-24T13:17:02Z</time>
      </trkpt>
      <trkpt lat="43.39093" lon="6.06454">
        <ele>378</ele>
        <time>2015-06-24T13:17:04Z</time>
      </trkpt>
      <trkpt lat="43.39093" lon="6.06462">
        <ele>379.39999389648</ele>
        <time>2015-06-24T13:17:08Z</time>
      </trkpt>
      <trkpt lat="43.39093" lon="6.06466">
        <ele>379.79998779297</ele>
        <time>2015-06-24T13:17:10Z</time>
      </trkpt>
      <trkpt lat="43.39094" lon="6.06469">
        <ele>380.39999389648</ele>
        <time>2015-06-24T13:17:12Z</time>
      </trkpt>
      <trkpt lat="43.39094" lon="6.06471">
        <ele>380.79998779297</ele>
        <time>2015-06-24T13:17:13Z</time>
      </trkpt>
      <trkpt lat="43.39094" lon="6.06472">
        <ele>381</ele>
        <time>2015-06-24T13:17:14Z</time>
      </trkpt>
      <trkpt lat="43.39093" lon="6.06479">
        <ele>382</ele>
        <time>2015-06-24T13:17:17Z</time>
      </trkpt>
      <trkpt lat="43.39094" lon="6.06481">
        <ele>382.39999389648</ele>
        <time>2015-06-24T13:17:18Z</time>
      </trkpt>
      <trkpt lat="43.39094" lon="6.06486">
        <ele>382.60000610352</ele>
        <time>2015-06-24T13:17:20Z</time>
      </trkpt>
      <trkpt lat="43.39095" lon="6.06494">
        <ele>383.79998779297</ele>
        <time>2015-06-24T13:17:24Z</time>
      </trkpt>
      <trkpt lat="43.39097" lon="6.065">
        <ele>384.20001220703</ele>
        <time>2015-06-24T13:17:28Z</time>
      </trkpt>
      <trkpt lat="43.39098" lon="6.06506">
        <ele>384.60000610352</ele>
        <time>2015-06-24T13:17:32Z</time>
      </trkpt>
      <trkpt lat="43.39098" lon="6.06509">
        <ele>385.20001220703</ele>
        <time>2015-06-24T13:17:34Z</time>
      </trkpt>
      <trkpt lat="43.39098" lon="6.06511">
        <ele>385.39999389648</ele>
        <time>2015-06-24T13:17:36Z</time>
      </trkpt>
      <trkpt lat="43.391" lon="6.06516">
        <ele>386</ele>
        <time>2015-06-24T13:17:40Z</time>
      </trkpt>
      <trkpt lat="43.39102" lon="6.06518">
        <ele>386.39999389648</ele>
        <time>2015-06-24T13:17:42Z</time>
      </trkpt>
      <trkpt lat="43.39106" lon="6.06524">
        <ele>387.20001220703</ele>
        <time>2015-06-24T13:17:48Z</time>
      </trkpt>
      <trkpt lat="43.39108" lon="6.06527">
        <ele>387.20001220703</ele>
        <time>2015-06-24T13:17:50Z</time>
      </trkpt>
      <trkpt lat="43.39109" lon="6.06529">
        <ele>387.79998779297</ele>
        <time>2015-06-24T13:17:52Z</time>
      </trkpt>
      <trkpt lat="43.39112" lon="6.06533">
        <ele>388.60000610352</ele>
        <time>2015-06-24T13:17:56Z</time>
      </trkpt>
      <trkpt lat="43.39113" lon="6.06534">
        <ele>388.60000610352</ele>
        <time>2015-06-24T13:17:57Z</time>
      </trkpt>
      <trkpt lat="43.39114" lon="6.06535">
        <ele>388.79998779297</ele>
        <time>2015-06-24T13:17:58Z</time>
      </trkpt>
      <trkpt lat="43.39116" lon="6.06536">
        <ele>389</ele>
        <time>2015-06-24T13:18:00Z</time>
      </trkpt>
      <trkpt lat="43.39117" lon="6.06538">
        <ele>388.79998779297</ele>
        <time>2015-06-24T13:18:02Z</time>
      </trkpt>
      <trkpt lat="43.39119" lon="6.06539">
        <ele>388.79998779297</ele>
        <time>2015-06-24T13:18:04Z</time>
      </trkpt>
      <trkpt lat="43.3912" lon="6.06539">
        <ele>388.79998779297</ele>
        <time>2015-06-24T13:18:05Z</time>
      </trkpt>
      <trkpt lat="43.39122" lon="6.0654">
        <ele>389</ele>
        <time>2015-06-24T13:18:06Z</time>
      </trkpt>
      <trkpt lat="43.39124" lon="6.06542">
        <ele>390</ele>
        <time>2015-06-24T13:18:08Z</time>
      </trkpt>
      <trkpt lat="43.39127" lon="6.06544">
        <ele>390.39999389648</ele>
        <time>2015-06-24T13:18:11Z</time>
      </trkpt>
      <trkpt lat="43.39128" lon="6.06544">
        <ele>390.79998779297</ele>
        <time>2015-06-24T13:18:12Z</time>
      </trkpt>
      <trkpt lat="43.3913" lon="6.06545">
        <ele>391.20001220703</ele>
        <time>2015-06-24T13:18:14Z</time>
      </trkpt>
      <trkpt lat="43.39132" lon="6.06546">
        <ele>391</ele>
        <time>2015-06-24T13:18:16Z</time>
      </trkpt>
      <trkpt lat="43.39133" lon="6.06546">
        <ele>391.20001220703</ele>
        <time>2015-06-24T13:18:17Z</time>
      </trkpt>
      <trkpt lat="43.39134" lon="6.06546">
        <ele>391.60000610352</ele>
        <time>2015-06-24T13:18:18Z</time>
      </trkpt>
      <trkpt lat="43.39135" lon="6.06547">
        <ele>392</ele>
        <time>2015-06-24T13:18:19Z</time>
      </trkpt>
      <trkpt lat="43.39135" lon="6.06548">
        <ele>392.20001220703</ele>
        <time>2015-06-24T13:18:20Z</time>
      </trkpt>
      <trkpt lat="43.39136" lon="6.06548">
        <ele>392.39999389648</ele>
        <time>2015-06-24T13:18:22Z</time>
      </trkpt>
      <trkpt lat="43.39136" lon="6.06548">
        <ele>392.20001220703</ele>
        <time>2015-06-24T13:18:24Z</time>
      </trkpt>
      <trkpt lat="43.39137" lon="6.06549">
        <ele>392.20001220703</ele>
        <time>2015-06-24T13:18:26Z</time>
      </trkpt>
      <trkpt lat="43.39137" lon="6.06549">
        <ele>392.20001220703</ele>
        <time>2015-06-24T13:18:28Z</time>
      </trkpt>
      <trkpt lat="43.39138" lon="6.0655">
        <ele>392.39999389648</ele>
        <time>2015-06-24T13:18:30Z</time>
      </trkpt>
      <trkpt lat="43.3914" lon="6.06552">
        <ele>392.79998779297</ele>
        <time>2015-06-24T13:18:36Z</time>
      </trkpt>
      <trkpt lat="43.39141" lon="6.06553">
        <ele>393.39999389648</ele>
        <time>2015-06-24T13:18:38Z</time>
      </trkpt>
      <trkpt lat="43.39142" lon="6.06554">
        <ele>393.39999389648</ele>
        <time>2015-06-24T13:18:40Z</time>
      </trkpt>
      <trkpt lat="43.39144" lon="6.06556">
        <ele>394</ele>
        <time>2015-06-24T13:18:44Z</time>
      </trkpt>
      <trkpt lat="43.39146" lon="6.06556">
        <ele>394</ele>
        <time>2015-06-24T13:18:48Z</time>
      </trkpt>
      <trkpt lat="43.39149" lon="6.06558">
        <ele>394.39999389648</ele>
        <time>2015-06-24T13:18:53Z</time>
      </trkpt>
      <trkpt lat="43.39151" lon="6.0656">
        <ele>395</ele>
        <time>2015-06-24T13:18:58Z</time>
      </trkpt>
      <trkpt lat="43.39152" lon="6.0656">
        <ele>395.60000610352</ele>
        <time>2015-06-24T13:19:00Z</time>
      </trkpt>
      <trkpt lat="43.39154" lon="6.0656">
        <ele>395.60000610352</ele>
        <time>2015-06-24T13:19:04Z</time>
      </trkpt>
      <trkpt lat="43.39157" lon="6.06562">
        <ele>396.39999389648</ele>
        <time>2015-06-24T13:19:08Z</time>
      </trkpt>
      <trkpt lat="43.39158" lon="6.06562">
        <ele>396.60000610352</ele>
        <time>2015-06-24T13:19:10Z</time>
      </trkpt>
      <trkpt lat="43.39158" lon="6.06562">
        <ele>396.79998779297</ele>
        <time>2015-06-24T13:19:11Z</time>
      </trkpt>
      <trkpt lat="43.39158" lon="6.06562">
        <ele>397</ele>
        <time>2015-06-24T13:19:12Z</time>
      </trkpt>
      <trkpt lat="43.39158" lon="6.06562">
        <ele>396.79998779297</ele>
        <time>2015-06-24T13:19:14Z</time>
      </trkpt>
      <trkpt lat="43.39158" lon="6.06562">
        <ele>396.79998779297</ele>
        <time>2015-06-24T13:19:16Z</time>
      </trkpt>
      <trkpt lat="43.39158" lon="6.06562">
        <ele>397</ele>
        <time>2015-06-24T13:19:20Z</time>
      </trkpt>
      <trkpt lat="43.39158" lon="6.06562">
        <ele>396.60000610352</ele>
        <time>2015-06-24T13:19:24Z</time>
      </trkpt>
      <trkpt lat="43.39158" lon="6.06562">
        <ele>396.60000610352</ele>
        <time>2015-06-24T13:19:26Z</time>
      </trkpt>
      <trkpt lat="43.39158" lon="6.06562">
        <ele>396.60000610352</ele>
        <time>2015-06-24T13:19:30Z</time>
      </trkpt>
      <trkpt lat="43.39158" lon="6.06562">
        <ele>396.60000610352</ele>
        <time>2015-06-24T13:19:36Z</time>
      </trkpt>
      <trkpt lat="43.39158" lon="6.06562">
        <ele>396.60000610352</ele>
        <time>2015-06-24T13:19:42Z</time>
      </trkpt>
      <trkpt lat="43.39158" lon="6.06562">
        <ele>397</ele>
        <time>2015-06-24T13:19:46Z</time>
      </trkpt>
      <trkpt lat="43.39158" lon="6.06562">
        <ele>397</ele>
        <time>2015-06-24T13:19:48Z</time>
      </trkpt>
      <trkpt lat="43.39158" lon="6.06562">
        <ele>397</ele>
        <time>2015-06-24T13:19:50Z</time>
      </trkpt>
      <trkpt lat="43.39159" lon="6.06562">
        <ele>396.79998779297</ele>
        <time>2015-06-24T13:19:52Z</time>
      </trkpt>
      <trkpt lat="43.39159" lon="6.06562">
        <ele>397</ele>
        <time>2015-06-24T13:19:54Z</time>
      </trkpt>
      <trkpt lat="43.39159" lon="6.06562">
        <ele>396.60000610352</ele>
        <time>2015-06-24T13:19:55Z</time>
      </trkpt>
      <trkpt lat="43.3916" lon="6.06563">
        <ele>396.60000610352</ele>
        <time>2015-06-24T13:19:56Z</time>
      </trkpt>
      <trkpt lat="43.39164" lon="6.06564">
        <ele>397.39999389648</ele>
        <time>2015-06-24T13:19:58Z</time>
      </trkpt>
      <trkpt lat="43.39166" lon="6.06564">
        <ele>397.60000610352</ele>
        <time>2015-06-24T13:19:59Z</time>
      </trkpt>
      <trkpt lat="43.39168" lon="6.06564">
        <ele>397.60000610352</ele>
        <time>2015-06-24T13:20:00Z</time>
      </trkpt>
      <trkpt lat="43.3917" lon="6.06565">
        <ele>398.20001220703</ele>
        <time>2015-06-24T13:20:02Z</time>
      </trkpt>
      <trkpt lat="43.39172" lon="6.06566">
        <ele>398.79998779297</ele>
        <time>2015-06-24T13:20:03Z</time>
      </trkpt>
      <trkpt lat="43.39173" lon="6.06567">
        <ele>399</ele>
        <time>2015-06-24T13:20:04Z</time>
      </trkpt>
      <trkpt lat="43.39176" lon="6.06571">
        <ele>399.39999389648</ele>
        <time>2015-06-24T13:20:06Z</time>
      </trkpt>
      <trkpt lat="43.39178" lon="6.06575">
        <ele>399.60000610352</ele>
        <time>2015-06-24T13:20:08Z</time>
      </trkpt>
      <trkpt lat="43.3918" lon="6.06577">
        <ele>399.79998779297</ele>
        <time>2015-06-24T13:20:09Z</time>
      </trkpt>
      <trkpt lat="43.39181" lon="6.06579">
        <ele>400</ele>
        <time>2015-06-24T13:20:10Z</time>
      </trkpt>
      <trkpt lat="43.39184" lon="6.06581">
        <ele>399.79998779297</ele>
        <time>2015-06-24T13:20:12Z</time>
      </trkpt>
      <trkpt lat="43.39187" lon="6.06588">
        <ele>400.60000610352</ele>
        <time>2015-06-24T13:20:16Z</time>
      </trkpt>
      <trkpt lat="43.39188" lon="6.06589">
        <ele>400.60000610352</ele>
        <time>2015-06-24T13:20:17Z</time>
      </trkpt>
      <trkpt lat="43.39188" lon="6.06591">
        <ele>400.60000610352</ele>
        <time>2015-06-24T13:20:18Z</time>
      </trkpt>
      <trkpt lat="43.39189" lon="6.06593">
        <ele>400.60000610352</ele>
        <time>2015-06-24T13:20:19Z</time>
      </trkpt>
      <trkpt lat="43.39191" lon="6.06599">
        <ele>401</ele>
        <time>2015-06-24T13:20:22Z</time>
      </trkpt>
      <trkpt lat="43.39197" lon="6.06605">
        <ele>401.20001220703</ele>
        <time>2015-06-24T13:20:26Z</time>
      </trkpt>
      <trkpt lat="43.39198" lon="6.06607">
        <ele>401.79998779297</ele>
        <time>2015-06-24T13:20:27Z</time>
      </trkpt>
      <trkpt lat="43.39201" lon="6.06611">
        <ele>402.79998779297</ele>
        <time>2015-06-24T13:20:30Z</time>
      </trkpt>
      <trkpt lat="43.39202" lon="6.06615">
        <ele>403.20001220703</ele>
        <time>2015-06-24T13:20:32Z</time>
      </trkpt>
      <trkpt lat="43.39203" lon="6.06619">
        <ele>403.20001220703</ele>
        <time>2015-06-24T13:20:34Z</time>
      </trkpt>
      <trkpt lat="43.39203" lon="6.06623">
        <ele>403.60000610352</ele>
        <time>2015-06-24T13:20:36Z</time>
      </trkpt>
      <trkpt lat="43.39204" lon="6.06628">
        <ele>403.60000610352</ele>
        <time>2015-06-24T13:20:40Z</time>
      </trkpt>
      <trkpt lat="43.39205" lon="6.06631">
        <ele>403.60000610352</ele>
        <time>2015-06-24T13:20:42Z</time>
      </trkpt>
      <trkpt lat="43.39206" lon="6.06633">
        <ele>403.79998779297</ele>
        <time>2015-06-24T13:20:44Z</time>
      </trkpt>
      <trkpt lat="43.39207" lon="6.06634">
        <ele>403.39999389648</ele>
        <time>2015-06-24T13:20:46Z</time>
      </trkpt>
      <trkpt lat="43.39211" lon="6.06636">
        <ele>404</ele>
        <time>2015-06-24T13:20:50Z</time>
      </trkpt>
      <trkpt lat="43.39214" lon="6.06639">
        <ele>403</ele>
        <time>2015-06-24T13:20:52Z</time>
      </trkpt>
      <trkpt lat="43.39214" lon="6.0664">
        <ele>402.79998779297</ele>
        <time>2015-06-24T13:20:53Z</time>
      </trkpt>
      <trkpt lat="43.39214" lon="6.06642">
        <ele>402.79998779297</ele>
        <time>2015-06-24T13:20:54Z</time>
      </trkpt>
      <trkpt lat="43.39213" lon="6.06645">
        <ele>403</ele>
        <time>2015-06-24T13:20:56Z</time>
      </trkpt>
      <trkpt lat="43.39214" lon="6.06645">
        <ele>403</ele>
        <time>2015-06-24T13:21:00Z</time>
      </trkpt>
      <trkpt lat="43.39214" lon="6.06645">
        <ele>403.20001220703</ele>
        <time>2015-06-24T13:21:02Z</time>
      </trkpt>
      <trkpt lat="43.39214" lon="6.06645">
        <ele>403.20001220703</ele>
        <time>2015-06-24T13:21:04Z</time>
      </trkpt>
      <trkpt lat="43.39214" lon="6.06646">
        <ele>403.20001220703</ele>
        <time>2015-06-24T13:21:06Z</time>
      </trkpt>
      <trkpt lat="43.39214" lon="6.06646">
        <ele>403.20001220703</ele>
        <time>2015-06-24T13:21:08Z</time>
      </trkpt>
      <trkpt lat="43.39214" lon="6.06647">
        <ele>403</ele>
        <time>2015-06-24T13:21:12Z</time>
      </trkpt>
      <trkpt lat="43.39214" lon="6.06647">
        <ele>403</ele>
        <time>2015-06-24T13:21:14Z</time>
      </trkpt>
      <trkpt lat="43.39214" lon="6.06647">
        <ele>403</ele>
        <time>2015-06-24T13:21:16Z</time>
      </trkpt>
      <trkpt lat="43.39213" lon="6.06647">
        <ele>403</ele>
        <time>2015-06-24T13:21:20Z</time>
      </trkpt>
      <trkpt lat="43.39213" lon="6.06647">
        <ele>403</ele>
        <time>2015-06-24T13:21:21Z</time>
      </trkpt>
      <trkpt lat="43.39213" lon="6.06647">
        <ele>402.79998779297</ele>
        <time>2015-06-24T13:21:26Z</time>
      </trkpt>
      <trkpt lat="43.39213" lon="6.06647">
        <ele>403</ele>
        <time>2015-06-24T13:21:28Z</time>
      </trkpt>
      <trkpt lat="43.39214" lon="6.06647">
        <ele>403</ele>
        <time>2015-06-24T13:21:30Z</time>
      </trkpt>
      <trkpt lat="43.39214" lon="6.06647">
        <ele>403.20001220703</ele>
        <time>2015-06-24T13:21:32Z</time>
      </trkpt>
      <trkpt lat="43.39214" lon="6.06647">
        <ele>402.79998779297</ele>
        <time>2015-06-24T13:21:40Z</time>
      </trkpt>
      <trkpt lat="43.39214" lon="6.06647">
        <ele>403</ele>
        <time>2015-06-24T13:22:02Z</time>
      </trkpt>
      <trkpt lat="43.39214" lon="6.06647">
        <ele>403</ele>
        <time>2015-06-24T13:22:09Z</time>
      </trkpt>
      <trkpt lat="43.39214" lon="6.06647">
        <ele>403</ele>
        <time>2015-06-24T13:22:16Z</time>
      </trkpt>
      <trkpt lat="43.39214" lon="6.06648">
        <ele>403</ele>
        <time>2015-06-24T13:22:20Z</time>
      </trkpt>
      <trkpt lat="43.39214" lon="6.06648">
        <ele>403</ele>
        <time>2015-06-24T13:22:22Z</time>
      </trkpt>
      <trkpt lat="43.39214" lon="6.06647">
        <ele>403.20001220703</ele>
        <time>2015-06-24T13:22:24Z</time>
      </trkpt>
      <trkpt lat="43.39214" lon="6.06647">
        <ele>403.60000610352</ele>
        <time>2015-06-24T13:22:26Z</time>
      </trkpt>
      <trkpt lat="43.39214" lon="6.06647">
        <ele>403.39999389648</ele>
        <time>2015-06-24T13:22:28Z</time>
      </trkpt>
      <trkpt lat="43.39213" lon="6.06648">
        <ele>403.20001220703</ele>
        <time>2015-06-24T13:22:30Z</time>
      </trkpt>
      <trkpt lat="43.39213" lon="6.06653">
        <ele>403.20001220703</ele>
        <time>2015-06-24T13:22:32Z</time>
      </trkpt>
      <trkpt lat="43.39214" lon="6.06656">
        <ele>403</ele>
        <time>2015-06-24T13:22:33Z</time>
      </trkpt>
      <trkpt lat="43.39214" lon="6.06659">
        <ele>402.79998779297</ele>
        <time>2015-06-24T13:22:34Z</time>
      </trkpt>
      <trkpt lat="43.39216" lon="6.06668">
        <ele>402.20001220703</ele>
        <time>2015-06-24T13:22:36Z</time>
      </trkpt>
      <trkpt lat="43.39216" lon="6.06679">
        <ele>401.60000610352</ele>
        <time>2015-06-24T13:22:38Z</time>
      </trkpt>
      <trkpt lat="43.39217" lon="6.06689">
        <ele>401</ele>
        <time>2015-06-24T13:22:40Z</time>
      </trkpt>
      <trkpt lat="43.39217" lon="6.06692">
        <ele>400.60000610352</ele>
        <time>2015-06-24T13:22:41Z</time>
      </trkpt>
      <trkpt lat="43.39218" lon="6.06697">
        <ele>400.20001220703</ele>
        <time>2015-06-24T13:22:44Z</time>
      </trkpt>
      <trkpt lat="43.39219" lon="6.06697">
        <ele>400</ele>
        <time>2015-06-24T13:22:46Z</time>
      </trkpt>
      <trkpt lat="43.39219" lon="6.06698">
        <ele>400</ele>
        <time>2015-06-24T13:22:47Z</time>
      </trkpt>
      <trkpt lat="43.39219" lon="6.06698">
        <ele>399.79998779297</ele>
        <time>2015-06-24T13:22:48Z</time>
      </trkpt>
      <trkpt lat="43.39219" lon="6.06698">
        <ele>399.60000610352</ele>
        <time>2015-06-24T13:22:50Z</time>
      </trkpt>
      <trkpt lat="43.39219" lon="6.06697">
        <ele>399.79998779297</ele>
        <time>2015-06-24T13:22:52Z</time>
      </trkpt>
      <trkpt lat="43.39219" lon="6.06696">
        <ele>400</ele>
        <time>2015-06-24T13:22:54Z</time>
      </trkpt>
      <trkpt lat="43.39218" lon="6.06695">
        <ele>399.79998779297</ele>
        <time>2015-06-24T13:22:55Z</time>
      </trkpt>
      <trkpt lat="43.39218" lon="6.06695">
        <ele>400</ele>
        <time>2015-06-24T13:22:56Z</time>
      </trkpt>
      <trkpt lat="43.39217" lon="6.06695">
        <ele>399.79998779297</ele>
        <time>2015-06-24T13:22:58Z</time>
      </trkpt>
      <trkpt lat="43.39217" lon="6.06696">
        <ele>400</ele>
        <time>2015-06-24T13:23:00Z</time>
      </trkpt>
      <trkpt lat="43.39216" lon="6.06696">
        <ele>399.60000610352</ele>
        <time>2015-06-24T13:23:02Z</time>
      </trkpt>
      <trkpt lat="43.39215" lon="6.06698">
        <ele>399.39999389648</ele>
        <time>2015-06-24T13:23:03Z</time>
      </trkpt>
      <trkpt lat="43.39214" lon="6.06701">
        <ele>399.39999389648</ele>
        <time>2015-06-24T13:23:04Z</time>
      </trkpt>
      <trkpt lat="43.39215" lon="6.06704">
        <ele>399</ele>
        <time>2015-06-24T13:23:05Z</time>
      </trkpt>
      <trkpt lat="43.39216" lon="6.06707">
        <ele>399.20001220703</ele>
        <time>2015-06-24T13:23:06Z</time>
      </trkpt>
      <trkpt lat="43.3922" lon="6.06714">
        <ele>398.79998779297</ele>
        <time>2015-06-24T13:23:08Z</time>
      </trkpt>
      <trkpt lat="43.39223" lon="6.06719">
        <ele>398</ele>
        <time>2015-06-24T13:23:10Z</time>
      </trkpt>
      <trkpt lat="43.39227" lon="6.06726">
        <ele>397.60000610352</ele>
        <time>2015-06-24T13:23:12Z</time>
      </trkpt>
      <trkpt lat="43.39229" lon="6.06735">
        <ele>397.60000610352</ele>
        <time>2015-06-24T13:23:14Z</time>
      </trkpt>
      <trkpt lat="43.39231" lon="6.06743">
        <ele>396.60000610352</ele>
        <time>2015-06-24T13:23:16Z</time>
      </trkpt>
      <trkpt lat="43.39235" lon="6.0675">
        <ele>395.60000610352</ele>
        <time>2015-06-24T13:23:18Z</time>
      </trkpt>
      <trkpt lat="43.39237" lon="6.06757">
        <ele>395</ele>
        <time>2015-06-24T13:23:20Z</time>
      </trkpt>
      <trkpt lat="43.39234" lon="6.06776">
        <ele>394.20001220703</ele>
        <time>2015-06-24T13:23:25Z</time>
      </trkpt>
      <trkpt lat="43.39235" lon="6.06779">
        <ele>394.39999389648</ele>
        <time>2015-06-24T13:23:26Z</time>
      </trkpt>
      <trkpt lat="43.39237" lon="6.06785">
        <ele>393.39999389648</ele>
        <time>2015-06-24T13:23:28Z</time>
      </trkpt>
      <trkpt lat="43.39236" lon="6.0679">
        <ele>393.20001220703</ele>
        <time>2015-06-24T13:23:29Z</time>
      </trkpt>
      <trkpt lat="43.39236" lon="6.06794">
        <ele>393.60000610352</ele>
        <time>2015-06-24T13:23:30Z</time>
      </trkpt>
      <trkpt lat="43.39236" lon="6.06798">
        <ele>393.60000610352</ele>
        <time>2015-06-24T13:23:31Z</time>
      </trkpt>
      <trkpt lat="43.39236" lon="6.06801">
        <ele>393.60000610352</ele>
        <time>2015-06-24T13:23:32Z</time>
      </trkpt>
      <trkpt lat="43.39236" lon="6.06804">
        <ele>393.20001220703</ele>
        <time>2015-06-24T13:23:33Z</time>
      </trkpt>
      <trkpt lat="43.39236" lon="6.06807">
        <ele>392.79998779297</ele>
        <time>2015-06-24T13:23:34Z</time>
      </trkpt>
      <trkpt lat="43.39236" lon="6.06814">
        <ele>392.39999389648</ele>
        <time>2015-06-24T13:23:36Z</time>
      </trkpt>
      <trkpt lat="43.39236" lon="6.06821">
        <ele>392.60000610352</ele>
        <time>2015-06-24T13:23:38Z</time>
      </trkpt>
      <trkpt lat="43.39237" lon="6.06828">
        <ele>392.60000610352</ele>
        <time>2015-06-24T13:23:40Z</time>
      </trkpt>
      <trkpt lat="43.39238" lon="6.06836">
        <ele>392.60000610352</ele>
        <time>2015-06-24T13:23:42Z</time>
      </trkpt>
      <trkpt lat="43.39239" lon="6.06845">
        <ele>393</ele>
        <time>2015-06-24T13:23:44Z</time>
      </trkpt>
      <trkpt lat="43.39239" lon="6.06854">
        <ele>392.39999389648</ele>
        <time>2015-06-24T13:23:46Z</time>
      </trkpt>
      <trkpt lat="43.39239" lon="6.06857">
        <ele>392.20001220703</ele>
        <time>2015-06-24T13:23:47Z</time>
      </trkpt>
      <trkpt lat="43.39239" lon="6.06859">
        <ele>392</ele>
        <time>2015-06-24T13:23:48Z</time>
      </trkpt>
      <trkpt lat="43.3924" lon="6.0686">
        <ele>391.79998779297</ele>
        <time>2015-06-24T13:23:49Z</time>
      </trkpt>
      <trkpt lat="43.3924" lon="6.0686">
        <ele>391.60000610352</ele>
        <time>2015-06-24T13:23:50Z</time>
      </trkpt>
      <trkpt lat="43.39241" lon="6.0686">
        <ele>391.60000610352</ele>
        <time>2015-06-24T13:23:52Z</time>
      </trkpt>
      <trkpt lat="43.39241" lon="6.0686">
        <ele>391.39999389648</ele>
        <time>2015-06-24T13:23:54Z</time>
      </trkpt>
      <trkpt lat="43.39241" lon="6.0686">
        <ele>391.60000610352</ele>
        <time>2015-06-24T13:23:56Z</time>
      </trkpt>
      <trkpt lat="43.39241" lon="6.0686">
        <ele>391.39999389648</ele>
        <time>2015-06-24T13:24:04Z</time>
      </trkpt>
      <trkpt lat="43.39241" lon="6.0686">
        <ele>391.60000610352</ele>
        <time>2015-06-24T13:24:18Z</time>
      </trkpt>
      <trkpt lat="43.39241" lon="6.0686">
        <ele>391.39999389648</ele>
        <time>2015-06-24T13:24:22Z</time>
      </trkpt>
      <trkpt lat="43.3924" lon="6.0686">
        <ele>391.20001220703</ele>
        <time>2015-06-24T13:24:24Z</time>
      </trkpt>
      <trkpt lat="43.3924" lon="6.0686">
        <ele>391.20001220703</ele>
        <time>2015-06-24T13:24:26Z</time>
      </trkpt>
      <trkpt lat="43.39242" lon="6.06865">
        <ele>391</ele>
        <time>2015-06-24T13:24:30Z</time>
      </trkpt>
      <trkpt lat="43.39243" lon="6.06866">
        <ele>390.60000610352</ele>
        <time>2015-06-24T13:24:31Z</time>
      </trkpt>
      <trkpt lat="43.39246" lon="6.06869">
        <ele>389.39999389648</ele>
        <time>2015-06-24T13:24:33Z</time>
      </trkpt>
      <trkpt lat="43.39246" lon="6.0687">
        <ele>389.39999389648</ele>
        <time>2015-06-24T13:24:34Z</time>
      </trkpt>
      <trkpt lat="43.39248" lon="6.06872">
        <ele>389</ele>
        <time>2015-06-24T13:24:36Z</time>
      </trkpt>
      <trkpt lat="43.39248" lon="6.06873">
        <ele>388.39999389648</ele>
        <time>2015-06-24T13:24:37Z</time>
      </trkpt>
      <trkpt lat="43.39248" lon="6.06873">
        <ele>388</ele>
        <time>2015-06-24T13:24:38Z</time>
      </trkpt>
      <trkpt lat="43.39248" lon="6.06874">
        <ele>387.79998779297</ele>
        <time>2015-06-24T13:24:40Z</time>
      </trkpt>
      <trkpt lat="43.39248" lon="6.06874">
        <ele>387.79998779297</ele>
        <time>2015-06-24T13:24:42Z</time>
      </trkpt>
      <trkpt lat="43.39249" lon="6.06874">
        <ele>387.79998779297</ele>
        <time>2015-06-24T13:24:44Z</time>
      </trkpt>
      <trkpt lat="43.39249" lon="6.06874">
        <ele>388</ele>
        <time>2015-06-24T13:24:46Z</time>
      </trkpt>
      <trkpt lat="43.39249" lon="6.06874">
        <ele>388</ele>
        <time>2015-06-24T13:24:48Z</time>
      </trkpt>
      <trkpt lat="43.39249" lon="6.06874">
        <ele>388</ele>
        <time>2015-06-24T13:24:50Z</time>
      </trkpt>
      <trkpt lat="43.39249" lon="6.06875">
        <ele>387.79998779297</ele>
        <time>2015-06-24T13:24:52Z</time>
      </trkpt>
      <trkpt lat="43.39249" lon="6.06875">
        <ele>388</ele>
        <time>2015-06-24T13:24:54Z</time>
      </trkpt>
      <trkpt lat="43.39249" lon="6.06875">
        <ele>388</ele>
        <time>2015-06-24T13:24:56Z</time>
      </trkpt>
      <trkpt lat="43.3925" lon="6.06876">
        <ele>388</ele>
        <time>2015-06-24T13:24:58Z</time>
      </trkpt>
      <trkpt lat="43.3925" lon="6.06877">
        <ele>388</ele>
        <time>2015-06-24T13:25:02Z</time>
      </trkpt>
      <trkpt lat="43.39251" lon="6.0688">
        <ele>388</ele>
        <time>2015-06-24T13:25:04Z</time>
      </trkpt>
      <trkpt lat="43.39252" lon="6.06882">
        <ele>387.60000610352</ele>
        <time>2015-06-24T13:25:06Z</time>
      </trkpt>
      <trkpt lat="43.39252" lon="6.06883">
        <ele>387</ele>
        <time>2015-06-24T13:25:07Z</time>
      </trkpt>
      <trkpt lat="43.39253" lon="6.06883">
        <ele>386.79998779297</ele>
        <time>2015-06-24T13:25:08Z</time>
      </trkpt>
      <trkpt lat="43.39257" lon="6.06886">
        <ele>386.20001220703</ele>
        <time>2015-06-24T13:25:10Z</time>
      </trkpt>
      <trkpt lat="43.39259" lon="6.06888">
        <ele>385.79998779297</ele>
        <time>2015-06-24T13:25:11Z</time>
      </trkpt>
      <trkpt lat="43.3926" lon="6.06891">
        <ele>385.39999389648</ele>
        <time>2015-06-24T13:25:12Z</time>
      </trkpt>
      <trkpt lat="43.39264" lon="6.06897">
        <ele>385</ele>
        <time>2015-06-24T13:25:14Z</time>
      </trkpt>
      <trkpt lat="43.39265" lon="6.06899">
        <ele>384.39999389648</ele>
        <time>2015-06-24T13:25:15Z</time>
      </trkpt>
      <trkpt lat="43.39265" lon="6.06902">
        <ele>384</ele>
        <time>2015-06-24T13:25:16Z</time>
      </trkpt>
      <trkpt lat="43.39266" lon="6.06907">
        <ele>383.20001220703</ele>
        <time>2015-06-24T13:25:18Z</time>
      </trkpt>
      <trkpt lat="43.39268" lon="6.06914">
        <ele>382.60000610352</ele>
        <time>2015-06-24T13:25:20Z</time>
      </trkpt>
      <trkpt lat="43.39269" lon="6.06917">
        <ele>381.79998779297</ele>
        <time>2015-06-24T13:25:21Z</time>
      </trkpt>
      <trkpt lat="43.3927" lon="6.06921">
        <ele>381.60000610352</ele>
        <time>2015-06-24T13:25:22Z</time>
      </trkpt>
      <trkpt lat="43.39272" lon="6.06927">
        <ele>380.39999389648</ele>
        <time>2015-06-24T13:25:24Z</time>
      </trkpt>
      <trkpt lat="43.39274" lon="6.06932">
        <ele>379.79998779297</ele>
        <time>2015-06-24T13:25:26Z</time>
      </trkpt>
      <trkpt lat="43.39278" lon="6.06942">
        <ele>378.79998779297</ele>
        <time>2015-06-24T13:25:30Z</time>
      </trkpt>
      <trkpt lat="43.3928" lon="6.06946">
        <ele>377.79998779297</ele>
        <time>2015-06-24T13:25:32Z</time>
      </trkpt>
      <trkpt lat="43.39281" lon="6.06951">
        <ele>377.60000610352</ele>
        <time>2015-06-24T13:25:34Z</time>
      </trkpt>
      <trkpt lat="43.39283" lon="6.06957">
        <ele>377.20001220703</ele>
        <time>2015-06-24T13:25:36Z</time>
      </trkpt>
      <trkpt lat="43.39285" lon="6.0696">
        <ele>376.79998779297</ele>
        <time>2015-06-24T13:25:37Z</time>
      </trkpt>
      <trkpt lat="43.39286" lon="6.06964">
        <ele>376.39999389648</ele>
        <time>2015-06-24T13:25:38Z</time>
      </trkpt>
      <trkpt lat="43.39288" lon="6.06968">
        <ele>375.79998779297</ele>
        <time>2015-06-24T13:25:39Z</time>
      </trkpt>
      <trkpt lat="43.39289" lon="6.06972">
        <ele>375</ele>
        <time>2015-06-24T13:25:40Z</time>
      </trkpt>
      <trkpt lat="43.39291" lon="6.06975">
        <ele>374.39999389648</ele>
        <time>2015-06-24T13:25:41Z</time>
      </trkpt>
      <trkpt lat="43.39294" lon="6.06978">
        <ele>373.79998779297</ele>
        <time>2015-06-24T13:25:42Z</time>
      </trkpt>
      <trkpt lat="43.39297" lon="6.06984">
        <ele>373.39999389648</ele>
        <time>2015-06-24T13:25:44Z</time>
      </trkpt>
      <trkpt lat="43.393" lon="6.0699">
        <ele>372.79998779297</ele>
        <time>2015-06-24T13:25:46Z</time>
      </trkpt>
      <trkpt lat="43.39302" lon="6.06994">
        <ele>372</ele>
        <time>2015-06-24T13:25:48Z</time>
      </trkpt>
      <trkpt lat="43.39302" lon="6.06995">
        <ele>371.79998779297</ele>
        <time>2015-06-24T13:25:50Z</time>
      </trkpt>
      <trkpt lat="43.39304" lon="6.06997">
        <ele>371.60000610352</ele>
        <time>2015-06-24T13:25:54Z</time>
      </trkpt>
      <trkpt lat="43.39303" lon="6.06997">
        <ele>371.60000610352</ele>
        <time>2015-06-24T13:25:56Z</time>
      </trkpt>
      <trkpt lat="43.39304" lon="6.06998">
        <ele>371.39999389648</ele>
        <time>2015-06-24T13:25:58Z</time>
      </trkpt>
      <trkpt lat="43.39304" lon="6.06999">
        <ele>371.20001220703</ele>
        <time>2015-06-24T13:26:00Z</time>
      </trkpt>
      <trkpt lat="43.39304" lon="6.07">
        <ele>371</ele>
        <time>2015-06-24T13:26:02Z</time>
      </trkpt>
      <trkpt lat="43.39304" lon="6.07001">
        <ele>370.79998779297</ele>
        <time>2015-06-24T13:26:04Z</time>
      </trkpt>
      <trkpt lat="43.39304" lon="6.07002">
        <ele>370.60000610352</ele>
        <time>2015-06-24T13:26:06Z</time>
      </trkpt>
      <trkpt lat="43.39304" lon="6.07003">
        <ele>370.60000610352</ele>
        <time>2015-06-24T13:26:08Z</time>
      </trkpt>
      <trkpt lat="43.39305" lon="6.07003">
        <ele>370.60000610352</ele>
        <time>2015-06-24T13:26:10Z</time>
      </trkpt>
      <trkpt lat="43.39305" lon="6.07003">
        <ele>370.39999389648</ele>
        <time>2015-06-24T13:26:12Z</time>
      </trkpt>
      <trkpt lat="43.39305" lon="6.07003">
        <ele>370.39999389648</ele>
        <time>2015-06-24T13:26:14Z</time>
      </trkpt>
      <trkpt lat="43.39305" lon="6.07004">
        <ele>370.60000610352</ele>
        <time>2015-06-24T13:26:16Z</time>
      </trkpt>
      <trkpt lat="43.39305" lon="6.07004">
        <ele>370.39999389648</ele>
        <time>2015-06-24T13:26:18Z</time>
      </trkpt>
      <trkpt lat="43.39306" lon="6.07006">
        <ele>370</ele>
        <time>2015-06-24T13:26:20Z</time>
      </trkpt>
      <trkpt lat="43.39307" lon="6.0701">
        <ele>370</ele>
        <time>2015-06-24T13:26:22Z</time>
      </trkpt>
      <trkpt lat="43.39309" lon="6.07014">
        <ele>370.39999389648</ele>
        <time>2015-06-24T13:26:24Z</time>
      </trkpt>
      <trkpt lat="43.39311" lon="6.07018">
        <ele>370</ele>
        <time>2015-06-24T13:26:26Z</time>
      </trkpt>
      <trkpt lat="43.39313" lon="6.07023">
        <ele>369.60000610352</ele>
        <time>2015-06-24T13:26:28Z</time>
      </trkpt>
      <trkpt lat="43.39316" lon="6.07027">
        <ele>369.39999389648</ele>
        <time>2015-06-24T13:26:30Z</time>
      </trkpt>
      <trkpt lat="43.39318" lon="6.07029">
        <ele>369</ele>
        <time>2015-06-24T13:26:31Z</time>
      </trkpt>
      <trkpt lat="43.39319" lon="6.07032">
        <ele>368.60000610352</ele>
        <time>2015-06-24T13:26:32Z</time>
      </trkpt>
      <trkpt lat="43.39323" lon="6.07037">
        <ele>368</ele>
        <time>2015-06-24T13:26:34Z</time>
      </trkpt>
      <trkpt lat="43.39326" lon="6.07041">
        <ele>367</ele>
        <time>2015-06-24T13:26:35Z</time>
      </trkpt>
      <trkpt lat="43.39328" lon="6.07045">
        <ele>366.39999389648</ele>
        <time>2015-06-24T13:26:36Z</time>
      </trkpt>
      <trkpt lat="43.39331" lon="6.0705">
        <ele>366</ele>
        <time>2015-06-24T13:26:37Z</time>
      </trkpt>
      <trkpt lat="43.39333" lon="6.07055">
        <ele>365.60000610352</ele>
        <time>2015-06-24T13:26:38Z</time>
      </trkpt>
      <trkpt lat="43.39338" lon="6.07064">
        <ele>364.39999389648</ele>
        <time>2015-06-24T13:26:40Z</time>
      </trkpt>
      <trkpt lat="43.39341" lon="6.07072">
        <ele>363.20001220703</ele>
        <time>2015-06-24T13:26:42Z</time>
      </trkpt>
      <trkpt lat="43.39344" lon="6.07075">
        <ele>362.20001220703</ele>
        <time>2015-06-24T13:26:43Z</time>
      </trkpt>
      <trkpt lat="43.39346" lon="6.07079">
        <ele>361.79998779297</ele>
        <time>2015-06-24T13:26:44Z</time>
      </trkpt>
      <trkpt lat="43.39348" lon="6.07086">
        <ele>361.39999389648</ele>
        <time>2015-06-24T13:26:46Z</time>
      </trkpt>
      <trkpt lat="43.39349" lon="6.07089">
        <ele>361.20001220703</ele>
        <time>2015-06-24T13:26:47Z</time>
      </trkpt>
      <trkpt lat="43.3935" lon="6.07091">
        <ele>360.79998779297</ele>
        <time>2015-06-24T13:26:48Z</time>
      </trkpt>
      <trkpt lat="43.39352" lon="6.07099">
        <ele>360.79998779297</ele>
        <time>2015-06-24T13:26:50Z</time>
      </trkpt>
      <trkpt lat="43.39354" lon="6.07106">
        <ele>360.79998779297</ele>
        <time>2015-06-24T13:26:52Z</time>
      </trkpt>
      <trkpt lat="43.39357" lon="6.07112">
        <ele>360</ele>
        <time>2015-06-24T13:26:54Z</time>
      </trkpt>
      <trkpt lat="43.39359" lon="6.07114">
        <ele>359.79998779297</ele>
        <time>2015-06-24T13:26:55Z</time>
      </trkpt>
      <trkpt lat="43.3936" lon="6.07115">
        <ele>359.39999389648</ele>
        <time>2015-06-24T13:26:56Z</time>
      </trkpt>
      <trkpt lat="43.3936" lon="6.07116">
        <ele>358.79998779297</ele>
        <time>2015-06-24T13:26:58Z</time>
      </trkpt>
      <trkpt lat="43.3936" lon="6.07116">
        <ele>358.60000610352</ele>
        <time>2015-06-24T13:26:59Z</time>
      </trkpt>
      <trkpt lat="43.3936" lon="6.07117">
        <ele>358.79998779297</ele>
        <time>2015-06-24T13:27:00Z</time>
      </trkpt>
      <trkpt lat="43.3936" lon="6.07117">
        <ele>358.79998779297</ele>
        <time>2015-06-24T13:27:02Z</time>
      </trkpt>
      <trkpt lat="43.3936" lon="6.07117">
        <ele>358.60000610352</ele>
        <time>2015-06-24T13:27:03Z</time>
      </trkpt>
      <trkpt lat="43.3936" lon="6.07117">
        <ele>358.79998779297</ele>
        <time>2015-06-24T13:27:06Z</time>
      </trkpt>
      <trkpt lat="43.3936" lon="6.07117">
        <ele>358.79998779297</ele>
        <time>2015-06-24T13:27:08Z</time>
      </trkpt>
      <trkpt lat="43.3936" lon="6.07117">
        <ele>358.60000610352</ele>
        <time>2015-06-24T13:27:10Z</time>
      </trkpt>
      <trkpt lat="43.3936" lon="6.07117">
        <ele>358.60000610352</ele>
        <time>2015-06-24T13:27:12Z</time>
      </trkpt>
      <trkpt lat="43.3936" lon="6.07117">
        <ele>358.79998779297</ele>
        <time>2015-06-24T13:27:14Z</time>
      </trkpt>
      <trkpt lat="43.3936" lon="6.07117">
        <ele>358.79998779297</ele>
        <time>2015-06-24T13:27:16Z</time>
      </trkpt>
      <trkpt lat="43.3936" lon="6.07117">
        <ele>358.79998779297</ele>
        <time>2015-06-24T13:27:18Z</time>
      </trkpt>
      <trkpt lat="43.3936" lon="6.07117">
        <ele>358.79998779297</ele>
        <time>2015-06-24T13:27:20Z</time>
      </trkpt>
      <trkpt lat="43.39361" lon="6.07117">
        <ele>358.79998779297</ele>
        <time>2015-06-24T13:27:22Z</time>
      </trkpt>
      <trkpt lat="43.39361" lon="6.07118">
        <ele>358.39999389648</ele>
        <time>2015-06-24T13:27:26Z</time>
      </trkpt>
      <trkpt lat="43.39361" lon="6.07118">
        <ele>358.39999389648</ele>
        <time>2015-06-24T13:27:28Z</time>
      </trkpt>
      <trkpt lat="43.39361" lon="6.07118">
        <ele>358.60000610352</ele>
        <time>2015-06-24T13:27:30Z</time>
      </trkpt>
      <trkpt lat="43.39361" lon="6.07118">
        <ele>358.60000610352</ele>
        <time>2015-06-24T13:27:32Z</time>
      </trkpt>
      <trkpt lat="43.39361" lon="6.07118">
        <ele>358.60000610352</ele>
        <time>2015-06-24T13:27:34Z</time>
      </trkpt>
      <trkpt lat="43.39361" lon="6.07118">
        <ele>358.60000610352</ele>
        <time>2015-06-24T13:27:38Z</time>
      </trkpt>
      <trkpt lat="43.39361" lon="6.07118">
        <ele>358.39999389648</ele>
        <time>2015-06-24T13:27:44Z</time>
      </trkpt>
      <trkpt lat="43.39362" lon="6.07119">
        <ele>358.39999389648</ele>
        <time>2015-06-24T13:27:45Z</time>
      </trkpt>
      <trkpt lat="43.39362" lon="6.0712">
        <ele>358.60000610352</ele>
        <time>2015-06-24T13:27:46Z</time>
      </trkpt>
      <trkpt lat="43.3936" lon="6.07123">
        <ele>358.60000610352</ele>
        <time>2015-06-24T13:27:48Z</time>
      </trkpt>
      <trkpt lat="43.3936" lon="6.07124">
        <ele>358.60000610352</ele>
        <time>2015-06-24T13:27:49Z</time>
      </trkpt>
      <trkpt lat="43.39359" lon="6.07126">
        <ele>358.60000610352</ele>
        <time>2015-06-24T13:27:50Z</time>
      </trkpt>
      <trkpt lat="43.39358" lon="6.07133">
        <ele>358.60000610352</ele>
        <time>2015-06-24T13:27:52Z</time>
      </trkpt>
      <trkpt lat="43.39355" lon="6.07142">
        <ele>357.39999389648</ele>
        <time>2015-06-24T13:27:54Z</time>
      </trkpt>
      <trkpt lat="43.39354" lon="6.07152">
        <ele>356.79998779297</ele>
        <time>2015-06-24T13:27:56Z</time>
      </trkpt>
      <trkpt lat="43.39353" lon="6.07161">
        <ele>355.79998779297</ele>
        <time>2015-06-24T13:27:58Z</time>
      </trkpt>
      <trkpt lat="43.39352" lon="6.07166">
        <ele>355</ele>
        <time>2015-06-24T13:27:59Z</time>
      </trkpt>
      <trkpt lat="43.39352" lon="6.07169">
        <ele>354.60000610352</ele>
        <time>2015-06-24T13:28:00Z</time>
      </trkpt>
      <trkpt lat="43.39351" lon="6.07177">
        <ele>353.20001220703</ele>
        <time>2015-06-24T13:28:02Z</time>
      </trkpt>
      <trkpt lat="43.39351" lon="6.07184">
        <ele>351.79998779297</ele>
        <time>2015-06-24T13:28:04Z</time>
      </trkpt>
      <trkpt lat="43.39351" lon="6.07188">
        <ele>351.60000610352</ele>
        <time>2015-06-24T13:28:05Z</time>
      </trkpt>
      <trkpt lat="43.3935" lon="6.07196">
        <ele>349.79998779297</ele>
        <time>2015-06-24T13:28:07Z</time>
      </trkpt>
      <trkpt lat="43.39349" lon="6.07199">
        <ele>349.20001220703</ele>
        <time>2015-06-24T13:28:08Z</time>
      </trkpt>
      <trkpt lat="43.39349" lon="6.07203">
        <ele>349.20001220703</ele>
        <time>2015-06-24T13:28:09Z</time>
      </trkpt>
      <trkpt lat="43.3935" lon="6.07206">
        <ele>349</ele>
        <time>2015-06-24T13:28:10Z</time>
      </trkpt>
      <trkpt lat="43.39352" lon="6.0721">
        <ele>347.79998779297</ele>
        <time>2015-06-24T13:28:11Z</time>
      </trkpt>
      <trkpt lat="43.39354" lon="6.07213">
        <ele>345.79998779297</ele>
        <time>2015-06-24T13:28:12Z</time>
      </trkpt>
      <trkpt lat="43.39358" lon="6.0722">
        <ele>345</ele>
        <time>2015-06-24T13:28:14Z</time>
      </trkpt>
      <trkpt lat="43.39359" lon="6.07223">
        <ele>344.39999389648</ele>
        <time>2015-06-24T13:28:15Z</time>
      </trkpt>
      <trkpt lat="43.3936" lon="6.07225">
        <ele>343.79998779297</ele>
        <time>2015-06-24T13:28:16Z</time>
      </trkpt>
      <trkpt lat="43.3936" lon="6.0723">
        <ele>343.20001220703</ele>
        <time>2015-06-24T13:28:18Z</time>
      </trkpt>
      <trkpt lat="43.3936" lon="6.07233">
        <ele>342.39999389648</ele>
        <time>2015-06-24T13:28:19Z</time>
      </trkpt>
      <trkpt lat="43.39359" lon="6.0724">
        <ele>340.39999389648</ele>
        <time>2015-06-24T13:28:22Z</time>
      </trkpt>
      <trkpt lat="43.39359" lon="6.07243">
        <ele>340</ele>
        <time>2015-06-24T13:28:23Z</time>
      </trkpt>
      <trkpt lat="43.39359" lon="6.07246">
        <ele>339.39999389648</ele>
        <time>2015-06-24T13:28:24Z</time>
      </trkpt>
      <trkpt lat="43.39358" lon="6.07254">
        <ele>337.79998779297</ele>
        <time>2015-06-24T13:28:27Z</time>
      </trkpt>
      <trkpt lat="43.39358" lon="6.07257">
        <ele>336.79998779297</ele>
        <time>2015-06-24T13:28:28Z</time>
      </trkpt>
      <trkpt lat="43.39358" lon="6.0726">
        <ele>336</ele>
        <time>2015-06-24T13:28:29Z</time>
      </trkpt>
      <trkpt lat="43.39357" lon="6.07263">
        <ele>335.60000610352</ele>
        <time>2015-06-24T13:28:30Z</time>
      </trkpt>
      <trkpt lat="43.39357" lon="6.07269">
        <ele>334.60000610352</ele>
        <time>2015-06-24T13:28:32Z</time>
      </trkpt>
      <trkpt lat="43.39357" lon="6.07273">
        <ele>334.39999389648</ele>
        <time>2015-06-24T13:28:33Z</time>
      </trkpt>
      <trkpt lat="43.39357" lon="6.07276">
        <ele>333.79998779297</ele>
        <time>2015-06-24T13:28:34Z</time>
      </trkpt>
      <trkpt lat="43.39357" lon="6.0728">
        <ele>333.20001220703</ele>
        <time>2015-06-24T13:28:35Z</time>
      </trkpt>
      <trkpt lat="43.39358" lon="6.07283">
        <ele>332.79998779297</ele>
        <time>2015-06-24T13:28:36Z</time>
      </trkpt>
      <trkpt lat="43.39359" lon="6.0729">
        <ele>332.20001220703</ele>
        <time>2015-06-24T13:28:38Z</time>
      </trkpt>
      <trkpt lat="43.39361" lon="6.07294">
        <ele>330.60000610352</ele>
        <time>2015-06-24T13:28:40Z</time>
      </trkpt>
      <trkpt lat="43.39361" lon="6.07297">
        <ele>329.79998779297</ele>
        <time>2015-06-24T13:28:42Z</time>
      </trkpt>
      <trkpt lat="43.39361" lon="6.07302">
        <ele>329.60000610352</ele>
        <time>2015-06-24T13:28:44Z</time>
      </trkpt>
      <trkpt lat="43.39362" lon="6.07308">
        <ele>328.60000610352</ele>
        <time>2015-06-24T13:28:46Z</time>
      </trkpt>
      <trkpt lat="43.39362" lon="6.07311">
        <ele>328.20001220703</ele>
        <time>2015-06-24T13:28:47Z</time>
      </trkpt>
      <trkpt lat="43.39363" lon="6.07318">
        <ele>327.20001220703</ele>
        <time>2015-06-24T13:28:50Z</time>
      </trkpt>
      <trkpt lat="43.39362" lon="6.07326">
        <ele>326.39999389648</ele>
        <time>2015-06-24T13:28:53Z</time>
      </trkpt>
      <trkpt lat="43.39362" lon="6.07329">
        <ele>326</ele>
        <time>2015-06-24T13:28:54Z</time>
      </trkpt>
      <trkpt lat="43.39362" lon="6.07334">
        <ele>325.39999389648</ele>
        <time>2015-06-24T13:28:56Z</time>
      </trkpt>
      <trkpt lat="43.39361" lon="6.07338">
        <ele>324.60000610352</ele>
        <time>2015-06-24T13:28:58Z</time>
      </trkpt>
      <trkpt lat="43.39361" lon="6.0734">
        <ele>323.79998779297</ele>
        <time>2015-06-24T13:28:59Z</time>
      </trkpt>
      <trkpt lat="43.39361" lon="6.0734">
        <ele>323</ele>
        <time>2015-06-24T13:29:00Z</time>
      </trkpt>
      <trkpt lat="43.3936" lon="6.07341">
        <ele>322.79998779297</ele>
        <time>2015-06-24T13:29:02Z</time>
      </trkpt>
      <trkpt lat="43.3936" lon="6.07342">
        <ele>322.39999389648</ele>
        <time>2015-06-24T13:29:04Z</time>
      </trkpt>
      <trkpt lat="43.39359" lon="6.07342">
        <ele>322.60000610352</ele>
        <time>2015-06-24T13:29:06Z</time>
      </trkpt>
      <trkpt lat="43.39359" lon="6.07343">
        <ele>322.60000610352</ele>
        <time>2015-06-24T13:29:08Z</time>
      </trkpt>
      <trkpt lat="43.39359" lon="6.07344">
        <ele>322.39999389648</ele>
        <time>2015-06-24T13:29:10Z</time>
      </trkpt>
      <trkpt lat="43.39359" lon="6.07344">
        <ele>322.20001220703</ele>
        <time>2015-06-24T13:29:11Z</time>
      </trkpt>
      <trkpt lat="43.39359" lon="6.07345">
        <ele>322.20001220703</ele>
        <time>2015-06-24T13:29:12Z</time>
      </trkpt>
      <trkpt lat="43.39359" lon="6.07344">
        <ele>322</ele>
        <time>2015-06-24T13:29:14Z</time>
      </trkpt>
      <trkpt lat="43.39359" lon="6.07344">
        <ele>321.79998779297</ele>
        <time>2015-06-24T13:29:16Z</time>
      </trkpt>
      <trkpt lat="43.3936" lon="6.07345">
        <ele>321.79998779297</ele>
        <time>2015-06-24T13:29:18Z</time>
      </trkpt>
      <trkpt lat="43.3936" lon="6.07346">
        <ele>321.60000610352</ele>
        <time>2015-06-24T13:29:20Z</time>
      </trkpt>
      <trkpt lat="43.39361" lon="6.07347">
        <ele>321.60000610352</ele>
        <time>2015-06-24T13:29:21Z</time>
      </trkpt>
      <trkpt lat="43.39362" lon="6.07348">
        <ele>321.39999389648</ele>
        <time>2015-06-24T13:29:22Z</time>
      </trkpt>
      <trkpt lat="43.39363" lon="6.0735">
        <ele>321</ele>
        <time>2015-06-24T13:29:24Z</time>
      </trkpt>
      <trkpt lat="43.39363" lon="6.07352">
        <ele>321</ele>
        <time>2015-06-24T13:29:25Z</time>
      </trkpt>
      <trkpt lat="43.39364" lon="6.07355">
        <ele>321</ele>
        <time>2015-06-24T13:29:26Z</time>
      </trkpt>
      <trkpt lat="43.39365" lon="6.07359">
        <ele>320.20001220703</ele>
        <time>2015-06-24T13:29:28Z</time>
      </trkpt>
      <trkpt lat="43.39365" lon="6.07362">
        <ele>319.79998779297</ele>
        <time>2015-06-24T13:29:29Z</time>
      </trkpt>
      <trkpt lat="43.39365" lon="6.07368">
        <ele>318.79998779297</ele>
        <time>2015-06-24T13:29:31Z</time>
      </trkpt>
      <trkpt lat="43.39367" lon="6.0738">
        <ele>316.79998779297</ele>
        <time>2015-06-24T13:29:35Z</time>
      </trkpt>
      <trkpt lat="43.39367" lon="6.07384">
        <ele>316</ele>
        <time>2015-06-24T13:29:36Z</time>
      </trkpt>
      <trkpt lat="43.39367" lon="6.07388">
        <ele>315.60000610352</ele>
        <time>2015-06-24T13:29:37Z</time>
      </trkpt>
      <trkpt lat="43.39367" lon="6.07391">
        <ele>315.39999389648</ele>
        <time>2015-06-24T13:29:38Z</time>
      </trkpt>
      <trkpt lat="43.39368" lon="6.07399">
        <ele>314.39999389648</ele>
        <time>2015-06-24T13:29:40Z</time>
      </trkpt>
      <trkpt lat="43.39369" lon="6.07405">
        <ele>313.60000610352</ele>
        <time>2015-06-24T13:29:42Z</time>
      </trkpt>
      <trkpt lat="43.3937" lon="6.07409">
        <ele>313.60000610352</ele>
        <time>2015-06-24T13:29:43Z</time>
      </trkpt>
      <trkpt lat="43.39371" lon="6.07413">
        <ele>313.20001220703</ele>
        <time>2015-06-24T13:29:44Z</time>
      </trkpt>
      <trkpt lat="43.39372" lon="6.07418">
        <ele>312.79998779297</ele>
        <time>2015-06-24T13:29:46Z</time>
      </trkpt>
      <trkpt lat="43.39373" lon="6.07422">
        <ele>312.39999389648</ele>
        <time>2015-06-24T13:29:48Z</time>
      </trkpt>
      <trkpt lat="43.39374" lon="6.07426">
        <ele>312.20001220703</ele>
        <time>2015-06-24T13:29:51Z</time>
      </trkpt>
      <trkpt lat="43.39375" lon="6.07427">
        <ele>312</ele>
        <time>2015-06-24T13:29:52Z</time>
      </trkpt>
      <trkpt lat="43.39375" lon="6.07428">
        <ele>312</ele>
        <time>2015-06-24T13:29:53Z</time>
      </trkpt>
      <trkpt lat="43.39376" lon="6.07429">
        <ele>312</ele>
        <time>2015-06-24T13:29:54Z</time>
      </trkpt>
      <trkpt lat="43.39378" lon="6.07433">
        <ele>311.79998779297</ele>
        <time>2015-06-24T13:29:56Z</time>
      </trkpt>
      <trkpt lat="43.3938" lon="6.07435">
        <ele>311.60000610352</ele>
        <time>2015-06-24T13:29:57Z</time>
      </trkpt>
      <trkpt lat="43.39382" lon="6.07436">
        <ele>311.39999389648</ele>
        <time>2015-06-24T13:29:58Z</time>
      </trkpt>
      <trkpt lat="43.39383" lon="6.07438">
        <ele>311.20001220703</ele>
        <time>2015-06-24T13:29:59Z</time>
      </trkpt>
      <trkpt lat="43.39384" lon="6.07439">
        <ele>310.79998779297</ele>
        <time>2015-06-24T13:30:00Z</time>
      </trkpt>
      <trkpt lat="43.39385" lon="6.07441">
        <ele>310.39999389648</ele>
        <time>2015-06-24T13:30:01Z</time>
      </trkpt>
      <trkpt lat="43.39385" lon="6.07442">
        <ele>310.20001220703</ele>
        <time>2015-06-24T13:30:02Z</time>
      </trkpt>
      <trkpt lat="43.39386" lon="6.07442">
        <ele>310.20001220703</ele>
        <time>2015-06-24T13:30:03Z</time>
      </trkpt>
      <trkpt lat="43.39386" lon="6.07443">
        <ele>309.79998779297</ele>
        <time>2015-06-24T13:30:04Z</time>
      </trkpt>
      <trkpt lat="43.39387" lon="6.07444">
        <ele>309.60000610352</ele>
        <time>2015-06-24T13:30:06Z</time>
      </trkpt>
      <trkpt lat="43.39388" lon="6.07446">
        <ele>309.20001220703</ele>
        <time>2015-06-24T13:30:08Z</time>
      </trkpt>
      <trkpt lat="43.39388" lon="6.07447">
        <ele>309</ele>
        <time>2015-06-24T13:30:10Z</time>
      </trkpt>
      <trkpt lat="43.39389" lon="6.07449">
        <ele>308.79998779297</ele>
        <time>2015-06-24T13:30:12Z</time>
      </trkpt>
      <trkpt lat="43.3939" lon="6.0745">
        <ele>308.20001220703</ele>
        <time>2015-06-24T13:30:14Z</time>
      </trkpt>
      <trkpt lat="43.3939" lon="6.0745">
        <ele>308.20001220703</ele>
        <time>2015-06-24T13:30:16Z</time>
      </trkpt>
      <trkpt lat="43.39391" lon="6.07453">
        <ele>308</ele>
        <time>2015-06-24T13:30:20Z</time>
      </trkpt>
      <trkpt lat="43.39391" lon="6.07454">
        <ele>307.79998779297</ele>
        <time>2015-06-24T13:30:22Z</time>
      </trkpt>
      <trkpt lat="43.39391" lon="6.07454">
        <ele>308</ele>
        <time>2015-06-24T13:30:24Z</time>
      </trkpt>
      <trkpt lat="43.3939" lon="6.07455">
        <ele>307.60000610352</ele>
        <time>2015-06-24T13:30:26Z</time>
      </trkpt>
      <trkpt lat="43.3939" lon="6.07456">
        <ele>307.20001220703</ele>
        <time>2015-06-24T13:30:28Z</time>
      </trkpt>
      <trkpt lat="43.39391" lon="6.07459">
        <ele>307</ele>
        <time>2015-06-24T13:30:30Z</time>
      </trkpt>
      <trkpt lat="43.39392" lon="6.07461">
        <ele>307</ele>
        <time>2015-06-24T13:30:31Z</time>
      </trkpt>
      <trkpt lat="43.39392" lon="6.07467">
        <ele>306.20001220703</ele>
        <time>2015-06-24T13:30:34Z</time>
      </trkpt>
      <trkpt lat="43.39393" lon="6.07473">
        <ele>305.79998779297</ele>
        <time>2015-06-24T13:30:36Z</time>
      </trkpt>
      <trkpt lat="43.39394" lon="6.07478">
        <ele>305.60000610352</ele>
        <time>2015-06-24T13:30:37Z</time>
      </trkpt>
      <trkpt lat="43.39395" lon="6.07482">
        <ele>305.39999389648</ele>
        <time>2015-06-24T13:30:38Z</time>
      </trkpt>
      <trkpt lat="43.39396" lon="6.0749">
        <ele>304.39999389648</ele>
        <time>2015-06-24T13:30:40Z</time>
      </trkpt>
      <trkpt lat="43.39397" lon="6.07493">
        <ele>303.79998779297</ele>
        <time>2015-06-24T13:30:41Z</time>
      </trkpt>
      <trkpt lat="43.39397" lon="6.07496">
        <ele>303.39999389648</ele>
        <time>2015-06-24T13:30:42Z</time>
      </trkpt>
      <trkpt lat="43.39397" lon="6.07498">
        <ele>303.20001220703</ele>
        <time>2015-06-24T13:30:43Z</time>
      </trkpt>
      <trkpt lat="43.39398" lon="6.07501">
        <ele>302.79998779297</ele>
        <time>2015-06-24T13:30:44Z</time>
      </trkpt>
      <trkpt lat="43.39399" lon="6.07504">
        <ele>301.79998779297</ele>
        <time>2015-06-24T13:30:46Z</time>
      </trkpt>
      <trkpt lat="43.39401" lon="6.07508">
        <ele>301.79998779297</ele>
        <time>2015-06-24T13:30:48Z</time>
      </trkpt>
      <trkpt lat="43.39401" lon="6.07513">
        <ele>301</ele>
        <time>2015-06-24T13:30:50Z</time>
      </trkpt>
      <trkpt lat="43.39402" lon="6.07515">
        <ele>300.79998779297</ele>
        <time>2015-06-24T13:30:51Z</time>
      </trkpt>
      <trkpt lat="43.39402" lon="6.07516">
        <ele>300.60000610352</ele>
        <time>2015-06-24T13:30:52Z</time>
      </trkpt>
      <trkpt lat="43.39402" lon="6.07517">
        <ele>300.39999389648</ele>
        <time>2015-06-24T13:30:54Z</time>
      </trkpt>
      <trkpt lat="43.39402" lon="6.07517">
        <ele>300.20001220703</ele>
        <time>2015-06-24T13:30:56Z</time>
      </trkpt>
      <trkpt lat="43.39402" lon="6.07518">
        <ele>300.20001220703</ele>
        <time>2015-06-24T13:30:58Z</time>
      </trkpt>
      <trkpt lat="43.39402" lon="6.0752">
        <ele>299.79998779297</ele>
        <time>2015-06-24T13:31:00Z</time>
      </trkpt>
      <trkpt lat="43.39401" lon="6.0752">
        <ele>299.60000610352</ele>
        <time>2015-06-24T13:31:04Z</time>
      </trkpt>
      <trkpt lat="43.39401" lon="6.07521">
        <ele>299.79998779297</ele>
        <time>2015-06-24T13:31:06Z</time>
      </trkpt>
      <trkpt lat="43.39401" lon="6.0752">
        <ele>299.79998779297</ele>
        <time>2015-06-24T13:31:08Z</time>
      </trkpt>
      <trkpt lat="43.394" lon="6.0752">
        <ele>300</ele>
        <time>2015-06-24T13:31:10Z</time>
      </trkpt>
      <trkpt lat="43.39401" lon="6.07523">
        <ele>299.79998779297</ele>
        <time>2015-06-24T13:31:12Z</time>
      </trkpt>
      <trkpt lat="43.39401" lon="6.07525">
        <ele>299.79998779297</ele>
        <time>2015-06-24T13:31:13Z</time>
      </trkpt>
      <trkpt lat="43.39402" lon="6.07529">
        <ele>299.60000610352</ele>
        <time>2015-06-24T13:31:14Z</time>
      </trkpt>
      <trkpt lat="43.39403" lon="6.07537">
        <ele>299.60000610352</ele>
        <time>2015-06-24T13:31:16Z</time>
      </trkpt>
      <trkpt lat="43.39404" lon="6.07544">
        <ele>299.20001220703</ele>
        <time>2015-06-24T13:31:18Z</time>
      </trkpt>
      <trkpt lat="43.39404" lon="6.07551">
        <ele>298.60000610352</ele>
        <time>2015-06-24T13:31:20Z</time>
      </trkpt>
      <trkpt lat="43.39404" lon="6.07554">
        <ele>298.39999389648</ele>
        <time>2015-06-24T13:31:21Z</time>
      </trkpt>
      <trkpt lat="43.39404" lon="6.07557">
        <ele>298.39999389648</ele>
        <time>2015-06-24T13:31:22Z</time>
      </trkpt>
      <trkpt lat="43.39403" lon="6.07565">
        <ele>297.39999389648</ele>
        <time>2015-06-24T13:31:24Z</time>
      </trkpt>
      <trkpt lat="43.39403" lon="6.0757">
        <ele>297</ele>
        <time>2015-06-24T13:31:25Z</time>
      </trkpt>
      <trkpt lat="43.39403" lon="6.07575">
        <ele>296.79998779297</ele>
        <time>2015-06-24T13:31:26Z</time>
      </trkpt>
      <trkpt lat="43.39404" lon="6.07584">
        <ele>297</ele>
        <time>2015-06-24T13:31:28Z</time>
      </trkpt>
      <trkpt lat="43.39406" lon="6.07594">
        <ele>296.20001220703</ele>
        <time>2015-06-24T13:31:30Z</time>
      </trkpt>
      <trkpt lat="43.39409" lon="6.07605">
        <ele>295</ele>
        <time>2015-06-24T13:31:32Z</time>
      </trkpt>
      <trkpt lat="43.39411" lon="6.0761">
        <ele>294.39999389648</ele>
        <time>2015-06-24T13:31:33Z</time>
      </trkpt>
      <trkpt lat="43.39414" lon="6.07614">
        <ele>293.79998779297</ele>
        <time>2015-06-24T13:31:34Z</time>
      </trkpt>
      <trkpt lat="43.39417" lon="6.07618">
        <ele>293.20001220703</ele>
        <time>2015-06-24T13:31:35Z</time>
      </trkpt>
      <trkpt lat="43.39419" lon="6.07621">
        <ele>292.79998779297</ele>
        <time>2015-06-24T13:31:36Z</time>
      </trkpt>
      <trkpt lat="43.39421" lon="6.07627">
        <ele>292.20001220703</ele>
        <time>2015-06-24T13:31:38Z</time>
      </trkpt>
      <trkpt lat="43.39422" lon="6.07629">
        <ele>292.20001220703</ele>
        <time>2015-06-24T13:31:39Z</time>
      </trkpt>
      <trkpt lat="43.39423" lon="6.0763">
        <ele>291.60000610352</ele>
        <time>2015-06-24T13:31:40Z</time>
      </trkpt>
      <trkpt lat="43.39425" lon="6.07632">
        <ele>291.20001220703</ele>
        <time>2015-06-24T13:31:42Z</time>
      </trkpt>
      <trkpt lat="43.39428" lon="6.07634">
        <ele>290.79998779297</ele>
        <time>2015-06-24T13:31:45Z</time>
      </trkpt>
      <trkpt lat="43.39429" lon="6.07634">
        <ele>290.60000610352</ele>
        <time>2015-06-24T13:31:46Z</time>
      </trkpt>
      <trkpt lat="43.3943" lon="6.07635">
        <ele>290.79998779297</ele>
        <time>2015-06-24T13:31:47Z</time>
      </trkpt>
      <trkpt lat="43.3943" lon="6.07637">
        <ele>290.79998779297</ele>
        <time>2015-06-24T13:31:48Z</time>
      </trkpt>
      <trkpt lat="43.39431" lon="6.07638">
        <ele>290.39999389648</ele>
        <time>2015-06-24T13:31:49Z</time>
      </trkpt>
      <trkpt lat="43.39432" lon="6.07639">
        <ele>290</ele>
        <time>2015-06-24T13:31:52Z</time>
      </trkpt>
      <trkpt lat="43.39433" lon="6.0764">
        <ele>290.20001220703</ele>
        <time>2015-06-24T13:31:54Z</time>
      </trkpt>
      <trkpt lat="43.39434" lon="6.07642">
        <ele>290.60000610352</ele>
        <time>2015-06-24T13:31:56Z</time>
      </trkpt>
      <trkpt lat="43.39434" lon="6.07646">
        <ele>290.39999389648</ele>
        <time>2015-06-24T13:31:58Z</time>
      </trkpt>
      <trkpt lat="43.39434" lon="6.07652">
        <ele>290.20001220703</ele>
        <time>2015-06-24T13:32:00Z</time>
      </trkpt>
      <trkpt lat="43.39435" lon="6.0766">
        <ele>290</ele>
        <time>2015-06-24T13:32:02Z</time>
      </trkpt>
      <trkpt lat="43.39436" lon="6.07664">
        <ele>289.60000610352</ele>
        <time>2015-06-24T13:32:03Z</time>
      </trkpt>
      <trkpt lat="43.39437" lon="6.07669">
        <ele>289.20001220703</ele>
        <time>2015-06-24T13:32:04Z</time>
      </trkpt>
      <trkpt lat="43.3944" lon="6.07678">
        <ele>289.39999389648</ele>
        <time>2015-06-24T13:32:06Z</time>
      </trkpt>
      <trkpt lat="43.39443" lon="6.07689">
        <ele>289.20001220703</ele>
        <time>2015-06-24T13:32:08Z</time>
      </trkpt>
      <trkpt lat="43.39447" lon="6.077">
        <ele>288.60000610352</ele>
        <time>2015-06-24T13:32:10Z</time>
      </trkpt>
      <trkpt lat="43.39449" lon="6.07706">
        <ele>288.39999389648</ele>
        <time>2015-06-24T13:32:11Z</time>
      </trkpt>
      <trkpt lat="43.39452" lon="6.07718">
        <ele>287</ele>
        <time>2015-06-24T13:32:13Z</time>
      </trkpt>
      <trkpt lat="43.39453" lon="6.07722">
        <ele>286.39999389648</ele>
        <time>2015-06-24T13:32:14Z</time>
      </trkpt>
      <trkpt lat="43.39455" lon="6.07733">
        <ele>285.79998779297</ele>
        <time>2015-06-24T13:32:16Z</time>
      </trkpt>
      <trkpt lat="43.39458" lon="6.07745">
        <ele>285.79998779297</ele>
        <time>2015-06-24T13:32:18Z</time>
      </trkpt>
      <trkpt lat="43.39462" lon="6.07758">
        <ele>284.60000610352</ele>
        <time>2015-06-24T13:32:20Z</time>
      </trkpt>
      <trkpt lat="43.39464" lon="6.0777">
        <ele>283.60000610352</ele>
        <time>2015-06-24T13:32:22Z</time>
      </trkpt>
      <trkpt lat="43.39464" lon="6.07773">
        <ele>283.39999389648</ele>
        <time>2015-06-24T13:32:23Z</time>
      </trkpt>
      <trkpt lat="43.39463" lon="6.07775">
        <ele>283.20001220703</ele>
        <time>2015-06-24T13:32:24Z</time>
      </trkpt>
      <trkpt lat="43.39463" lon="6.07777">
        <ele>282.79998779297</ele>
        <time>2015-06-24T13:32:25Z</time>
      </trkpt>
      <trkpt lat="43.39462" lon="6.07781">
        <ele>282.60000610352</ele>
        <time>2015-06-24T13:32:26Z</time>
      </trkpt>
      <trkpt lat="43.39463" lon="6.07785">
        <ele>282.39999389648</ele>
        <time>2015-06-24T13:32:27Z</time>
      </trkpt>
      <trkpt lat="43.39463" lon="6.07789">
        <ele>281.60000610352</ele>
        <time>2015-06-24T13:32:28Z</time>
      </trkpt>
      <trkpt lat="43.39465" lon="6.07795">
        <ele>281</ele>
        <time>2015-06-24T13:32:29Z</time>
      </trkpt>
      <trkpt lat="43.39466" lon="6.078">
        <ele>280.20001220703</ele>
        <time>2015-06-24T13:32:30Z</time>
      </trkpt>
      <trkpt lat="43.39468" lon="6.07807">
        <ele>279.20001220703</ele>
        <time>2015-06-24T13:32:31Z</time>
      </trkpt>
      <trkpt lat="43.39469" lon="6.07813">
        <ele>278.60000610352</ele>
        <time>2015-06-24T13:32:32Z</time>
      </trkpt>
      <trkpt lat="43.39472" lon="6.07827">
        <ele>279.79998779297</ele>
        <time>2015-06-24T13:32:34Z</time>
      </trkpt>
      <trkpt lat="43.39473" lon="6.07834">
        <ele>279.60000610352</ele>
        <time>2015-06-24T13:32:35Z</time>
      </trkpt>
      <trkpt lat="43.39473" lon="6.0784">
        <ele>279.20001220703</ele>
        <time>2015-06-24T13:32:36Z</time>
      </trkpt>
      <trkpt lat="43.39473" lon="6.07845">
        <ele>279</ele>
        <time>2015-06-24T13:32:37Z</time>
      </trkpt>
      <trkpt lat="43.39473" lon="6.07847">
        <ele>279</ele>
        <time>2015-06-24T13:32:38Z</time>
      </trkpt>
      <trkpt lat="43.39471" lon="6.0785">
        <ele>279</ele>
        <time>2015-06-24T13:32:40Z</time>
      </trkpt>
      <trkpt lat="43.39469" lon="6.07855">
        <ele>279.39999389648</ele>
        <time>2015-06-24T13:32:42Z</time>
      </trkpt>
      <trkpt lat="43.39468" lon="6.07861">
        <ele>279.60000610352</ele>
        <time>2015-06-24T13:32:44Z</time>
      </trkpt>
      <trkpt lat="43.39466" lon="6.07864">
        <ele>279.60000610352</ele>
        <time>2015-06-24T13:32:45Z</time>
      </trkpt>
      <trkpt lat="43.39466" lon="6.07867">
        <ele>279.60000610352</ele>
        <time>2015-06-24T13:32:46Z</time>
      </trkpt>
      <trkpt lat="43.39465" lon="6.07874">
        <ele>280.20001220703</ele>
        <time>2015-06-24T13:32:48Z</time>
      </trkpt>
      <trkpt lat="43.39463" lon="6.07879">
        <ele>280.79998779297</ele>
        <time>2015-06-24T13:32:50Z</time>
      </trkpt>
      <trkpt lat="43.39462" lon="6.07885">
        <ele>280.79998779297</ele>
        <time>2015-06-24T13:32:52Z</time>
      </trkpt>
      <trkpt lat="43.3946" lon="6.0789">
        <ele>281.20001220703</ele>
        <time>2015-06-24T13:32:54Z</time>
      </trkpt>
      <trkpt lat="43.39457" lon="6.07893">
        <ele>281.39999389648</ele>
        <time>2015-06-24T13:32:56Z</time>
      </trkpt>
      <trkpt lat="43.39454" lon="6.07896">
        <ele>282.20001220703</ele>
        <time>2015-06-24T13:32:58Z</time>
      </trkpt>
      <trkpt lat="43.39452" lon="6.07896">
        <ele>282.39999389648</ele>
        <time>2015-06-24T13:32:59Z</time>
      </trkpt>
      <trkpt lat="43.39451" lon="6.07896">
        <ele>282.39999389648</ele>
        <time>2015-06-24T13:33:00Z</time>
      </trkpt>
      <trkpt lat="43.39451" lon="6.07896">
        <ele>282.60000610352</ele>
        <time>2015-06-24T13:33:02Z</time>
      </trkpt>
      <trkpt lat="43.39451" lon="6.07896">
        <ele>282.60000610352</ele>
        <time>2015-06-24T13:33:04Z</time>
      </trkpt>
      <trkpt lat="43.39451" lon="6.07896">
        <ele>282.79998779297</ele>
        <time>2015-06-24T13:33:05Z</time>
      </trkpt>
      <trkpt lat="43.39448" lon="6.07896">
        <ele>283.60000610352</ele>
        <time>2015-06-24T13:33:08Z</time>
      </trkpt>
      <trkpt lat="43.39446" lon="6.07896">
        <ele>284.39999389648</ele>
        <time>2015-06-24T13:33:10Z</time>
      </trkpt>
      <trkpt lat="43.39445" lon="6.07897">
        <ele>285</ele>
        <time>2015-06-24T13:33:12Z</time>
      </trkpt>
      <trkpt lat="43.39444" lon="6.07899">
        <ele>284.60000610352</ele>
        <time>2015-06-24T13:33:14Z</time>
      </trkpt>
      <trkpt lat="43.39444" lon="6.079">
        <ele>284.79998779297</ele>
        <time>2015-06-24T13:33:15Z</time>
      </trkpt>
      <trkpt lat="43.39443" lon="6.07901">
        <ele>285</ele>
        <time>2015-06-24T13:33:16Z</time>
      </trkpt>
      <trkpt lat="43.39442" lon="6.07908">
        <ele>284.79998779297</ele>
        <time>2015-06-24T13:33:20Z</time>
      </trkpt>
      <trkpt lat="43.39441" lon="6.07919">
        <ele>285</ele>
        <time>2015-06-24T13:33:24Z</time>
      </trkpt>
      <trkpt lat="43.39439" lon="6.07926">
        <ele>284.79998779297</ele>
        <time>2015-06-24T13:33:26Z</time>
      </trkpt>
      <trkpt lat="43.39437" lon="6.0793">
        <ele>284.79998779297</ele>
        <time>2015-06-24T13:33:27Z</time>
      </trkpt>
      <trkpt lat="43.39436" lon="6.07934">
        <ele>284.60000610352</ele>
        <time>2015-06-24T13:33:28Z</time>
      </trkpt>
      <trkpt lat="43.39433" lon="6.07942">
        <ele>284.79998779297</ele>
        <time>2015-06-24T13:33:30Z</time>
      </trkpt>
      <trkpt lat="43.3943" lon="6.07949">
        <ele>284.39999389648</ele>
        <time>2015-06-24T13:33:32Z</time>
      </trkpt>
      <trkpt lat="43.39426" lon="6.07956">
        <ele>284.20001220703</ele>
        <time>2015-06-24T13:33:34Z</time>
      </trkpt>
      <trkpt lat="43.39421" lon="6.0796">
        <ele>284.20001220703</ele>
        <time>2015-06-24T13:33:36Z</time>
      </trkpt>
      <trkpt lat="43.3941" lon="6.07963">
        <ele>284.20001220703</ele>
        <time>2015-06-24T13:33:40Z</time>
      </trkpt>
      <trkpt lat="43.39404" lon="6.07964">
        <ele>284.60000610352</ele>
        <time>2015-06-24T13:33:42Z</time>
      </trkpt>
      <trkpt lat="43.39397" lon="6.07963">
        <ele>284.79998779297</ele>
        <time>2015-06-24T13:33:44Z</time>
      </trkpt>
      <trkpt lat="43.39392" lon="6.07961">
        <ele>285.39999389648</ele>
        <time>2015-06-24T13:33:46Z</time>
      </trkpt>
      <trkpt lat="43.39389" lon="6.07961">
        <ele>286.20001220703</ele>
        <time>2015-06-24T13:33:48Z</time>
      </trkpt>
      <trkpt lat="43.39387" lon="6.07962">
        <ele>286.39999389648</ele>
        <time>2015-06-24T13:33:49Z</time>
      </trkpt>
      <trkpt lat="43.39385" lon="6.07962">
        <ele>286.39999389648</ele>
        <time>2015-06-24T13:33:50Z</time>
      </trkpt>
      <trkpt lat="43.39381" lon="6.07963">
        <ele>286.60000610352</ele>
        <time>2015-06-24T13:33:52Z</time>
      </trkpt>
      <trkpt lat="43.39378" lon="6.07965">
        <ele>286.79998779297</ele>
        <time>2015-06-24T13:33:54Z</time>
      </trkpt>
      <trkpt lat="43.39374" lon="6.07974">
        <ele>286.79998779297</ele>
        <time>2015-06-24T13:33:58Z</time>
      </trkpt>
      <trkpt lat="43.39374" lon="6.07979">
        <ele>286</ele>
        <time>2015-06-24T13:34:00Z</time>
      </trkpt>
      <trkpt lat="43.39374" lon="6.07982">
        <ele>286</ele>
        <time>2015-06-24T13:34:01Z</time>
      </trkpt>
      <trkpt lat="43.39375" lon="6.07984">
        <ele>285.79998779297</ele>
        <time>2015-06-24T13:34:02Z</time>
      </trkpt>
      <trkpt lat="43.39377" lon="6.07986">
        <ele>285.20001220703</ele>
        <time>2015-06-24T13:34:04Z</time>
      </trkpt>
      <trkpt lat="43.39378" lon="6.07988">
        <ele>284.60000610352</ele>
        <time>2015-06-24T13:34:06Z</time>
      </trkpt>
      <trkpt lat="43.39378" lon="6.07989">
        <ele>284.20001220703</ele>
        <time>2015-06-24T13:34:08Z</time>
      </trkpt>
      <trkpt lat="43.39378" lon="6.0799">
        <ele>284.39999389648</ele>
        <time>2015-06-24T13:34:10Z</time>
      </trkpt>
      <trkpt lat="43.39378" lon="6.07991">
        <ele>284.39999389648</ele>
        <time>2015-06-24T13:34:12Z</time>
      </trkpt>
      <trkpt lat="43.39379" lon="6.07991">
        <ele>284.39999389648</ele>
        <time>2015-06-24T13:34:14Z</time>
      </trkpt>
      <trkpt lat="43.39379" lon="6.07991">
        <ele>284.20001220703</ele>
        <time>2015-06-24T13:34:16Z</time>
      </trkpt>
      <trkpt lat="43.39379" lon="6.07991">
        <ele>284.20001220703</ele>
        <time>2015-06-24T13:34:18Z</time>
      </trkpt>
      <trkpt lat="43.39379" lon="6.07991">
        <ele>284.39999389648</ele>
        <time>2015-06-24T13:34:24Z</time>
      </trkpt>
      <trkpt lat="43.39379" lon="6.07991">
        <ele>284.60000610352</ele>
        <time>2015-06-24T13:34:36Z</time>
      </trkpt>
      <trkpt lat="43.39379" lon="6.07991">
        <ele>284.60000610352</ele>
        <time>2015-06-24T13:34:38Z</time>
      </trkpt>
      <trkpt lat="43.39379" lon="6.07991">
        <ele>284.39999389648</ele>
        <time>2015-06-24T13:34:40Z</time>
      </trkpt>
      <trkpt lat="43.39378" lon="6.07992">
        <ele>284.20001220703</ele>
        <time>2015-06-24T13:34:41Z</time>
      </trkpt>
      <trkpt lat="43.39378" lon="6.07993">
        <ele>284.20001220703</ele>
        <time>2015-06-24T13:34:42Z</time>
      </trkpt>
      <trkpt lat="43.39377" lon="6.07996">
        <ele>284.60000610352</ele>
        <time>2015-06-24T13:34:44Z</time>
      </trkpt>
      <trkpt lat="43.39375" lon="6.08">
        <ele>284.20001220703</ele>
        <time>2015-06-24T13:34:46Z</time>
      </trkpt>
      <trkpt lat="43.39371" lon="6.08004">
        <ele>284.39999389648</ele>
        <time>2015-06-24T13:34:48Z</time>
      </trkpt>
      <trkpt lat="43.3937" lon="6.08005">
        <ele>284.39999389648</ele>
        <time>2015-06-24T13:34:49Z</time>
      </trkpt>
      <trkpt lat="43.39364" lon="6.0801">
        <ele>284.79998779297</ele>
        <time>2015-06-24T13:34:52Z</time>
      </trkpt>
      <trkpt lat="43.3936" lon="6.08014">
        <ele>285.60000610352</ele>
        <time>2015-06-24T13:34:54Z</time>
      </trkpt>
      <trkpt lat="43.39357" lon="6.08021">
        <ele>286.20001220703</ele>
        <time>2015-06-24T13:34:56Z</time>
      </trkpt>
      <trkpt lat="43.39356" lon="6.08023">
        <ele>286.20001220703</ele>
        <time>2015-06-24T13:34:57Z</time>
      </trkpt>
      <trkpt lat="43.39354" lon="6.08026">
        <ele>286.20001220703</ele>
        <time>2015-06-24T13:34:58Z</time>
      </trkpt>
      <trkpt lat="43.39352" lon="6.08028">
        <ele>286.60000610352</ele>
        <time>2015-06-24T13:34:59Z</time>
      </trkpt>
      <trkpt lat="43.39351" lon="6.0803">
        <ele>287</ele>
        <time>2015-06-24T13:35:00Z</time>
      </trkpt>
      <trkpt lat="43.39346" lon="6.08032">
        <ele>287.20001220703</ele>
        <time>2015-06-24T13:35:02Z</time>
      </trkpt>
      <trkpt lat="43.39345" lon="6.08033">
        <ele>287.60000610352</ele>
        <time>2015-06-24T13:35:03Z</time>
      </trkpt>
      <trkpt lat="43.39343" lon="6.08035">
        <ele>288</ele>
        <time>2015-06-24T13:35:04Z</time>
      </trkpt>
      <trkpt lat="43.39341" lon="6.08037">
        <ele>288.39999389648</ele>
        <time>2015-06-24T13:35:06Z</time>
      </trkpt>
      <trkpt lat="43.39338" lon="6.08041">
        <ele>288.60000610352</ele>
        <time>2015-06-24T13:35:08Z</time>
      </trkpt>
      <trkpt lat="43.39335" lon="6.08046">
        <ele>288.60000610352</ele>
        <time>2015-06-24T13:35:10Z</time>
      </trkpt>
      <trkpt lat="43.39333" lon="6.0805">
        <ele>288.79998779297</ele>
        <time>2015-06-24T13:35:12Z</time>
      </trkpt>
      <trkpt lat="43.39331" lon="6.08053">
        <ele>288.79998779297</ele>
        <time>2015-06-24T13:35:13Z</time>
      </trkpt>
      <trkpt lat="43.3933" lon="6.08056">
        <ele>288.79998779297</ele>
        <time>2015-06-24T13:35:14Z</time>
      </trkpt>
      <trkpt lat="43.39326" lon="6.08061">
        <ele>289.20001220703</ele>
        <time>2015-06-24T13:35:16Z</time>
      </trkpt>
      <trkpt lat="43.39324" lon="6.08066">
        <ele>289</ele>
        <time>2015-06-24T13:35:18Z</time>
      </trkpt>
      <trkpt lat="43.39318" lon="6.08075">
        <ele>288.79998779297</ele>
        <time>2015-06-24T13:35:22Z</time>
      </trkpt>
      <trkpt lat="43.39314" lon="6.08078">
        <ele>289.20001220703</ele>
        <time>2015-06-24T13:35:24Z</time>
      </trkpt>
      <trkpt lat="43.39313" lon="6.0808">
        <ele>289.39999389648</ele>
        <time>2015-06-24T13:35:25Z</time>
      </trkpt>
      <trkpt lat="43.3931" lon="6.08084">
        <ele>289.79998779297</ele>
        <time>2015-06-24T13:35:27Z</time>
      </trkpt>
      <trkpt lat="43.39309" lon="6.08087">
        <ele>289.79998779297</ele>
        <time>2015-06-24T13:35:28Z</time>
      </trkpt>
      <trkpt lat="43.39306" lon="6.08092">
        <ele>290.20001220703</ele>
        <time>2015-06-24T13:35:30Z</time>
      </trkpt>
      <trkpt lat="43.39304" lon="6.08096">
        <ele>290.20001220703</ele>
        <time>2015-06-24T13:35:32Z</time>
      </trkpt>
      <trkpt lat="43.39301" lon="6.081">
        <ele>290.60000610352</ele>
        <time>2015-06-24T13:35:34Z</time>
      </trkpt>
      <trkpt lat="43.39299" lon="6.08103">
        <ele>290.79998779297</ele>
        <time>2015-06-24T13:35:35Z</time>
      </trkpt>
      <trkpt lat="43.39298" lon="6.08105">
        <ele>291</ele>
        <time>2015-06-24T13:35:36Z</time>
      </trkpt>
      <trkpt lat="43.39296" lon="6.08111">
        <ele>291.60000610352</ele>
        <time>2015-06-24T13:35:38Z</time>
      </trkpt>
      <trkpt lat="43.39292" lon="6.08118">
        <ele>291.79998779297</ele>
        <time>2015-06-24T13:35:41Z</time>
      </trkpt>
      <trkpt lat="43.39289" lon="6.08126">
        <ele>291.60000610352</ele>
        <time>2015-06-24T13:35:44Z</time>
      </trkpt>
      <trkpt lat="43.39288" lon="6.08128">
        <ele>291.79998779297</ele>
        <time>2015-06-24T13:35:45Z</time>
      </trkpt>
      <trkpt lat="43.39287" lon="6.08131">
        <ele>292</ele>
        <time>2015-06-24T13:35:46Z</time>
      </trkpt>
      <trkpt lat="43.39286" lon="6.08133">
        <ele>292</ele>
        <time>2015-06-24T13:35:47Z</time>
      </trkpt>
      <trkpt lat="43.39286" lon="6.08135">
        <ele>292</ele>
        <time>2015-06-24T13:35:48Z</time>
      </trkpt>
      <trkpt lat="43.39286" lon="6.08136">
        <ele>292.39999389648</ele>
        <time>2015-06-24T13:35:50Z</time>
      </trkpt>
      <trkpt lat="43.39286" lon="6.08137">
        <ele>292.20001220703</ele>
        <time>2015-06-24T13:35:52Z</time>
      </trkpt>
      <trkpt lat="43.39286" lon="6.08137">
        <ele>292.20001220703</ele>
        <time>2015-06-24T13:35:54Z</time>
      </trkpt>
      <trkpt lat="43.39286" lon="6.08139">
        <ele>292</ele>
        <time>2015-06-24T13:35:56Z</time>
      </trkpt>
      <trkpt lat="43.39286" lon="6.0814">
        <ele>292.20001220703</ele>
        <time>2015-06-24T13:35:58Z</time>
      </trkpt>
      <trkpt lat="43.39286" lon="6.08141">
        <ele>292.39999389648</ele>
        <time>2015-06-24T13:35:59Z</time>
      </trkpt>
      <trkpt lat="43.39286" lon="6.08142">
        <ele>292.39999389648</ele>
        <time>2015-06-24T13:36:00Z</time>
      </trkpt>
      <trkpt lat="43.39286" lon="6.08142">
        <ele>292.60000610352</ele>
        <time>2015-06-24T13:36:02Z</time>
      </trkpt>
      <trkpt lat="43.39286" lon="6.08142">
        <ele>292.79998779297</ele>
        <time>2015-06-24T13:36:04Z</time>
      </trkpt>
      <trkpt lat="43.39286" lon="6.08142">
        <ele>292.79998779297</ele>
        <time>2015-06-24T13:36:06Z</time>
      </trkpt>
      <trkpt lat="43.39286" lon="6.08144">
        <ele>292.79998779297</ele>
        <time>2015-06-24T13:36:08Z</time>
      </trkpt>
      <trkpt lat="43.39286" lon="6.08145">
        <ele>292.79998779297</ele>
        <time>2015-06-24T13:36:10Z</time>
      </trkpt>
      <trkpt lat="43.39286" lon="6.08146">
        <ele>293</ele>
        <time>2015-06-24T13:36:11Z</time>
      </trkpt>
      <trkpt lat="43.39286" lon="6.08146">
        <ele>293.20001220703</ele>
        <time>2015-06-24T13:36:12Z</time>
      </trkpt>
      <trkpt lat="43.39286" lon="6.08148">
        <ele>293.60000610352</ele>
        <time>2015-06-24T13:36:14Z</time>
      </trkpt>
      <trkpt lat="43.39287" lon="6.08148">
        <ele>293.60000610352</ele>
        <time>2015-06-24T13:36:16Z</time>
      </trkpt>
      <trkpt lat="43.39287" lon="6.08149">
        <ele>293.60000610352</ele>
        <time>2015-06-24T13:36:17Z</time>
      </trkpt>
      <trkpt lat="43.39287" lon="6.08149">
        <ele>293.39999389648</ele>
        <time>2015-06-24T13:36:18Z</time>
      </trkpt>
      <trkpt lat="43.39286" lon="6.08151">
        <ele>293.39999389648</ele>
        <time>2015-06-24T13:36:20Z</time>
      </trkpt>
      <trkpt lat="43.39285" lon="6.08154">
        <ele>293.60000610352</ele>
        <time>2015-06-24T13:36:22Z</time>
      </trkpt>
      <trkpt lat="43.39285" lon="6.08156">
        <ele>293.79998779297</ele>
        <time>2015-06-24T13:36:23Z</time>
      </trkpt>
      <trkpt lat="43.39284" lon="6.08158">
        <ele>293.79998779297</ele>
        <time>2015-06-24T13:36:24Z</time>
      </trkpt>
      <trkpt lat="43.39282" lon="6.08163">
        <ele>294</ele>
        <time>2015-06-24T13:36:26Z</time>
      </trkpt>
      <trkpt lat="43.39281" lon="6.08165">
        <ele>294</ele>
        <time>2015-06-24T13:36:27Z</time>
      </trkpt>
      <trkpt lat="43.3928" lon="6.08167">
        <ele>293.79998779297</ele>
        <time>2015-06-24T13:36:28Z</time>
      </trkpt>
      <trkpt lat="43.3928" lon="6.08168">
        <ele>294.79998779297</ele>
        <time>2015-06-24T13:36:30Z</time>
      </trkpt>
      <trkpt lat="43.3928" lon="6.08168">
        <ele>295.20001220703</ele>
        <time>2015-06-24T13:36:32Z</time>
      </trkpt>
      <trkpt lat="43.3928" lon="6.0817">
        <ele>295.20001220703</ele>
        <time>2015-06-24T13:36:33Z</time>
      </trkpt>
      <trkpt lat="43.39279" lon="6.08171">
        <ele>295.20001220703</ele>
        <time>2015-06-24T13:36:34Z</time>
      </trkpt>
      <trkpt lat="43.39278" lon="6.08174">
        <ele>295.20001220703</ele>
        <time>2015-06-24T13:36:36Z</time>
      </trkpt>
      <trkpt lat="43.39278" lon="6.08178">
        <ele>295.60000610352</ele>
        <time>2015-06-24T13:36:38Z</time>
      </trkpt>
      <trkpt lat="43.39277" lon="6.08182">
        <ele>295.79998779297</ele>
        <time>2015-06-24T13:36:40Z</time>
      </trkpt>
      <trkpt lat="43.39276" lon="6.08183">
        <ele>295.79998779297</ele>
        <time>2015-06-24T13:36:42Z</time>
      </trkpt>
      <trkpt lat="43.39276" lon="6.08183">
        <ele>295.79998779297</ele>
        <time>2015-06-24T13:36:44Z</time>
      </trkpt>
      <trkpt lat="43.39276" lon="6.08184">
        <ele>295.79998779297</ele>
        <time>2015-06-24T13:36:46Z</time>
      </trkpt>
      <trkpt lat="43.39276" lon="6.08183">
        <ele>295.60000610352</ele>
        <time>2015-06-24T13:36:48Z</time>
      </trkpt>
      <trkpt lat="43.39275" lon="6.08184">
        <ele>296.20001220703</ele>
        <time>2015-06-24T13:36:50Z</time>
      </trkpt>
      <trkpt lat="43.39273" lon="6.08184">
        <ele>296.20001220703</ele>
        <time>2015-06-24T13:36:52Z</time>
      </trkpt>
      <trkpt lat="43.39273" lon="6.08185">
        <ele>296.20001220703</ele>
        <time>2015-06-24T13:36:54Z</time>
      </trkpt>
      <trkpt lat="43.39273" lon="6.08187">
        <ele>296.39999389648</ele>
        <time>2015-06-24T13:36:56Z</time>
      </trkpt>
      <trkpt lat="43.39273" lon="6.08189">
        <ele>296.60000610352</ele>
        <time>2015-06-24T13:36:58Z</time>
      </trkpt>
      <trkpt lat="43.39272" lon="6.08189">
        <ele>296.60000610352</ele>
        <time>2015-06-24T13:37:00Z</time>
      </trkpt>
      <trkpt lat="43.39272" lon="6.08191">
        <ele>296.79998779297</ele>
        <time>2015-06-24T13:37:02Z</time>
      </trkpt>
      <trkpt lat="43.39271" lon="6.08194">
        <ele>297</ele>
        <time>2015-06-24T13:37:04Z</time>
      </trkpt>
      <trkpt lat="43.3927" lon="6.08198">
        <ele>296.60000610352</ele>
        <time>2015-06-24T13:37:06Z</time>
      </trkpt>
      <trkpt lat="43.3927" lon="6.08201">
        <ele>296.79998779297</ele>
        <time>2015-06-24T13:37:07Z</time>
      </trkpt>
      <trkpt lat="43.3927" lon="6.08204">
        <ele>297</ele>
        <time>2015-06-24T13:37:08Z</time>
      </trkpt>
      <trkpt lat="43.3927" lon="6.08207">
        <ele>297.20001220703</ele>
        <time>2015-06-24T13:37:09Z</time>
      </trkpt>
      <trkpt lat="43.3927" lon="6.08215">
        <ele>297.60000610352</ele>
        <time>2015-06-24T13:37:12Z</time>
      </trkpt>
      <trkpt lat="43.39268" lon="6.08221">
        <ele>297.79998779297</ele>
        <time>2015-06-24T13:37:14Z</time>
      </trkpt>
      <trkpt lat="43.39267" lon="6.08225">
        <ele>297.79998779297</ele>
        <time>2015-06-24T13:37:16Z</time>
      </trkpt>
      <trkpt lat="43.39265" lon="6.0823">
        <ele>298.60000610352</ele>
        <time>2015-06-24T13:37:18Z</time>
      </trkpt>
      <trkpt lat="43.39265" lon="6.08233">
        <ele>298.79998779297</ele>
        <time>2015-06-24T13:37:19Z</time>
      </trkpt>
      <trkpt lat="43.39265" lon="6.08238">
        <ele>299.39999389648</ele>
        <time>2015-06-24T13:37:21Z</time>
      </trkpt>
      <trkpt lat="43.39264" lon="6.0824">
        <ele>299.39999389648</ele>
        <time>2015-06-24T13:37:22Z</time>
      </trkpt>
      <trkpt lat="43.39264" lon="6.08245">
        <ele>299.39999389648</ele>
        <time>2015-06-24T13:37:24Z</time>
      </trkpt>
      <trkpt lat="43.39264" lon="6.08248">
        <ele>300</ele>
        <time>2015-06-24T13:37:25Z</time>
      </trkpt>
      <trkpt lat="43.39263" lon="6.08253">
        <ele>300.20001220703</ele>
        <time>2015-06-24T13:37:27Z</time>
      </trkpt>
      <trkpt lat="43.39262" lon="6.08256">
        <ele>300.20001220703</ele>
        <time>2015-06-24T13:37:28Z</time>
      </trkpt>
      <trkpt lat="43.3926" lon="6.0826">
        <ele>300.60000610352</ele>
        <time>2015-06-24T13:37:30Z</time>
      </trkpt>
      <trkpt lat="43.39259" lon="6.08261">
        <ele>300.60000610352</ele>
        <time>2015-06-24T13:37:31Z</time>
      </trkpt>
      <trkpt lat="43.39258" lon="6.08262">
        <ele>300.39999389648</ele>
        <time>2015-06-24T13:37:32Z</time>
      </trkpt>
      <trkpt lat="43.39255" lon="6.08264">
        <ele>301</ele>
        <time>2015-06-24T13:37:34Z</time>
      </trkpt>
      <trkpt lat="43.39253" lon="6.08267">
        <ele>301.60000610352</ele>
        <time>2015-06-24T13:37:36Z</time>
      </trkpt>
      <trkpt lat="43.39248" lon="6.08273">
        <ele>301.79998779297</ele>
        <time>2015-06-24T13:37:40Z</time>
      </trkpt>
      <trkpt lat="43.39245" lon="6.08276">
        <ele>302.20001220703</ele>
        <time>2015-06-24T13:37:42Z</time>
      </trkpt>
      <trkpt lat="43.39244" lon="6.08279">
        <ele>302.20001220703</ele>
        <time>2015-06-24T13:37:44Z</time>
      </trkpt>
      <trkpt lat="43.39243" lon="6.0828">
        <ele>302.60000610352</ele>
        <time>2015-06-24T13:37:46Z</time>
      </trkpt>
      <trkpt lat="43.39243" lon="6.0828">
        <ele>302.60000610352</ele>
        <time>2015-06-24T13:37:49Z</time>
      </trkpt>
      <trkpt lat="43.39242" lon="6.08279">
        <ele>302.60000610352</ele>
        <time>2015-06-24T13:37:50Z</time>
      </trkpt>
      <trkpt lat="43.39242" lon="6.0828">
        <ele>302.39999389648</ele>
        <time>2015-06-24T13:37:52Z</time>
      </trkpt>
      <trkpt lat="43.39242" lon="6.08282">
        <ele>302.60000610352</ele>
        <time>2015-06-24T13:37:54Z</time>
      </trkpt>
      <trkpt lat="43.39241" lon="6.08282">
        <ele>303</ele>
        <time>2015-06-24T13:37:56Z</time>
      </trkpt>
      <trkpt lat="43.39241" lon="6.08282">
        <ele>303.20001220703</ele>
        <time>2015-06-24T13:37:58Z</time>
      </trkpt>
      <trkpt lat="43.39242" lon="6.08283">
        <ele>303.20001220703</ele>
        <time>2015-06-24T13:38:00Z</time>
      </trkpt>
      <trkpt lat="43.39241" lon="6.08284">
        <ele>303.20001220703</ele>
        <time>2015-06-24T13:38:01Z</time>
      </trkpt>
      <trkpt lat="43.39241" lon="6.08284">
        <ele>303.39999389648</ele>
        <time>2015-06-24T13:38:02Z</time>
      </trkpt>
      <trkpt lat="43.3924" lon="6.08286">
        <ele>303.39999389648</ele>
        <time>2015-06-24T13:38:04Z</time>
      </trkpt>
      <trkpt lat="43.3924" lon="6.08287">
        <ele>303.60000610352</ele>
        <time>2015-06-24T13:38:06Z</time>
      </trkpt>
      <trkpt lat="43.39241" lon="6.08288">
        <ele>303.60000610352</ele>
        <time>2015-06-24T13:38:08Z</time>
      </trkpt>
      <trkpt lat="43.3924" lon="6.08288">
        <ele>303.60000610352</ele>
        <time>2015-06-24T13:38:10Z</time>
      </trkpt>
      <trkpt lat="43.39241" lon="6.08288">
        <ele>303.60000610352</ele>
        <time>2015-06-24T13:38:11Z</time>
      </trkpt>
      <trkpt lat="43.39241" lon="6.08288">
        <ele>303.60000610352</ele>
        <time>2015-06-24T13:38:12Z</time>
      </trkpt>
      <trkpt lat="43.39241" lon="6.08289">
        <ele>303.60000610352</ele>
        <time>2015-06-24T13:38:14Z</time>
      </trkpt>
      <trkpt lat="43.39241" lon="6.0829">
        <ele>303.60000610352</ele>
        <time>2015-06-24T13:38:15Z</time>
      </trkpt>
      <trkpt lat="43.39241" lon="6.08292">
        <ele>303.60000610352</ele>
        <time>2015-06-24T13:38:16Z</time>
      </trkpt>
      <trkpt lat="43.39239" lon="6.08295">
        <ele>304</ele>
        <time>2015-06-24T13:38:18Z</time>
      </trkpt>
      <trkpt lat="43.39236" lon="6.08298">
        <ele>304.20001220703</ele>
        <time>2015-06-24T13:38:20Z</time>
      </trkpt>
      <trkpt lat="43.39235" lon="6.08302">
        <ele>303.79998779297</ele>
        <time>2015-06-24T13:38:22Z</time>
      </trkpt>
      <trkpt lat="43.39235" lon="6.08304">
        <ele>304.39999389648</ele>
        <time>2015-06-24T13:38:23Z</time>
      </trkpt>
      <trkpt lat="43.39235" lon="6.08306">
        <ele>304.79998779297</ele>
        <time>2015-06-24T13:38:24Z</time>
      </trkpt>
      <trkpt lat="43.39235" lon="6.08308">
        <ele>305.39999389648</ele>
        <time>2015-06-24T13:38:26Z</time>
      </trkpt>
      <trkpt lat="43.39234" lon="6.08308">
        <ele>305.60000610352</ele>
        <time>2015-06-24T13:38:28Z</time>
      </trkpt>
      <trkpt lat="43.39232" lon="6.08309">
        <ele>305.60000610352</ele>
        <time>2015-06-24T13:38:32Z</time>
      </trkpt>
      <trkpt lat="43.39231" lon="6.0831">
        <ele>305.60000610352</ele>
        <time>2015-06-24T13:38:34Z</time>
      </trkpt>
      <trkpt lat="43.39231" lon="6.08312">
        <ele>305.79998779297</ele>
        <time>2015-06-24T13:38:37Z</time>
      </trkpt>
      <trkpt lat="43.39231" lon="6.08312">
        <ele>305.79998779297</ele>
        <time>2015-06-24T13:38:40Z</time>
      </trkpt>
      <trkpt lat="43.39231" lon="6.08312">
        <ele>305.79998779297</ele>
        <time>2015-06-24T13:38:42Z</time>
      </trkpt>
      <trkpt lat="43.3923" lon="6.08315">
        <ele>305.79998779297</ele>
        <time>2015-06-24T13:38:44Z</time>
      </trkpt>
      <trkpt lat="43.39229" lon="6.08315">
        <ele>306</ele>
        <time>2015-06-24T13:38:45Z</time>
      </trkpt>
      <trkpt lat="43.39228" lon="6.08316">
        <ele>306</ele>
        <time>2015-06-24T13:38:46Z</time>
      </trkpt>
      <trkpt lat="43.39226" lon="6.0832">
        <ele>306.79998779297</ele>
        <time>2015-06-24T13:38:48Z</time>
      </trkpt>
      <trkpt lat="43.39225" lon="6.08323">
        <ele>307</ele>
        <time>2015-06-24T13:38:50Z</time>
      </trkpt>
      <trkpt lat="43.39224" lon="6.08324">
        <ele>307</ele>
        <time>2015-06-24T13:38:52Z</time>
      </trkpt>
      <trkpt lat="43.39224" lon="6.08325">
        <ele>307.20001220703</ele>
        <time>2015-06-24T13:38:54Z</time>
      </trkpt>
      <trkpt lat="43.39224" lon="6.08326">
        <ele>307.20001220703</ele>
        <time>2015-06-24T13:38:56Z</time>
      </trkpt>
      <trkpt lat="43.39223" lon="6.08326">
        <ele>307.20001220703</ele>
        <time>2015-06-24T13:38:58Z</time>
      </trkpt>
      <trkpt lat="43.39223" lon="6.08327">
        <ele>307.20001220703</ele>
        <time>2015-06-24T13:39:00Z</time>
      </trkpt>
      <trkpt lat="43.39222" lon="6.0833">
        <ele>307</ele>
        <time>2015-06-24T13:39:02Z</time>
      </trkpt>
      <trkpt lat="43.39221" lon="6.08332">
        <ele>307</ele>
        <time>2015-06-24T13:39:03Z</time>
      </trkpt>
      <trkpt lat="43.39221" lon="6.08333">
        <ele>307</ele>
        <time>2015-06-24T13:39:04Z</time>
      </trkpt>
      <trkpt lat="43.39221" lon="6.08337">
        <ele>307.20001220703</ele>
        <time>2015-06-24T13:39:06Z</time>
      </trkpt>
      <trkpt lat="43.3922" lon="6.08341">
        <ele>307</ele>
        <time>2015-06-24T13:39:08Z</time>
      </trkpt>
      <trkpt lat="43.3922" lon="6.08345">
        <ele>308</ele>
        <time>2015-06-24T13:39:10Z</time>
      </trkpt>
      <trkpt lat="43.39219" lon="6.08349">
        <ele>308.79998779297</ele>
        <time>2015-06-24T13:39:12Z</time>
      </trkpt>
      <trkpt lat="43.39218" lon="6.08354">
        <ele>309</ele>
        <time>2015-06-24T13:39:14Z</time>
      </trkpt>
      <trkpt lat="43.39217" lon="6.08363">
        <ele>309.20001220703</ele>
        <time>2015-06-24T13:39:18Z</time>
      </trkpt>
      <trkpt lat="43.39217" lon="6.08368">
        <ele>309.60000610352</ele>
        <time>2015-06-24T13:39:20Z</time>
      </trkpt>
      <trkpt lat="43.39215" lon="6.08373">
        <ele>310.39999389648</ele>
        <time>2015-06-24T13:39:22Z</time>
      </trkpt>
      <trkpt lat="43.39213" lon="6.08378">
        <ele>310.79998779297</ele>
        <time>2015-06-24T13:39:24Z</time>
      </trkpt>
      <trkpt lat="43.39213" lon="6.0838">
        <ele>311</ele>
        <time>2015-06-24T13:39:25Z</time>
      </trkpt>
      <trkpt lat="43.39213" lon="6.08381">
        <ele>311.39999389648</ele>
        <time>2015-06-24T13:39:26Z</time>
      </trkpt>
      <trkpt lat="43.39213" lon="6.08383">
        <ele>311.39999389648</ele>
        <time>2015-06-24T13:39:27Z</time>
      </trkpt>
      <trkpt lat="43.39213" lon="6.08384">
        <ele>311.60000610352</ele>
        <time>2015-06-24T13:39:28Z</time>
      </trkpt>
      <trkpt lat="43.39213" lon="6.08389">
        <ele>311.79998779297</ele>
        <time>2015-06-24T13:39:30Z</time>
      </trkpt>
      <trkpt lat="43.39213" lon="6.08394">
        <ele>311.79998779297</ele>
        <time>2015-06-24T13:39:32Z</time>
      </trkpt>
      <trkpt lat="43.39213" lon="6.084">
        <ele>311.79998779297</ele>
        <time>2015-06-24T13:39:34Z</time>
      </trkpt>
      <trkpt lat="43.39212" lon="6.08405">
        <ele>312.20001220703</ele>
        <time>2015-06-24T13:39:36Z</time>
      </trkpt>
      <trkpt lat="43.39212" lon="6.08407">
        <ele>312.79998779297</ele>
        <time>2015-06-24T13:39:37Z</time>
      </trkpt>
      <trkpt lat="43.39211" lon="6.08408">
        <ele>313</ele>
        <time>2015-06-24T13:39:38Z</time>
      </trkpt>
      <trkpt lat="43.39211" lon="6.0841">
        <ele>313.20001220703</ele>
        <time>2015-06-24T13:39:40Z</time>
      </trkpt>
      <trkpt lat="43.39211" lon="6.08411">
        <ele>313.39999389648</ele>
        <time>2015-06-24T13:39:42Z</time>
      </trkpt>
      <trkpt lat="43.39211" lon="6.08411">
        <ele>313.20001220703</ele>
        <time>2015-06-24T13:39:44Z</time>
      </trkpt>
      <trkpt lat="43.3921" lon="6.08411">
        <ele>313</ele>
        <time>2015-06-24T13:39:46Z</time>
      </trkpt>
      <trkpt lat="43.3921" lon="6.08412">
        <ele>313.20001220703</ele>
        <time>2015-06-24T13:39:48Z</time>
      </trkpt>
      <trkpt lat="43.39209" lon="6.08413">
        <ele>313.60000610352</ele>
        <time>2015-06-24T13:39:50Z</time>
      </trkpt>
      <trkpt lat="43.39209" lon="6.08413">
        <ele>313.79998779297</ele>
        <time>2015-06-24T13:39:51Z</time>
      </trkpt>
      <trkpt lat="43.39209" lon="6.08414">
        <ele>313.60000610352</ele>
        <time>2015-06-24T13:39:54Z</time>
      </trkpt>
      <trkpt lat="43.39209" lon="6.08414">
        <ele>313.60000610352</ele>
        <time>2015-06-24T13:39:56Z</time>
      </trkpt>
      <trkpt lat="43.39209" lon="6.08414">
        <ele>313.60000610352</ele>
        <time>2015-06-24T13:39:58Z</time>
      </trkpt>
      <trkpt lat="43.39209" lon="6.08414">
        <ele>313.79998779297</ele>
        <time>2015-06-24T13:40:01Z</time>
      </trkpt>
      <trkpt lat="43.39209" lon="6.08414">
        <ele>313.60000610352</ele>
        <time>2015-06-24T13:40:04Z</time>
      </trkpt>
      <trkpt lat="43.39209" lon="6.08415">
        <ele>313.60000610352</ele>
        <time>2015-06-24T13:40:06Z</time>
      </trkpt>
      <trkpt lat="43.39207" lon="6.08418">
        <ele>313.60000610352</ele>
        <time>2015-06-24T13:40:08Z</time>
      </trkpt>
      <trkpt lat="43.39207" lon="6.0842">
        <ele>313.79998779297</ele>
        <time>2015-06-24T13:40:09Z</time>
      </trkpt>
      <trkpt lat="43.39207" lon="6.08421">
        <ele>314</ele>
        <time>2015-06-24T13:40:10Z</time>
      </trkpt>
      <trkpt lat="43.39207" lon="6.08422">
        <ele>314.20001220703</ele>
        <time>2015-06-24T13:40:11Z</time>
      </trkpt>
      <trkpt lat="43.39206" lon="6.08423">
        <ele>314.39999389648</ele>
        <time>2015-06-24T13:40:13Z</time>
      </trkpt>
      <trkpt lat="43.39207" lon="6.08426">
        <ele>314.39999389648</ele>
        <time>2015-06-24T13:40:16Z</time>
      </trkpt>
      <trkpt lat="43.39206" lon="6.08426">
        <ele>314.39999389648</ele>
        <time>2015-06-24T13:40:18Z</time>
      </trkpt>
      <trkpt lat="43.39206" lon="6.08428">
        <ele>314.79998779297</ele>
        <time>2015-06-24T13:40:26Z</time>
      </trkpt>
      <trkpt lat="43.39206" lon="6.08429">
        <ele>315.20001220703</ele>
        <time>2015-06-24T13:40:28Z</time>
      </trkpt>
      <trkpt lat="43.39206" lon="6.08434">
        <ele>315.79998779297</ele>
        <time>2015-06-24T13:40:34Z</time>
      </trkpt>
      <trkpt lat="43.39206" lon="6.08435">
        <ele>315.79998779297</ele>
        <time>2015-06-24T13:40:35Z</time>
      </trkpt>
      <trkpt lat="43.39206" lon="6.08436">
        <ele>316</ele>
        <time>2015-06-24T13:40:36Z</time>
      </trkpt>
      <trkpt lat="43.39206" lon="6.08438">
        <ele>316.20001220703</ele>
        <time>2015-06-24T13:40:38Z</time>
      </trkpt>
      <trkpt lat="43.39206" lon="6.08438">
        <ele>316.20001220703</ele>
        <time>2015-06-24T13:40:40Z</time>
      </trkpt>
      <trkpt lat="43.39206" lon="6.08439">
        <ele>316.20001220703</ele>
        <time>2015-06-24T13:40:42Z</time>
      </trkpt>
      <trkpt lat="43.39206" lon="6.08438">
        <ele>316.39999389648</ele>
        <time>2015-06-24T13:40:44Z</time>
      </trkpt>
      <trkpt lat="43.39206" lon="6.08439">
        <ele>316.20001220703</ele>
        <time>2015-06-24T13:40:46Z</time>
      </trkpt>
      <trkpt lat="43.39206" lon="6.08441">
        <ele>316.39999389648</ele>
        <time>2015-06-24T13:40:48Z</time>
      </trkpt>
      <trkpt lat="43.39205" lon="6.08446">
        <ele>316.79998779297</ele>
        <time>2015-06-24T13:40:50Z</time>
      </trkpt>
      <trkpt lat="43.39204" lon="6.08452">
        <ele>317</ele>
        <time>2015-06-24T13:40:52Z</time>
      </trkpt>
      <trkpt lat="43.39203" lon="6.08457">
        <ele>316.60000610352</ele>
        <time>2015-06-24T13:40:54Z</time>
      </trkpt>
      <trkpt lat="43.39203" lon="6.08459">
        <ele>316.79998779297</ele>
        <time>2015-06-24T13:40:55Z</time>
      </trkpt>
      <trkpt lat="43.39203" lon="6.08462">
        <ele>317</ele>
        <time>2015-06-24T13:40:56Z</time>
      </trkpt>
      <trkpt lat="43.39202" lon="6.08466">
        <ele>317.39999389648</ele>
        <time>2015-06-24T13:40:58Z</time>
      </trkpt>
      <trkpt lat="43.39201" lon="6.0847">
        <ele>317.60000610352</ele>
        <time>2015-06-24T13:41:00Z</time>
      </trkpt>
      <trkpt lat="43.39201" lon="6.08472">
        <ele>318.20001220703</ele>
        <time>2015-06-24T13:41:01Z</time>
      </trkpt>
      <trkpt lat="43.39201" lon="6.08474">
        <ele>318.39999389648</ele>
        <time>2015-06-24T13:41:02Z</time>
      </trkpt>
      <trkpt lat="43.392" lon="6.08482">
        <ele>319</ele>
        <time>2015-06-24T13:41:06Z</time>
      </trkpt>
      <trkpt lat="43.392" lon="6.08487">
        <ele>319</ele>
        <time>2015-06-24T13:41:08Z</time>
      </trkpt>
      <trkpt lat="43.392" lon="6.08488">
        <ele>318.79998779297</ele>
        <time>2015-06-24T13:41:09Z</time>
      </trkpt>
      <trkpt lat="43.39199" lon="6.0849">
        <ele>318.60000610352</ele>
        <time>2015-06-24T13:41:10Z</time>
      </trkpt>
      <trkpt lat="43.39199" lon="6.08493">
        <ele>319</ele>
        <time>2015-06-24T13:41:12Z</time>
      </trkpt>
      <trkpt lat="43.39198" lon="6.08496">
        <ele>318.60000610352</ele>
        <time>2015-06-24T13:41:14Z</time>
      </trkpt>
      <trkpt lat="43.39198" lon="6.08497">
        <ele>318.79998779297</ele>
        <time>2015-06-24T13:41:15Z</time>
      </trkpt>
      <trkpt lat="43.39198" lon="6.08497">
        <ele>318.79998779297</ele>
        <time>2015-06-24T13:41:16Z</time>
      </trkpt>
      <trkpt lat="43.39198" lon="6.08497">
        <ele>318.79998779297</ele>
        <time>2015-06-24T13:41:18Z</time>
      </trkpt>
      <trkpt lat="43.39198" lon="6.08498">
        <ele>319</ele>
        <time>2015-06-24T13:41:22Z</time>
      </trkpt>
      <trkpt lat="43.39198" lon="6.08498">
        <ele>319</ele>
        <time>2015-06-24T13:41:24Z</time>
      </trkpt>
      <trkpt lat="43.39198" lon="6.08498">
        <ele>319.20001220703</ele>
        <time>2015-06-24T13:41:36Z</time>
      </trkpt>
      <trkpt lat="43.39198" lon="6.08498">
        <ele>319.20001220703</ele>
        <time>2015-06-24T13:41:42Z</time>
      </trkpt>
      <trkpt lat="43.39198" lon="6.08498">
        <ele>319.20001220703</ele>
        <time>2015-06-24T13:41:44Z</time>
      </trkpt>
      <trkpt lat="43.39198" lon="6.08498">
        <ele>319.20001220703</ele>
        <time>2015-06-24T13:41:46Z</time>
      </trkpt>
      <trkpt lat="43.39198" lon="6.08498">
        <ele>319.20001220703</ele>
        <time>2015-06-24T13:41:48Z</time>
      </trkpt>
      <trkpt lat="43.39198" lon="6.08498">
        <ele>319.20001220703</ele>
        <time>2015-06-24T13:41:49Z</time>
      </trkpt>
      <trkpt lat="43.39198" lon="6.08498">
        <ele>319</ele>
        <time>2015-06-24T13:41:54Z</time>
      </trkpt>
      <trkpt lat="43.39198" lon="6.08498">
        <ele>319</ele>
        <time>2015-06-24T13:41:56Z</time>
      </trkpt>
      <trkpt lat="43.39198" lon="6.08498">
        <ele>319.20001220703</ele>
        <time>2015-06-24T13:41:58Z</time>
      </trkpt>
      <trkpt lat="43.39199" lon="6.08498">
        <ele>319.20001220703</ele>
        <time>2015-06-24T13:42:00Z</time>
      </trkpt>
      <trkpt lat="43.39198" lon="6.08498">
        <ele>319</ele>
        <time>2015-06-24T13:42:02Z</time>
      </trkpt>
      <trkpt lat="43.39198" lon="6.08498">
        <ele>319.20001220703</ele>
        <time>2015-06-24T13:42:04Z</time>
      </trkpt>
      <trkpt lat="43.39198" lon="6.08499">
        <ele>319.20001220703</ele>
        <time>2015-06-24T13:42:06Z</time>
      </trkpt>
      <trkpt lat="43.39199" lon="6.08499">
        <ele>319</ele>
        <time>2015-06-24T13:42:10Z</time>
      </trkpt>
      <trkpt lat="43.39199" lon="6.08499">
        <ele>319</ele>
        <time>2015-06-24T13:42:12Z</time>
      </trkpt>
      <trkpt lat="43.39199" lon="6.08499">
        <ele>319</ele>
        <time>2015-06-24T13:42:14Z</time>
      </trkpt>
      <trkpt lat="43.39199" lon="6.08499">
        <ele>319</ele>
        <time>2015-06-24T13:42:16Z</time>
      </trkpt>
      <trkpt lat="43.39199" lon="6.08499">
        <ele>318.79998779297</ele>
        <time>2015-06-24T13:42:22Z</time>
      </trkpt>
      <trkpt lat="43.39199" lon="6.08499">
        <ele>319</ele>
        <time>2015-06-24T13:42:26Z</time>
      </trkpt>
      <trkpt lat="43.39199" lon="6.08499">
        <ele>319.20001220703</ele>
        <time>2015-06-24T13:42:32Z</time>
      </trkpt>
      <trkpt lat="43.39199" lon="6.08499">
        <ele>319.20001220703</ele>
        <time>2015-06-24T13:42:33Z</time>
      </trkpt>
      <trkpt lat="43.39199" lon="6.08499">
        <ele>319.39999389648</ele>
        <time>2015-06-24T13:42:34Z</time>
      </trkpt>
      <trkpt lat="43.392" lon="6.08499">
        <ele>319.39999389648</ele>
        <time>2015-06-24T13:42:36Z</time>
      </trkpt>
      <trkpt lat="43.392" lon="6.08499">
        <ele>319.79998779297</ele>
        <time>2015-06-24T13:42:38Z</time>
      </trkpt>
      <trkpt lat="43.392" lon="6.08499">
        <ele>319.79998779297</ele>
        <time>2015-06-24T13:42:40Z</time>
      </trkpt>
      <trkpt lat="43.392" lon="6.08499">
        <ele>319.79998779297</ele>
        <time>2015-06-24T13:42:42Z</time>
      </trkpt>
      <trkpt lat="43.39199" lon="6.08499">
        <ele>319.79998779297</ele>
        <time>2015-06-24T13:42:45Z</time>
      </trkpt>
      <trkpt lat="43.39199" lon="6.08499">
        <ele>319.79998779297</ele>
        <time>2015-06-24T13:42:46Z</time>
      </trkpt>
      <trkpt lat="43.39199" lon="6.08499">
        <ele>319.79998779297</ele>
        <time>2015-06-24T13:42:48Z</time>
      </trkpt>
      <trkpt lat="43.39199" lon="6.08499">
        <ele>320</ele>
        <time>2015-06-24T13:42:50Z</time>
      </trkpt>
      <trkpt lat="43.39199" lon="6.08499">
        <ele>319.79998779297</ele>
        <time>2015-06-24T13:42:52Z</time>
      </trkpt>
      <trkpt lat="43.39199" lon="6.08499">
        <ele>319.60000610352</ele>
        <time>2015-06-24T13:43:00Z</time>
      </trkpt>
      <trkpt lat="43.39199" lon="6.08499">
        <ele>319.39999389648</ele>
        <time>2015-06-24T13:43:04Z</time>
      </trkpt>
      <trkpt lat="43.39199" lon="6.08499">
        <ele>319.39999389648</ele>
        <time>2015-06-24T13:43:06Z</time>
      </trkpt>
      <trkpt lat="43.39199" lon="6.08499">
        <ele>319.39999389648</ele>
        <time>2015-06-24T13:43:08Z</time>
      </trkpt>
      <trkpt lat="43.39199" lon="6.08499">
        <ele>319.39999389648</ele>
        <time>2015-06-24T13:43:11Z</time>
      </trkpt>
      <trkpt lat="43.39199" lon="6.08499">
        <ele>319.60000610352</ele>
        <time>2015-06-24T13:43:12Z</time>
      </trkpt>
      <trkpt lat="43.39199" lon="6.085">
        <ele>319.20001220703</ele>
        <time>2015-06-24T13:43:16Z</time>
      </trkpt>
      <trkpt lat="43.39199" lon="6.08499">
        <ele>319.20001220703</ele>
        <time>2015-06-24T13:43:18Z</time>
      </trkpt>
      <trkpt lat="43.39199" lon="6.085">
        <ele>319.20001220703</ele>
        <time>2015-06-24T13:43:20Z</time>
      </trkpt>
      <trkpt lat="43.39199" lon="6.085">
        <ele>319.20001220703</ele>
        <time>2015-06-24T13:43:22Z</time>
      </trkpt>
      <trkpt lat="43.39199" lon="6.085">
        <ele>319</ele>
        <time>2015-06-24T13:43:26Z</time>
      </trkpt>
      <trkpt lat="43.39199" lon="6.085">
        <ele>319</ele>
        <time>2015-06-24T13:43:34Z</time>
      </trkpt>
      <trkpt lat="43.39199" lon="6.085">
        <ele>319</ele>
        <time>2015-06-24T13:43:35Z</time>
      </trkpt>
      <trkpt lat="43.39199" lon="6.08499">
        <ele>319</ele>
        <time>2015-06-24T13:43:38Z</time>
      </trkpt>
      <trkpt lat="43.39199" lon="6.08499">
        <ele>319</ele>
        <time>2015-06-24T13:43:40Z</time>
      </trkpt>
      <trkpt lat="43.39198" lon="6.085">
        <ele>318.79998779297</ele>
        <time>2015-06-24T13:43:42Z</time>
      </trkpt>
      <trkpt lat="43.39194" lon="6.08501">
        <ele>319</ele>
        <time>2015-06-24T13:43:45Z</time>
      </trkpt>
      <trkpt lat="43.39193" lon="6.08503">
        <ele>319.20001220703</ele>
        <time>2015-06-24T13:43:46Z</time>
      </trkpt>
      <trkpt lat="43.39192" lon="6.08509">
        <ele>319</ele>
        <time>2015-06-24T13:43:48Z</time>
      </trkpt>
      <trkpt lat="43.39191" lon="6.08512">
        <ele>318.79998779297</ele>
        <time>2015-06-24T13:43:49Z</time>
      </trkpt>
      <trkpt lat="43.3919" lon="6.08516">
        <ele>318.79998779297</ele>
        <time>2015-06-24T13:43:50Z</time>
      </trkpt>
      <trkpt lat="43.39188" lon="6.08523">
        <ele>319</ele>
        <time>2015-06-24T13:43:52Z</time>
      </trkpt>
      <trkpt lat="43.39183" lon="6.08537">
        <ele>319</ele>
        <time>2015-06-24T13:43:56Z</time>
      </trkpt>
      <trkpt lat="43.39181" lon="6.08543">
        <ele>318.20001220703</ele>
        <time>2015-06-24T13:43:58Z</time>
      </trkpt>
      <trkpt lat="43.39178" lon="6.08551">
        <ele>318.39999389648</ele>
        <time>2015-06-24T13:44:00Z</time>
      </trkpt>
      <trkpt lat="43.39175" lon="6.08559">
        <ele>317.60000610352</ele>
        <time>2015-06-24T13:44:02Z</time>
      </trkpt>
      <trkpt lat="43.39174" lon="6.08564">
        <ele>317.39999389648</ele>
        <time>2015-06-24T13:44:03Z</time>
      </trkpt>
      <trkpt lat="43.39172" lon="6.0858">
        <ele>317.79998779297</ele>
        <time>2015-06-24T13:44:06Z</time>
      </trkpt>
      <trkpt lat="43.39169" lon="6.08592">
        <ele>318.20001220703</ele>
        <time>2015-06-24T13:44:08Z</time>
      </trkpt>
      <trkpt lat="43.39167" lon="6.08604">
        <ele>317.39999389648</ele>
        <time>2015-06-24T13:44:10Z</time>
      </trkpt>
      <trkpt lat="43.39164" lon="6.08616">
        <ele>317.60000610352</ele>
        <time>2015-06-24T13:44:12Z</time>
      </trkpt>
      <trkpt lat="43.39161" lon="6.08626">
        <ele>317</ele>
        <time>2015-06-24T13:44:14Z</time>
      </trkpt>
      <trkpt lat="43.39158" lon="6.08637">
        <ele>316.60000610352</ele>
        <time>2015-06-24T13:44:16Z</time>
      </trkpt>
      <trkpt lat="43.39157" lon="6.08649">
        <ele>316.79998779297</ele>
        <time>2015-06-24T13:44:18Z</time>
      </trkpt>
      <trkpt lat="43.39155" lon="6.0866">
        <ele>317</ele>
        <time>2015-06-24T13:44:20Z</time>
      </trkpt>
      <trkpt lat="43.39152" lon="6.08669">
        <ele>316.79998779297</ele>
        <time>2015-06-24T13:44:22Z</time>
      </trkpt>
      <trkpt lat="43.3915" lon="6.0868">
        <ele>317</ele>
        <time>2015-06-24T13:44:24Z</time>
      </trkpt>
      <trkpt lat="43.39149" lon="6.0869">
        <ele>317</ele>
        <time>2015-06-24T13:44:26Z</time>
      </trkpt>
      <trkpt lat="43.39147" lon="6.08699">
        <ele>317.39999389648</ele>
        <time>2015-06-24T13:44:28Z</time>
      </trkpt>
      <trkpt lat="43.39146" lon="6.08704">
        <ele>317.39999389648</ele>
        <time>2015-06-24T13:44:29Z</time>
      </trkpt>
      <trkpt lat="43.39144" lon="6.08718">
        <ele>317.39999389648</ele>
        <time>2015-06-24T13:44:32Z</time>
      </trkpt>
      <trkpt lat="43.39142" lon="6.08728">
        <ele>317.39999389648</ele>
        <time>2015-06-24T13:44:34Z</time>
      </trkpt>
      <trkpt lat="43.3914" lon="6.08737">
        <ele>317.60000610352</ele>
        <time>2015-06-24T13:44:36Z</time>
      </trkpt>
      <trkpt lat="43.39135" lon="6.08755">
        <ele>317.79998779297</ele>
        <time>2015-06-24T13:44:40Z</time>
      </trkpt>
      <trkpt lat="43.39133" lon="6.08764">
        <ele>317.79998779297</ele>
        <time>2015-06-24T13:44:42Z</time>
      </trkpt>
      <trkpt lat="43.39132" lon="6.08768">
        <ele>318</ele>
        <time>2015-06-24T13:44:43Z</time>
      </trkpt>
      <trkpt lat="43.39132" lon="6.08773">
        <ele>317.79998779297</ele>
        <time>2015-06-24T13:44:44Z</time>
      </trkpt>
      <trkpt lat="43.39131" lon="6.0878">
        <ele>318.20001220703</ele>
        <time>2015-06-24T13:44:46Z</time>
      </trkpt>
      <trkpt lat="43.3913" lon="6.08784">
        <ele>318</ele>
        <time>2015-06-24T13:44:48Z</time>
      </trkpt>
      <trkpt lat="43.3913" lon="6.08787">
        <ele>318</ele>
        <time>2015-06-24T13:44:50Z</time>
      </trkpt>
      <trkpt lat="43.39129" lon="6.0879">
        <ele>317.79998779297</ele>
        <time>2015-06-24T13:44:52Z</time>
      </trkpt>
      <trkpt lat="43.39126" lon="6.08799">
        <ele>317.20001220703</ele>
        <time>2015-06-24T13:44:55Z</time>
      </trkpt>
      <trkpt lat="43.39125" lon="6.08803">
        <ele>317.60000610352</ele>
        <time>2015-06-24T13:44:56Z</time>
      </trkpt>
      <trkpt lat="43.39124" lon="6.08806">
        <ele>317.79998779297</ele>
        <time>2015-06-24T13:44:57Z</time>
      </trkpt>
      <trkpt lat="43.39124" lon="6.08809">
        <ele>317.60000610352</ele>
        <time>2015-06-24T13:44:58Z</time>
      </trkpt>
      <trkpt lat="43.39122" lon="6.08817">
        <ele>317.79998779297</ele>
        <time>2015-06-24T13:45:00Z</time>
      </trkpt>
      <trkpt lat="43.3912" lon="6.08826">
        <ele>317.60000610352</ele>
        <time>2015-06-24T13:45:02Z</time>
      </trkpt>
      <trkpt lat="43.39119" lon="6.0883">
        <ele>318.20001220703</ele>
        <time>2015-06-24T13:45:03Z</time>
      </trkpt>
      <trkpt lat="43.39117" lon="6.08842">
        <ele>318.60000610352</ele>
        <time>2015-06-24T13:45:06Z</time>
      </trkpt>
      <trkpt lat="43.39116" lon="6.08851">
        <ele>318.79998779297</ele>
        <time>2015-06-24T13:45:08Z</time>
      </trkpt>
      <trkpt lat="43.39114" lon="6.08858">
        <ele>318.60000610352</ele>
        <time>2015-06-24T13:45:10Z</time>
      </trkpt>
      <trkpt lat="43.39113" lon="6.08865">
        <ele>319</ele>
        <time>2015-06-24T13:45:12Z</time>
      </trkpt>
      <trkpt lat="43.3911" lon="6.08872">
        <ele>319.20001220703</ele>
        <time>2015-06-24T13:45:14Z</time>
      </trkpt>
      <trkpt lat="43.39109" lon="6.08876">
        <ele>319.20001220703</ele>
        <time>2015-06-24T13:45:15Z</time>
      </trkpt>
      <trkpt lat="43.39108" lon="6.08888">
        <ele>319.60000610352</ele>
        <time>2015-06-24T13:45:18Z</time>
      </trkpt>
      <trkpt lat="43.39106" lon="6.08897">
        <ele>319.60000610352</ele>
        <time>2015-06-24T13:45:20Z</time>
      </trkpt>
      <trkpt lat="43.39104" lon="6.08906">
        <ele>319.60000610352</ele>
        <time>2015-06-24T13:45:22Z</time>
      </trkpt>
      <trkpt lat="43.39103" lon="6.08914">
        <ele>319.60000610352</ele>
        <time>2015-06-24T13:45:24Z</time>
      </trkpt>
      <trkpt lat="43.39101" lon="6.08923">
        <ele>319</ele>
        <time>2015-06-24T13:45:26Z</time>
      </trkpt>
      <trkpt lat="43.39097" lon="6.08938">
        <ele>320.20001220703</ele>
        <time>2015-06-24T13:45:30Z</time>
      </trkpt>
      <trkpt lat="43.39093" lon="6.08953">
        <ele>320.20001220703</ele>
        <time>2015-06-24T13:45:34Z</time>
      </trkpt>
      <trkpt lat="43.39091" lon="6.08961">
        <ele>320.60000610352</ele>
        <time>2015-06-24T13:45:36Z</time>
      </trkpt>
      <trkpt lat="43.39088" lon="6.08967">
        <ele>320.39999389648</ele>
        <time>2015-06-24T13:45:38Z</time>
      </trkpt>
      <trkpt lat="43.39086" lon="6.08974">
        <ele>320</ele>
        <time>2015-06-24T13:45:40Z</time>
      </trkpt>
      <trkpt lat="43.39083" lon="6.08982">
        <ele>320.79998779297</ele>
        <time>2015-06-24T13:45:42Z</time>
      </trkpt>
      <trkpt lat="43.39081" lon="6.08989">
        <ele>321</ele>
        <time>2015-06-24T13:45:44Z</time>
      </trkpt>
      <trkpt lat="43.3908" lon="6.08993">
        <ele>321.20001220703</ele>
        <time>2015-06-24T13:45:45Z</time>
      </trkpt>
      <trkpt lat="43.39078" lon="6.08995">
        <ele>321</ele>
        <time>2015-06-24T13:45:46Z</time>
      </trkpt>
      <trkpt lat="43.39075" lon="6.09001">
        <ele>321.39999389648</ele>
        <time>2015-06-24T13:45:48Z</time>
      </trkpt>
      <trkpt lat="43.39072" lon="6.09009">
        <ele>321.79998779297</ele>
        <time>2015-06-24T13:45:50Z</time>
      </trkpt>
      <trkpt lat="43.39069" lon="6.09017">
        <ele>322.39999389648</ele>
        <time>2015-06-24T13:45:52Z</time>
      </trkpt>
      <trkpt lat="43.39063" lon="6.09032">
        <ele>322.39999389648</ele>
        <time>2015-06-24T13:45:56Z</time>
      </trkpt>
      <trkpt lat="43.39059" lon="6.09038">
        <ele>322</ele>
        <time>2015-06-24T13:45:58Z</time>
      </trkpt>
      <trkpt lat="43.39057" lon="6.09046">
        <ele>322.20001220703</ele>
        <time>2015-06-24T13:46:00Z</time>
      </trkpt>
      <trkpt lat="43.39051" lon="6.0906">
        <ele>322.39999389648</ele>
        <time>2015-06-24T13:46:04Z</time>
      </trkpt>
      <trkpt lat="43.39048" lon="6.09067">
        <ele>322.39999389648</ele>
        <time>2015-06-24T13:46:06Z</time>
      </trkpt>
      <trkpt lat="43.39046" lon="6.09074">
        <ele>322.60000610352</ele>
        <time>2015-06-24T13:46:08Z</time>
      </trkpt>
      <trkpt lat="43.39043" lon="6.09081">
        <ele>323</ele>
        <time>2015-06-24T13:46:10Z</time>
      </trkpt>
      <trkpt lat="43.39042" lon="6.09085">
        <ele>323.39999389648</ele>
        <time>2015-06-24T13:46:11Z</time>
      </trkpt>
      <trkpt lat="43.39038" lon="6.09095">
        <ele>323.60000610352</ele>
        <time>2015-06-24T13:46:14Z</time>
      </trkpt>
      <trkpt lat="43.39038" lon="6.09098">
        <ele>324</ele>
        <time>2015-06-24T13:46:15Z</time>
      </trkpt>
      <trkpt lat="43.39037" lon="6.09101">
        <ele>324</ele>
        <time>2015-06-24T13:46:16Z</time>
      </trkpt>
      <trkpt lat="43.39035" lon="6.09107">
        <ele>324.20001220703</ele>
        <time>2015-06-24T13:46:18Z</time>
      </trkpt>
      <trkpt lat="43.39035" lon="6.09111">
        <ele>324.20001220703</ele>
        <time>2015-06-24T13:46:19Z</time>
      </trkpt>
      <trkpt lat="43.39032" lon="6.09119">
        <ele>324</ele>
        <time>2015-06-24T13:46:21Z</time>
      </trkpt>
      <trkpt lat="43.39031" lon="6.09123">
        <ele>324</ele>
        <time>2015-06-24T13:46:22Z</time>
      </trkpt>
      <trkpt lat="43.39029" lon="6.09131">
        <ele>324</ele>
        <time>2015-06-24T13:46:24Z</time>
      </trkpt>
      <trkpt lat="43.39027" lon="6.09139">
        <ele>324</ele>
        <time>2015-06-24T13:46:26Z</time>
      </trkpt>
      <trkpt lat="43.39024" lon="6.09147">
        <ele>324.39999389648</ele>
        <time>2015-06-24T13:46:28Z</time>
      </trkpt>
      <trkpt lat="43.39022" lon="6.09155">
        <ele>325</ele>
        <time>2015-06-24T13:46:30Z</time>
      </trkpt>
      <trkpt lat="43.3902" lon="6.09163">
        <ele>325.39999389648</ele>
        <time>2015-06-24T13:46:32Z</time>
      </trkpt>
      <trkpt lat="43.39018" lon="6.0917">
        <ele>325.79998779297</ele>
        <time>2015-06-24T13:46:34Z</time>
      </trkpt>
      <trkpt lat="43.39017" lon="6.09178">
        <ele>325.79998779297</ele>
        <time>2015-06-24T13:46:36Z</time>
      </trkpt>
      <trkpt lat="43.39016" lon="6.09186">
        <ele>325</ele>
        <time>2015-06-24T13:46:38Z</time>
      </trkpt>
      <trkpt lat="43.39011" lon="6.09211">
        <ele>325.79998779297</ele>
        <time>2015-06-24T13:46:44Z</time>
      </trkpt>
      <trkpt lat="43.39009" lon="6.09221">
        <ele>325.79998779297</ele>
        <time>2015-06-24T13:46:46Z</time>
      </trkpt>
      <trkpt lat="43.39007" lon="6.0923">
        <ele>326</ele>
        <time>2015-06-24T13:46:48Z</time>
      </trkpt>
      <trkpt lat="43.39005" lon="6.09239">
        <ele>326</ele>
        <time>2015-06-24T13:46:50Z</time>
      </trkpt>
      <trkpt lat="43.39002" lon="6.09248">
        <ele>326</ele>
        <time>2015-06-24T13:46:52Z</time>
      </trkpt>
      <trkpt lat="43.38996" lon="6.09265">
        <ele>325.79998779297</ele>
        <time>2015-06-24T13:46:56Z</time>
      </trkpt>
      <trkpt lat="43.38995" lon="6.09269">
        <ele>326.39999389648</ele>
        <time>2015-06-24T13:46:57Z</time>
      </trkpt>
      <trkpt lat="43.38994" lon="6.09273">
        <ele>326.79998779297</ele>
        <time>2015-06-24T13:46:58Z</time>
      </trkpt>
      <trkpt lat="43.38992" lon="6.0928">
        <ele>326.60000610352</ele>
        <time>2015-06-24T13:47:00Z</time>
      </trkpt>
      <trkpt lat="43.38986" lon="6.0929">
        <ele>326.79998779297</ele>
        <time>2015-06-24T13:47:04Z</time>
      </trkpt>
      <trkpt lat="43.38983" lon="6.09293">
        <ele>327</ele>
        <time>2015-06-24T13:47:06Z</time>
      </trkpt>
      <trkpt lat="43.38981" lon="6.09295">
        <ele>326.60000610352</ele>
        <time>2015-06-24T13:47:07Z</time>
      </trkpt>
      <trkpt lat="43.38977" lon="6.09302">
        <ele>327.39999389648</ele>
        <time>2015-06-24T13:47:10Z</time>
      </trkpt>
      <trkpt lat="43.38973" lon="6.09306">
        <ele>327.60000610352</ele>
        <time>2015-06-24T13:47:12Z</time>
      </trkpt>
      <trkpt lat="43.3897" lon="6.09311">
        <ele>328.20001220703</ele>
        <time>2015-06-24T13:47:14Z</time>
      </trkpt>
      <trkpt lat="43.38967" lon="6.09316">
        <ele>328</ele>
        <time>2015-06-24T13:47:16Z</time>
      </trkpt>
      <trkpt lat="43.38964" lon="6.09322">
        <ele>328.39999389648</ele>
        <time>2015-06-24T13:47:18Z</time>
      </trkpt>
      <trkpt lat="43.38963" lon="6.09325">
        <ele>328.60000610352</ele>
        <time>2015-06-24T13:47:19Z</time>
      </trkpt>
      <trkpt lat="43.38961" lon="6.09328">
        <ele>328.60000610352</ele>
        <time>2015-06-24T13:47:20Z</time>
      </trkpt>
      <trkpt lat="43.38957" lon="6.09332">
        <ele>328.39999389648</ele>
        <time>2015-06-24T13:47:22Z</time>
      </trkpt>
      <trkpt lat="43.38951" lon="6.09338">
        <ele>328.79998779297</ele>
        <time>2015-06-24T13:47:25Z</time>
      </trkpt>
      <trkpt lat="43.38944" lon="6.09344">
        <ele>328.79998779297</ele>
        <time>2015-06-24T13:47:28Z</time>
      </trkpt>
      <trkpt lat="43.3894" lon="6.09349">
        <ele>328.79998779297</ele>
        <time>2015-06-24T13:47:30Z</time>
      </trkpt>
      <trkpt lat="43.38935" lon="6.09354">
        <ele>328.79998779297</ele>
        <time>2015-06-24T13:47:32Z</time>
      </trkpt>
      <trkpt lat="43.38932" lon="6.09359">
        <ele>328.79998779297</ele>
        <time>2015-06-24T13:47:34Z</time>
      </trkpt>
      <trkpt lat="43.38927" lon="6.09363">
        <ele>329.60000610352</ele>
        <time>2015-06-24T13:47:36Z</time>
      </trkpt>
      <trkpt lat="43.38924" lon="6.09366">
        <ele>330</ele>
        <time>2015-06-24T13:47:38Z</time>
      </trkpt>
      <trkpt lat="43.38922" lon="6.09368">
        <ele>330.79998779297</ele>
        <time>2015-06-24T13:47:40Z</time>
      </trkpt>
      <trkpt lat="43.38919" lon="6.09371">
        <ele>331.20001220703</ele>
        <time>2015-06-24T13:47:42Z</time>
      </trkpt>
      <trkpt lat="43.38913" lon="6.09377">
        <ele>332.39999389648</ele>
        <time>2015-06-24T13:47:46Z</time>
      </trkpt>
      <trkpt lat="43.3891" lon="6.09381">
        <ele>332.39999389648</ele>
        <time>2015-06-24T13:47:48Z</time>
      </trkpt>
      <trkpt lat="43.38908" lon="6.09385">
        <ele>332.79998779297</ele>
        <time>2015-06-24T13:47:50Z</time>
      </trkpt>
      <trkpt lat="43.38906" lon="6.09387">
        <ele>332.79998779297</ele>
        <time>2015-06-24T13:47:51Z</time>
      </trkpt>
      <trkpt lat="43.38902" lon="6.09394">
        <ele>333.20001220703</ele>
        <time>2015-06-24T13:47:55Z</time>
      </trkpt>
      <trkpt lat="43.38902" lon="6.09396">
        <ele>333.39999389648</ele>
        <time>2015-06-24T13:47:56Z</time>
      </trkpt>
      <trkpt lat="43.389" lon="6.09399">
        <ele>334</ele>
        <time>2015-06-24T13:47:58Z</time>
      </trkpt>
      <trkpt lat="43.389" lon="6.094">
        <ele>334.20001220703</ele>
        <time>2015-06-24T13:47:59Z</time>
      </trkpt>
      <trkpt lat="43.38899" lon="6.094">
        <ele>334.39999389648</ele>
        <time>2015-06-24T13:48:00Z</time>
      </trkpt>
      <trkpt lat="43.38899" lon="6.09401">
        <ele>334.79998779297</ele>
        <time>2015-06-24T13:48:02Z</time>
      </trkpt>
      <trkpt lat="43.38898" lon="6.09401">
        <ele>334.79998779297</ele>
        <time>2015-06-24T13:48:04Z</time>
      </trkpt>
      <trkpt lat="43.38898" lon="6.09402">
        <ele>335</ele>
        <time>2015-06-24T13:48:06Z</time>
      </trkpt>
      <trkpt lat="43.38898" lon="6.09402">
        <ele>335</ele>
        <time>2015-06-24T13:48:08Z</time>
      </trkpt>
      <trkpt lat="43.38898" lon="6.09402">
        <ele>334.79998779297</ele>
        <time>2015-06-24T13:48:09Z</time>
      </trkpt>
      <trkpt lat="43.38897" lon="6.09402">
        <ele>334.60000610352</ele>
        <time>2015-06-24T13:48:10Z</time>
      </trkpt>
      <trkpt lat="43.38897" lon="6.09402">
        <ele>334.60000610352</ele>
        <time>2015-06-24T13:48:14Z</time>
      </trkpt>
      <trkpt lat="43.38897" lon="6.09402">
        <ele>334.60000610352</ele>
        <time>2015-06-24T13:48:16Z</time>
      </trkpt>
      <trkpt lat="43.38897" lon="6.09402">
        <ele>334.60000610352</ele>
        <time>2015-06-24T13:48:17Z</time>
      </trkpt>
      <trkpt lat="43.38897" lon="6.09402">
        <ele>334.60000610352</ele>
        <time>2015-06-24T13:48:18Z</time>
      </trkpt>
      <trkpt lat="43.38896" lon="6.09402">
        <ele>334.39999389648</ele>
        <time>2015-06-24T13:48:20Z</time>
      </trkpt>
      <trkpt lat="43.38896" lon="6.09403">
        <ele>334.39999389648</ele>
        <time>2015-06-24T13:48:24Z</time>
      </trkpt>
      <trkpt lat="43.38895" lon="6.09404">
        <ele>334.39999389648</ele>
        <time>2015-06-24T13:48:26Z</time>
      </trkpt>
      <trkpt lat="43.38895" lon="6.09404">
        <ele>334.39999389648</ele>
        <time>2015-06-24T13:48:28Z</time>
      </trkpt>
      <trkpt lat="43.38895" lon="6.09404">
        <ele>334.39999389648</ele>
        <time>2015-06-24T13:48:30Z</time>
      </trkpt>
      <trkpt lat="43.38895" lon="6.09404">
        <ele>334.39999389648</ele>
        <time>2015-06-24T13:48:34Z</time>
      </trkpt>
      <trkpt lat="43.38895" lon="6.09404">
        <ele>334.60000610352</ele>
        <time>2015-06-24T13:48:40Z</time>
      </trkpt>
      <trkpt lat="43.38895" lon="6.09404">
        <ele>334.20001220703</ele>
        <time>2015-06-24T13:48:44Z</time>
      </trkpt>
      <trkpt lat="43.38895" lon="6.09404">
        <ele>334.20001220703</ele>
        <time>2015-06-24T13:48:46Z</time>
      </trkpt>
      <trkpt lat="43.38894" lon="6.09404">
        <ele>334.20001220703</ele>
        <time>2015-06-24T13:48:48Z</time>
      </trkpt>
      <trkpt lat="43.38894" lon="6.09404">
        <ele>334.20001220703</ele>
        <time>2015-06-24T13:48:49Z</time>
      </trkpt>
      <trkpt lat="43.38894" lon="6.09404">
        <ele>334.60000610352</ele>
        <time>2015-06-24T13:48:52Z</time>
      </trkpt>
      <trkpt lat="43.38894" lon="6.09404">
        <ele>334.79998779297</ele>
        <time>2015-06-24T13:48:54Z</time>
      </trkpt>
      <trkpt lat="43.38894" lon="6.09404">
        <ele>334.79998779297</ele>
        <time>2015-06-24T13:48:58Z</time>
      </trkpt>
      <trkpt lat="43.38894" lon="6.09404">
        <ele>335</ele>
        <time>2015-06-24T13:49:02Z</time>
      </trkpt>
      <trkpt lat="43.38894" lon="6.09404">
        <ele>335</ele>
        <time>2015-06-24T13:49:04Z</time>
      </trkpt>
      <trkpt lat="43.38894" lon="6.09405">
        <ele>335</ele>
        <time>2015-06-24T13:49:06Z</time>
      </trkpt>
      <trkpt lat="43.38894" lon="6.09405">
        <ele>335</ele>
        <time>2015-06-24T13:49:08Z</time>
      </trkpt>
      <trkpt lat="43.38894" lon="6.09405">
        <ele>334.79998779297</ele>
        <time>2015-06-24T13:49:10Z</time>
      </trkpt>
      <trkpt lat="43.38894" lon="6.09405">
        <ele>335</ele>
        <time>2015-06-24T13:49:12Z</time>
      </trkpt>
      <trkpt lat="43.38894" lon="6.09405">
        <ele>335</ele>
        <time>2015-06-24T13:49:14Z</time>
      </trkpt>
      <trkpt lat="43.38894" lon="6.09405">
        <ele>335</ele>
        <time>2015-06-24T13:49:16Z</time>
      </trkpt>
      <trkpt lat="43.38894" lon="6.09405">
        <ele>335</ele>
        <time>2015-06-24T13:49:18Z</time>
      </trkpt>
      <trkpt lat="43.38894" lon="6.09405">
        <ele>334.79998779297</ele>
        <time>2015-06-24T13:49:20Z</time>
      </trkpt>
      <trkpt lat="43.38894" lon="6.09405">
        <ele>334.60000610352</ele>
        <time>2015-06-24T13:49:22Z</time>
      </trkpt>
      <trkpt lat="43.38893" lon="6.09405">
        <ele>334.60000610352</ele>
        <time>2015-06-24T13:49:24Z</time>
      </trkpt>
      <trkpt lat="43.38893" lon="6.09405">
        <ele>334.60000610352</ele>
        <time>2015-06-24T13:49:26Z</time>
      </trkpt>
      <trkpt lat="43.38893" lon="6.09405">
        <ele>334.79998779297</ele>
        <time>2015-06-24T13:49:28Z</time>
      </trkpt>
      <trkpt lat="43.38893" lon="6.09405">
        <ele>334.79998779297</ele>
        <time>2015-06-24T13:49:30Z</time>
      </trkpt>
      <trkpt lat="43.38893" lon="6.09405">
        <ele>335</ele>
        <time>2015-06-24T13:49:33Z</time>
      </trkpt>
      <trkpt lat="43.38893" lon="6.09405">
        <ele>334.79998779297</ele>
        <time>2015-06-24T13:49:34Z</time>
      </trkpt>
      <trkpt lat="43.38893" lon="6.09406">
        <ele>334.60000610352</ele>
        <time>2015-06-24T13:49:36Z</time>
      </trkpt>
      <trkpt lat="43.38892" lon="6.09406">
        <ele>334.20001220703</ele>
        <time>2015-06-24T13:49:38Z</time>
      </trkpt>
      <trkpt lat="43.38892" lon="6.09405">
        <ele>334.20001220703</ele>
        <time>2015-06-24T13:49:40Z</time>
      </trkpt>
      <trkpt lat="43.38892" lon="6.09405">
        <ele>334.39999389648</ele>
        <time>2015-06-24T13:49:42Z</time>
      </trkpt>
      <trkpt lat="43.38892" lon="6.09405">
        <ele>334.39999389648</ele>
        <time>2015-06-24T13:49:46Z</time>
      </trkpt>
      <trkpt lat="43.38892" lon="6.09406">
        <ele>334.39999389648</ele>
        <time>2015-06-24T13:49:48Z</time>
      </trkpt>
      <trkpt lat="43.38892" lon="6.09406">
        <ele>334.39999389648</ele>
        <time>2015-06-24T13:49:50Z</time>
      </trkpt>
      <trkpt lat="43.38892" lon="6.09406">
        <ele>334.60000610352</ele>
        <time>2015-06-24T13:49:52Z</time>
      </trkpt>
      <trkpt lat="43.38891" lon="6.09406">
        <ele>334.60000610352</ele>
        <time>2015-06-24T13:49:56Z</time>
      </trkpt>
      <trkpt lat="43.38891" lon="6.09406">
        <ele>334.60000610352</ele>
        <time>2015-06-24T13:49:59Z</time>
      </trkpt>
      <trkpt lat="43.38891" lon="6.09406">
        <ele>334.60000610352</ele>
        <time>2015-06-24T13:50:02Z</time>
      </trkpt>
      <trkpt lat="43.38891" lon="6.09406">
        <ele>334.60000610352</ele>
        <time>2015-06-24T13:50:04Z</time>
      </trkpt>
      <trkpt lat="43.38891" lon="6.09406">
        <ele>334.39999389648</ele>
        <time>2015-06-24T13:50:07Z</time>
      </trkpt>
      <trkpt lat="43.38891" lon="6.09406">
        <ele>334.60000610352</ele>
        <time>2015-06-24T13:50:10Z</time>
      </trkpt>
      <trkpt lat="43.38891" lon="6.09407">
        <ele>334.60000610352</ele>
        <time>2015-06-24T13:50:14Z</time>
      </trkpt>
      <trkpt lat="43.38891" lon="6.09407">
        <ele>334.60000610352</ele>
        <time>2015-06-24T13:50:16Z</time>
      </trkpt>
      <trkpt lat="43.38891" lon="6.09407">
        <ele>334.39999389648</ele>
        <time>2015-06-24T13:50:18Z</time>
      </trkpt>
      <trkpt lat="43.3889" lon="6.09406">
        <ele>334.60000610352</ele>
        <time>2015-06-24T13:50:22Z</time>
      </trkpt>
      <trkpt lat="43.3889" lon="6.09406">
        <ele>334.39999389648</ele>
        <time>2015-06-24T13:50:24Z</time>
      </trkpt>
      <trkpt lat="43.3889" lon="6.09406">
        <ele>334.39999389648</ele>
        <time>2015-06-24T13:50:26Z</time>
      </trkpt>
      <trkpt lat="43.3889" lon="6.09406">
        <ele>334.39999389648</ele>
        <time>2015-06-24T13:50:28Z</time>
      </trkpt>
      <trkpt lat="43.3889" lon="6.09406">
        <ele>334.39999389648</ele>
        <time>2015-06-24T13:50:30Z</time>
      </trkpt>
      <trkpt lat="43.3889" lon="6.09406">
        <ele>334.39999389648</ele>
        <time>2015-06-24T13:50:32Z</time>
      </trkpt>
      <trkpt lat="43.3889" lon="6.09406">
        <ele>334.20001220703</ele>
        <time>2015-06-24T13:50:34Z</time>
      </trkpt>
      <trkpt lat="43.3889" lon="6.09407">
        <ele>334.39999389648</ele>
        <time>2015-06-24T13:50:38Z</time>
      </trkpt>
      <trkpt lat="43.3889" lon="6.09408">
        <ele>334.79998779297</ele>
        <time>2015-06-24T13:50:40Z</time>
      </trkpt>
      <trkpt lat="43.38889" lon="6.09407">
        <ele>334.60000610352</ele>
        <time>2015-06-24T13:50:42Z</time>
      </trkpt>
      <trkpt lat="43.38888" lon="6.09409">
        <ele>334.60000610352</ele>
        <time>2015-06-24T13:50:44Z</time>
      </trkpt>
      <trkpt lat="43.38888" lon="6.09409">
        <ele>335</ele>
        <time>2015-06-24T13:50:46Z</time>
      </trkpt>
      <trkpt lat="43.38887" lon="6.09409">
        <ele>335</ele>
        <time>2015-06-24T13:50:48Z</time>
      </trkpt>
      <trkpt lat="43.38887" lon="6.0941">
        <ele>335</ele>
        <time>2015-06-24T13:50:49Z</time>
      </trkpt>
      <trkpt lat="43.38887" lon="6.09409">
        <ele>335.20001220703</ele>
        <time>2015-06-24T13:50:50Z</time>
      </trkpt>
      <trkpt lat="43.38887" lon="6.09409">
        <ele>335.39999389648</ele>
        <time>2015-06-24T13:50:52Z</time>
      </trkpt>
      <trkpt lat="43.38887" lon="6.0941">
        <ele>335.39999389648</ele>
        <time>2015-06-24T13:50:54Z</time>
      </trkpt>
      <trkpt lat="43.38887" lon="6.0941">
        <ele>335.39999389648</ele>
        <time>2015-06-24T13:50:56Z</time>
      </trkpt>
      <trkpt lat="43.38886" lon="6.09411">
        <ele>335.20001220703</ele>
        <time>2015-06-24T13:51:00Z</time>
      </trkpt>
      <trkpt lat="43.38886" lon="6.09411">
        <ele>335.20001220703</ele>
        <time>2015-06-24T13:51:02Z</time>
      </trkpt>
      <trkpt lat="43.38886" lon="6.09412">
        <ele>335.20001220703</ele>
        <time>2015-06-24T13:51:04Z</time>
      </trkpt>
      <trkpt lat="43.38886" lon="6.09414">
        <ele>335.60000610352</ele>
        <time>2015-06-24T13:51:06Z</time>
      </trkpt>
      <trkpt lat="43.38886" lon="6.09414">
        <ele>335.79998779297</ele>
        <time>2015-06-24T13:51:10Z</time>
      </trkpt>
      <trkpt lat="43.38886" lon="6.09415">
        <ele>336</ele>
        <time>2015-06-24T13:51:12Z</time>
      </trkpt>
      <trkpt lat="43.38886" lon="6.09415">
        <ele>336.20001220703</ele>
        <time>2015-06-24T13:51:13Z</time>
      </trkpt>
      <trkpt lat="43.38885" lon="6.09416">
        <ele>336.20001220703</ele>
        <time>2015-06-24T13:51:14Z</time>
      </trkpt>
      <trkpt lat="43.38885" lon="6.09417">
        <ele>336.20001220703</ele>
        <time>2015-06-24T13:51:16Z</time>
      </trkpt>
      <trkpt lat="43.38885" lon="6.09417">
        <ele>336.39999389648</ele>
        <time>2015-06-24T13:51:18Z</time>
      </trkpt>
      <trkpt lat="43.38884" lon="6.09417">
        <ele>336.20001220703</ele>
        <time>2015-06-24T13:51:20Z</time>
      </trkpt>
      <trkpt lat="43.38885" lon="6.09417">
        <ele>336.20001220703</ele>
        <time>2015-06-24T13:51:21Z</time>
      </trkpt>
      <trkpt lat="43.38884" lon="6.09417">
        <ele>336.20001220703</ele>
        <time>2015-06-24T13:51:22Z</time>
      </trkpt>
      <trkpt lat="43.38883" lon="6.09418">
        <ele>336.39999389648</ele>
        <time>2015-06-24T13:51:24Z</time>
      </trkpt>
      <trkpt lat="43.38883" lon="6.09418">
        <ele>336.20001220703</ele>
        <time>2015-06-24T13:51:26Z</time>
      </trkpt>
      <trkpt lat="43.38883" lon="6.09418">
        <ele>336.39999389648</ele>
        <time>2015-06-24T13:51:28Z</time>
      </trkpt>
      <trkpt lat="43.38883" lon="6.09418">
        <ele>336.20001220703</ele>
        <time>2015-06-24T13:51:30Z</time>
      </trkpt>
      <trkpt lat="43.38883" lon="6.09418">
        <ele>336.20001220703</ele>
        <time>2015-06-24T13:51:31Z</time>
      </trkpt>
      <trkpt lat="43.38882" lon="6.09418">
        <ele>336.39999389648</ele>
        <time>2015-06-24T13:51:32Z</time>
      </trkpt>
      <trkpt lat="43.38882" lon="6.09418">
        <ele>336.39999389648</ele>
        <time>2015-06-24T13:51:34Z</time>
      </trkpt>
      <trkpt lat="43.38882" lon="6.09418">
        <ele>336.39999389648</ele>
        <time>2015-06-24T13:51:36Z</time>
      </trkpt>
      <trkpt lat="43.38882" lon="6.09418">
        <ele>336</ele>
        <time>2015-06-24T13:51:38Z</time>
      </trkpt>
      <trkpt lat="43.38882" lon="6.09418">
        <ele>336</ele>
        <time>2015-06-24T13:51:40Z</time>
      </trkpt>
      <trkpt lat="43.38882" lon="6.09418">
        <ele>336</ele>
        <time>2015-06-24T13:51:41Z</time>
      </trkpt>
      <trkpt lat="43.38882" lon="6.09419">
        <ele>336</ele>
        <time>2015-06-24T13:51:42Z</time>
      </trkpt>
      <trkpt lat="43.38878" lon="6.0942">
        <ele>335.79998779297</ele>
        <time>2015-06-24T13:51:44Z</time>
      </trkpt>
      <trkpt lat="43.38876" lon="6.0942">
        <ele>335.60000610352</ele>
        <time>2015-06-24T13:51:45Z</time>
      </trkpt>
      <trkpt lat="43.38874" lon="6.09419">
        <ele>335.60000610352</ele>
        <time>2015-06-24T13:51:46Z</time>
      </trkpt>
      <trkpt lat="43.38871" lon="6.09416">
        <ele>334.79998779297</ele>
        <time>2015-06-24T13:51:48Z</time>
      </trkpt>
      <trkpt lat="43.38867" lon="6.09414">
        <ele>334.20001220703</ele>
        <time>2015-06-24T13:51:50Z</time>
      </trkpt>
      <trkpt lat="43.38862" lon="6.09407">
        <ele>333.39999389648</ele>
        <time>2015-06-24T13:51:54Z</time>
      </trkpt>
      <trkpt lat="43.38859" lon="6.09403">
        <ele>333.20001220703</ele>
        <time>2015-06-24T13:51:56Z</time>
      </trkpt>
      <trkpt lat="43.38858" lon="6.09401">
        <ele>332.60000610352</ele>
        <time>2015-06-24T13:51:57Z</time>
      </trkpt>
      <trkpt lat="43.38857" lon="6.09399">
        <ele>332.20001220703</ele>
        <time>2015-06-24T13:51:58Z</time>
      </trkpt>
      <trkpt lat="43.38852" lon="6.09391">
        <ele>331.39999389648</ele>
        <time>2015-06-24T13:52:02Z</time>
      </trkpt>
      <trkpt lat="43.38849" lon="6.09388">
        <ele>330.79998779297</ele>
        <time>2015-06-24T13:52:04Z</time>
      </trkpt>
      <trkpt lat="43.38847" lon="6.09385">
        <ele>329.79998779297</ele>
        <time>2015-06-24T13:52:06Z</time>
      </trkpt>
      <trkpt lat="43.38845" lon="6.09386">
        <ele>329.39999389648</ele>
        <time>2015-06-24T13:52:07Z</time>
      </trkpt>
      <trkpt lat="43.38844" lon="6.09387">
        <ele>329.20001220703</ele>
        <time>2015-06-24T13:52:08Z</time>
      </trkpt>
      <trkpt lat="43.38843" lon="6.09391">
        <ele>328.79998779297</ele>
        <time>2015-06-24T13:52:10Z</time>
      </trkpt>
      <trkpt lat="43.38842" lon="6.09394">
        <ele>328.60000610352</ele>
        <time>2015-06-24T13:52:11Z</time>
      </trkpt>
      <trkpt lat="43.38841" lon="6.09397">
        <ele>328.20001220703</ele>
        <time>2015-06-24T13:52:12Z</time>
      </trkpt>
      <trkpt lat="43.38839" lon="6.09403">
        <ele>327.39999389648</ele>
        <time>2015-06-24T13:52:14Z</time>
      </trkpt>
      <trkpt lat="43.38837" lon="6.09408">
        <ele>327.39999389648</ele>
        <time>2015-06-24T13:52:16Z</time>
      </trkpt>
      <trkpt lat="43.38836" lon="6.09411">
        <ele>327.39999389648</ele>
        <time>2015-06-24T13:52:17Z</time>
      </trkpt>
      <trkpt lat="43.38836" lon="6.09413">
        <ele>326.79998779297</ele>
        <time>2015-06-24T13:52:18Z</time>
      </trkpt>
      <trkpt lat="43.38834" lon="6.09417">
        <ele>325.60000610352</ele>
        <time>2015-06-24T13:52:20Z</time>
      </trkpt>
      <trkpt lat="43.38834" lon="6.0942">
        <ele>325.20001220703</ele>
        <time>2015-06-24T13:52:22Z</time>
      </trkpt>
      <trkpt lat="43.38834" lon="6.0942">
        <ele>325.20001220703</ele>
        <time>2015-06-24T13:52:24Z</time>
      </trkpt>
      <trkpt lat="43.38833" lon="6.09421">
        <ele>325.20001220703</ele>
        <time>2015-06-24T13:52:26Z</time>
      </trkpt>
      <trkpt lat="43.38832" lon="6.09422">
        <ele>325</ele>
        <time>2015-06-24T13:52:28Z</time>
      </trkpt>
      <trkpt lat="43.38831" lon="6.09423">
        <ele>324.60000610352</ele>
        <time>2015-06-24T13:52:30Z</time>
      </trkpt>
      <trkpt lat="43.3883" lon="6.09423">
        <ele>324.39999389648</ele>
        <time>2015-06-24T13:52:32Z</time>
      </trkpt>
      <trkpt lat="43.3883" lon="6.09423">
        <ele>324.39999389648</ele>
        <time>2015-06-24T13:52:34Z</time>
      </trkpt>
      <trkpt lat="43.3883" lon="6.09424">
        <ele>324.39999389648</ele>
        <time>2015-06-24T13:52:36Z</time>
      </trkpt>
      <trkpt lat="43.38829" lon="6.09424">
        <ele>324.20001220703</ele>
        <time>2015-06-24T13:52:38Z</time>
      </trkpt>
      <trkpt lat="43.38829" lon="6.09424">
        <ele>324.20001220703</ele>
        <time>2015-06-24T13:52:40Z</time>
      </trkpt>
      <trkpt lat="43.38829" lon="6.09424">
        <ele>324</ele>
        <time>2015-06-24T13:52:44Z</time>
      </trkpt>
      <trkpt lat="43.38829" lon="6.09424">
        <ele>324</ele>
        <time>2015-06-24T13:52:46Z</time>
      </trkpt>
      <trkpt lat="43.38828" lon="6.09423">
        <ele>323.60000610352</ele>
        <time>2015-06-24T13:52:50Z</time>
      </trkpt>
      <trkpt lat="43.38828" lon="6.09423">
        <ele>323.60000610352</ele>
        <time>2015-06-24T13:52:51Z</time>
      </trkpt>
      <trkpt lat="43.38828" lon="6.09423">
        <ele>323.60000610352</ele>
        <time>2015-06-24T13:52:52Z</time>
      </trkpt>
      <trkpt lat="43.38828" lon="6.09423">
        <ele>323.39999389648</ele>
        <time>2015-06-24T13:52:54Z</time>
      </trkpt>
      <trkpt lat="43.38828" lon="6.09423">
        <ele>323.39999389648</ele>
        <time>2015-06-24T13:52:56Z</time>
      </trkpt>
      <trkpt lat="43.38828" lon="6.09423">
        <ele>323.39999389648</ele>
        <time>2015-06-24T13:52:58Z</time>
      </trkpt>
      <trkpt lat="43.38828" lon="6.09423">
        <ele>323.20001220703</ele>
        <time>2015-06-24T13:53:00Z</time>
      </trkpt>
      <trkpt lat="43.38826" lon="6.09422">
        <ele>323.20001220703</ele>
        <time>2015-06-24T13:53:01Z</time>
      </trkpt>
      <trkpt lat="43.38825" lon="6.09419">
        <ele>323</ele>
        <time>2015-06-24T13:53:02Z</time>
      </trkpt>
      <trkpt lat="43.38824" lon="6.09416">
        <ele>322.60000610352</ele>
        <time>2015-06-24T13:53:03Z</time>
      </trkpt>
      <trkpt lat="43.38821" lon="6.09413">
        <ele>322.20001220703</ele>
        <time>2015-06-24T13:53:04Z</time>
      </trkpt>
      <trkpt lat="43.38816" lon="6.09404">
        <ele>321.60000610352</ele>
        <time>2015-06-24T13:53:06Z</time>
      </trkpt>
      <trkpt lat="43.38812" lon="6.09395">
        <ele>320.39999389648</ele>
        <time>2015-06-24T13:53:08Z</time>
      </trkpt>
      <trkpt lat="43.38809" lon="6.09389">
        <ele>319.39999389648</ele>
        <time>2015-06-24T13:53:10Z</time>
      </trkpt>
      <trkpt lat="43.38805" lon="6.09382">
        <ele>318.60000610352</ele>
        <time>2015-06-24T13:53:12Z</time>
      </trkpt>
      <trkpt lat="43.38803" lon="6.09379">
        <ele>318.20001220703</ele>
        <time>2015-06-24T13:53:13Z</time>
      </trkpt>
      <trkpt lat="43.38797" lon="6.09372">
        <ele>317.20001220703</ele>
        <time>2015-06-24T13:53:15Z</time>
      </trkpt>
      <trkpt lat="43.38794" lon="6.09369">
        <ele>316.60000610352</ele>
        <time>2015-06-24T13:53:16Z</time>
      </trkpt>
      <trkpt lat="43.38788" lon="6.09362">
        <ele>315</ele>
        <time>2015-06-24T13:53:18Z</time>
      </trkpt>
      <trkpt lat="43.38782" lon="6.09356">
        <ele>313.79998779297</ele>
        <time>2015-06-24T13:53:20Z</time>
      </trkpt>
      <trkpt lat="43.38776" lon="6.09351">
        <ele>313.39999389648</ele>
        <time>2015-06-24T13:53:22Z</time>
      </trkpt>
      <trkpt lat="43.38767" lon="6.09346">
        <ele>312.60000610352</ele>
        <time>2015-06-24T13:53:24Z</time>
      </trkpt>
      <trkpt lat="43.38758" lon="6.09341">
        <ele>310.20001220703</ele>
        <time>2015-06-24T13:53:26Z</time>
      </trkpt>
      <trkpt lat="43.38754" lon="6.09339">
        <ele>308.79998779297</ele>
        <time>2015-06-24T13:53:27Z</time>
      </trkpt>
      <trkpt lat="43.3875" lon="6.09337">
        <ele>307.60000610352</ele>
        <time>2015-06-24T13:53:28Z</time>
      </trkpt>
      <trkpt lat="43.38745" lon="6.09335">
        <ele>306</ele>
        <time>2015-06-24T13:53:29Z</time>
      </trkpt>
      <trkpt lat="43.3874" lon="6.09334">
        <ele>304.79998779297</ele>
        <time>2015-06-24T13:53:30Z</time>
      </trkpt>
      <trkpt lat="43.38729" lon="6.09331">
        <ele>303.39999389648</ele>
        <time>2015-06-24T13:53:32Z</time>
      </trkpt>
      <trkpt lat="43.38718" lon="6.09323">
        <ele>301.60000610352</ele>
        <time>2015-06-24T13:53:34Z</time>
      </trkpt>
      <trkpt lat="43.38706" lon="6.09314">
        <ele>299.39999389648</ele>
        <time>2015-06-24T13:53:36Z</time>
      </trkpt>
      <trkpt lat="43.38696" lon="6.09307">
        <ele>297.39999389648</ele>
        <time>2015-06-24T13:53:38Z</time>
      </trkpt>
      <trkpt lat="43.38692" lon="6.09304">
        <ele>296</ele>
        <time>2015-06-24T13:53:39Z</time>
      </trkpt>
      <trkpt lat="43.38686" lon="6.09297">
        <ele>294.39999389648</ele>
        <time>2015-06-24T13:53:41Z</time>
      </trkpt>
      <trkpt lat="43.38683" lon="6.09295">
        <ele>293.20001220703</ele>
        <time>2015-06-24T13:53:42Z</time>
      </trkpt>
      <trkpt lat="43.3868" lon="6.09294">
        <ele>292.39999389648</ele>
        <time>2015-06-24T13:53:43Z</time>
      </trkpt>
      <trkpt lat="43.38677" lon="6.09295">
        <ele>291.79998779297</ele>
        <time>2015-06-24T13:53:44Z</time>
      </trkpt>
      <trkpt lat="43.38674" lon="6.093">
        <ele>291</ele>
        <time>2015-06-24T13:53:46Z</time>
      </trkpt>
      <trkpt lat="43.3867" lon="6.09305">
        <ele>290</ele>
        <time>2015-06-24T13:53:48Z</time>
      </trkpt>
      <trkpt lat="43.3867" lon="6.09308">
        <ele>289.79998779297</ele>
        <time>2015-06-24T13:53:49Z</time>
      </trkpt>
      <trkpt lat="43.38669" lon="6.09312">
        <ele>289.60000610352</ele>
        <time>2015-06-24T13:53:50Z</time>
      </trkpt>
      <trkpt lat="43.38668" lon="6.0932">
        <ele>289.60000610352</ele>
        <time>2015-06-24T13:53:52Z</time>
      </trkpt>
      <trkpt lat="43.38668" lon="6.09323">
        <ele>289.79998779297</ele>
        <time>2015-06-24T13:53:53Z</time>
      </trkpt>
      <trkpt lat="43.38669" lon="6.09326">
        <ele>289.79998779297</ele>
        <time>2015-06-24T13:53:54Z</time>
      </trkpt>
      <trkpt lat="43.38669" lon="6.09332">
        <ele>289.60000610352</ele>
        <time>2015-06-24T13:53:56Z</time>
      </trkpt>
      <trkpt lat="43.38669" lon="6.09338">
        <ele>289.60000610352</ele>
        <time>2015-06-24T13:53:58Z</time>
      </trkpt>
      <trkpt lat="43.38669" lon="6.09344">
        <ele>289.39999389648</ele>
        <time>2015-06-24T13:54:00Z</time>
      </trkpt>
      <trkpt lat="43.38672" lon="6.0936">
        <ele>289.39999389648</ele>
        <time>2015-06-24T13:54:04Z</time>
      </trkpt>
      <trkpt lat="43.38673" lon="6.09364">
        <ele>289.60000610352</ele>
        <time>2015-06-24T13:54:05Z</time>
      </trkpt>
      <trkpt lat="43.38673" lon="6.09368">
        <ele>289.79998779297</ele>
        <time>2015-06-24T13:54:06Z</time>
      </trkpt>
      <trkpt lat="43.38673" lon="6.09379">
        <ele>289.39999389648</ele>
        <time>2015-06-24T13:54:08Z</time>
      </trkpt>
      <trkpt lat="43.38673" lon="6.09384">
        <ele>289.20001220703</ele>
        <time>2015-06-24T13:54:09Z</time>
      </trkpt>
      <trkpt lat="43.38673" lon="6.0939">
        <ele>288.79998779297</ele>
        <time>2015-06-24T13:54:10Z</time>
      </trkpt>
      <trkpt lat="43.38672" lon="6.094">
        <ele>288.20001220703</ele>
        <time>2015-06-24T13:54:12Z</time>
      </trkpt>
      <trkpt lat="43.38673" lon="6.09405">
        <ele>287.39999389648</ele>
        <time>2015-06-24T13:54:14Z</time>
      </trkpt>
      <trkpt lat="43.38673" lon="6.09405">
        <ele>286.79998779297</ele>
        <time>2015-06-24T13:54:16Z</time>
      </trkpt>
      <trkpt lat="43.38673" lon="6.09406">
        <ele>286.60000610352</ele>
        <time>2015-06-24T13:54:18Z</time>
      </trkpt>
      <trkpt lat="43.38673" lon="6.09405">
        <ele>286.60000610352</ele>
        <time>2015-06-24T13:54:24Z</time>
      </trkpt>
      <trkpt lat="43.38673" lon="6.09405">
        <ele>286.79998779297</ele>
        <time>2015-06-24T13:54:28Z</time>
      </trkpt>
      <trkpt lat="43.38674" lon="6.09405">
        <ele>286.60000610352</ele>
        <time>2015-06-24T13:54:30Z</time>
      </trkpt>
      <trkpt lat="43.38672" lon="6.09406">
        <ele>286.60000610352</ele>
        <time>2015-06-24T13:54:32Z</time>
      </trkpt>
      <trkpt lat="43.38669" lon="6.09406">
        <ele>286.39999389648</ele>
        <time>2015-06-24T13:54:34Z</time>
      </trkpt>
      <trkpt lat="43.38666" lon="6.09407">
        <ele>285.79998779297</ele>
        <time>2015-06-24T13:54:35Z</time>
      </trkpt>
      <trkpt lat="43.38665" lon="6.09409">
        <ele>285.39999389648</ele>
        <time>2015-06-24T13:54:36Z</time>
      </trkpt>
      <trkpt lat="43.38663" lon="6.09411">
        <ele>285</ele>
        <time>2015-06-24T13:54:37Z</time>
      </trkpt>
      <trkpt lat="43.38663" lon="6.09413">
        <ele>284.60000610352</ele>
        <time>2015-06-24T13:54:38Z</time>
      </trkpt>
      <trkpt lat="43.38663" lon="6.09417">
        <ele>284.20001220703</ele>
        <time>2015-06-24T13:54:40Z</time>
      </trkpt>
      <trkpt lat="43.38662" lon="6.09419">
        <ele>284</ele>
        <time>2015-06-24T13:54:41Z</time>
      </trkpt>
      <trkpt lat="43.38661" lon="6.0942">
        <ele>283.60000610352</ele>
        <time>2015-06-24T13:54:42Z</time>
      </trkpt>
      <trkpt lat="43.38655" lon="6.09421">
        <ele>283</ele>
        <time>2015-06-24T13:54:44Z</time>
      </trkpt>
      <trkpt lat="43.38651" lon="6.09422">
        <ele>282</ele>
        <time>2015-06-24T13:54:46Z</time>
      </trkpt>
      <trkpt lat="43.38647" lon="6.09421">
        <ele>281</ele>
        <time>2015-06-24T13:54:48Z</time>
      </trkpt>
      <trkpt lat="43.38645" lon="6.09421">
        <ele>280.60000610352</ele>
        <time>2015-06-24T13:54:49Z</time>
      </trkpt>
      <trkpt lat="43.38639" lon="6.09424">
        <ele>279.39999389648</ele>
        <time>2015-06-24T13:54:52Z</time>
      </trkpt>
      <trkpt lat="43.38639" lon="6.09425">
        <ele>279.20001220703</ele>
        <time>2015-06-24T13:54:53Z</time>
      </trkpt>
      <trkpt lat="43.38637" lon="6.09425">
        <ele>278.60000610352</ele>
        <time>2015-06-24T13:54:54Z</time>
      </trkpt>
      <trkpt lat="43.38636" lon="6.09426">
        <ele>278.20001220703</ele>
        <time>2015-06-24T13:54:55Z</time>
      </trkpt>
      <trkpt lat="43.38635" lon="6.09428">
        <ele>278</ele>
        <time>2015-06-24T13:54:56Z</time>
      </trkpt>
      <trkpt lat="43.38635" lon="6.09432">
        <ele>277.79998779297</ele>
        <time>2015-06-24T13:54:57Z</time>
      </trkpt>
      <trkpt lat="43.38635" lon="6.09436">
        <ele>277.60000610352</ele>
        <time>2015-06-24T13:54:58Z</time>
      </trkpt>
      <trkpt lat="43.38634" lon="6.09445">
        <ele>277</ele>
        <time>2015-06-24T13:55:00Z</time>
      </trkpt>
      <trkpt lat="43.38633" lon="6.09453">
        <ele>276.39999389648</ele>
        <time>2015-06-24T13:55:02Z</time>
      </trkpt>
      <trkpt lat="43.38632" lon="6.0946">
        <ele>276.39999389648</ele>
        <time>2015-06-24T13:55:04Z</time>
      </trkpt>
      <trkpt lat="43.3863" lon="6.09464">
        <ele>276.39999389648</ele>
        <time>2015-06-24T13:55:05Z</time>
      </trkpt>
      <trkpt lat="43.38628" lon="6.09465">
        <ele>276</ele>
        <time>2015-06-24T13:55:06Z</time>
      </trkpt>
      <trkpt lat="43.38625" lon="6.09464">
        <ele>274.79998779297</ele>
        <time>2015-06-24T13:55:08Z</time>
      </trkpt>
      <trkpt lat="43.38625" lon="6.09459">
        <ele>274.20001220703</ele>
        <time>2015-06-24T13:55:10Z</time>
      </trkpt>
      <trkpt lat="43.38624" lon="6.09458">
        <ele>274.20001220703</ele>
        <time>2015-06-24T13:55:11Z</time>
      </trkpt>
      <trkpt lat="43.38623" lon="6.09457">
        <ele>274.20001220703</ele>
        <time>2015-06-24T13:55:12Z</time>
      </trkpt>
      <trkpt lat="43.38622" lon="6.09457">
        <ele>274.20001220703</ele>
        <time>2015-06-24T13:55:14Z</time>
      </trkpt>
      <trkpt lat="43.3862" lon="6.0946">
        <ele>274.20001220703</ele>
        <time>2015-06-24T13:55:16Z</time>
      </trkpt>
      <trkpt lat="43.3862" lon="6.09464">
        <ele>274.20001220703</ele>
        <time>2015-06-24T13:55:18Z</time>
      </trkpt>
      <trkpt lat="43.3862" lon="6.09465">
        <ele>274.20001220703</ele>
        <time>2015-06-24T13:55:20Z</time>
      </trkpt>
      <trkpt lat="43.3862" lon="6.09465">
        <ele>274.20001220703</ele>
        <time>2015-06-24T13:55:21Z</time>
      </trkpt>
      <trkpt lat="43.3862" lon="6.09466">
        <ele>274.20001220703</ele>
        <time>2015-06-24T13:55:22Z</time>
      </trkpt>
      <trkpt lat="43.3862" lon="6.09467">
        <ele>274.20001220703</ele>
        <time>2015-06-24T13:55:24Z</time>
      </trkpt>
      <trkpt lat="43.3862" lon="6.09469">
        <ele>274.20001220703</ele>
        <time>2015-06-24T13:55:26Z</time>
      </trkpt>
      <trkpt lat="43.38622" lon="6.09471">
        <ele>274.20001220703</ele>
        <time>2015-06-24T13:55:28Z</time>
      </trkpt>
      <trkpt lat="43.38622" lon="6.09475">
        <ele>274.20001220703</ele>
        <time>2015-06-24T13:55:30Z</time>
      </trkpt>
      <trkpt lat="43.38621" lon="6.09482">
        <ele>274.20001220703</ele>
        <time>2015-06-24T13:55:32Z</time>
      </trkpt>
      <trkpt lat="43.3862" lon="6.09491">
        <ele>274.39999389648</ele>
        <time>2015-06-24T13:55:34Z</time>
      </trkpt>
      <trkpt lat="43.3862" lon="6.09499">
        <ele>274.60000610352</ele>
        <time>2015-06-24T13:55:36Z</time>
      </trkpt>
      <trkpt lat="43.3862" lon="6.09507">
        <ele>274.79998779297</ele>
        <time>2015-06-24T13:55:38Z</time>
      </trkpt>
      <trkpt lat="43.3862" lon="6.09513">
        <ele>275</ele>
        <time>2015-06-24T13:55:40Z</time>
      </trkpt>
      <trkpt lat="43.3862" lon="6.0952">
        <ele>275.60000610352</ele>
        <time>2015-06-24T13:55:42Z</time>
      </trkpt>
      <trkpt lat="43.38622" lon="6.09523">
        <ele>275.79998779297</ele>
        <time>2015-06-24T13:55:43Z</time>
      </trkpt>
      <trkpt lat="43.38623" lon="6.09534">
        <ele>276.20001220703</ele>
        <time>2015-06-24T13:55:46Z</time>
      </trkpt>
      <trkpt lat="43.38624" lon="6.09542">
        <ele>276.20001220703</ele>
        <time>2015-06-24T13:55:48Z</time>
      </trkpt>
      <trkpt lat="43.38624" lon="6.09551">
        <ele>276.39999389648</ele>
        <time>2015-06-24T13:55:50Z</time>
      </trkpt>
      <trkpt lat="43.38624" lon="6.09566">
        <ele>277</ele>
        <time>2015-06-24T13:55:54Z</time>
      </trkpt>
      <trkpt lat="43.38624" lon="6.09574">
        <ele>277.20001220703</ele>
        <time>2015-06-24T13:55:56Z</time>
      </trkpt>
      <trkpt lat="43.38622" lon="6.09591">
        <ele>277.20001220703</ele>
        <time>2015-06-24T13:56:00Z</time>
      </trkpt>
      <trkpt lat="43.38621" lon="6.09601">
        <ele>276.79998779297</ele>
        <time>2015-06-24T13:56:02Z</time>
      </trkpt>
      <trkpt lat="43.38619" lon="6.09611">
        <ele>276.60000610352</ele>
        <time>2015-06-24T13:56:04Z</time>
      </trkpt>
      <trkpt lat="43.38618" lon="6.09616">
        <ele>276.39999389648</ele>
        <time>2015-06-24T13:56:05Z</time>
      </trkpt>
      <trkpt lat="43.38617" lon="6.09621">
        <ele>276</ele>
        <time>2015-06-24T13:56:06Z</time>
      </trkpt>
      <trkpt lat="43.38615" lon="6.09627">
        <ele>275.79998779297</ele>
        <time>2015-06-24T13:56:07Z</time>
      </trkpt>
      <trkpt lat="43.38615" lon="6.09632">
        <ele>275.60000610352</ele>
        <time>2015-06-24T13:56:08Z</time>
      </trkpt>
      <trkpt lat="43.38611" lon="6.09653">
        <ele>274.79998779297</ele>
        <time>2015-06-24T13:56:12Z</time>
      </trkpt>
      <trkpt lat="43.38609" lon="6.09663">
        <ele>274.60000610352</ele>
        <time>2015-06-24T13:56:14Z</time>
      </trkpt>
      <trkpt lat="43.38607" lon="6.0967">
        <ele>274.20001220703</ele>
        <time>2015-06-24T13:56:16Z</time>
      </trkpt>
      <trkpt lat="43.38606" lon="6.09672">
        <ele>274</ele>
        <time>2015-06-24T13:56:17Z</time>
      </trkpt>
      <trkpt lat="43.38605" lon="6.09673">
        <ele>273.79998779297</ele>
        <time>2015-06-24T13:56:18Z</time>
      </trkpt>
      <trkpt lat="43.38601" lon="6.09675">
        <ele>273.39999389648</ele>
        <time>2015-06-24T13:56:20Z</time>
      </trkpt>
      <trkpt lat="43.38596" lon="6.09674">
        <ele>272.60000610352</ele>
        <time>2015-06-24T13:56:22Z</time>
      </trkpt>
      <trkpt lat="43.38588" lon="6.09676">
        <ele>272</ele>
        <time>2015-06-24T13:56:24Z</time>
      </trkpt>
      <trkpt lat="43.38584" lon="6.09675">
        <ele>271.79998779297</ele>
        <time>2015-06-24T13:56:26Z</time>
      </trkpt>
      <trkpt lat="43.3858" lon="6.09674">
        <ele>271.39999389648</ele>
        <time>2015-06-24T13:56:28Z</time>
      </trkpt>
      <trkpt lat="43.38577" lon="6.09674">
        <ele>271.20001220703</ele>
        <time>2015-06-24T13:56:30Z</time>
      </trkpt>
      <trkpt lat="43.38573" lon="6.09674">
        <ele>271</ele>
        <time>2015-06-24T13:56:32Z</time>
      </trkpt>
      <trkpt lat="43.38571" lon="6.09674">
        <ele>270.79998779297</ele>
        <time>2015-06-24T13:56:33Z</time>
      </trkpt>
      <trkpt lat="43.38568" lon="6.09675">
        <ele>271</ele>
        <time>2015-06-24T13:56:34Z</time>
      </trkpt>
      <trkpt lat="43.38566" lon="6.09674">
        <ele>271</ele>
        <time>2015-06-24T13:56:36Z</time>
      </trkpt>
      <trkpt lat="43.38564" lon="6.09673">
        <ele>271</ele>
        <time>2015-06-24T13:56:38Z</time>
      </trkpt>
      <trkpt lat="43.38564" lon="6.09673">
        <ele>270.79998779297</ele>
        <time>2015-06-24T13:56:39Z</time>
      </trkpt>
      <trkpt lat="43.38564" lon="6.09673">
        <ele>270.60000610352</ele>
        <time>2015-06-24T13:56:40Z</time>
      </trkpt>
      <trkpt lat="43.38563" lon="6.09674">
        <ele>270.39999389648</ele>
        <time>2015-06-24T13:56:42Z</time>
      </trkpt>
      <trkpt lat="43.38563" lon="6.09674">
        <ele>270.39999389648</ele>
        <time>2015-06-24T13:56:44Z</time>
      </trkpt>
      <trkpt lat="43.38563" lon="6.09675">
        <ele>270.20001220703</ele>
        <time>2015-06-24T13:56:46Z</time>
      </trkpt>
      <trkpt lat="43.38563" lon="6.09675">
        <ele>270.79998779297</ele>
        <time>2015-06-24T13:56:48Z</time>
      </trkpt>
      <trkpt lat="43.38564" lon="6.09677">
        <ele>271</ele>
        <time>2015-06-24T13:56:52Z</time>
      </trkpt>
      <trkpt lat="43.38564" lon="6.09677">
        <ele>271</ele>
        <time>2015-06-24T13:56:53Z</time>
      </trkpt>
      <trkpt lat="43.38564" lon="6.09677">
        <ele>271</ele>
        <time>2015-06-24T13:56:54Z</time>
      </trkpt>
      <trkpt lat="43.38564" lon="6.09678">
        <ele>271</ele>
        <time>2015-06-24T13:56:56Z</time>
      </trkpt>
      <trkpt lat="43.38565" lon="6.09678">
        <ele>271</ele>
        <time>2015-06-24T13:57:00Z</time>
      </trkpt>
      <trkpt lat="43.38565" lon="6.09678">
        <ele>270.79998779297</ele>
        <time>2015-06-24T13:57:02Z</time>
      </trkpt>
      <trkpt lat="43.38564" lon="6.09678">
        <ele>270.79998779297</ele>
        <time>2015-06-24T13:57:04Z</time>
      </trkpt>
      <trkpt lat="43.38564" lon="6.09678">
        <ele>270.79998779297</ele>
        <time>2015-06-24T13:57:06Z</time>
      </trkpt>
      <trkpt lat="43.38564" lon="6.09678">
        <ele>270.79998779297</ele>
        <time>2015-06-24T13:57:08Z</time>
      </trkpt>
      <trkpt lat="43.38563" lon="6.09676">
        <ele>271</ele>
        <time>2015-06-24T13:57:10Z</time>
      </trkpt>
      <trkpt lat="43.38565" lon="6.09676">
        <ele>271</ele>
        <time>2015-06-24T13:57:12Z</time>
      </trkpt>
      <trkpt lat="43.38567" lon="6.09675">
        <ele>271.20001220703</ele>
        <time>2015-06-24T13:57:14Z</time>
      </trkpt>
      <trkpt lat="43.38569" lon="6.09676">
        <ele>271.20001220703</ele>
        <time>2015-06-24T13:57:16Z</time>
      </trkpt>
      <trkpt lat="43.38572" lon="6.09677">
        <ele>271.39999389648</ele>
        <time>2015-06-24T13:57:18Z</time>
      </trkpt>
      <trkpt lat="43.38575" lon="6.09676">
        <ele>271.39999389648</ele>
        <time>2015-06-24T13:57:20Z</time>
      </trkpt>
      <trkpt lat="43.38578" lon="6.09678">
        <ele>271.60000610352</ele>
        <time>2015-06-24T13:57:22Z</time>
      </trkpt>
      <trkpt lat="43.38578" lon="6.09679">
        <ele>271.79998779297</ele>
        <time>2015-06-24T13:57:23Z</time>
      </trkpt>
      <trkpt lat="43.38579" lon="6.09681">
        <ele>271.79998779297</ele>
        <time>2015-06-24T13:57:24Z</time>
      </trkpt>
      <trkpt lat="43.38578" lon="6.09685">
        <ele>272.20001220703</ele>
        <time>2015-06-24T13:57:26Z</time>
      </trkpt>
      <trkpt lat="43.38578" lon="6.09687">
        <ele>272</ele>
        <time>2015-06-24T13:57:27Z</time>
      </trkpt>
      <trkpt lat="43.38579" lon="6.09689">
        <ele>271.79998779297</ele>
        <time>2015-06-24T13:57:28Z</time>
      </trkpt>
      <trkpt lat="43.3858" lon="6.0969">
        <ele>272</ele>
        <time>2015-06-24T13:57:31Z</time>
      </trkpt>
      <trkpt lat="43.3858" lon="6.0969">
        <ele>272.20001220703</ele>
        <time>2015-06-24T13:57:32Z</time>
      </trkpt>
      <trkpt lat="43.38578" lon="6.09691">
        <ele>272.20001220703</ele>
        <time>2015-06-24T13:57:34Z</time>
      </trkpt>
      <trkpt lat="43.38578" lon="6.09692">
        <ele>272</ele>
        <time>2015-06-24T13:57:36Z</time>
      </trkpt>
      <trkpt lat="43.38577" lon="6.09691">
        <ele>272</ele>
        <time>2015-06-24T13:57:38Z</time>
      </trkpt>
      <trkpt lat="43.38578" lon="6.0969">
        <ele>272</ele>
        <time>2015-06-24T13:57:40Z</time>
      </trkpt>
      <trkpt lat="43.3858" lon="6.09691">
        <ele>272.20001220703</ele>
        <time>2015-06-24T13:57:42Z</time>
      </trkpt>
      <trkpt lat="43.3858" lon="6.09691">
        <ele>272.20001220703</ele>
        <time>2015-06-24T13:57:43Z</time>
      </trkpt>
      <trkpt lat="43.3858" lon="6.09692">
        <ele>272.20001220703</ele>
        <time>2015-06-24T13:57:44Z</time>
      </trkpt>
      <trkpt lat="43.3858" lon="6.09691">
        <ele>271.79998779297</ele>
        <time>2015-06-24T13:57:46Z</time>
      </trkpt>
      <trkpt lat="43.3858" lon="6.0969">
        <ele>272</ele>
        <time>2015-06-24T13:57:48Z</time>
      </trkpt>
      <trkpt lat="43.3858" lon="6.09689">
        <ele>272</ele>
        <time>2015-06-24T13:57:50Z</time>
      </trkpt>
      <trkpt lat="43.3858" lon="6.09689">
        <ele>271.79998779297</ele>
        <time>2015-06-24T13:57:52Z</time>
      </trkpt>
      <trkpt lat="43.3858" lon="6.09689">
        <ele>271.79998779297</ele>
        <time>2015-06-24T13:57:53Z</time>
      </trkpt>
      <trkpt lat="43.3858" lon="6.09688">
        <ele>271.79998779297</ele>
        <time>2015-06-24T13:57:56Z</time>
      </trkpt>
      <trkpt lat="43.3858" lon="6.09688">
        <ele>271.79998779297</ele>
        <time>2015-06-24T13:57:58Z</time>
      </trkpt>
      <trkpt lat="43.3858" lon="6.09688">
        <ele>271.79998779297</ele>
        <time>2015-06-24T13:58:00Z</time>
      </trkpt>
      <trkpt lat="43.3858" lon="6.09688">
        <ele>271.79998779297</ele>
        <time>2015-06-24T13:58:02Z</time>
      </trkpt>
      <trkpt lat="43.38581" lon="6.09687">
        <ele>271.79998779297</ele>
        <time>2015-06-24T13:58:04Z</time>
      </trkpt>
      <trkpt lat="43.38581" lon="6.09687">
        <ele>271.79998779297</ele>
        <time>2015-06-24T13:58:05Z</time>
      </trkpt>
      <trkpt lat="43.3858" lon="6.09687">
        <ele>271.79998779297</ele>
        <time>2015-06-24T13:58:06Z</time>
      </trkpt>
      <trkpt lat="43.38581" lon="6.09684">
        <ele>271.60000610352</ele>
        <time>2015-06-24T13:58:08Z</time>
      </trkpt>
      <trkpt lat="43.38582" lon="6.09683">
        <ele>271.60000610352</ele>
        <time>2015-06-24T13:58:09Z</time>
      </trkpt>
      <trkpt lat="43.38583" lon="6.09683">
        <ele>271.60000610352</ele>
        <time>2015-06-24T13:58:10Z</time>
      </trkpt>
      <trkpt lat="43.38584" lon="6.09683">
        <ele>271.60000610352</ele>
        <time>2015-06-24T13:58:11Z</time>
      </trkpt>
      <trkpt lat="43.38585" lon="6.09683">
        <ele>271.79998779297</ele>
        <time>2015-06-24T13:58:12Z</time>
      </trkpt>
      <trkpt lat="43.38588" lon="6.09685">
        <ele>272.20001220703</ele>
        <time>2015-06-24T13:58:14Z</time>
      </trkpt>
      <trkpt lat="43.38589" lon="6.09688">
        <ele>272.39999389648</ele>
        <time>2015-06-24T13:58:16Z</time>
      </trkpt>
      <trkpt lat="43.38589" lon="6.0969">
        <ele>272.60000610352</ele>
        <time>2015-06-24T13:58:17Z</time>
      </trkpt>
      <trkpt lat="43.38589" lon="6.0969">
        <ele>272.60000610352</ele>
        <time>2015-06-24T13:58:18Z</time>
      </trkpt>
      <trkpt lat="43.3859" lon="6.09691">
        <ele>272.79998779297</ele>
        <time>2015-06-24T13:58:20Z</time>
      </trkpt>
      <trkpt lat="43.3859" lon="6.09691">
        <ele>272.79998779297</ele>
        <time>2015-06-24T13:58:22Z</time>
      </trkpt>
      <trkpt lat="43.3859" lon="6.09691">
        <ele>272.79998779297</ele>
        <time>2015-06-24T13:58:23Z</time>
      </trkpt>
      <trkpt lat="43.3859" lon="6.09691">
        <ele>272.60000610352</ele>
        <time>2015-06-24T13:58:24Z</time>
      </trkpt>
      <trkpt lat="43.3859" lon="6.0969">
        <ele>272.60000610352</ele>
        <time>2015-06-24T13:58:26Z</time>
      </trkpt>
      <trkpt lat="43.3859" lon="6.09689">
        <ele>272.79998779297</ele>
        <time>2015-06-24T13:58:28Z</time>
      </trkpt>
      <trkpt lat="43.3859" lon="6.09688">
        <ele>272.60000610352</ele>
        <time>2015-06-24T13:58:29Z</time>
      </trkpt>
      <trkpt lat="43.3859" lon="6.09688">
        <ele>272.60000610352</ele>
        <time>2015-06-24T13:58:30Z</time>
      </trkpt>
      <trkpt lat="43.38589" lon="6.09686">
        <ele>272.60000610352</ele>
        <time>2015-06-24T13:58:32Z</time>
      </trkpt>
      <trkpt lat="43.38588" lon="6.09685">
        <ele>272.39999389648</ele>
        <time>2015-06-24T13:58:34Z</time>
      </trkpt>
      <trkpt lat="43.38587" lon="6.09684">
        <ele>272.39999389648</ele>
        <time>2015-06-24T13:58:36Z</time>
      </trkpt>
      <trkpt lat="43.38585" lon="6.09683">
        <ele>272.20001220703</ele>
        <time>2015-06-24T13:58:38Z</time>
      </trkpt>
      <trkpt lat="43.38584" lon="6.09683">
        <ele>272</ele>
        <time>2015-06-24T13:58:40Z</time>
      </trkpt>
      <trkpt lat="43.38582" lon="6.09682">
        <ele>272</ele>
        <time>2015-06-24T13:58:44Z</time>
      </trkpt>
      <trkpt lat="43.38581" lon="6.09683">
        <ele>271.79998779297</ele>
        <time>2015-06-24T13:58:48Z</time>
      </trkpt>
      <trkpt lat="43.38581" lon="6.09684">
        <ele>271.60000610352</ele>
        <time>2015-06-24T13:58:52Z</time>
      </trkpt>
      <trkpt lat="43.38581" lon="6.09685">
        <ele>271.79998779297</ele>
        <time>2015-06-24T13:58:54Z</time>
      </trkpt>
      <trkpt lat="43.38581" lon="6.09686">
        <ele>271.60000610352</ele>
        <time>2015-06-24T13:58:55Z</time>
      </trkpt>
      <trkpt lat="43.38581" lon="6.09686">
        <ele>271.79998779297</ele>
        <time>2015-06-24T13:58:56Z</time>
      </trkpt>
      <trkpt lat="43.38581" lon="6.09688">
        <ele>271.79998779297</ele>
        <time>2015-06-24T13:58:58Z</time>
      </trkpt>
      <trkpt lat="43.38581" lon="6.09688">
        <ele>271.60000610352</ele>
        <time>2015-06-24T13:59:00Z</time>
      </trkpt>
      <trkpt lat="43.38581" lon="6.09688">
        <ele>271.60000610352</ele>
        <time>2015-06-24T13:59:02Z</time>
      </trkpt>
      <trkpt lat="43.38581" lon="6.09688">
        <ele>271.60000610352</ele>
        <time>2015-06-24T13:59:04Z</time>
      </trkpt>
      <trkpt lat="43.38581" lon="6.09688">
        <ele>271.39999389648</ele>
        <time>2015-06-24T13:59:06Z</time>
      </trkpt>
      <trkpt lat="43.38581" lon="6.09688">
        <ele>271.39999389648</ele>
        <time>2015-06-24T13:59:10Z</time>
      </trkpt>
      <trkpt lat="43.38581" lon="6.09687">
        <ele>271.60000610352</ele>
        <time>2015-06-24T13:59:12Z</time>
      </trkpt>
      <trkpt lat="43.38581" lon="6.09687">
        <ele>271.60000610352</ele>
        <time>2015-06-24T13:59:14Z</time>
      </trkpt>
      <trkpt lat="43.38581" lon="6.09688">
        <ele>271.60000610352</ele>
        <time>2015-06-24T13:59:16Z</time>
      </trkpt>
      <trkpt lat="43.38581" lon="6.09688">
        <ele>271.39999389648</ele>
        <time>2015-06-24T13:59:18Z</time>
      </trkpt>
      <trkpt lat="43.38581" lon="6.09688">
        <ele>271.60000610352</ele>
        <time>2015-06-24T13:59:20Z</time>
      </trkpt>
      <trkpt lat="43.38581" lon="6.09688">
        <ele>271.39999389648</ele>
        <time>2015-06-24T13:59:22Z</time>
      </trkpt>
      <trkpt lat="43.3858" lon="6.09688">
        <ele>271.39999389648</ele>
        <time>2015-06-24T13:59:24Z</time>
      </trkpt>
      <trkpt lat="43.38581" lon="6.09689">
        <ele>271.39999389648</ele>
        <time>2015-06-24T13:59:26Z</time>
      </trkpt>
      <trkpt lat="43.38581" lon="6.09689">
        <ele>271.60000610352</ele>
        <time>2015-06-24T13:59:30Z</time>
      </trkpt>
      <trkpt lat="43.38581" lon="6.0969">
        <ele>271.39999389648</ele>
        <time>2015-06-24T13:59:34Z</time>
      </trkpt>
      <trkpt lat="43.38581" lon="6.0969">
        <ele>271.60000610352</ele>
        <time>2015-06-24T13:59:36Z</time>
      </trkpt>
      <trkpt lat="43.38581" lon="6.0969">
        <ele>271.60000610352</ele>
        <time>2015-06-24T13:59:38Z</time>
      </trkpt>
      <trkpt lat="43.38581" lon="6.0969">
        <ele>271.60000610352</ele>
        <time>2015-06-24T13:59:40Z</time>
      </trkpt>
      <trkpt lat="43.38581" lon="6.0969">
        <ele>271.60000610352</ele>
        <time>2015-06-24T13:59:44Z</time>
      </trkpt>
      <trkpt lat="43.38581" lon="6.09691">
        <ele>271.60000610352</ele>
        <time>2015-06-24T13:59:48Z</time>
      </trkpt>
      <trkpt lat="43.38581" lon="6.09691">
        <ele>271.60000610352</ele>
        <time>2015-06-24T13:59:50Z</time>
      </trkpt>
      <trkpt lat="43.38581" lon="6.09692">
        <ele>271.60000610352</ele>
        <time>2015-06-24T13:59:52Z</time>
      </trkpt>
      <trkpt lat="43.38581" lon="6.09692">
        <ele>271.60000610352</ele>
        <time>2015-06-24T13:59:54Z</time>
      </trkpt>
      <trkpt lat="43.38582" lon="6.09692">
        <ele>271.60000610352</ele>
        <time>2015-06-24T13:59:56Z</time>
      </trkpt>
      <trkpt lat="43.38581" lon="6.09692">
        <ele>271.60000610352</ele>
        <time>2015-06-24T13:59:59Z</time>
      </trkpt>
      <trkpt lat="43.38582" lon="6.09693">
        <ele>271.60000610352</ele>
        <time>2015-06-24T14:00:00Z</time>
      </trkpt>
      <trkpt lat="43.38581" lon="6.09693">
        <ele>271.60000610352</ele>
        <time>2015-06-24T14:00:02Z</time>
      </trkpt>
      <trkpt lat="43.38581" lon="6.09693">
        <ele>271.60000610352</ele>
        <time>2015-06-24T14:00:06Z</time>
      </trkpt>
      <trkpt lat="43.38581" lon="6.09693">
        <ele>271.39999389648</ele>
        <time>2015-06-24T14:00:08Z</time>
      </trkpt>
      <trkpt lat="43.38581" lon="6.09693">
        <ele>271.39999389648</ele>
        <time>2015-06-24T14:00:10Z</time>
      </trkpt>
      <trkpt lat="43.38581" lon="6.09693">
        <ele>271.60000610352</ele>
        <time>2015-06-24T14:00:12Z</time>
      </trkpt>
      <trkpt lat="43.38581" lon="6.09693">
        <ele>271.60000610352</ele>
        <time>2015-06-24T14:00:14Z</time>
      </trkpt>
      <trkpt lat="43.38581" lon="6.09694">
        <ele>271.60000610352</ele>
        <time>2015-06-24T14:00:18Z</time>
      </trkpt>
      <trkpt lat="43.38581" lon="6.09694">
        <ele>271.79998779297</ele>
        <time>2015-06-24T14:00:22Z</time>
      </trkpt>
      <trkpt lat="43.38581" lon="6.09694">
        <ele>271.79998779297</ele>
        <time>2015-06-24T14:00:26Z</time>
      </trkpt>
      <trkpt lat="43.38581" lon="6.09694">
        <ele>271.79998779297</ele>
        <time>2015-06-24T14:00:30Z</time>
      </trkpt>
      <trkpt lat="43.38581" lon="6.09695">
        <ele>271.79998779297</ele>
        <time>2015-06-24T14:00:32Z</time>
      </trkpt>
      <trkpt lat="43.38581" lon="6.09695">
        <ele>271.79998779297</ele>
        <time>2015-06-24T14:00:34Z</time>
      </trkpt>
      <trkpt lat="43.38581" lon="6.09695">
        <ele>271.79998779297</ele>
        <time>2015-06-24T14:00:38Z</time>
      </trkpt>
      <trkpt lat="43.38581" lon="6.09696">
        <ele>271.79998779297</ele>
        <time>2015-06-24T14:00:40Z</time>
      </trkpt>
      <trkpt lat="43.38581" lon="6.09696">
        <ele>271.79998779297</ele>
        <time>2015-06-24T14:00:42Z</time>
      </trkpt>
      <trkpt lat="43.38581" lon="6.09696">
        <ele>271.79998779297</ele>
        <time>2015-06-24T14:00:44Z</time>
      </trkpt>
      <trkpt lat="43.38581" lon="6.09696">
        <ele>271.60000610352</ele>
        <time>2015-06-24T14:00:46Z</time>
      </trkpt>
      <trkpt lat="43.38581" lon="6.09696">
        <ele>271.60000610352</ele>
        <time>2015-06-24T14:00:47Z</time>
      </trkpt>
      <trkpt lat="43.38581" lon="6.09696">
        <ele>271.60000610352</ele>
        <time>2015-06-24T14:00:50Z</time>
      </trkpt>
      <trkpt lat="43.38581" lon="6.09696">
        <ele>271.79998779297</ele>
        <time>2015-06-24T14:00:52Z</time>
      </trkpt>
      <trkpt lat="43.38581" lon="6.09696">
        <ele>271.79998779297</ele>
        <time>2015-06-24T14:00:54Z</time>
      </trkpt>
      <trkpt lat="43.38581" lon="6.09696">
        <ele>272</ele>
        <time>2015-06-24T14:00:55Z</time>
      </trkpt>
      <trkpt lat="43.38581" lon="6.09697">
        <ele>272</ele>
        <time>2015-06-24T14:00:56Z</time>
      </trkpt>
      <trkpt lat="43.38581" lon="6.09697">
        <ele>272</ele>
        <time>2015-06-24T14:00:58Z</time>
      </trkpt>
      <trkpt lat="43.38581" lon="6.09697">
        <ele>272.20001220703</ele>
        <time>2015-06-24T14:01:02Z</time>
      </trkpt>
      <trkpt lat="43.38581" lon="6.09697">
        <ele>272</ele>
        <time>2015-06-24T14:01:08Z</time>
      </trkpt>
      <trkpt lat="43.38581" lon="6.09697">
        <ele>272</ele>
        <time>2015-06-24T14:01:10Z</time>
      </trkpt>
      <trkpt lat="43.38581" lon="6.09697">
        <ele>272</ele>
        <time>2015-06-24T14:01:12Z</time>
      </trkpt>
      <trkpt lat="43.38581" lon="6.09697">
        <ele>272</ele>
        <time>2015-06-24T14:01:14Z</time>
      </trkpt>
      <trkpt lat="43.38581" lon="6.09698">
        <ele>272</ele>
        <time>2015-06-24T14:01:18Z</time>
      </trkpt>
      <trkpt lat="43.38581" lon="6.09698">
        <ele>272</ele>
        <time>2015-06-24T14:01:24Z</time>
      </trkpt>
      <trkpt lat="43.38581" lon="6.09698">
        <ele>272</ele>
        <time>2015-06-24T14:01:26Z</time>
      </trkpt>
      <trkpt lat="43.38581" lon="6.09698">
        <ele>272</ele>
        <time>2015-06-24T14:01:28Z</time>
      </trkpt>
      <trkpt lat="43.38581" lon="6.09698">
        <ele>271.79998779297</ele>
        <time>2015-06-24T14:01:32Z</time>
      </trkpt>
      <trkpt lat="43.38581" lon="6.09698">
        <ele>271.79998779297</ele>
        <time>2015-06-24T14:01:34Z</time>
      </trkpt>
      <trkpt lat="43.38581" lon="6.09698">
        <ele>271.79998779297</ele>
        <time>2015-06-24T14:01:36Z</time>
      </trkpt>
      <trkpt lat="43.38581" lon="6.09698">
        <ele>271.79998779297</ele>
        <time>2015-06-24T14:01:38Z</time>
      </trkpt>
      <trkpt lat="43.38581" lon="6.09698">
        <ele>271.79998779297</ele>
        <time>2015-06-24T14:01:40Z</time>
      </trkpt>
      <trkpt lat="43.38581" lon="6.09698">
        <ele>271.79998779297</ele>
        <time>2015-06-24T14:01:42Z</time>
      </trkpt>
      <trkpt lat="43.38581" lon="6.09698">
        <ele>271.79998779297</ele>
        <time>2015-06-24T14:01:44Z</time>
      </trkpt>
      <trkpt lat="43.38581" lon="6.09698">
        <ele>272</ele>
        <time>2015-06-24T14:01:48Z</time>
      </trkpt>
      <trkpt lat="43.38581" lon="6.09698">
        <ele>271.79998779297</ele>
        <time>2015-06-24T14:01:50Z</time>
      </trkpt>
      <trkpt lat="43.38581" lon="6.09698">
        <ele>271.79998779297</ele>
        <time>2015-06-24T14:01:52Z</time>
      </trkpt>
      <trkpt lat="43.38581" lon="6.09698">
        <ele>271.79998779297</ele>
        <time>2015-06-24T14:01:53Z</time>
      </trkpt>
      <trkpt lat="43.38581" lon="6.09698">
        <ele>271.79998779297</ele>
        <time>2015-06-24T14:01:54Z</time>
      </trkpt>
      <trkpt lat="43.38581" lon="6.09698">
        <ele>271.79998779297</ele>
        <time>2015-06-24T14:01:56Z</time>
      </trkpt>
      <trkpt lat="43.38581" lon="6.09698">
        <ele>271.60000610352</ele>
        <time>2015-06-24T14:01:58Z</time>
      </trkpt>
      <trkpt lat="43.38582" lon="6.09698">
        <ele>271.39999389648</ele>
        <time>2015-06-24T14:02:00Z</time>
      </trkpt>
      <trkpt lat="43.38582" lon="6.09698">
        <ele>271.39999389648</ele>
        <time>2015-06-24T14:02:02Z</time>
      </trkpt>
      <trkpt lat="43.38582" lon="6.09698">
        <ele>271.60000610352</ele>
        <time>2015-06-24T14:02:04Z</time>
      </trkpt>
      <trkpt lat="43.38582" lon="6.09699">
        <ele>271.60000610352</ele>
        <time>2015-06-24T14:02:06Z</time>
      </trkpt>
      <trkpt lat="43.38582" lon="6.09698">
        <ele>271.60000610352</ele>
        <time>2015-06-24T14:02:07Z</time>
      </trkpt>
      <trkpt lat="43.38582" lon="6.09698">
        <ele>271.60000610352</ele>
        <time>2015-06-24T14:02:10Z</time>
      </trkpt>
      <trkpt lat="43.38582" lon="6.09698">
        <ele>271.60000610352</ele>
        <time>2015-06-24T14:02:12Z</time>
      </trkpt>
      <trkpt lat="43.38582" lon="6.09698">
        <ele>271.60000610352</ele>
        <time>2015-06-24T14:02:14Z</time>
      </trkpt>
      <trkpt lat="43.38582" lon="6.09698">
        <ele>271.60000610352</ele>
        <time>2015-06-24T14:02:16Z</time>
      </trkpt>
      <trkpt lat="43.38582" lon="6.09698">
        <ele>271.60000610352</ele>
        <time>2015-06-24T14:02:18Z</time>
      </trkpt>
      <trkpt lat="43.38582" lon="6.09698">
        <ele>271.60000610352</ele>
        <time>2015-06-24T14:02:22Z</time>
      </trkpt>
      <trkpt lat="43.38582" lon="6.09698">
        <ele>271.79998779297</ele>
        <time>2015-06-24T14:02:28Z</time>
      </trkpt>
      <trkpt lat="43.38582" lon="6.09698">
        <ele>271.79998779297</ele>
        <time>2015-06-24T14:02:29Z</time>
      </trkpt>
      <trkpt lat="43.38582" lon="6.09698">
        <ele>271.79998779297</ele>
        <time>2015-06-24T14:02:30Z</time>
      </trkpt>
      <trkpt lat="43.38582" lon="6.09699">
        <ele>271.60000610352</ele>
        <time>2015-06-24T14:02:32Z</time>
      </trkpt>
      <trkpt lat="43.38582" lon="6.09699">
        <ele>271.79998779297</ele>
        <time>2015-06-24T14:02:34Z</time>
      </trkpt>
      <trkpt lat="43.38583" lon="6.09698">
        <ele>271.60000610352</ele>
        <time>2015-06-24T14:02:38Z</time>
      </trkpt>
      <trkpt lat="43.38583" lon="6.09698">
        <ele>271.39999389648</ele>
        <time>2015-06-24T14:02:42Z</time>
      </trkpt>
      <trkpt lat="43.38583" lon="6.09698">
        <ele>271.60000610352</ele>
        <time>2015-06-24T14:02:44Z</time>
      </trkpt>
      <trkpt lat="43.38582" lon="6.09698">
        <ele>271.79998779297</ele>
        <time>2015-06-24T14:02:48Z</time>
      </trkpt>
      <trkpt lat="43.38583" lon="6.09698">
        <ele>271.79998779297</ele>
        <time>2015-06-24T14:02:50Z</time>
      </trkpt>
      <trkpt lat="43.38583" lon="6.09698">
        <ele>271.79998779297</ele>
        <time>2015-06-24T14:02:52Z</time>
      </trkpt>
      <trkpt lat="43.38583" lon="6.09698">
        <ele>271.39999389648</ele>
        <time>2015-06-24T14:02:54Z</time>
      </trkpt>
      <trkpt lat="43.38582" lon="6.09697">
        <ele>271.60000610352</ele>
        <time>2015-06-24T14:02:57Z</time>
      </trkpt>
      <trkpt lat="43.38582" lon="6.09697">
        <ele>271.60000610352</ele>
        <time>2015-06-24T14:02:58Z</time>
      </trkpt>
      <trkpt lat="43.38582" lon="6.09697">
        <ele>271.39999389648</ele>
        <time>2015-06-24T14:03:00Z</time>
      </trkpt>
      <trkpt lat="43.38582" lon="6.09697">
        <ele>271.60000610352</ele>
        <time>2015-06-24T14:03:06Z</time>
      </trkpt>
      <trkpt lat="43.38582" lon="6.09697">
        <ele>271.60000610352</ele>
        <time>2015-06-24T14:03:08Z</time>
      </trkpt>
      <trkpt lat="43.38582" lon="6.09697">
        <ele>271.39999389648</ele>
        <time>2015-06-24T14:03:10Z</time>
      </trkpt>
      <trkpt lat="43.38582" lon="6.09697">
        <ele>271.39999389648</ele>
        <time>2015-06-24T14:03:12Z</time>
      </trkpt>
      <trkpt lat="43.38582" lon="6.09696">
        <ele>271.60000610352</ele>
        <time>2015-06-24T14:03:16Z</time>
      </trkpt>
      <trkpt lat="43.38582" lon="6.09696">
        <ele>271.60000610352</ele>
        <time>2015-06-24T14:03:18Z</time>
      </trkpt>
      <trkpt lat="43.38582" lon="6.09696">
        <ele>271.79998779297</ele>
        <time>2015-06-24T14:03:21Z</time>
      </trkpt>
      <trkpt lat="43.38582" lon="6.09696">
        <ele>271.60000610352</ele>
        <time>2015-06-24T14:03:22Z</time>
      </trkpt>
      <trkpt lat="43.38582" lon="6.09696">
        <ele>271.60000610352</ele>
        <time>2015-06-24T14:03:24Z</time>
      </trkpt>
      <trkpt lat="43.38582" lon="6.09696">
        <ele>271.79998779297</ele>
        <time>2015-06-24T14:03:26Z</time>
      </trkpt>
      <trkpt lat="43.38581" lon="6.09696">
        <ele>271.79998779297</ele>
        <time>2015-06-24T14:03:30Z</time>
      </trkpt>
      <trkpt lat="43.38581" lon="6.09696">
        <ele>271.79998779297</ele>
        <time>2015-06-24T14:03:32Z</time>
      </trkpt>
      <trkpt lat="43.38582" lon="6.09695">
        <ele>271.60000610352</ele>
        <time>2015-06-24T14:03:34Z</time>
      </trkpt>
      <trkpt lat="43.38582" lon="6.09694">
        <ele>271.39999389648</ele>
        <time>2015-06-24T14:03:36Z</time>
      </trkpt>
      <trkpt lat="43.38582" lon="6.09692">
        <ele>271.39999389648</ele>
        <time>2015-06-24T14:03:38Z</time>
      </trkpt>
      <trkpt lat="43.38582" lon="6.09691">
        <ele>271.60000610352</ele>
        <time>2015-06-24T14:03:39Z</time>
      </trkpt>
      <trkpt lat="43.38583" lon="6.0969">
        <ele>271.60000610352</ele>
        <time>2015-06-24T14:03:40Z</time>
      </trkpt>
      <trkpt lat="43.38585" lon="6.09691">
        <ele>271.60000610352</ele>
        <time>2015-06-24T14:03:41Z</time>
      </trkpt>
      <trkpt lat="43.38586" lon="6.09691">
        <ele>271.60000610352</ele>
        <time>2015-06-24T14:03:42Z</time>
      </trkpt>
      <trkpt lat="43.38589" lon="6.09692">
        <ele>271.79998779297</ele>
        <time>2015-06-24T14:03:44Z</time>
      </trkpt>
      <trkpt lat="43.38592" lon="6.09694">
        <ele>272.20001220703</ele>
        <time>2015-06-24T14:03:46Z</time>
      </trkpt>
      <trkpt lat="43.38592" lon="6.09697">
        <ele>272.60000610352</ele>
        <time>2015-06-24T14:03:48Z</time>
      </trkpt>
      <trkpt lat="43.38592" lon="6.09698">
        <ele>272.79998779297</ele>
        <time>2015-06-24T14:03:49Z</time>
      </trkpt>
      <trkpt lat="43.38592" lon="6.097">
        <ele>273</ele>
        <time>2015-06-24T14:03:50Z</time>
      </trkpt>
      <trkpt lat="43.38593" lon="6.09703">
        <ele>273.39999389648</ele>
        <time>2015-06-24T14:03:52Z</time>
      </trkpt>
      <trkpt lat="43.38593" lon="6.09705">
        <ele>273.60000610352</ele>
        <time>2015-06-24T14:03:53Z</time>
      </trkpt>
      <trkpt lat="43.38592" lon="6.09707">
        <ele>273.79998779297</ele>
        <time>2015-06-24T14:03:54Z</time>
      </trkpt>
      <trkpt lat="43.38591" lon="6.09712">
        <ele>273.79998779297</ele>
        <time>2015-06-24T14:03:56Z</time>
      </trkpt>
      <trkpt lat="43.3859" lon="6.09716">
        <ele>274</ele>
        <time>2015-06-24T14:03:58Z</time>
      </trkpt>
      <trkpt lat="43.38589" lon="6.09721">
        <ele>274.39999389648</ele>
        <time>2015-06-24T14:04:00Z</time>
      </trkpt>
      <trkpt lat="43.38588" lon="6.0973">
        <ele>275</ele>
        <time>2015-06-24T14:04:04Z</time>
      </trkpt>
      <trkpt lat="43.38584" lon="6.0975">
        <ele>276</ele>
        <time>2015-06-24T14:04:12Z</time>
      </trkpt>
      <trkpt lat="43.38583" lon="6.09755">
        <ele>276</ele>
        <time>2015-06-24T14:04:14Z</time>
      </trkpt>
      <trkpt lat="43.3858" lon="6.09764">
        <ele>276.60000610352</ele>
        <time>2015-06-24T14:04:18Z</time>
      </trkpt>
      <trkpt lat="43.38579" lon="6.09769">
        <ele>276.79998779297</ele>
        <time>2015-06-24T14:04:20Z</time>
      </trkpt>
      <trkpt lat="43.38578" lon="6.09774">
        <ele>277</ele>
        <time>2015-06-24T14:04:22Z</time>
      </trkpt>
      <trkpt lat="43.38577" lon="6.0978">
        <ele>277.20001220703</ele>
        <time>2015-06-24T14:04:24Z</time>
      </trkpt>
      <trkpt lat="43.38576" lon="6.09786">
        <ele>277.20001220703</ele>
        <time>2015-06-24T14:04:26Z</time>
      </trkpt>
      <trkpt lat="43.38574" lon="6.09791">
        <ele>277.20001220703</ele>
        <time>2015-06-24T14:04:28Z</time>
      </trkpt>
      <trkpt lat="43.38573" lon="6.09796">
        <ele>277.39999389648</ele>
        <time>2015-06-24T14:04:30Z</time>
      </trkpt>
      <trkpt lat="43.38572" lon="6.09802">
        <ele>277.39999389648</ele>
        <time>2015-06-24T14:04:32Z</time>
      </trkpt>
      <trkpt lat="43.38571" lon="6.09808">
        <ele>277.60000610352</ele>
        <time>2015-06-24T14:04:34Z</time>
      </trkpt>
      <trkpt lat="43.3857" lon="6.09814">
        <ele>277.79998779297</ele>
        <time>2015-06-24T14:04:36Z</time>
      </trkpt>
      <trkpt lat="43.38569" lon="6.0982">
        <ele>277.79998779297</ele>
        <time>2015-06-24T14:04:38Z</time>
      </trkpt>
      <trkpt lat="43.38568" lon="6.09832">
        <ele>278.20001220703</ele>
        <time>2015-06-24T14:04:42Z</time>
      </trkpt>
      <trkpt lat="43.38566" lon="6.09851">
        <ele>279</ele>
        <time>2015-06-24T14:04:48Z</time>
      </trkpt>
      <trkpt lat="43.38565" lon="6.09865">
        <ele>279.20001220703</ele>
        <time>2015-06-24T14:04:52Z</time>
      </trkpt>
      <trkpt lat="43.38565" lon="6.09879">
        <ele>279.60000610352</ele>
        <time>2015-06-24T14:04:56Z</time>
      </trkpt>
      <trkpt lat="43.38565" lon="6.09886">
        <ele>280.20001220703</ele>
        <time>2015-06-24T14:04:58Z</time>
      </trkpt>
      <trkpt lat="43.38565" lon="6.09889">
        <ele>280.20001220703</ele>
        <time>2015-06-24T14:04:59Z</time>
      </trkpt>
      <trkpt lat="43.38565" lon="6.099">
        <ele>280.60000610352</ele>
        <time>2015-06-24T14:05:02Z</time>
      </trkpt>
      <trkpt lat="43.38566" lon="6.09907">
        <ele>281</ele>
        <time>2015-06-24T14:05:04Z</time>
      </trkpt>
      <trkpt lat="43.38567" lon="6.09918">
        <ele>281.39999389648</ele>
        <time>2015-06-24T14:05:07Z</time>
      </trkpt>
      <trkpt lat="43.38567" lon="6.09921">
        <ele>281.39999389648</ele>
        <time>2015-06-24T14:05:08Z</time>
      </trkpt>
      <trkpt lat="43.38567" lon="6.09929">
        <ele>281.20001220703</ele>
        <time>2015-06-24T14:05:10Z</time>
      </trkpt>
      <trkpt lat="43.38567" lon="6.09937">
        <ele>281.39999389648</ele>
        <time>2015-06-24T14:05:12Z</time>
      </trkpt>
      <trkpt lat="43.38567" lon="6.09945">
        <ele>281.39999389648</ele>
        <time>2015-06-24T14:05:14Z</time>
      </trkpt>
      <trkpt lat="43.38566" lon="6.09953">
        <ele>281.60000610352</ele>
        <time>2015-06-24T14:05:16Z</time>
      </trkpt>
      <trkpt lat="43.38565" lon="6.09961">
        <ele>281.79998779297</ele>
        <time>2015-06-24T14:05:18Z</time>
      </trkpt>
      <trkpt lat="43.38564" lon="6.09968">
        <ele>282.20001220703</ele>
        <time>2015-06-24T14:05:20Z</time>
      </trkpt>
      <trkpt lat="43.38563" lon="6.09975">
        <ele>282.60000610352</ele>
        <time>2015-06-24T14:05:22Z</time>
      </trkpt>
      <trkpt lat="43.38561" lon="6.09982">
        <ele>282.79998779297</ele>
        <time>2015-06-24T14:05:24Z</time>
      </trkpt>
      <trkpt lat="43.38559" lon="6.09989">
        <ele>283</ele>
        <time>2015-06-24T14:05:26Z</time>
      </trkpt>
      <trkpt lat="43.38557" lon="6.09995">
        <ele>283.60000610352</ele>
        <time>2015-06-24T14:05:28Z</time>
      </trkpt>
      <trkpt lat="43.38556" lon="6.10002">
        <ele>283.79998779297</ele>
        <time>2015-06-24T14:05:30Z</time>
      </trkpt>
      <trkpt lat="43.38553" lon="6.10009">
        <ele>284</ele>
        <time>2015-06-24T14:05:32Z</time>
      </trkpt>
      <trkpt lat="43.38552" lon="6.10015">
        <ele>284.20001220703</ele>
        <time>2015-06-24T14:05:34Z</time>
      </trkpt>
      <trkpt lat="43.3855" lon="6.10022">
        <ele>284.20001220703</ele>
        <time>2015-06-24T14:05:36Z</time>
      </trkpt>
      <trkpt lat="43.38546" lon="6.10043">
        <ele>285</ele>
        <time>2015-06-24T14:05:42Z</time>
      </trkpt>
      <trkpt lat="43.38544" lon="6.10056">
        <ele>285.39999389648</ele>
        <time>2015-06-24T14:05:46Z</time>
      </trkpt>
      <trkpt lat="43.38542" lon="6.10071">
        <ele>285.79998779297</ele>
        <time>2015-06-24T14:05:50Z</time>
      </trkpt>
      <trkpt lat="43.38541" lon="6.10094">
        <ele>286.20001220703</ele>
        <time>2015-06-24T14:05:56Z</time>
      </trkpt>
      <trkpt lat="43.38542" lon="6.10108">
        <ele>286.60000610352</ele>
        <time>2015-06-24T14:06:00Z</time>
      </trkpt>
      <trkpt lat="43.38543" lon="6.10116">
        <ele>287</ele>
        <time>2015-06-24T14:06:02Z</time>
      </trkpt>
      <trkpt lat="43.38544" lon="6.10137">
        <ele>287.79998779297</ele>
        <time>2015-06-24T14:06:08Z</time>
      </trkpt>
      <trkpt lat="43.38546" lon="6.10152">
        <ele>288.20001220703</ele>
        <time>2015-06-24T14:06:12Z</time>
      </trkpt>
      <trkpt lat="43.38548" lon="6.10163">
        <ele>288.20001220703</ele>
        <time>2015-06-24T14:06:15Z</time>
      </trkpt>
      <trkpt lat="43.3855" lon="6.10174">
        <ele>288.39999389648</ele>
        <time>2015-06-24T14:06:18Z</time>
      </trkpt>
      <trkpt lat="43.38554" lon="6.10189">
        <ele>288.60000610352</ele>
        <time>2015-06-24T14:06:22Z</time>
      </trkpt>
      <trkpt lat="43.38557" lon="6.10196">
        <ele>288.60000610352</ele>
        <time>2015-06-24T14:06:24Z</time>
      </trkpt>
      <trkpt lat="43.38563" lon="6.10208">
        <ele>289</ele>
        <time>2015-06-24T14:06:28Z</time>
      </trkpt>
      <trkpt lat="43.38566" lon="6.10214">
        <ele>289.39999389648</ele>
        <time>2015-06-24T14:06:30Z</time>
      </trkpt>
      <trkpt lat="43.38573" lon="6.10222">
        <ele>289.60000610352</ele>
        <time>2015-06-24T14:06:33Z</time>
      </trkpt>
      <trkpt lat="43.38575" lon="6.10224">
        <ele>289.60000610352</ele>
        <time>2015-06-24T14:06:34Z</time>
      </trkpt>
      <trkpt lat="43.3858" lon="6.10229">
        <ele>289.79998779297</ele>
        <time>2015-06-24T14:06:36Z</time>
      </trkpt>
      <trkpt lat="43.38586" lon="6.10233">
        <ele>290.20001220703</ele>
        <time>2015-06-24T14:06:38Z</time>
      </trkpt>
      <trkpt lat="43.38589" lon="6.10234">
        <ele>290.20001220703</ele>
        <time>2015-06-24T14:06:39Z</time>
      </trkpt>
      <trkpt lat="43.38598" lon="6.10238">
        <ele>290.60000610352</ele>
        <time>2015-06-24T14:06:42Z</time>
      </trkpt>
      <trkpt lat="43.38605" lon="6.1024">
        <ele>290.79998779297</ele>
        <time>2015-06-24T14:06:44Z</time>
      </trkpt>
      <trkpt lat="43.3861" lon="6.10241">
        <ele>291</ele>
        <time>2015-06-24T14:06:46Z</time>
      </trkpt>
      <trkpt lat="43.38617" lon="6.1024">
        <ele>291.20001220703</ele>
        <time>2015-06-24T14:06:48Z</time>
      </trkpt>
      <trkpt lat="43.38624" lon="6.10239">
        <ele>291.60000610352</ele>
        <time>2015-06-24T14:06:50Z</time>
      </trkpt>
      <trkpt lat="43.3863" lon="6.10237">
        <ele>291.60000610352</ele>
        <time>2015-06-24T14:06:52Z</time>
      </trkpt>
      <trkpt lat="43.38634" lon="6.10236">
        <ele>291.79998779297</ele>
        <time>2015-06-24T14:06:53Z</time>
      </trkpt>
      <trkpt lat="43.38643" lon="6.10232">
        <ele>291.79998779297</ele>
        <time>2015-06-24T14:06:56Z</time>
      </trkpt>
      <trkpt lat="43.38649" lon="6.1023">
        <ele>291.79998779297</ele>
        <time>2015-06-24T14:06:58Z</time>
      </trkpt>
      <trkpt lat="43.38655" lon="6.10228">
        <ele>292.20001220703</ele>
        <time>2015-06-24T14:07:00Z</time>
      </trkpt>
      <trkpt lat="43.38658" lon="6.10226">
        <ele>292.39999389648</ele>
        <time>2015-06-24T14:07:01Z</time>
      </trkpt>
      <trkpt lat="43.38667" lon="6.10223">
        <ele>293.20001220703</ele>
        <time>2015-06-24T14:07:04Z</time>
      </trkpt>
      <trkpt lat="43.38672" lon="6.10221">
        <ele>293.20001220703</ele>
        <time>2015-06-24T14:07:06Z</time>
      </trkpt>
      <trkpt lat="43.38675" lon="6.1022">
        <ele>293.20001220703</ele>
        <time>2015-06-24T14:07:07Z</time>
      </trkpt>
      <trkpt lat="43.38678" lon="6.10219">
        <ele>293.20001220703</ele>
        <time>2015-06-24T14:07:08Z</time>
      </trkpt>
      <trkpt lat="43.38684" lon="6.10216">
        <ele>293.39999389648</ele>
        <time>2015-06-24T14:07:10Z</time>
      </trkpt>
      <trkpt lat="43.38689" lon="6.10214">
        <ele>293.79998779297</ele>
        <time>2015-06-24T14:07:12Z</time>
      </trkpt>
      <trkpt lat="43.38695" lon="6.10212">
        <ele>294</ele>
        <time>2015-06-24T14:07:14Z</time>
      </trkpt>
      <trkpt lat="43.387" lon="6.10209">
        <ele>294.20001220703</ele>
        <time>2015-06-24T14:07:16Z</time>
      </trkpt>
      <trkpt lat="43.38706" lon="6.10208">
        <ele>294.60000610352</ele>
        <time>2015-06-24T14:07:18Z</time>
      </trkpt>
      <trkpt lat="43.38713" lon="6.10206">
        <ele>294.79998779297</ele>
        <time>2015-06-24T14:07:20Z</time>
      </trkpt>
      <trkpt lat="43.38716" lon="6.10204">
        <ele>295</ele>
        <time>2015-06-24T14:07:21Z</time>
      </trkpt>
      <trkpt lat="43.38719" lon="6.10203">
        <ele>295.20001220703</ele>
        <time>2015-06-24T14:07:22Z</time>
      </trkpt>
      <trkpt lat="43.38726" lon="6.10201">
        <ele>295.60000610352</ele>
        <time>2015-06-24T14:07:24Z</time>
      </trkpt>
      <trkpt lat="43.38732" lon="6.10199">
        <ele>296.20001220703</ele>
        <time>2015-06-24T14:07:26Z</time>
      </trkpt>
      <trkpt lat="43.38737" lon="6.10197">
        <ele>296.39999389648</ele>
        <time>2015-06-24T14:07:28Z</time>
      </trkpt>
      <trkpt lat="43.3875" lon="6.10192">
        <ele>297</ele>
        <time>2015-06-24T14:07:32Z</time>
      </trkpt>
      <trkpt lat="43.38755" lon="6.1019">
        <ele>297.20001220703</ele>
        <time>2015-06-24T14:07:34Z</time>
      </trkpt>
      <trkpt lat="43.38762" lon="6.10188">
        <ele>297.60000610352</ele>
        <time>2015-06-24T14:07:36Z</time>
      </trkpt>
      <trkpt lat="43.38767" lon="6.10185">
        <ele>297.79998779297</ele>
        <time>2015-06-24T14:07:38Z</time>
      </trkpt>
      <trkpt lat="43.38773" lon="6.10184">
        <ele>298.20001220703</ele>
        <time>2015-06-24T14:07:40Z</time>
      </trkpt>
      <trkpt lat="43.38779" lon="6.10182">
        <ele>298.39999389648</ele>
        <time>2015-06-24T14:07:42Z</time>
      </trkpt>
      <trkpt lat="43.38784" lon="6.1018">
        <ele>298.79998779297</ele>
        <time>2015-06-24T14:07:44Z</time>
      </trkpt>
      <trkpt lat="43.3879" lon="6.10178">
        <ele>299</ele>
        <time>2015-06-24T14:07:46Z</time>
      </trkpt>
      <trkpt lat="43.388" lon="6.10174">
        <ele>299.60000610352</ele>
        <time>2015-06-24T14:07:50Z</time>
      </trkpt>
      <trkpt lat="43.38805" lon="6.10172">
        <ele>299.60000610352</ele>
        <time>2015-06-24T14:07:52Z</time>
      </trkpt>
      <trkpt lat="43.3881" lon="6.1017">
        <ele>299.79998779297</ele>
        <time>2015-06-24T14:07:54Z</time>
      </trkpt>
      <trkpt lat="43.38815" lon="6.10168">
        <ele>300</ele>
        <time>2015-06-24T14:07:56Z</time>
      </trkpt>
      <trkpt lat="43.38819" lon="6.10167">
        <ele>300.39999389648</ele>
        <time>2015-06-24T14:07:58Z</time>
      </trkpt>
      <trkpt lat="43.38823" lon="6.10168">
        <ele>300.60000610352</ele>
        <time>2015-06-24T14:08:00Z</time>
      </trkpt>
      <trkpt lat="43.38826" lon="6.10173">
        <ele>300.60000610352</ele>
        <time>2015-06-24T14:08:02Z</time>
      </trkpt>
      <trkpt lat="43.38827" lon="6.1018">
        <ele>300.79998779297</ele>
        <time>2015-06-24T14:08:04Z</time>
      </trkpt>
      <trkpt lat="43.38826" lon="6.10183">
        <ele>300.79998779297</ele>
        <time>2015-06-24T14:08:05Z</time>
      </trkpt>
      <trkpt lat="43.38824" lon="6.1019">
        <ele>301</ele>
        <time>2015-06-24T14:08:08Z</time>
      </trkpt>
      <trkpt lat="43.38821" lon="6.10194">
        <ele>301.20001220703</ele>
        <time>2015-06-24T14:08:10Z</time>
      </trkpt>
      <trkpt lat="43.38821" lon="6.10195">
        <ele>301.60000610352</ele>
        <time>2015-06-24T14:08:11Z</time>
      </trkpt>
      <trkpt lat="43.3882" lon="6.10197">
        <ele>301.79998779297</ele>
        <time>2015-06-24T14:08:12Z</time>
      </trkpt>
      <trkpt lat="43.3882" lon="6.102">
        <ele>302</ele>
        <time>2015-06-24T14:08:14Z</time>
      </trkpt>
      <trkpt lat="43.3882" lon="6.102">
        <ele>302.20001220703</ele>
        <time>2015-06-24T14:08:15Z</time>
      </trkpt>
      <trkpt lat="43.3882" lon="6.102">
        <ele>302.39999389648</ele>
        <time>2015-06-24T14:08:16Z</time>
      </trkpt>
      <trkpt lat="43.3882" lon="6.102">
        <ele>302.39999389648</ele>
        <time>2015-06-24T14:08:18Z</time>
      </trkpt>
      <trkpt lat="43.3882" lon="6.102">
        <ele>302.39999389648</ele>
        <time>2015-06-24T14:08:22Z</time>
      </trkpt>
      <trkpt lat="43.3882" lon="6.102">
        <ele>302.20001220703</ele>
        <time>2015-06-24T14:08:24Z</time>
      </trkpt>
      <trkpt lat="43.3882" lon="6.102">
        <ele>302.20001220703</ele>
        <time>2015-06-24T14:08:28Z</time>
      </trkpt>
      <trkpt lat="43.3882" lon="6.10201">
        <ele>302.20001220703</ele>
        <time>2015-06-24T14:08:30Z</time>
      </trkpt>
      <trkpt lat="43.3882" lon="6.10201">
        <ele>301.79998779297</ele>
        <time>2015-06-24T14:08:34Z</time>
      </trkpt>
      <trkpt lat="43.3882" lon="6.102">
        <ele>302</ele>
        <time>2015-06-24T14:08:40Z</time>
      </trkpt>
      <trkpt lat="43.3882" lon="6.10201">
        <ele>301.79998779297</ele>
        <time>2015-06-24T14:08:46Z</time>
      </trkpt>
      <trkpt lat="43.3882" lon="6.10201">
        <ele>301.60000610352</ele>
        <time>2015-06-24T14:08:50Z</time>
      </trkpt>
      <trkpt lat="43.3882" lon="6.10201">
        <ele>301.60000610352</ele>
        <time>2015-06-24T14:08:54Z</time>
      </trkpt>
      <trkpt lat="43.3882" lon="6.10201">
        <ele>301.60000610352</ele>
        <time>2015-06-24T14:08:56Z</time>
      </trkpt>
      <trkpt lat="43.38819" lon="6.10204">
        <ele>302</ele>
        <time>2015-06-24T14:08:58Z</time>
      </trkpt>
      <trkpt lat="43.38819" lon="6.10206">
        <ele>302.20001220703</ele>
        <time>2015-06-24T14:08:59Z</time>
      </trkpt>
      <trkpt lat="43.38819" lon="6.10208">
        <ele>302.60000610352</ele>
        <time>2015-06-24T14:09:00Z</time>
      </trkpt>
      <trkpt lat="43.38819" lon="6.10215">
        <ele>303.20001220703</ele>
        <time>2015-06-24T14:09:02Z</time>
      </trkpt>
      <trkpt lat="43.38819" lon="6.10221">
        <ele>303.20001220703</ele>
        <time>2015-06-24T14:09:04Z</time>
      </trkpt>
      <trkpt lat="43.38821" lon="6.10227">
        <ele>302.79998779297</ele>
        <time>2015-06-24T14:09:06Z</time>
      </trkpt>
      <trkpt lat="43.38822" lon="6.10234">
        <ele>302.60000610352</ele>
        <time>2015-06-24T14:09:08Z</time>
      </trkpt>
      <trkpt lat="43.38824" lon="6.10246">
        <ele>301.20001220703</ele>
        <time>2015-06-24T14:09:11Z</time>
      </trkpt>
      <trkpt lat="43.38824" lon="6.10251">
        <ele>300.79998779297</ele>
        <time>2015-06-24T14:09:12Z</time>
      </trkpt>
      <trkpt lat="43.38826" lon="6.10261">
        <ele>300.20001220703</ele>
        <time>2015-06-24T14:09:14Z</time>
      </trkpt>
      <trkpt lat="43.38827" lon="6.10267">
        <ele>299.79998779297</ele>
        <time>2015-06-24T14:09:15Z</time>
      </trkpt>
      <trkpt lat="43.38828" lon="6.10273">
        <ele>299.60000610352</ele>
        <time>2015-06-24T14:09:16Z</time>
      </trkpt>
      <trkpt lat="43.38828" lon="6.1028">
        <ele>299.39999389648</ele>
        <time>2015-06-24T14:09:17Z</time>
      </trkpt>
      <trkpt lat="43.38828" lon="6.10287">
        <ele>300.20001220703</ele>
        <time>2015-06-24T14:09:18Z</time>
      </trkpt>
      <trkpt lat="43.38829" lon="6.10301">
        <ele>299.60000610352</ele>
        <time>2015-06-24T14:09:20Z</time>
      </trkpt>
      <trkpt lat="43.38829" lon="6.10307">
        <ele>299.39999389648</ele>
        <time>2015-06-24T14:09:21Z</time>
      </trkpt>
      <trkpt lat="43.38829" lon="6.10314">
        <ele>299.39999389648</ele>
        <time>2015-06-24T14:09:22Z</time>
      </trkpt>
      <trkpt lat="43.38829" lon="6.10327">
        <ele>299.79998779297</ele>
        <time>2015-06-24T14:09:24Z</time>
      </trkpt>
      <trkpt lat="43.38829" lon="6.10338">
        <ele>299.39999389648</ele>
        <time>2015-06-24T14:09:26Z</time>
      </trkpt>
      <trkpt lat="43.38829" lon="6.10344">
        <ele>299</ele>
        <time>2015-06-24T14:09:27Z</time>
      </trkpt>
      <trkpt lat="43.38829" lon="6.10349">
        <ele>298.39999389648</ele>
        <time>2015-06-24T14:09:28Z</time>
      </trkpt>
      <trkpt lat="43.38829" lon="6.1036">
        <ele>298.60000610352</ele>
        <time>2015-06-24T14:09:30Z</time>
      </trkpt>
      <trkpt lat="43.3883" lon="6.10373">
        <ele>297.79998779297</ele>
        <time>2015-06-24T14:09:32Z</time>
      </trkpt>
      <trkpt lat="43.3883" lon="6.10385">
        <ele>298</ele>
        <time>2015-06-24T14:09:34Z</time>
      </trkpt>
      <trkpt lat="43.38831" lon="6.10398">
        <ele>298</ele>
        <time>2015-06-24T14:09:36Z</time>
      </trkpt>
      <trkpt lat="43.3883" lon="6.10411">
        <ele>297.39999389648</ele>
        <time>2015-06-24T14:09:38Z</time>
      </trkpt>
      <trkpt lat="43.38828" lon="6.10424">
        <ele>296.79998779297</ele>
        <time>2015-06-24T14:09:40Z</time>
      </trkpt>
      <trkpt lat="43.38826" lon="6.10437">
        <ele>297</ele>
        <time>2015-06-24T14:09:42Z</time>
      </trkpt>
      <trkpt lat="43.38826" lon="6.10443">
        <ele>296.39999389648</ele>
        <time>2015-06-24T14:09:43Z</time>
      </trkpt>
      <trkpt lat="43.38825" lon="6.1045">
        <ele>295.20001220703</ele>
        <time>2015-06-24T14:09:44Z</time>
      </trkpt>
      <trkpt lat="43.38825" lon="6.10463">
        <ele>294.79998779297</ele>
        <time>2015-06-24T14:09:46Z</time>
      </trkpt>
      <trkpt lat="43.38825" lon="6.10476">
        <ele>295.20001220703</ele>
        <time>2015-06-24T14:09:48Z</time>
      </trkpt>
      <trkpt lat="43.38822" lon="6.10489">
        <ele>294.60000610352</ele>
        <time>2015-06-24T14:09:50Z</time>
      </trkpt>
      <trkpt lat="43.38821" lon="6.10495">
        <ele>294</ele>
        <time>2015-06-24T14:09:51Z</time>
      </trkpt>
      <trkpt lat="43.3882" lon="6.10501">
        <ele>293.60000610352</ele>
        <time>2015-06-24T14:09:52Z</time>
      </trkpt>
      <trkpt lat="43.38816" lon="6.10513">
        <ele>293</ele>
        <time>2015-06-24T14:09:54Z</time>
      </trkpt>
      <trkpt lat="43.38815" lon="6.10519">
        <ele>293.20001220703</ele>
        <time>2015-06-24T14:09:55Z</time>
      </trkpt>
      <trkpt lat="43.38813" lon="6.10524">
        <ele>293.60000610352</ele>
        <time>2015-06-24T14:09:56Z</time>
      </trkpt>
      <trkpt lat="43.38813" lon="6.10531">
        <ele>292.20001220703</ele>
        <time>2015-06-24T14:09:58Z</time>
      </trkpt>
      <trkpt lat="43.38813" lon="6.10536">
        <ele>292</ele>
        <time>2015-06-24T14:09:59Z</time>
      </trkpt>
      <trkpt lat="43.38813" lon="6.1054">
        <ele>292</ele>
        <time>2015-06-24T14:10:00Z</time>
      </trkpt>
      <trkpt lat="43.38811" lon="6.10548">
        <ele>291.60000610352</ele>
        <time>2015-06-24T14:10:02Z</time>
      </trkpt>
      <trkpt lat="43.38808" lon="6.10556">
        <ele>291.39999389648</ele>
        <time>2015-06-24T14:10:04Z</time>
      </trkpt>
      <trkpt lat="43.38807" lon="6.10562">
        <ele>291.60000610352</ele>
        <time>2015-06-24T14:10:06Z</time>
      </trkpt>
      <trkpt lat="43.38806" lon="6.10572">
        <ele>291.60000610352</ele>
        <time>2015-06-24T14:10:08Z</time>
      </trkpt>
      <trkpt lat="43.38805" lon="6.10582">
        <ele>290</ele>
        <time>2015-06-24T14:10:10Z</time>
      </trkpt>
      <trkpt lat="43.38804" lon="6.10588">
        <ele>290.60000610352</ele>
        <time>2015-06-24T14:10:11Z</time>
      </trkpt>
      <trkpt lat="43.38803" lon="6.10595">
        <ele>290.60000610352</ele>
        <time>2015-06-24T14:10:12Z</time>
      </trkpt>
      <trkpt lat="43.38801" lon="6.10601">
        <ele>289.79998779297</ele>
        <time>2015-06-24T14:10:13Z</time>
      </trkpt>
      <trkpt lat="43.388" lon="6.10608">
        <ele>289.20001220703</ele>
        <time>2015-06-24T14:10:14Z</time>
      </trkpt>
      <trkpt lat="43.38797" lon="6.1062">
        <ele>289</ele>
        <time>2015-06-24T14:10:16Z</time>
      </trkpt>
      <trkpt lat="43.38795" lon="6.10631">
        <ele>289</ele>
        <time>2015-06-24T14:10:18Z</time>
      </trkpt>
      <trkpt lat="43.38795" lon="6.10636">
        <ele>288.79998779297</ele>
        <time>2015-06-24T14:10:19Z</time>
      </trkpt>
      <trkpt lat="43.38794" lon="6.10639">
        <ele>288.39999389648</ele>
        <time>2015-06-24T14:10:20Z</time>
      </trkpt>
      <trkpt lat="43.38793" lon="6.10645">
        <ele>287.60000610352</ele>
        <time>2015-06-24T14:10:22Z</time>
      </trkpt>
      <trkpt lat="43.38791" lon="6.10652">
        <ele>287.20001220703</ele>
        <time>2015-06-24T14:10:24Z</time>
      </trkpt>
      <trkpt lat="43.38789" lon="6.10661">
        <ele>287.20001220703</ele>
        <time>2015-06-24T14:10:26Z</time>
      </trkpt>
      <trkpt lat="43.38786" lon="6.10668">
        <ele>287.20001220703</ele>
        <time>2015-06-24T14:10:28Z</time>
      </trkpt>
      <trkpt lat="43.38783" lon="6.10687">
        <ele>286.60000610352</ele>
        <time>2015-06-24T14:10:32Z</time>
      </trkpt>
      <trkpt lat="43.3878" lon="6.10697">
        <ele>286.39999389648</ele>
        <time>2015-06-24T14:10:34Z</time>
      </trkpt>
      <trkpt lat="43.38778" lon="6.10706">
        <ele>286</ele>
        <time>2015-06-24T14:10:36Z</time>
      </trkpt>
      <trkpt lat="43.38777" lon="6.10712">
        <ele>286</ele>
        <time>2015-06-24T14:10:37Z</time>
      </trkpt>
      <trkpt lat="43.38774" lon="6.10724">
        <ele>285.60000610352</ele>
        <time>2015-06-24T14:10:39Z</time>
      </trkpt>
      <trkpt lat="43.38774" lon="6.10729">
        <ele>285.60000610352</ele>
        <time>2015-06-24T14:10:40Z</time>
      </trkpt>
      <trkpt lat="43.38772" lon="6.10739">
        <ele>285.20001220703</ele>
        <time>2015-06-24T14:10:42Z</time>
      </trkpt>
      <trkpt lat="43.38772" lon="6.10744">
        <ele>284.60000610352</ele>
        <time>2015-06-24T14:10:43Z</time>
      </trkpt>
      <trkpt lat="43.38772" lon="6.10747">
        <ele>284.60000610352</ele>
        <time>2015-06-24T14:10:44Z</time>
      </trkpt>
      <trkpt lat="43.38772" lon="6.1075">
        <ele>284.60000610352</ele>
        <time>2015-06-24T14:10:45Z</time>
      </trkpt>
      <trkpt lat="43.38773" lon="6.10752">
        <ele>284.39999389648</ele>
        <time>2015-06-24T14:10:46Z</time>
      </trkpt>
      <trkpt lat="43.38778" lon="6.10755">
        <ele>284.39999389648</ele>
        <time>2015-06-24T14:10:48Z</time>
      </trkpt>
      <trkpt lat="43.38781" lon="6.10756">
        <ele>284</ele>
        <time>2015-06-24T14:10:49Z</time>
      </trkpt>
      <trkpt lat="43.38782" lon="6.10757">
        <ele>284</ele>
        <time>2015-06-24T14:10:50Z</time>
      </trkpt>
      <trkpt lat="43.38784" lon="6.10757">
        <ele>283.79998779297</ele>
        <time>2015-06-24T14:10:52Z</time>
      </trkpt>
      <trkpt lat="43.38784" lon="6.10757">
        <ele>283.39999389648</ele>
        <time>2015-06-24T14:10:53Z</time>
      </trkpt>
      <trkpt lat="43.38784" lon="6.10757">
        <ele>283.39999389648</ele>
        <time>2015-06-24T14:10:54Z</time>
      </trkpt>
      <trkpt lat="43.38784" lon="6.10757">
        <ele>283.39999389648</ele>
        <time>2015-06-24T14:10:56Z</time>
      </trkpt>
      <trkpt lat="43.38784" lon="6.10757">
        <ele>283.39999389648</ele>
        <time>2015-06-24T14:10:58Z</time>
      </trkpt>
      <trkpt lat="43.38784" lon="6.10757">
        <ele>283.39999389648</ele>
        <time>2015-06-24T14:11:00Z</time>
      </trkpt>
      <trkpt lat="43.38784" lon="6.10757">
        <ele>283.20001220703</ele>
        <time>2015-06-24T14:11:06Z</time>
      </trkpt>
      <trkpt lat="43.38784" lon="6.10757">
        <ele>283.20001220703</ele>
        <time>2015-06-24T14:11:10Z</time>
      </trkpt>
      <trkpt lat="43.38784" lon="6.10757">
        <ele>283.20001220703</ele>
        <time>2015-06-24T14:11:14Z</time>
      </trkpt>
      <trkpt lat="43.38787" lon="6.10758">
        <ele>283.20001220703</ele>
        <time>2015-06-24T14:11:16Z</time>
      </trkpt>
      <trkpt lat="43.38792" lon="6.10758">
        <ele>283.39999389648</ele>
        <time>2015-06-24T14:11:18Z</time>
      </trkpt>
      <trkpt lat="43.38799" lon="6.10757">
        <ele>283.20001220703</ele>
        <time>2015-06-24T14:11:20Z</time>
      </trkpt>
      <trkpt lat="43.38802" lon="6.10757">
        <ele>282.79998779297</ele>
        <time>2015-06-24T14:11:21Z</time>
      </trkpt>
      <trkpt lat="43.38805" lon="6.10757">
        <ele>282.60000610352</ele>
        <time>2015-06-24T14:11:22Z</time>
      </trkpt>
      <trkpt lat="43.38813" lon="6.10756">
        <ele>282</ele>
        <time>2015-06-24T14:11:24Z</time>
      </trkpt>
      <trkpt lat="43.38822" lon="6.10755">
        <ele>282</ele>
        <time>2015-06-24T14:11:26Z</time>
      </trkpt>
      <trkpt lat="43.38827" lon="6.10755">
        <ele>282.39999389648</ele>
        <time>2015-06-24T14:11:27Z</time>
      </trkpt>
      <trkpt lat="43.38831" lon="6.10755">
        <ele>282.60000610352</ele>
        <time>2015-06-24T14:11:28Z</time>
      </trkpt>
      <trkpt lat="43.38849" lon="6.10755">
        <ele>281.79998779297</ele>
        <time>2015-06-24T14:11:32Z</time>
      </trkpt>
      <trkpt lat="43.38867" lon="6.10754">
        <ele>281.39999389648</ele>
        <time>2015-06-24T14:11:36Z</time>
      </trkpt>
      <trkpt lat="43.38885" lon="6.10758">
        <ele>281</ele>
        <time>2015-06-24T14:11:40Z</time>
      </trkpt>
      <trkpt lat="43.38895" lon="6.10761">
        <ele>280.79998779297</ele>
        <time>2015-06-24T14:11:42Z</time>
      </trkpt>
      <trkpt lat="43.389" lon="6.10762">
        <ele>280.20001220703</ele>
        <time>2015-06-24T14:11:43Z</time>
      </trkpt>
      <trkpt lat="43.38905" lon="6.10764">
        <ele>280</ele>
        <time>2015-06-24T14:11:44Z</time>
      </trkpt>
      <trkpt lat="43.38912" lon="6.10772">
        <ele>279.60000610352</ele>
        <time>2015-06-24T14:11:46Z</time>
      </trkpt>
      <trkpt lat="43.38917" lon="6.10782">
        <ele>279.79998779297</ele>
        <time>2015-06-24T14:11:48Z</time>
      </trkpt>
      <trkpt lat="43.38921" lon="6.10795">
        <ele>280</ele>
        <time>2015-06-24T14:11:50Z</time>
      </trkpt>
      <trkpt lat="43.38925" lon="6.10807">
        <ele>280.20001220703</ele>
        <time>2015-06-24T14:11:52Z</time>
      </trkpt>
      <trkpt lat="43.38931" lon="6.10818">
        <ele>279.79998779297</ele>
        <time>2015-06-24T14:11:54Z</time>
      </trkpt>
      <trkpt lat="43.38935" lon="6.10822">
        <ele>279.79998779297</ele>
        <time>2015-06-24T14:11:55Z</time>
      </trkpt>
      <trkpt lat="43.38939" lon="6.10825">
        <ele>280.20001220703</ele>
        <time>2015-06-24T14:11:56Z</time>
      </trkpt>
      <trkpt lat="43.38948" lon="6.1083">
        <ele>279.79998779297</ele>
        <time>2015-06-24T14:11:58Z</time>
      </trkpt>
      <trkpt lat="43.38953" lon="6.10832">
        <ele>279.39999389648</ele>
        <time>2015-06-24T14:11:59Z</time>
      </trkpt>
      <trkpt lat="43.38967" lon="6.10837">
        <ele>279.60000610352</ele>
        <time>2015-06-24T14:12:02Z</time>
      </trkpt>
      <trkpt lat="43.38971" lon="6.10839">
        <ele>279.20001220703</ele>
        <time>2015-06-24T14:12:03Z</time>
      </trkpt>
      <trkpt lat="43.38976" lon="6.10841">
        <ele>279.20001220703</ele>
        <time>2015-06-24T14:12:04Z</time>
      </trkpt>
      <trkpt lat="43.3898" lon="6.10843">
        <ele>279.39999389648</ele>
        <time>2015-06-24T14:12:05Z</time>
      </trkpt>
      <trkpt lat="43.38984" lon="6.10844">
        <ele>279.20001220703</ele>
        <time>2015-06-24T14:12:06Z</time>
      </trkpt>
      <trkpt lat="43.38989" lon="6.10845">
        <ele>279.20001220703</ele>
        <time>2015-06-24T14:12:07Z</time>
      </trkpt>
      <trkpt lat="43.38993" lon="6.10846">
        <ele>279.60000610352</ele>
        <time>2015-06-24T14:12:08Z</time>
      </trkpt>
      <trkpt lat="43.38997" lon="6.10846">
        <ele>279.60000610352</ele>
        <time>2015-06-24T14:12:09Z</time>
      </trkpt>
      <trkpt lat="43.3901" lon="6.1084">
        <ele>279.79998779297</ele>
        <time>2015-06-24T14:12:12Z</time>
      </trkpt>
      <trkpt lat="43.39023" lon="6.10836">
        <ele>278.39999389648</ele>
        <time>2015-06-24T14:12:15Z</time>
      </trkpt>
      <trkpt lat="43.39032" lon="6.10833">
        <ele>278</ele>
        <time>2015-06-24T14:12:17Z</time>
      </trkpt>
      <trkpt lat="43.39046" lon="6.10828">
        <ele>278</ele>
        <time>2015-06-24T14:12:20Z</time>
      </trkpt>
      <trkpt lat="43.39055" lon="6.10825">
        <ele>277.79998779297</ele>
        <time>2015-06-24T14:12:22Z</time>
      </trkpt>
      <trkpt lat="43.39065" lon="6.1082">
        <ele>277.60000610352</ele>
        <time>2015-06-24T14:12:24Z</time>
      </trkpt>
      <trkpt lat="43.39069" lon="6.10817">
        <ele>277.60000610352</ele>
        <time>2015-06-24T14:12:25Z</time>
      </trkpt>
      <trkpt lat="43.39072" lon="6.10813">
        <ele>277.60000610352</ele>
        <time>2015-06-24T14:12:26Z</time>
      </trkpt>
      <trkpt lat="43.39078" lon="6.10807">
        <ele>278.20001220703</ele>
        <time>2015-06-24T14:12:28Z</time>
      </trkpt>
      <trkpt lat="43.39081" lon="6.10804">
        <ele>278.39999389648</ele>
        <time>2015-06-24T14:12:29Z</time>
      </trkpt>
      <trkpt lat="43.39084" lon="6.10801">
        <ele>278.39999389648</ele>
        <time>2015-06-24T14:12:30Z</time>
      </trkpt>
      <trkpt lat="43.39088" lon="6.10797">
        <ele>278.20001220703</ele>
        <time>2015-06-24T14:12:31Z</time>
      </trkpt>
      <trkpt lat="43.39093" lon="6.10794">
        <ele>278.20001220703</ele>
        <time>2015-06-24T14:12:32Z</time>
      </trkpt>
      <trkpt lat="43.39097" lon="6.1079">
        <ele>278</ele>
        <time>2015-06-24T14:12:33Z</time>
      </trkpt>
      <trkpt lat="43.39101" lon="6.10787">
        <ele>277.79998779297</ele>
        <time>2015-06-24T14:12:34Z</time>
      </trkpt>
      <trkpt lat="43.39111" lon="6.10781">
        <ele>277.60000610352</ele>
        <time>2015-06-24T14:12:36Z</time>
      </trkpt>
      <trkpt lat="43.39117" lon="6.10778">
        <ele>277.60000610352</ele>
        <time>2015-06-24T14:12:37Z</time>
      </trkpt>
      <trkpt lat="43.39123" lon="6.10775">
        <ele>277.39999389648</ele>
        <time>2015-06-24T14:12:38Z</time>
      </trkpt>
      <trkpt lat="43.39129" lon="6.10771">
        <ele>277</ele>
        <time>2015-06-24T14:12:39Z</time>
      </trkpt>
      <trkpt lat="43.39135" lon="6.10768">
        <ele>276.60000610352</ele>
        <time>2015-06-24T14:12:40Z</time>
      </trkpt>
      <trkpt lat="43.39141" lon="6.10763">
        <ele>276.20001220703</ele>
        <time>2015-06-24T14:12:41Z</time>
      </trkpt>
      <trkpt lat="43.39146" lon="6.10759">
        <ele>276</ele>
        <time>2015-06-24T14:12:42Z</time>
      </trkpt>
      <trkpt lat="43.39151" lon="6.10753">
        <ele>275.79998779297</ele>
        <time>2015-06-24T14:12:43Z</time>
      </trkpt>
      <trkpt lat="43.39155" lon="6.10745">
        <ele>275.60000610352</ele>
        <time>2015-06-24T14:12:44Z</time>
      </trkpt>
      <trkpt lat="43.39159" lon="6.10736">
        <ele>275.39999389648</ele>
        <time>2015-06-24T14:12:45Z</time>
      </trkpt>
      <trkpt lat="43.39162" lon="6.10727">
        <ele>275.20001220703</ele>
        <time>2015-06-24T14:12:46Z</time>
      </trkpt>
      <trkpt lat="43.39165" lon="6.10718">
        <ele>275</ele>
        <time>2015-06-24T14:12:47Z</time>
      </trkpt>
      <trkpt lat="43.39167" lon="6.10709">
        <ele>275</ele>
        <time>2015-06-24T14:12:48Z</time>
      </trkpt>
      <trkpt lat="43.39173" lon="6.10691">
        <ele>274.39999389648</ele>
        <time>2015-06-24T14:12:50Z</time>
      </trkpt>
      <trkpt lat="43.3918" lon="6.10674">
        <ele>273.79998779297</ele>
        <time>2015-06-24T14:12:52Z</time>
      </trkpt>
      <trkpt lat="43.39184" lon="6.10666">
        <ele>273.60000610352</ele>
        <time>2015-06-24T14:12:53Z</time>
      </trkpt>
      <trkpt lat="43.39187" lon="6.10659">
        <ele>273.79998779297</ele>
        <time>2015-06-24T14:12:54Z</time>
      </trkpt>
      <trkpt lat="43.39191" lon="6.10652">
        <ele>273.39999389648</ele>
        <time>2015-06-24T14:12:55Z</time>
      </trkpt>
      <trkpt lat="43.39196" lon="6.10646">
        <ele>273.39999389648</ele>
        <time>2015-06-24T14:12:56Z</time>
      </trkpt>
      <trkpt lat="43.39206" lon="6.1064">
        <ele>273.79998779297</ele>
        <time>2015-06-24T14:12:58Z</time>
      </trkpt>
      <trkpt lat="43.39215" lon="6.10632">
        <ele>273.39999389648</ele>
        <time>2015-06-24T14:13:00Z</time>
      </trkpt>
      <trkpt lat="43.39223" lon="6.10624">
        <ele>273.20001220703</ele>
        <time>2015-06-24T14:13:02Z</time>
      </trkpt>
      <trkpt lat="43.39235" lon="6.1061">
        <ele>274</ele>
        <time>2015-06-24T14:13:05Z</time>
      </trkpt>
      <trkpt lat="43.39238" lon="6.10607">
        <ele>274.20001220703</ele>
        <time>2015-06-24T14:13:06Z</time>
      </trkpt>
      <trkpt lat="43.39247" lon="6.10602">
        <ele>274.60000610352</ele>
        <time>2015-06-24T14:13:08Z</time>
      </trkpt>
      <trkpt lat="43.39254" lon="6.10593">
        <ele>274.20001220703</ele>
        <time>2015-06-24T14:13:10Z</time>
      </trkpt>
      <trkpt lat="43.3926" lon="6.10582">
        <ele>273.79998779297</ele>
        <time>2015-06-24T14:13:12Z</time>
      </trkpt>
      <trkpt lat="43.39266" lon="6.10569">
        <ele>273.79998779297</ele>
        <time>2015-06-24T14:13:14Z</time>
      </trkpt>
      <trkpt lat="43.39268" lon="6.10562">
        <ele>274</ele>
        <time>2015-06-24T14:13:15Z</time>
      </trkpt>
      <trkpt lat="43.39275" lon="6.10542">
        <ele>273.79998779297</ele>
        <time>2015-06-24T14:13:18Z</time>
      </trkpt>
      <trkpt lat="43.39281" lon="6.10529">
        <ele>273.20001220703</ele>
        <time>2015-06-24T14:13:20Z</time>
      </trkpt>
      <trkpt lat="43.39291" lon="6.10501">
        <ele>273.20001220703</ele>
        <time>2015-06-24T14:13:24Z</time>
      </trkpt>
      <trkpt lat="43.39294" lon="6.10493">
        <ele>273</ele>
        <time>2015-06-24T14:13:25Z</time>
      </trkpt>
      <trkpt lat="43.39298" lon="6.10486">
        <ele>272.20001220703</ele>
        <time>2015-06-24T14:13:26Z</time>
      </trkpt>
      <trkpt lat="43.39305" lon="6.10473">
        <ele>272.79998779297</ele>
        <time>2015-06-24T14:13:28Z</time>
      </trkpt>
      <trkpt lat="43.39309" lon="6.10466">
        <ele>273</ele>
        <time>2015-06-24T14:13:29Z</time>
      </trkpt>
      <trkpt lat="43.3932" lon="6.10446">
        <ele>271.60000610352</ele>
        <time>2015-06-24T14:13:32Z</time>
      </trkpt>
      <trkpt lat="43.39328" lon="6.10434">
        <ele>271.20001220703</ele>
        <time>2015-06-24T14:13:34Z</time>
      </trkpt>
      <trkpt lat="43.39333" lon="6.10429">
        <ele>271</ele>
        <time>2015-06-24T14:13:35Z</time>
      </trkpt>
      <trkpt lat="43.39337" lon="6.10424">
        <ele>271</ele>
        <time>2015-06-24T14:13:36Z</time>
      </trkpt>
      <trkpt lat="43.39345" lon="6.10418">
        <ele>270.60000610352</ele>
        <time>2015-06-24T14:13:38Z</time>
      </trkpt>
      <trkpt lat="43.39351" lon="6.10419">
        <ele>269.79998779297</ele>
        <time>2015-06-24T14:13:40Z</time>
      </trkpt>
      <trkpt lat="43.39354" lon="6.10419">
        <ele>269.79998779297</ele>
        <time>2015-06-24T14:13:41Z</time>
      </trkpt>
      <trkpt lat="43.39356" lon="6.1042">
        <ele>269.20001220703</ele>
        <time>2015-06-24T14:13:42Z</time>
      </trkpt>
      <trkpt lat="43.39359" lon="6.1042">
        <ele>269</ele>
        <time>2015-06-24T14:13:43Z</time>
      </trkpt>
      <trkpt lat="43.39361" lon="6.10419">
        <ele>268.79998779297</ele>
        <time>2015-06-24T14:13:44Z</time>
      </trkpt>
      <trkpt lat="43.39363" lon="6.10417">
        <ele>268.60000610352</ele>
        <time>2015-06-24T14:13:45Z</time>
      </trkpt>
      <trkpt lat="43.39365" lon="6.10414">
        <ele>268.60000610352</ele>
        <time>2015-06-24T14:13:46Z</time>
      </trkpt>
      <trkpt lat="43.39368" lon="6.10404">
        <ele>268.20001220703</ele>
        <time>2015-06-24T14:13:48Z</time>
      </trkpt>
      <trkpt lat="43.39368" lon="6.10399">
        <ele>267.79998779297</ele>
        <time>2015-06-24T14:13:49Z</time>
      </trkpt>
      <trkpt lat="43.39369" lon="6.10394">
        <ele>267.79998779297</ele>
        <time>2015-06-24T14:13:50Z</time>
      </trkpt>
      <trkpt lat="43.39371" lon="6.1039">
        <ele>267.60000610352</ele>
        <time>2015-06-24T14:13:51Z</time>
      </trkpt>
      <trkpt lat="43.39374" lon="6.10385">
        <ele>267.20001220703</ele>
        <time>2015-06-24T14:13:52Z</time>
      </trkpt>
      <trkpt lat="43.3938" lon="6.10377">
        <ele>266.39999389648</ele>
        <time>2015-06-24T14:13:54Z</time>
      </trkpt>
      <trkpt lat="43.39386" lon="6.10368">
        <ele>266.60000610352</ele>
        <time>2015-06-24T14:13:56Z</time>
      </trkpt>
      <trkpt lat="43.39391" lon="6.1036">
        <ele>266.79998779297</ele>
        <time>2015-06-24T14:13:58Z</time>
      </trkpt>
      <trkpt lat="43.39393" lon="6.10356">
        <ele>266.79998779297</ele>
        <time>2015-06-24T14:13:59Z</time>
      </trkpt>
      <trkpt lat="43.39395" lon="6.10351">
        <ele>266.79998779297</ele>
        <time>2015-06-24T14:14:00Z</time>
      </trkpt>
      <trkpt lat="43.39405" lon="6.10334">
        <ele>266.60000610352</ele>
        <time>2015-06-24T14:14:04Z</time>
      </trkpt>
      <trkpt lat="43.39417" lon="6.10316">
        <ele>267</ele>
        <time>2015-06-24T14:14:08Z</time>
      </trkpt>
      <trkpt lat="43.39423" lon="6.10308">
        <ele>266.60000610352</ele>
        <time>2015-06-24T14:14:10Z</time>
      </trkpt>
      <trkpt lat="43.39426" lon="6.10304">
        <ele>266.20001220703</ele>
        <time>2015-06-24T14:14:11Z</time>
      </trkpt>
      <trkpt lat="43.39434" lon="6.10298">
        <ele>266.39999389648</ele>
        <time>2015-06-24T14:14:13Z</time>
      </trkpt>
      <trkpt lat="43.39441" lon="6.10292">
        <ele>266.79998779297</ele>
        <time>2015-06-24T14:14:15Z</time>
      </trkpt>
      <trkpt lat="43.39445" lon="6.10288">
        <ele>266.79998779297</ele>
        <time>2015-06-24T14:14:16Z</time>
      </trkpt>
      <trkpt lat="43.39456" lon="6.10278">
        <ele>265.79998779297</ele>
        <time>2015-06-24T14:14:19Z</time>
      </trkpt>
      <trkpt lat="43.3946" lon="6.10274">
        <ele>265.20001220703</ele>
        <time>2015-06-24T14:14:20Z</time>
      </trkpt>
      <trkpt lat="43.39469" lon="6.10265">
        <ele>264.60000610352</ele>
        <time>2015-06-24T14:14:22Z</time>
      </trkpt>
      <trkpt lat="43.39478" lon="6.10255">
        <ele>264.60000610352</ele>
        <time>2015-06-24T14:14:24Z</time>
      </trkpt>
      <trkpt lat="43.39482" lon="6.1025">
        <ele>264.20001220703</ele>
        <time>2015-06-24T14:14:25Z</time>
      </trkpt>
      <trkpt lat="43.39487" lon="6.10244">
        <ele>263.60000610352</ele>
        <time>2015-06-24T14:14:26Z</time>
      </trkpt>
      <trkpt lat="43.3949" lon="6.10238">
        <ele>262.79998779297</ele>
        <time>2015-06-24T14:14:27Z</time>
      </trkpt>
      <trkpt lat="43.39495" lon="6.10224">
        <ele>263.20001220703</ele>
        <time>2015-06-24T14:14:29Z</time>
      </trkpt>
      <trkpt lat="43.39498" lon="6.10217">
        <ele>263.39999389648</ele>
        <time>2015-06-24T14:14:30Z</time>
      </trkpt>
      <trkpt lat="43.39502" lon="6.10202">
        <ele>263</ele>
        <time>2015-06-24T14:14:32Z</time>
      </trkpt>
      <trkpt lat="43.39505" lon="6.10188">
        <ele>262.60000610352</ele>
        <time>2015-06-24T14:14:34Z</time>
      </trkpt>
      <trkpt lat="43.39507" lon="6.1018">
        <ele>262.60000610352</ele>
        <time>2015-06-24T14:14:35Z</time>
      </trkpt>
      <trkpt lat="43.39508" lon="6.10173">
        <ele>262.39999389648</ele>
        <time>2015-06-24T14:14:36Z</time>
      </trkpt>
      <trkpt lat="43.39513" lon="6.10159">
        <ele>261.79998779297</ele>
        <time>2015-06-24T14:14:38Z</time>
      </trkpt>
      <trkpt lat="43.39519" lon="6.10137">
        <ele>260.79998779297</ele>
        <time>2015-06-24T14:14:41Z</time>
      </trkpt>
      <trkpt lat="43.39521" lon="6.1013">
        <ele>260.79998779297</ele>
        <time>2015-06-24T14:14:42Z</time>
      </trkpt>
      <trkpt lat="43.39526" lon="6.10116">
        <ele>260.20001220703</ele>
        <time>2015-06-24T14:14:44Z</time>
      </trkpt>
      <trkpt lat="43.39531" lon="6.10103">
        <ele>259.20001220703</ele>
        <time>2015-06-24T14:14:46Z</time>
      </trkpt>
      <trkpt lat="43.39541" lon="6.10086">
        <ele>258.60000610352</ele>
        <time>2015-06-24T14:14:49Z</time>
      </trkpt>
      <trkpt lat="43.39543" lon="6.10079">
        <ele>258.39999389648</ele>
        <time>2015-06-24T14:14:50Z</time>
      </trkpt>
      <trkpt lat="43.39545" lon="6.10073">
        <ele>258.39999389648</ele>
        <time>2015-06-24T14:14:51Z</time>
      </trkpt>
      <trkpt lat="43.3955" lon="6.10053">
        <ele>258.60000610352</ele>
        <time>2015-06-24T14:14:54Z</time>
      </trkpt>
      <trkpt lat="43.39554" lon="6.10039">
        <ele>258</ele>
        <time>2015-06-24T14:14:56Z</time>
      </trkpt>
      <trkpt lat="43.39555" lon="6.10032">
        <ele>258</ele>
        <time>2015-06-24T14:14:57Z</time>
      </trkpt>
      <trkpt lat="43.39555" lon="6.10025">
        <ele>258.20001220703</ele>
        <time>2015-06-24T14:14:58Z</time>
      </trkpt>
      <trkpt lat="43.39554" lon="6.10014">
        <ele>258.20001220703</ele>
        <time>2015-06-24T14:15:00Z</time>
      </trkpt>
      <trkpt lat="43.39553" lon="6.10003">
        <ele>257.79998779297</ele>
        <time>2015-06-24T14:15:02Z</time>
      </trkpt>
      <trkpt lat="43.39553" lon="6.09994">
        <ele>257.60000610352</ele>
        <time>2015-06-24T14:15:04Z</time>
      </trkpt>
      <trkpt lat="43.39553" lon="6.09985">
        <ele>258</ele>
        <time>2015-06-24T14:15:06Z</time>
      </trkpt>
      <trkpt lat="43.39553" lon="6.09981">
        <ele>258</ele>
        <time>2015-06-24T14:15:07Z</time>
      </trkpt>
      <trkpt lat="43.39553" lon="6.09977">
        <ele>257.79998779297</ele>
        <time>2015-06-24T14:15:08Z</time>
      </trkpt>
      <trkpt lat="43.39554" lon="6.09969">
        <ele>258.39999389648</ele>
        <time>2015-06-24T14:15:10Z</time>
      </trkpt>
      <trkpt lat="43.39554" lon="6.09966">
        <ele>258.60000610352</ele>
        <time>2015-06-24T14:15:11Z</time>
      </trkpt>
      <trkpt lat="43.39555" lon="6.09962">
        <ele>258.39999389648</ele>
        <time>2015-06-24T14:15:12Z</time>
      </trkpt>
      <trkpt lat="43.39555" lon="6.09955">
        <ele>258.60000610352</ele>
        <time>2015-06-24T14:15:14Z</time>
      </trkpt>
      <trkpt lat="43.39553" lon="6.09948">
        <ele>259.20001220703</ele>
        <time>2015-06-24T14:15:16Z</time>
      </trkpt>
      <trkpt lat="43.39551" lon="6.09937">
        <ele>260.39999389648</ele>
        <time>2015-06-24T14:15:20Z</time>
      </trkpt>
      <trkpt lat="43.39549" lon="6.09931">
        <ele>260.79998779297</ele>
        <time>2015-06-24T14:15:22Z</time>
      </trkpt>
      <trkpt lat="43.39547" lon="6.09926">
        <ele>260.60000610352</ele>
        <time>2015-06-24T14:15:24Z</time>
      </trkpt>
      <trkpt lat="43.39545" lon="6.09921">
        <ele>261.39999389648</ele>
        <time>2015-06-24T14:15:26Z</time>
      </trkpt>
      <trkpt lat="43.39544" lon="6.09911">
        <ele>261.79998779297</ele>
        <time>2015-06-24T14:15:30Z</time>
      </trkpt>
      <trkpt lat="43.39545" lon="6.09906">
        <ele>262</ele>
        <time>2015-06-24T14:15:32Z</time>
      </trkpt>
      <trkpt lat="43.39548" lon="6.09902">
        <ele>262.60000610352</ele>
        <time>2015-06-24T14:15:34Z</time>
      </trkpt>
      <trkpt lat="43.3955" lon="6.09897">
        <ele>263</ele>
        <time>2015-06-24T14:15:36Z</time>
      </trkpt>
      <trkpt lat="43.39553" lon="6.09891">
        <ele>263.20001220703</ele>
        <time>2015-06-24T14:15:38Z</time>
      </trkpt>
      <trkpt lat="43.39555" lon="6.09884">
        <ele>262.60000610352</ele>
        <time>2015-06-24T14:15:40Z</time>
      </trkpt>
      <trkpt lat="43.39556" lon="6.0988">
        <ele>262.60000610352</ele>
        <time>2015-06-24T14:15:41Z</time>
      </trkpt>
      <trkpt lat="43.39558" lon="6.09866">
        <ele>263</ele>
        <time>2015-06-24T14:15:44Z</time>
      </trkpt>
      <trkpt lat="43.39559" lon="6.09856">
        <ele>263</ele>
        <time>2015-06-24T14:15:46Z</time>
      </trkpt>
      <trkpt lat="43.3956" lon="6.09846">
        <ele>263</ele>
        <time>2015-06-24T14:15:48Z</time>
      </trkpt>
      <trkpt lat="43.39562" lon="6.09837">
        <ele>262.60000610352</ele>
        <time>2015-06-24T14:15:50Z</time>
      </trkpt>
      <trkpt lat="43.39564" lon="6.09829">
        <ele>262.60000610352</ele>
        <time>2015-06-24T14:15:52Z</time>
      </trkpt>
      <trkpt lat="43.39566" lon="6.0982">
        <ele>262.79998779297</ele>
        <time>2015-06-24T14:15:54Z</time>
      </trkpt>
      <trkpt lat="43.39568" lon="6.0981">
        <ele>262.39999389648</ele>
        <time>2015-06-24T14:15:56Z</time>
      </trkpt>
      <trkpt lat="43.39569" lon="6.098">
        <ele>262.79998779297</ele>
        <time>2015-06-24T14:15:58Z</time>
      </trkpt>
      <trkpt lat="43.39571" lon="6.0979">
        <ele>262.79998779297</ele>
        <time>2015-06-24T14:16:00Z</time>
      </trkpt>
      <trkpt lat="43.39573" lon="6.09781">
        <ele>263.20001220703</ele>
        <time>2015-06-24T14:16:02Z</time>
      </trkpt>
      <trkpt lat="43.39575" lon="6.09772">
        <ele>263</ele>
        <time>2015-06-24T14:16:04Z</time>
      </trkpt>
      <trkpt lat="43.39578" lon="6.09762">
        <ele>262.79998779297</ele>
        <time>2015-06-24T14:16:06Z</time>
      </trkpt>
      <trkpt lat="43.39588" lon="6.09732">
        <ele>262.79998779297</ele>
        <time>2015-06-24T14:16:12Z</time>
      </trkpt>
      <trkpt lat="43.39591" lon="6.09721">
        <ele>263</ele>
        <time>2015-06-24T14:16:14Z</time>
      </trkpt>
      <trkpt lat="43.39593" lon="6.0971">
        <ele>263</ele>
        <time>2015-06-24T14:16:16Z</time>
      </trkpt>
      <trkpt lat="43.39595" lon="6.09699">
        <ele>263</ele>
        <time>2015-06-24T14:16:18Z</time>
      </trkpt>
      <trkpt lat="43.39598" lon="6.09687">
        <ele>262.60000610352</ele>
        <time>2015-06-24T14:16:20Z</time>
      </trkpt>
      <trkpt lat="43.396" lon="6.09676">
        <ele>262.60000610352</ele>
        <time>2015-06-24T14:16:22Z</time>
      </trkpt>
      <trkpt lat="43.39603" lon="6.09664">
        <ele>262.60000610352</ele>
        <time>2015-06-24T14:16:24Z</time>
      </trkpt>
      <trkpt lat="43.39605" lon="6.09651">
        <ele>262.60000610352</ele>
        <time>2015-06-24T14:16:26Z</time>
      </trkpt>
      <trkpt lat="43.39607" lon="6.0964">
        <ele>262.39999389648</ele>
        <time>2015-06-24T14:16:28Z</time>
      </trkpt>
      <trkpt lat="43.3961" lon="6.09628">
        <ele>262.60000610352</ele>
        <time>2015-06-24T14:16:30Z</time>
      </trkpt>
      <trkpt lat="43.3961" lon="6.09623">
        <ele>262.39999389648</ele>
        <time>2015-06-24T14:16:31Z</time>
      </trkpt>
      <trkpt lat="43.39611" lon="6.09618">
        <ele>262.39999389648</ele>
        <time>2015-06-24T14:16:32Z</time>
      </trkpt>
      <trkpt lat="43.39614" lon="6.09608">
        <ele>262.60000610352</ele>
        <time>2015-06-24T14:16:34Z</time>
      </trkpt>
      <trkpt lat="43.39616" lon="6.096">
        <ele>262.20001220703</ele>
        <time>2015-06-24T14:16:36Z</time>
      </trkpt>
      <trkpt lat="43.39618" lon="6.09593">
        <ele>262.20001220703</ele>
        <time>2015-06-24T14:16:38Z</time>
      </trkpt>
      <trkpt lat="43.3962" lon="6.09587">
        <ele>262.20001220703</ele>
        <time>2015-06-24T14:16:40Z</time>
      </trkpt>
      <trkpt lat="43.39621" lon="6.09582">
        <ele>262.20001220703</ele>
        <time>2015-06-24T14:16:42Z</time>
      </trkpt>
      <trkpt lat="43.39621" lon="6.09579">
        <ele>262.39999389648</ele>
        <time>2015-06-24T14:16:44Z</time>
      </trkpt>
      <trkpt lat="43.39621" lon="6.09579">
        <ele>262.39999389648</ele>
        <time>2015-06-24T14:16:46Z</time>
      </trkpt>
      <trkpt lat="43.39621" lon="6.09579">
        <ele>262.39999389648</ele>
        <time>2015-06-24T14:16:48Z</time>
      </trkpt>
      <trkpt lat="43.39621" lon="6.09579">
        <ele>262.39999389648</ele>
        <time>2015-06-24T14:16:50Z</time>
      </trkpt>
      <trkpt lat="43.39621" lon="6.09579">
        <ele>262.20001220703</ele>
        <time>2015-06-24T14:16:56Z</time>
      </trkpt>
      <trkpt lat="43.39621" lon="6.09579">
        <ele>262.20001220703</ele>
        <time>2015-06-24T14:16:58Z</time>
      </trkpt>
      <trkpt lat="43.39621" lon="6.09579">
        <ele>262.39999389648</ele>
        <time>2015-06-24T14:17:00Z</time>
      </trkpt>
      <trkpt lat="43.39622" lon="6.09578">
        <ele>262.20001220703</ele>
        <time>2015-06-24T14:17:02Z</time>
      </trkpt>
      <trkpt lat="43.39622" lon="6.09577">
        <ele>262.20001220703</ele>
        <time>2015-06-24T14:17:04Z</time>
      </trkpt>
      <trkpt lat="43.39622" lon="6.09577">
        <ele>262.39999389648</ele>
        <time>2015-06-24T14:17:06Z</time>
      </trkpt>
      <trkpt lat="43.39622" lon="6.09577">
        <ele>262.20001220703</ele>
        <time>2015-06-24T14:17:10Z</time>
      </trkpt>
      <trkpt lat="43.39622" lon="6.09577">
        <ele>262.20001220703</ele>
        <time>2015-06-24T14:17:14Z</time>
      </trkpt>
      <trkpt lat="43.39622" lon="6.09577">
        <ele>262.39999389648</ele>
        <time>2015-06-24T14:17:16Z</time>
      </trkpt>
      <trkpt lat="43.39622" lon="6.09576">
        <ele>262</ele>
        <time>2015-06-24T14:17:20Z</time>
      </trkpt>
      <trkpt lat="43.39622" lon="6.09576">
        <ele>261.79998779297</ele>
        <time>2015-06-24T14:17:21Z</time>
      </trkpt>
      <trkpt lat="43.39622" lon="6.09576">
        <ele>261.79998779297</ele>
        <time>2015-06-24T14:17:22Z</time>
      </trkpt>
      <trkpt lat="43.39622" lon="6.09576">
        <ele>261.79998779297</ele>
        <time>2015-06-24T14:17:26Z</time>
      </trkpt>
      <trkpt lat="43.39622" lon="6.09576">
        <ele>261.79998779297</ele>
        <time>2015-06-24T14:17:28Z</time>
      </trkpt>
      <trkpt lat="43.39622" lon="6.09576">
        <ele>261.60000610352</ele>
        <time>2015-06-24T14:17:32Z</time>
      </trkpt>
      <trkpt lat="43.39622" lon="6.09576">
        <ele>261.39999389648</ele>
        <time>2015-06-24T14:17:40Z</time>
      </trkpt>
      <trkpt lat="43.39622" lon="6.09576">
        <ele>261.60000610352</ele>
        <time>2015-06-24T14:17:42Z</time>
      </trkpt>
      <trkpt lat="43.39622" lon="6.09576">
        <ele>261.60000610352</ele>
        <time>2015-06-24T14:17:44Z</time>
      </trkpt>
      <trkpt lat="43.39622" lon="6.09576">
        <ele>261.60000610352</ele>
        <time>2015-06-24T14:17:46Z</time>
      </trkpt>
      <trkpt lat="43.39622" lon="6.09576">
        <ele>261.60000610352</ele>
        <time>2015-06-24T14:17:52Z</time>
      </trkpt>
      <trkpt lat="43.39622" lon="6.09576">
        <ele>261.79998779297</ele>
        <time>2015-06-24T14:17:58Z</time>
      </trkpt>
      <trkpt lat="43.39622" lon="6.09576">
        <ele>261.60000610352</ele>
        <time>2015-06-24T14:18:02Z</time>
      </trkpt>
      <trkpt lat="43.39622" lon="6.09575">
        <ele>261.79998779297</ele>
        <time>2015-06-24T14:18:04Z</time>
      </trkpt>
      <trkpt lat="43.39622" lon="6.09574">
        <ele>261.60000610352</ele>
        <time>2015-06-24T14:18:05Z</time>
      </trkpt>
      <trkpt lat="43.39623" lon="6.09573">
        <ele>261.60000610352</ele>
        <time>2015-06-24T14:18:06Z</time>
      </trkpt>
      <trkpt lat="43.39625" lon="6.09566">
        <ele>261.39999389648</ele>
        <time>2015-06-24T14:18:08Z</time>
      </trkpt>
      <trkpt lat="43.39627" lon="6.09557">
        <ele>261</ele>
        <time>2015-06-24T14:18:10Z</time>
      </trkpt>
      <trkpt lat="43.39629" lon="6.09552">
        <ele>260.79998779297</ele>
        <time>2015-06-24T14:18:11Z</time>
      </trkpt>
      <trkpt lat="43.39632" lon="6.09548">
        <ele>260.39999389648</ele>
        <time>2015-06-24T14:18:12Z</time>
      </trkpt>
      <trkpt lat="43.39639" lon="6.09539">
        <ele>259.79998779297</ele>
        <time>2015-06-24T14:18:14Z</time>
      </trkpt>
      <trkpt lat="43.39647" lon="6.09529">
        <ele>259.79998779297</ele>
        <time>2015-06-24T14:18:16Z</time>
      </trkpt>
      <trkpt lat="43.3965" lon="6.09523">
        <ele>259.20001220703</ele>
        <time>2015-06-24T14:18:17Z</time>
      </trkpt>
      <trkpt lat="43.39653" lon="6.09517">
        <ele>258.79998779297</ele>
        <time>2015-06-24T14:18:18Z</time>
      </trkpt>
      <trkpt lat="43.39656" lon="6.0951">
        <ele>258.39999389648</ele>
        <time>2015-06-24T14:18:19Z</time>
      </trkpt>
      <trkpt lat="43.3966" lon="6.09503">
        <ele>257.20001220703</ele>
        <time>2015-06-24T14:18:20Z</time>
      </trkpt>
      <trkpt lat="43.39666" lon="6.09487">
        <ele>255</ele>
        <time>2015-06-24T14:18:22Z</time>
      </trkpt>
      <trkpt lat="43.39671" lon="6.0947">
        <ele>254.19999694824</ele>
        <time>2015-06-24T14:18:24Z</time>
      </trkpt>
      <trkpt lat="43.39677" lon="6.09454">
        <ele>253.80000305176</ele>
        <time>2015-06-24T14:18:26Z</time>
      </trkpt>
      <trkpt lat="43.39679" lon="6.09447">
        <ele>253.19999694824</ele>
        <time>2015-06-24T14:18:27Z</time>
      </trkpt>
      <trkpt lat="43.39683" lon="6.09441">
        <ele>252.19999694824</ele>
        <time>2015-06-24T14:18:28Z</time>
      </trkpt>
      <trkpt lat="43.39693" lon="6.09428">
        <ele>250.19999694824</ele>
        <time>2015-06-24T14:18:30Z</time>
      </trkpt>
      <trkpt lat="43.39706" lon="6.0942">
        <ele>249.19999694824</ele>
        <time>2015-06-24T14:18:32Z</time>
      </trkpt>
      <trkpt lat="43.39712" lon="6.09416">
        <ele>248.80000305176</ele>
        <time>2015-06-24T14:18:33Z</time>
      </trkpt>
      <trkpt lat="43.39718" lon="6.09413">
        <ele>248</ele>
        <time>2015-06-24T14:18:34Z</time>
      </trkpt>
      <trkpt lat="43.39729" lon="6.09402">
        <ele>247.19999694824</ele>
        <time>2015-06-24T14:18:36Z</time>
      </trkpt>
      <trkpt lat="43.39733" lon="6.09396">
        <ele>247</ele>
        <time>2015-06-24T14:18:37Z</time>
      </trkpt>
      <trkpt lat="43.39744" lon="6.09377">
        <ele>246</ele>
        <time>2015-06-24T14:18:40Z</time>
      </trkpt>
      <trkpt lat="43.39751" lon="6.09364">
        <ele>246.39999389648</ele>
        <time>2015-06-24T14:18:42Z</time>
      </trkpt>
      <trkpt lat="43.39754" lon="6.09358">
        <ele>246.60000610352</ele>
        <time>2015-06-24T14:18:43Z</time>
      </trkpt>
      <trkpt lat="43.39758" lon="6.09352">
        <ele>246.39999389648</ele>
        <time>2015-06-24T14:18:44Z</time>
      </trkpt>
      <trkpt lat="43.39764" lon="6.0934">
        <ele>246.60000610352</ele>
        <time>2015-06-24T14:18:46Z</time>
      </trkpt>
      <trkpt lat="43.39771" lon="6.09327">
        <ele>246.39999389648</ele>
        <time>2015-06-24T14:18:48Z</time>
      </trkpt>
      <trkpt lat="43.39775" lon="6.0932">
        <ele>246.19999694824</ele>
        <time>2015-06-24T14:18:49Z</time>
      </trkpt>
      <trkpt lat="43.39777" lon="6.09312">
        <ele>246</ele>
        <time>2015-06-24T14:18:50Z</time>
      </trkpt>
      <trkpt lat="43.39782" lon="6.09299">
        <ele>246.39999389648</ele>
        <time>2015-06-24T14:18:52Z</time>
      </trkpt>
      <trkpt lat="43.39787" lon="6.09286">
        <ele>246.19999694824</ele>
        <time>2015-06-24T14:18:54Z</time>
      </trkpt>
      <trkpt lat="43.39788" lon="6.09279">
        <ele>246</ele>
        <time>2015-06-24T14:18:55Z</time>
      </trkpt>
      <trkpt lat="43.3979" lon="6.09272">
        <ele>245.80000305176</ele>
        <time>2015-06-24T14:18:56Z</time>
      </trkpt>
      <trkpt lat="43.39793" lon="6.0926">
        <ele>245.80000305176</ele>
        <time>2015-06-24T14:18:58Z</time>
      </trkpt>
      <trkpt lat="43.39795" lon="6.09248">
        <ele>246</ele>
        <time>2015-06-24T14:19:00Z</time>
      </trkpt>
      <trkpt lat="43.39797" lon="6.09236">
        <ele>246</ele>
        <time>2015-06-24T14:19:02Z</time>
      </trkpt>
      <trkpt lat="43.39798" lon="6.0923">
        <ele>246.19999694824</ele>
        <time>2015-06-24T14:19:03Z</time>
      </trkpt>
      <trkpt lat="43.39798" lon="6.09224">
        <ele>246.39999389648</ele>
        <time>2015-06-24T14:19:04Z</time>
      </trkpt>
      <trkpt lat="43.39799" lon="6.09212">
        <ele>246.80000305176</ele>
        <time>2015-06-24T14:19:06Z</time>
      </trkpt>
      <trkpt lat="43.39799" lon="6.09199">
        <ele>246.39999389648</ele>
        <time>2015-06-24T14:19:08Z</time>
      </trkpt>
      <trkpt lat="43.39799" lon="6.09186">
        <ele>246.39999389648</ele>
        <time>2015-06-24T14:19:10Z</time>
      </trkpt>
      <trkpt lat="43.39799" lon="6.09173">
        <ele>246.80000305176</ele>
        <time>2015-06-24T14:19:12Z</time>
      </trkpt>
      <trkpt lat="43.39799" lon="6.09162">
        <ele>247.19999694824</ele>
        <time>2015-06-24T14:19:14Z</time>
      </trkpt>
      <trkpt lat="43.398" lon="6.09151">
        <ele>247.80000305176</ele>
        <time>2015-06-24T14:19:16Z</time>
      </trkpt>
      <trkpt lat="43.39802" lon="6.0914">
        <ele>248</ele>
        <time>2015-06-24T14:19:18Z</time>
      </trkpt>
      <trkpt lat="43.39804" lon="6.09128">
        <ele>248.39999389648</ele>
        <time>2015-06-24T14:19:20Z</time>
      </trkpt>
      <trkpt lat="43.39806" lon="6.09118">
        <ele>248.39999389648</ele>
        <time>2015-06-24T14:19:22Z</time>
      </trkpt>
      <trkpt lat="43.39808" lon="6.09113">
        <ele>248.39999389648</ele>
        <time>2015-06-24T14:19:23Z</time>
      </trkpt>
      <trkpt lat="43.39809" lon="6.09108">
        <ele>248.39999389648</ele>
        <time>2015-06-24T14:19:24Z</time>
      </trkpt>
      <trkpt lat="43.39812" lon="6.09098">
        <ele>248.60000610352</ele>
        <time>2015-06-24T14:19:26Z</time>
      </trkpt>
      <trkpt lat="43.39815" lon="6.09088">
        <ele>249</ele>
        <time>2015-06-24T14:19:28Z</time>
      </trkpt>
      <trkpt lat="43.39818" lon="6.09078">
        <ele>249.39999389648</ele>
        <time>2015-06-24T14:19:30Z</time>
      </trkpt>
      <trkpt lat="43.3982" lon="6.09072">
        <ele>249.60000610352</ele>
        <time>2015-06-24T14:19:31Z</time>
      </trkpt>
      <trkpt lat="43.39822" lon="6.09067">
        <ele>250</ele>
        <time>2015-06-24T14:19:32Z</time>
      </trkpt>
      <trkpt lat="43.39828" lon="6.09056">
        <ele>249.19999694824</ele>
        <time>2015-06-24T14:19:34Z</time>
      </trkpt>
      <trkpt lat="43.39835" lon="6.09046">
        <ele>249</ele>
        <time>2015-06-24T14:19:36Z</time>
      </trkpt>
      <trkpt lat="43.3984" lon="6.09041">
        <ele>248.60000610352</ele>
        <time>2015-06-24T14:19:37Z</time>
      </trkpt>
      <trkpt lat="43.39845" lon="6.09036">
        <ele>248.19999694824</ele>
        <time>2015-06-24T14:19:38Z</time>
      </trkpt>
      <trkpt lat="43.39849" lon="6.09031">
        <ele>248</ele>
        <time>2015-06-24T14:19:39Z</time>
      </trkpt>
      <trkpt lat="43.39858" lon="6.0902">
        <ele>247.39999389648</ele>
        <time>2015-06-24T14:19:41Z</time>
      </trkpt>
      <trkpt lat="43.39862" lon="6.09014">
        <ele>247</ele>
        <time>2015-06-24T14:19:42Z</time>
      </trkpt>
      <trkpt lat="43.39872" lon="6.09002">
        <ele>247.80000305176</ele>
        <time>2015-06-24T14:19:44Z</time>
      </trkpt>
      <trkpt lat="43.39883" lon="6.08995">
        <ele>246.60000610352</ele>
        <time>2015-06-24T14:19:46Z</time>
      </trkpt>
      <trkpt lat="43.39888" lon="6.08993">
        <ele>246.19999694824</ele>
        <time>2015-06-24T14:19:47Z</time>
      </trkpt>
      <trkpt lat="43.39893" lon="6.08991">
        <ele>246.19999694824</ele>
        <time>2015-06-24T14:19:48Z</time>
      </trkpt>
      <trkpt lat="43.39904" lon="6.08991">
        <ele>245.80000305176</ele>
        <time>2015-06-24T14:19:50Z</time>
      </trkpt>
      <trkpt lat="43.39909" lon="6.08992">
        <ele>244.80000305176</ele>
        <time>2015-06-24T14:19:51Z</time>
      </trkpt>
      <trkpt lat="43.39914" lon="6.08992">
        <ele>244.60000610352</ele>
        <time>2015-06-24T14:19:52Z</time>
      </trkpt>
      <trkpt lat="43.39928" lon="6.0899">
        <ele>243.60000610352</ele>
        <time>2015-06-24T14:19:54Z</time>
      </trkpt>
      <trkpt lat="43.39936" lon="6.08989">
        <ele>242.60000610352</ele>
        <time>2015-06-24T14:19:55Z</time>
      </trkpt>
      <trkpt lat="43.39943" lon="6.08987">
        <ele>242.19999694824</ele>
        <time>2015-06-24T14:19:56Z</time>
      </trkpt>
      <trkpt lat="43.39957" lon="6.08984">
        <ele>242</ele>
        <time>2015-06-24T14:19:58Z</time>
      </trkpt>
      <trkpt lat="43.39964" lon="6.08983">
        <ele>242</ele>
        <time>2015-06-24T14:19:59Z</time>
      </trkpt>
      <trkpt lat="43.39984" lon="6.08978">
        <ele>241.80000305176</ele>
        <time>2015-06-24T14:20:02Z</time>
      </trkpt>
      <trkpt lat="43.3999" lon="6.08976">
        <ele>241.80000305176</ele>
        <time>2015-06-24T14:20:03Z</time>
      </trkpt>
      <trkpt lat="43.39996" lon="6.08975">
        <ele>241.80000305176</ele>
        <time>2015-06-24T14:20:04Z</time>
      </trkpt>
      <trkpt lat="43.40001" lon="6.08973">
        <ele>241.80000305176</ele>
        <time>2015-06-24T14:20:05Z</time>
      </trkpt>
      <trkpt lat="43.40007" lon="6.0897">
        <ele>241.60000610352</ele>
        <time>2015-06-24T14:20:06Z</time>
      </trkpt>
      <trkpt lat="43.40017" lon="6.08961">
        <ele>241.80000305176</ele>
        <time>2015-06-24T14:20:08Z</time>
      </trkpt>
      <trkpt lat="43.40021" lon="6.08954">
        <ele>241.80000305176</ele>
        <time>2015-06-24T14:20:09Z</time>
      </trkpt>
      <trkpt lat="43.40024" lon="6.08948">
        <ele>241.39999389648</ele>
        <time>2015-06-24T14:20:10Z</time>
      </trkpt>
      <trkpt lat="43.40026" lon="6.08941">
        <ele>241</ele>
        <time>2015-06-24T14:20:11Z</time>
      </trkpt>
      <trkpt lat="43.40028" lon="6.08933">
        <ele>241</ele>
        <time>2015-06-24T14:20:12Z</time>
      </trkpt>
      <trkpt lat="43.4003" lon="6.08926">
        <ele>241.19999694824</ele>
        <time>2015-06-24T14:20:13Z</time>
      </trkpt>
      <trkpt lat="43.40031" lon="6.08919">
        <ele>241.39999389648</ele>
        <time>2015-06-24T14:20:14Z</time>
      </trkpt>
      <trkpt lat="43.40035" lon="6.08909">
        <ele>241.19999694824</ele>
        <time>2015-06-24T14:20:16Z</time>
      </trkpt>
      <trkpt lat="43.40036" lon="6.08906">
        <ele>241</ele>
        <time>2015-06-24T14:20:17Z</time>
      </trkpt>
      <trkpt lat="43.40038" lon="6.08903">
        <ele>240.80000305176</ele>
        <time>2015-06-24T14:20:18Z</time>
      </trkpt>
      <trkpt lat="43.4004" lon="6.08898">
        <ele>240.60000610352</ele>
        <time>2015-06-24T14:20:20Z</time>
      </trkpt>
      <trkpt lat="43.40042" lon="6.08891">
        <ele>240.80000305176</ele>
        <time>2015-06-24T14:20:22Z</time>
      </trkpt>
      <trkpt lat="43.40044" lon="6.08884">
        <ele>241</ele>
        <time>2015-06-24T14:20:24Z</time>
      </trkpt>
      <trkpt lat="43.40048" lon="6.08875">
        <ele>241.19999694824</ele>
        <time>2015-06-24T14:20:26Z</time>
      </trkpt>
      <trkpt lat="43.40052" lon="6.08865">
        <ele>241.39999389648</ele>
        <time>2015-06-24T14:20:28Z</time>
      </trkpt>
      <trkpt lat="43.40055" lon="6.08856">
        <ele>241.39999389648</ele>
        <time>2015-06-24T14:20:30Z</time>
      </trkpt>
      <trkpt lat="43.4006" lon="6.08844">
        <ele>241.80000305176</ele>
        <time>2015-06-24T14:20:32Z</time>
      </trkpt>
      <trkpt lat="43.40062" lon="6.08838">
        <ele>241.80000305176</ele>
        <time>2015-06-24T14:20:33Z</time>
      </trkpt>
      <trkpt lat="43.40064" lon="6.08833">
        <ele>241.60000610352</ele>
        <time>2015-06-24T14:20:34Z</time>
      </trkpt>
      <trkpt lat="43.40069" lon="6.08821">
        <ele>241.80000305176</ele>
        <time>2015-06-24T14:20:36Z</time>
      </trkpt>
      <trkpt lat="43.40073" lon="6.08808">
        <ele>241.80000305176</ele>
        <time>2015-06-24T14:20:38Z</time>
      </trkpt>
      <trkpt lat="43.40078" lon="6.08796">
        <ele>241.39999389648</ele>
        <time>2015-06-24T14:20:40Z</time>
      </trkpt>
      <trkpt lat="43.40083" lon="6.08783">
        <ele>241.80000305176</ele>
        <time>2015-06-24T14:20:42Z</time>
      </trkpt>
      <trkpt lat="43.40087" lon="6.08769">
        <ele>241.60000610352</ele>
        <time>2015-06-24T14:20:44Z</time>
      </trkpt>
      <trkpt lat="43.40092" lon="6.08754">
        <ele>241.60000610352</ele>
        <time>2015-06-24T14:20:46Z</time>
      </trkpt>
      <trkpt lat="43.40096" lon="6.08739">
        <ele>241.80000305176</ele>
        <time>2015-06-24T14:20:48Z</time>
      </trkpt>
      <trkpt lat="43.40098" lon="6.08731">
        <ele>242</ele>
        <time>2015-06-24T14:20:49Z</time>
      </trkpt>
      <trkpt lat="43.40099" lon="6.08722">
        <ele>242</ele>
        <time>2015-06-24T14:20:50Z</time>
      </trkpt>
      <trkpt lat="43.40102" lon="6.08706">
        <ele>241.60000610352</ele>
        <time>2015-06-24T14:20:52Z</time>
      </trkpt>
      <trkpt lat="43.40104" lon="6.08689">
        <ele>241.19999694824</ele>
        <time>2015-06-24T14:20:54Z</time>
      </trkpt>
      <trkpt lat="43.40103" lon="6.08681">
        <ele>240.60000610352</ele>
        <time>2015-06-24T14:20:55Z</time>
      </trkpt>
      <trkpt lat="43.40099" lon="6.08658">
        <ele>238.80000305176</ele>
        <time>2015-06-24T14:20:58Z</time>
      </trkpt>
      <trkpt lat="43.40101" lon="6.08643">
        <ele>238.60000610352</ele>
        <time>2015-06-24T14:21:00Z</time>
      </trkpt>
      <trkpt lat="43.40108" lon="6.0863">
        <ele>238.39999389648</ele>
        <time>2015-06-24T14:21:02Z</time>
      </trkpt>
      <trkpt lat="43.40113" lon="6.08625">
        <ele>238.39999389648</ele>
        <time>2015-06-24T14:21:03Z</time>
      </trkpt>
      <trkpt lat="43.40117" lon="6.08621">
        <ele>238.19999694824</ele>
        <time>2015-06-24T14:21:04Z</time>
      </trkpt>
      <trkpt lat="43.40127" lon="6.08612">
        <ele>237.80000305176</ele>
        <time>2015-06-24T14:21:06Z</time>
      </trkpt>
      <trkpt lat="43.40137" lon="6.08603">
        <ele>237.39999389648</ele>
        <time>2015-06-24T14:21:08Z</time>
      </trkpt>
      <trkpt lat="43.40142" lon="6.08599">
        <ele>237.60000610352</ele>
        <time>2015-06-24T14:21:09Z</time>
      </trkpt>
      <trkpt lat="43.40147" lon="6.08596">
        <ele>237.80000305176</ele>
        <time>2015-06-24T14:21:10Z</time>
      </trkpt>
      <trkpt lat="43.40157" lon="6.0859">
        <ele>236.80000305176</ele>
        <time>2015-06-24T14:21:12Z</time>
      </trkpt>
      <trkpt lat="43.40162" lon="6.08586">
        <ele>236.80000305176</ele>
        <time>2015-06-24T14:21:13Z</time>
      </trkpt>
      <trkpt lat="43.40165" lon="6.0858">
        <ele>236.80000305176</ele>
        <time>2015-06-24T14:21:14Z</time>
      </trkpt>
      <trkpt lat="43.40168" lon="6.08568">
        <ele>236.39999389648</ele>
        <time>2015-06-24T14:21:16Z</time>
      </trkpt>
      <trkpt lat="43.40168" lon="6.08562">
        <ele>236.80000305176</ele>
        <time>2015-06-24T14:21:17Z</time>
      </trkpt>
      <trkpt lat="43.40168" lon="6.08556">
        <ele>237</ele>
        <time>2015-06-24T14:21:18Z</time>
      </trkpt>
      <trkpt lat="43.40167" lon="6.08545">
        <ele>237</ele>
        <time>2015-06-24T14:21:20Z</time>
      </trkpt>
      <trkpt lat="43.40166" lon="6.08535">
        <ele>237</ele>
        <time>2015-06-24T14:21:22Z</time>
      </trkpt>
      <trkpt lat="43.40167" lon="6.08524">
        <ele>237.60000610352</ele>
        <time>2015-06-24T14:21:24Z</time>
      </trkpt>
      <trkpt lat="43.40168" lon="6.08514">
        <ele>237.60000610352</ele>
        <time>2015-06-24T14:21:26Z</time>
      </trkpt>
      <trkpt lat="43.40171" lon="6.08493">
        <ele>238</ele>
        <time>2015-06-24T14:21:30Z</time>
      </trkpt>
      <trkpt lat="43.40173" lon="6.08481">
        <ele>238</ele>
        <time>2015-06-24T14:21:32Z</time>
      </trkpt>
      <trkpt lat="43.40176" lon="6.0847">
        <ele>238</ele>
        <time>2015-06-24T14:21:34Z</time>
      </trkpt>
      <trkpt lat="43.40177" lon="6.08459">
        <ele>238</ele>
        <time>2015-06-24T14:21:36Z</time>
      </trkpt>
      <trkpt lat="43.40179" lon="6.08448">
        <ele>238.39999389648</ele>
        <time>2015-06-24T14:21:38Z</time>
      </trkpt>
      <trkpt lat="43.40179" lon="6.08441">
        <ele>238.60000610352</ele>
        <time>2015-06-24T14:21:39Z</time>
      </trkpt>
      <trkpt lat="43.40179" lon="6.08425">
        <ele>238.39999389648</ele>
        <time>2015-06-24T14:21:41Z</time>
      </trkpt>
      <trkpt lat="43.40179" lon="6.08418">
        <ele>238.19999694824</ele>
        <time>2015-06-24T14:21:42Z</time>
      </trkpt>
      <trkpt lat="43.4018" lon="6.08401">
        <ele>237.60000610352</ele>
        <time>2015-06-24T14:21:44Z</time>
      </trkpt>
      <trkpt lat="43.40181" lon="6.08386">
        <ele>237.80000305176</ele>
        <time>2015-06-24T14:21:46Z</time>
      </trkpt>
      <trkpt lat="43.40181" lon="6.0837">
        <ele>237.80000305176</ele>
        <time>2015-06-24T14:21:48Z</time>
      </trkpt>
      <trkpt lat="43.40182" lon="6.08354">
        <ele>237.80000305176</ele>
        <time>2015-06-24T14:21:50Z</time>
      </trkpt>
      <trkpt lat="43.40183" lon="6.08338">
        <ele>237.19999694824</ele>
        <time>2015-06-24T14:21:52Z</time>
      </trkpt>
      <trkpt lat="43.40183" lon="6.0833">
        <ele>237</ele>
        <time>2015-06-24T14:21:53Z</time>
      </trkpt>
      <trkpt lat="43.40183" lon="6.08322">
        <ele>237.19999694824</ele>
        <time>2015-06-24T14:21:54Z</time>
      </trkpt>
      <trkpt lat="43.40184" lon="6.08307">
        <ele>237.19999694824</ele>
        <time>2015-06-24T14:21:56Z</time>
      </trkpt>
      <trkpt lat="43.40185" lon="6.08294">
        <ele>237</ele>
        <time>2015-06-24T14:21:58Z</time>
      </trkpt>
      <trkpt lat="43.40187" lon="6.08283">
        <ele>237</ele>
        <time>2015-06-24T14:22:00Z</time>
      </trkpt>
      <trkpt lat="43.40188" lon="6.08274">
        <ele>237</ele>
        <time>2015-06-24T14:22:02Z</time>
      </trkpt>
      <trkpt lat="43.40188" lon="6.08268">
        <ele>236.80000305176</ele>
        <time>2015-06-24T14:22:04Z</time>
      </trkpt>
      <trkpt lat="43.40188" lon="6.08266">
        <ele>236.60000610352</ele>
        <time>2015-06-24T14:22:05Z</time>
      </trkpt>
      <trkpt lat="43.40187" lon="6.08265">
        <ele>236.39999389648</ele>
        <time>2015-06-24T14:22:06Z</time>
      </trkpt>
      <trkpt lat="43.40187" lon="6.08265">
        <ele>236.19999694824</ele>
        <time>2015-06-24T14:22:08Z</time>
      </trkpt>
      <trkpt lat="43.40186" lon="6.08264">
        <ele>236.19999694824</ele>
        <time>2015-06-24T14:22:09Z</time>
      </trkpt>
      <trkpt lat="43.40186" lon="6.08264">
        <ele>236.19999694824</ele>
        <time>2015-06-24T14:22:10Z</time>
      </trkpt>
      <trkpt lat="43.40186" lon="6.08264">
        <ele>236.19999694824</ele>
        <time>2015-06-24T14:22:12Z</time>
      </trkpt>
      <trkpt lat="43.40186" lon="6.08259">
        <ele>236.39999389648</ele>
        <time>2015-06-24T14:22:14Z</time>
      </trkpt>
      <trkpt lat="43.40186" lon="6.08256">
        <ele>236.60000610352</ele>
        <time>2015-06-24T14:22:15Z</time>
      </trkpt>
      <trkpt lat="43.40185" lon="6.08253">
        <ele>236.39999389648</ele>
        <time>2015-06-24T14:22:16Z</time>
      </trkpt>
      <trkpt lat="43.40184" lon="6.08244">
        <ele>236</ele>
        <time>2015-06-24T14:22:18Z</time>
      </trkpt>
      <trkpt lat="43.40184" lon="6.08235">
        <ele>236</ele>
        <time>2015-06-24T14:22:20Z</time>
      </trkpt>
      <trkpt lat="43.40185" lon="6.08231">
        <ele>236.19999694824</ele>
        <time>2015-06-24T14:22:21Z</time>
      </trkpt>
      <trkpt lat="43.40186" lon="6.08226">
        <ele>236.19999694824</ele>
        <time>2015-06-24T14:22:22Z</time>
      </trkpt>
      <trkpt lat="43.40188" lon="6.08217">
        <ele>236.19999694824</ele>
        <time>2015-06-24T14:22:24Z</time>
      </trkpt>
      <trkpt lat="43.40191" lon="6.08207">
        <ele>236.39999389648</ele>
        <time>2015-06-24T14:22:26Z</time>
      </trkpt>
      <trkpt lat="43.40194" lon="6.08198">
        <ele>236.39999389648</ele>
        <time>2015-06-24T14:22:28Z</time>
      </trkpt>
      <trkpt lat="43.40196" lon="6.08187">
        <ele>236.19999694824</ele>
        <time>2015-06-24T14:22:30Z</time>
      </trkpt>
      <trkpt lat="43.40198" lon="6.08174">
        <ele>236.60000610352</ele>
        <time>2015-06-24T14:22:32Z</time>
      </trkpt>
      <trkpt lat="43.40199" lon="6.08168">
        <ele>236.60000610352</ele>
        <time>2015-06-24T14:22:33Z</time>
      </trkpt>
      <trkpt lat="43.402" lon="6.08161">
        <ele>236.19999694824</ele>
        <time>2015-06-24T14:22:34Z</time>
      </trkpt>
      <trkpt lat="43.40201" lon="6.08147">
        <ele>235.60000610352</ele>
        <time>2015-06-24T14:22:36Z</time>
      </trkpt>
      <trkpt lat="43.402" lon="6.08131">
        <ele>235</ele>
        <time>2015-06-24T14:22:38Z</time>
      </trkpt>
      <trkpt lat="43.40198" lon="6.08124">
        <ele>234.60000610352</ele>
        <time>2015-06-24T14:22:39Z</time>
      </trkpt>
      <trkpt lat="43.40195" lon="6.08117">
        <ele>234.39999389648</ele>
        <time>2015-06-24T14:22:40Z</time>
      </trkpt>
      <trkpt lat="43.40194" lon="6.08109">
        <ele>234.19999694824</ele>
        <time>2015-06-24T14:22:41Z</time>
      </trkpt>
      <trkpt lat="43.40194" lon="6.08093">
        <ele>234</ele>
        <time>2015-06-24T14:22:43Z</time>
      </trkpt>
      <trkpt lat="43.40203" lon="6.08069">
        <ele>233.39999389648</ele>
        <time>2015-06-24T14:22:46Z</time>
      </trkpt>
      <trkpt lat="43.40228" lon="6.08034">
        <ele>233</ele>
        <time>2015-06-24T14:22:51Z</time>
      </trkpt>
      <trkpt lat="43.40234" lon="6.08028">
        <ele>232.60000610352</ele>
        <time>2015-06-24T14:22:52Z</time>
      </trkpt>
      <trkpt lat="43.40239" lon="6.08021">
        <ele>232</ele>
        <time>2015-06-24T14:22:53Z</time>
      </trkpt>
      <trkpt lat="43.40256" lon="6.07999">
        <ele>231.19999694824</ele>
        <time>2015-06-24T14:22:56Z</time>
      </trkpt>
      <trkpt lat="43.40261" lon="6.07991">
        <ele>231</ele>
        <time>2015-06-24T14:22:57Z</time>
      </trkpt>
      <trkpt lat="43.40267" lon="6.07983">
        <ele>230.80000305176</ele>
        <time>2015-06-24T14:22:58Z</time>
      </trkpt>
      <trkpt lat="43.40277" lon="6.07964">
        <ele>230.39999389648</ele>
        <time>2015-06-24T14:23:00Z</time>
      </trkpt>
      <trkpt lat="43.40281" lon="6.07953">
        <ele>230.19999694824</ele>
        <time>2015-06-24T14:23:01Z</time>
      </trkpt>
      <trkpt lat="43.40287" lon="6.07933">
        <ele>229.39999389648</ele>
        <time>2015-06-24T14:23:03Z</time>
      </trkpt>
      <trkpt lat="43.40294" lon="6.07901">
        <ele>228.80000305176</ele>
        <time>2015-06-24T14:23:06Z</time>
      </trkpt>
      <trkpt lat="43.40295" lon="6.07889">
        <ele>228.60000610352</ele>
        <time>2015-06-24T14:23:07Z</time>
      </trkpt>
      <trkpt lat="43.40297" lon="6.07878">
        <ele>228.19999694824</ele>
        <time>2015-06-24T14:23:08Z</time>
      </trkpt>
      <trkpt lat="43.40302" lon="6.07845">
        <ele>227</ele>
        <time>2015-06-24T14:23:11Z</time>
      </trkpt>
      <trkpt lat="43.40303" lon="6.07834">
        <ele>226.80000305176</ele>
        <time>2015-06-24T14:23:12Z</time>
      </trkpt>
      <trkpt lat="43.40308" lon="6.07789">
        <ele>226.80000305176</ele>
        <time>2015-06-24T14:23:16Z</time>
      </trkpt>
      <trkpt lat="43.40311" lon="6.07766">
        <ele>226.39999389648</ele>
        <time>2015-06-24T14:23:18Z</time>
      </trkpt>
      <trkpt lat="43.40314" lon="6.07744">
        <ele>226.39999389648</ele>
        <time>2015-06-24T14:23:20Z</time>
      </trkpt>
      <trkpt lat="43.40319" lon="6.07723">
        <ele>225.60000610352</ele>
        <time>2015-06-24T14:23:22Z</time>
      </trkpt>
      <trkpt lat="43.40327" lon="6.07703">
        <ele>224.80000305176</ele>
        <time>2015-06-24T14:23:24Z</time>
      </trkpt>
      <trkpt lat="43.40332" lon="6.07694">
        <ele>224.60000610352</ele>
        <time>2015-06-24T14:23:25Z</time>
      </trkpt>
      <trkpt lat="43.40339" lon="6.07687">
        <ele>224.60000610352</ele>
        <time>2015-06-24T14:23:26Z</time>
      </trkpt>
      <trkpt lat="43.40351" lon="6.07673">
        <ele>224.39999389648</ele>
        <time>2015-06-24T14:23:28Z</time>
      </trkpt>
      <trkpt lat="43.40357" lon="6.07664">
        <ele>224.19999694824</ele>
        <time>2015-06-24T14:23:29Z</time>
      </trkpt>
      <trkpt lat="43.40362" lon="6.07656">
        <ele>224.19999694824</ele>
        <time>2015-06-24T14:23:30Z</time>
      </trkpt>
      <trkpt lat="43.40369" lon="6.07635">
        <ele>223.80000305176</ele>
        <time>2015-06-24T14:23:32Z</time>
      </trkpt>
      <trkpt lat="43.40373" lon="6.07614">
        <ele>224</ele>
        <time>2015-06-24T14:23:34Z</time>
      </trkpt>
      <trkpt lat="43.40375" lon="6.07592">
        <ele>224</ele>
        <time>2015-06-24T14:23:36Z</time>
      </trkpt>
      <trkpt lat="43.40376" lon="6.07554">
        <ele>224.39999389648</ele>
        <time>2015-06-24T14:23:40Z</time>
      </trkpt>
      <trkpt lat="43.40376" lon="6.07535">
        <ele>224.60000610352</ele>
        <time>2015-06-24T14:23:42Z</time>
      </trkpt>
      <trkpt lat="43.40378" lon="6.07518">
        <ele>224.60000610352</ele>
        <time>2015-06-24T14:23:44Z</time>
      </trkpt>
      <trkpt lat="43.4038" lon="6.07501">
        <ele>224.80000305176</ele>
        <time>2015-06-24T14:23:46Z</time>
      </trkpt>
      <trkpt lat="43.40383" lon="6.07484">
        <ele>224.80000305176</ele>
        <time>2015-06-24T14:23:48Z</time>
      </trkpt>
      <trkpt lat="43.40387" lon="6.07466">
        <ele>224.60000610352</ele>
        <time>2015-06-24T14:23:50Z</time>
      </trkpt>
      <trkpt lat="43.40392" lon="6.07413">
        <ele>224.19999694824</ele>
        <time>2015-06-24T14:23:56Z</time>
      </trkpt>
      <trkpt lat="43.40393" lon="6.07395">
        <ele>224.19999694824</ele>
        <time>2015-06-24T14:23:58Z</time>
      </trkpt>
      <trkpt lat="43.40392" lon="6.07377">
        <ele>224.19999694824</ele>
        <time>2015-06-24T14:24:00Z</time>
      </trkpt>
      <trkpt lat="43.40387" lon="6.07341">
        <ele>224</ele>
        <time>2015-06-24T14:24:04Z</time>
      </trkpt>
      <trkpt lat="43.40385" lon="6.07324">
        <ele>223.80000305176</ele>
        <time>2015-06-24T14:24:06Z</time>
      </trkpt>
      <trkpt lat="43.40384" lon="6.07315">
        <ele>223.60000610352</ele>
        <time>2015-06-24T14:24:07Z</time>
      </trkpt>
      <trkpt lat="43.40383" lon="6.07306">
        <ele>223.39999389648</ele>
        <time>2015-06-24T14:24:08Z</time>
      </trkpt>
      <trkpt lat="43.40384" lon="6.07297">
        <ele>223.19999694824</ele>
        <time>2015-06-24T14:24:09Z</time>
      </trkpt>
      <trkpt lat="43.40386" lon="6.07289">
        <ele>223</ele>
        <time>2015-06-24T14:24:10Z</time>
      </trkpt>
      <trkpt lat="43.4039" lon="6.0727">
        <ele>222.19999694824</ele>
        <time>2015-06-24T14:24:12Z</time>
      </trkpt>
      <trkpt lat="43.40387" lon="6.07252">
        <ele>221.60000610352</ele>
        <time>2015-06-24T14:24:14Z</time>
      </trkpt>
      <trkpt lat="43.40377" lon="6.07242">
        <ele>221.39999389648</ele>
        <time>2015-06-24T14:24:16Z</time>
      </trkpt>
      <trkpt lat="43.40365" lon="6.07236">
        <ele>221.80000305176</ele>
        <time>2015-06-24T14:24:18Z</time>
      </trkpt>
      <trkpt lat="43.40355" lon="6.07228">
        <ele>222</ele>
        <time>2015-06-24T14:24:20Z</time>
      </trkpt>
      <trkpt lat="43.40346" lon="6.07221">
        <ele>222.19999694824</ele>
        <time>2015-06-24T14:24:22Z</time>
      </trkpt>
      <trkpt lat="43.40336" lon="6.07216">
        <ele>222.80000305176</ele>
        <time>2015-06-24T14:24:24Z</time>
      </trkpt>
      <trkpt lat="43.40332" lon="6.07215">
        <ele>222.80000305176</ele>
        <time>2015-06-24T14:24:25Z</time>
      </trkpt>
      <trkpt lat="43.40318" lon="6.07209">
        <ele>223.19999694824</ele>
        <time>2015-06-24T14:24:28Z</time>
      </trkpt>
      <trkpt lat="43.40309" lon="6.07205">
        <ele>223.39999389648</ele>
        <time>2015-06-24T14:24:30Z</time>
      </trkpt>
      <trkpt lat="43.40301" lon="6.07199">
        <ele>223.60000610352</ele>
        <time>2015-06-24T14:24:32Z</time>
      </trkpt>
      <trkpt lat="43.40297" lon="6.07195">
        <ele>223.60000610352</ele>
        <time>2015-06-24T14:24:33Z</time>
      </trkpt>
      <trkpt lat="43.40293" lon="6.07191">
        <ele>223.80000305176</ele>
        <time>2015-06-24T14:24:34Z</time>
      </trkpt>
      <trkpt lat="43.40285" lon="6.07181">
        <ele>224</ele>
        <time>2015-06-24T14:24:36Z</time>
      </trkpt>
      <trkpt lat="43.40276" lon="6.07164">
        <ele>224.60000610352</ele>
        <time>2015-06-24T14:24:39Z</time>
      </trkpt>
      <trkpt lat="43.40272" lon="6.07134">
        <ele>223.80000305176</ele>
        <time>2015-06-24T14:24:43Z</time>
      </trkpt>
      <trkpt lat="43.40272" lon="6.07126">
        <ele>223.60000610352</ele>
        <time>2015-06-24T14:24:44Z</time>
      </trkpt>
      <trkpt lat="43.40271" lon="6.0711">
        <ele>223.80000305176</ele>
        <time>2015-06-24T14:24:46Z</time>
      </trkpt>
      <trkpt lat="43.40271" lon="6.07094">
        <ele>223.80000305176</ele>
        <time>2015-06-24T14:24:48Z</time>
      </trkpt>
      <trkpt lat="43.40271" lon="6.07078">
        <ele>223.80000305176</ele>
        <time>2015-06-24T14:24:50Z</time>
      </trkpt>
      <trkpt lat="43.40271" lon="6.07064">
        <ele>224</ele>
        <time>2015-06-24T14:24:52Z</time>
      </trkpt>
      <trkpt lat="43.40271" lon="6.07048">
        <ele>224.19999694824</ele>
        <time>2015-06-24T14:24:54Z</time>
      </trkpt>
      <trkpt lat="43.40271" lon="6.07034">
        <ele>224.19999694824</ele>
        <time>2015-06-24T14:24:56Z</time>
      </trkpt>
      <trkpt lat="43.40271" lon="6.0702">
        <ele>224.19999694824</ele>
        <time>2015-06-24T14:24:58Z</time>
      </trkpt>
      <trkpt lat="43.40272" lon="6.07009">
        <ele>224</ele>
        <time>2015-06-24T14:25:00Z</time>
      </trkpt>
      <trkpt lat="43.40272" lon="6.06997">
        <ele>224.19999694824</ele>
        <time>2015-06-24T14:25:02Z</time>
      </trkpt>
      <trkpt lat="43.40271" lon="6.06973">
        <ele>224.60000610352</ele>
        <time>2015-06-24T14:25:06Z</time>
      </trkpt>
      <trkpt lat="43.40272" lon="6.06937">
        <ele>225.19999694824</ele>
        <time>2015-06-24T14:25:12Z</time>
      </trkpt>
      <trkpt lat="43.40272" lon="6.06924">
        <ele>225.60000610352</ele>
        <time>2015-06-24T14:25:14Z</time>
      </trkpt>
      <trkpt lat="43.40272" lon="6.06905">
        <ele>225.80000305176</ele>
        <time>2015-06-24T14:25:17Z</time>
      </trkpt>
      <trkpt lat="43.40273" lon="6.06899">
        <ele>226</ele>
        <time>2015-06-24T14:25:18Z</time>
      </trkpt>
      <trkpt lat="43.40273" lon="6.06886">
        <ele>226.19999694824</ele>
        <time>2015-06-24T14:25:20Z</time>
      </trkpt>
      <trkpt lat="43.40273" lon="6.06875">
        <ele>226.19999694824</ele>
        <time>2015-06-24T14:25:22Z</time>
      </trkpt>
      <trkpt lat="43.40273" lon="6.06865">
        <ele>226.19999694824</ele>
        <time>2015-06-24T14:25:24Z</time>
      </trkpt>
      <trkpt lat="43.40271" lon="6.06856">
        <ele>226.19999694824</ele>
        <time>2015-06-24T14:25:26Z</time>
      </trkpt>
      <trkpt lat="43.4027" lon="6.06852">
        <ele>226.39999389648</ele>
        <time>2015-06-24T14:25:27Z</time>
      </trkpt>
      <trkpt lat="43.40268" lon="6.06848">
        <ele>226.39999389648</ele>
        <time>2015-06-24T14:25:28Z</time>
      </trkpt>
      <trkpt lat="43.40263" lon="6.0684">
        <ele>226.60000610352</ele>
        <time>2015-06-24T14:25:30Z</time>
      </trkpt>
      <trkpt lat="43.40255" lon="6.06827">
        <ele>227</ele>
        <time>2015-06-24T14:25:33Z</time>
      </trkpt>
      <trkpt lat="43.40252" lon="6.06823">
        <ele>227.19999694824</ele>
        <time>2015-06-24T14:25:34Z</time>
      </trkpt>
      <trkpt lat="43.40246" lon="6.06815">
        <ele>226.80000305176</ele>
        <time>2015-06-24T14:25:36Z</time>
      </trkpt>
      <trkpt lat="43.40241" lon="6.06806">
        <ele>227</ele>
        <time>2015-06-24T14:25:38Z</time>
      </trkpt>
      <trkpt lat="43.40237" lon="6.06797">
        <ele>227.19999694824</ele>
        <time>2015-06-24T14:25:40Z</time>
      </trkpt>
      <trkpt lat="43.40236" lon="6.06792">
        <ele>227.19999694824</ele>
        <time>2015-06-24T14:25:41Z</time>
      </trkpt>
      <trkpt lat="43.40234" lon="6.06787">
        <ele>227.60000610352</ele>
        <time>2015-06-24T14:25:42Z</time>
      </trkpt>
      <trkpt lat="43.4023" lon="6.06777">
        <ele>227.80000305176</ele>
        <time>2015-06-24T14:25:44Z</time>
      </trkpt>
      <trkpt lat="43.40223" lon="6.06756">
        <ele>227.60000610352</ele>
        <time>2015-06-24T14:25:48Z</time>
      </trkpt>
      <trkpt lat="43.40214" lon="6.06735">
        <ele>228</ele>
        <time>2015-06-24T14:25:52Z</time>
      </trkpt>
      <trkpt lat="43.4021" lon="6.06725">
        <ele>227.80000305176</ele>
        <time>2015-06-24T14:25:54Z</time>
      </trkpt>
      <trkpt lat="43.40206" lon="6.06713">
        <ele>227.80000305176</ele>
        <time>2015-06-24T14:25:56Z</time>
      </trkpt>
      <trkpt lat="43.40202" lon="6.06691">
        <ele>227.80000305176</ele>
        <time>2015-06-24T14:26:00Z</time>
      </trkpt>
      <trkpt lat="43.40201" lon="6.06678">
        <ele>228</ele>
        <time>2015-06-24T14:26:02Z</time>
      </trkpt>
      <trkpt lat="43.40203" lon="6.06655">
        <ele>228.39999389648</ele>
        <time>2015-06-24T14:26:06Z</time>
      </trkpt>
      <trkpt lat="43.40206" lon="6.06643">
        <ele>228.19999694824</ele>
        <time>2015-06-24T14:26:08Z</time>
      </trkpt>
      <trkpt lat="43.4021" lon="6.06633">
        <ele>228</ele>
        <time>2015-06-24T14:26:10Z</time>
      </trkpt>
      <trkpt lat="43.40213" lon="6.06628">
        <ele>228</ele>
        <time>2015-06-24T14:26:11Z</time>
      </trkpt>
      <trkpt lat="43.40223" lon="6.06615">
        <ele>228.19999694824</ele>
        <time>2015-06-24T14:26:14Z</time>
      </trkpt>
      <trkpt lat="43.40229" lon="6.06607">
        <ele>228.19999694824</ele>
        <time>2015-06-24T14:26:16Z</time>
      </trkpt>
      <trkpt lat="43.40234" lon="6.06597">
        <ele>228</ele>
        <time>2015-06-24T14:26:18Z</time>
      </trkpt>
      <trkpt lat="43.40238" lon="6.06586">
        <ele>228.19999694824</ele>
        <time>2015-06-24T14:26:20Z</time>
      </trkpt>
      <trkpt lat="43.4024" lon="6.06577">
        <ele>228.19999694824</ele>
        <time>2015-06-24T14:26:22Z</time>
      </trkpt>
      <trkpt lat="43.40239" lon="6.06572">
        <ele>228.19999694824</ele>
        <time>2015-06-24T14:26:23Z</time>
      </trkpt>
      <trkpt lat="43.40237" lon="6.06569">
        <ele>228.39999389648</ele>
        <time>2015-06-24T14:26:24Z</time>
      </trkpt>
      <trkpt lat="43.40232" lon="6.06563">
        <ele>228.39999389648</ele>
        <time>2015-06-24T14:26:26Z</time>
      </trkpt>
      <trkpt lat="43.40231" lon="6.0656">
        <ele>228.39999389648</ele>
        <time>2015-06-24T14:26:27Z</time>
      </trkpt>
      <trkpt lat="43.40229" lon="6.06557">
        <ele>228.39999389648</ele>
        <time>2015-06-24T14:26:28Z</time>
      </trkpt>
      <trkpt lat="43.40225" lon="6.06551">
        <ele>229</ele>
        <time>2015-06-24T14:26:30Z</time>
      </trkpt>
      <trkpt lat="43.40219" lon="6.06544">
        <ele>228.80000305176</ele>
        <time>2015-06-24T14:26:32Z</time>
      </trkpt>
      <trkpt lat="43.40217" lon="6.06541">
        <ele>228.60000610352</ele>
        <time>2015-06-24T14:26:33Z</time>
      </trkpt>
      <trkpt lat="43.40215" lon="6.06537">
        <ele>228.39999389648</ele>
        <time>2015-06-24T14:26:34Z</time>
      </trkpt>
      <trkpt lat="43.4021" lon="6.06528">
        <ele>228.39999389648</ele>
        <time>2015-06-24T14:26:36Z</time>
      </trkpt>
      <trkpt lat="43.40206" lon="6.06518">
        <ele>229.19999694824</ele>
        <time>2015-06-24T14:26:38Z</time>
      </trkpt>
      <trkpt lat="43.40198" lon="6.06505">
        <ele>229.19999694824</ele>
        <time>2015-06-24T14:26:41Z</time>
      </trkpt>
      <trkpt lat="43.40195" lon="6.065">
        <ele>229.39999389648</ele>
        <time>2015-06-24T14:26:42Z</time>
      </trkpt>
      <trkpt lat="43.40188" lon="6.06491">
        <ele>229.60000610352</ele>
        <time>2015-06-24T14:26:44Z</time>
      </trkpt>
      <trkpt lat="43.40181" lon="6.06483">
        <ele>229.80000305176</ele>
        <time>2015-06-24T14:26:46Z</time>
      </trkpt>
      <trkpt lat="43.40166" lon="6.06466">
        <ele>230</ele>
        <time>2015-06-24T14:26:50Z</time>
      </trkpt>
      <trkpt lat="43.40158" lon="6.06459">
        <ele>230</ele>
        <time>2015-06-24T14:26:52Z</time>
      </trkpt>
      <trkpt lat="43.40151" lon="6.06451">
        <ele>230</ele>
        <time>2015-06-24T14:26:54Z</time>
      </trkpt>
      <trkpt lat="43.40145" lon="6.06441">
        <ele>230.19999694824</ele>
        <time>2015-06-24T14:26:56Z</time>
      </trkpt>
      <trkpt lat="43.40142" lon="6.06436">
        <ele>230.19999694824</ele>
        <time>2015-06-24T14:26:57Z</time>
      </trkpt>
      <trkpt lat="43.40134" lon="6.06421">
        <ele>230.19999694824</ele>
        <time>2015-06-24T14:27:00Z</time>
      </trkpt>
      <trkpt lat="43.40129" lon="6.06411">
        <ele>230</ele>
        <time>2015-06-24T14:27:02Z</time>
      </trkpt>
      <trkpt lat="43.40125" lon="6.06403">
        <ele>230</ele>
        <time>2015-06-24T14:27:04Z</time>
      </trkpt>
      <trkpt lat="43.40122" lon="6.06396">
        <ele>229.80000305176</ele>
        <time>2015-06-24T14:27:06Z</time>
      </trkpt>
      <trkpt lat="43.40118" lon="6.06389">
        <ele>230</ele>
        <time>2015-06-24T14:27:08Z</time>
      </trkpt>
      <trkpt lat="43.40115" lon="6.06381">
        <ele>229.80000305176</ele>
        <time>2015-06-24T14:27:11Z</time>
      </trkpt>
      <trkpt lat="43.40113" lon="6.06379">
        <ele>229.80000305176</ele>
        <time>2015-06-24T14:27:12Z</time>
      </trkpt>
      <trkpt lat="43.40111" lon="6.06379">
        <ele>230</ele>
        <time>2015-06-24T14:27:13Z</time>
      </trkpt>
      <trkpt lat="43.40109" lon="6.06381">
        <ele>230</ele>
        <time>2015-06-24T14:27:14Z</time>
      </trkpt>
      <trkpt lat="43.40109" lon="6.06384">
        <ele>230</ele>
        <time>2015-06-24T14:27:15Z</time>
      </trkpt>
      <trkpt lat="43.4011" lon="6.06389">
        <ele>230.19999694824</ele>
        <time>2015-06-24T14:27:16Z</time>
      </trkpt>
      <trkpt lat="43.40113" lon="6.06397">
        <ele>230.39999389648</ele>
        <time>2015-06-24T14:27:18Z</time>
      </trkpt>
      <trkpt lat="43.40116" lon="6.06401">
        <ele>230.39999389648</ele>
        <time>2015-06-24T14:27:19Z</time>
      </trkpt>
      <trkpt lat="43.40123" lon="6.06413">
        <ele>230.60000610352</ele>
        <time>2015-06-24T14:27:22Z</time>
      </trkpt>
      <trkpt lat="43.40128" lon="6.06423">
        <ele>230.39999389648</ele>
        <time>2015-06-24T14:27:24Z</time>
      </trkpt>
      <trkpt lat="43.40134" lon="6.06433">
        <ele>230.19999694824</ele>
        <time>2015-06-24T14:27:26Z</time>
      </trkpt>
      <trkpt lat="43.40139" lon="6.06443">
        <ele>230.60000610352</ele>
        <time>2015-06-24T14:27:28Z</time>
      </trkpt>
      <trkpt lat="43.40145" lon="6.06453">
        <ele>230.39999389648</ele>
        <time>2015-06-24T14:27:30Z</time>
      </trkpt>
      <trkpt lat="43.40161" lon="6.06475">
        <ele>230.19999694824</ele>
        <time>2015-06-24T14:27:35Z</time>
      </trkpt>
      <trkpt lat="43.40172" lon="6.06488">
        <ele>230.19999694824</ele>
        <time>2015-06-24T14:27:38Z</time>
      </trkpt>
      <trkpt lat="43.40179" lon="6.06496">
        <ele>229.80000305176</ele>
        <time>2015-06-24T14:27:40Z</time>
      </trkpt>
      <trkpt lat="43.40187" lon="6.06505">
        <ele>229.60000610352</ele>
        <time>2015-06-24T14:27:42Z</time>
      </trkpt>
      <trkpt lat="43.40194" lon="6.06515">
        <ele>229.39999389648</ele>
        <time>2015-06-24T14:27:44Z</time>
      </trkpt>
      <trkpt lat="43.402" lon="6.06524">
        <ele>229.60000610352</ele>
        <time>2015-06-24T14:27:46Z</time>
      </trkpt>
      <trkpt lat="43.40205" lon="6.06534">
        <ele>229.60000610352</ele>
        <time>2015-06-24T14:27:48Z</time>
      </trkpt>
      <trkpt lat="43.40216" lon="6.06553">
        <ele>229</ele>
        <time>2015-06-24T14:27:52Z</time>
      </trkpt>
      <trkpt lat="43.4022" lon="6.06558">
        <ele>229</ele>
        <time>2015-06-24T14:27:53Z</time>
      </trkpt>
      <trkpt lat="43.40223" lon="6.06562">
        <ele>228.80000305176</ele>
        <time>2015-06-24T14:27:54Z</time>
      </trkpt>
      <trkpt lat="43.4023" lon="6.06571">
        <ele>228.80000305176</ele>
        <time>2015-06-24T14:27:56Z</time>
      </trkpt>
      <trkpt lat="43.40233" lon="6.06574">
        <ele>228.80000305176</ele>
        <time>2015-06-24T14:27:57Z</time>
      </trkpt>
      <trkpt lat="43.40237" lon="6.06575">
        <ele>228.60000610352</ele>
        <time>2015-06-24T14:27:58Z</time>
      </trkpt>
      <trkpt lat="43.40245" lon="6.06574">
        <ele>228.60000610352</ele>
        <time>2015-06-24T14:28:00Z</time>
      </trkpt>
      <trkpt lat="43.40254" lon="6.0657">
        <ele>228.39999389648</ele>
        <time>2015-06-24T14:28:02Z</time>
      </trkpt>
      <trkpt lat="43.40262" lon="6.06565">
        <ele>228.60000610352</ele>
        <time>2015-06-24T14:28:04Z</time>
      </trkpt>
      <trkpt lat="43.40271" lon="6.06562">
        <ele>229</ele>
        <time>2015-06-24T14:28:06Z</time>
      </trkpt>
      <trkpt lat="43.4028" lon="6.06558">
        <ele>229</ele>
        <time>2015-06-24T14:28:08Z</time>
      </trkpt>
      <trkpt lat="43.40289" lon="6.06556">
        <ele>228.80000305176</ele>
        <time>2015-06-24T14:28:10Z</time>
      </trkpt>
      <trkpt lat="43.40298" lon="6.06553">
        <ele>228.80000305176</ele>
        <time>2015-06-24T14:28:12Z</time>
      </trkpt>
      <trkpt lat="43.40307" lon="6.06551">
        <ele>228.80000305176</ele>
        <time>2015-06-24T14:28:14Z</time>
      </trkpt>
      <trkpt lat="43.40311" lon="6.06549">
        <ele>228.80000305176</ele>
        <time>2015-06-24T14:28:15Z</time>
      </trkpt>
      <trkpt lat="43.40323" lon="6.0654">
        <ele>228.80000305176</ele>
        <time>2015-06-24T14:28:18Z</time>
      </trkpt>
      <trkpt lat="43.40331" lon="6.06534">
        <ele>228.80000305176</ele>
        <time>2015-06-24T14:28:20Z</time>
      </trkpt>
      <trkpt lat="43.4034" lon="6.06529">
        <ele>228.80000305176</ele>
        <time>2015-06-24T14:28:22Z</time>
      </trkpt>
      <trkpt lat="43.40348" lon="6.06523">
        <ele>228.80000305176</ele>
        <time>2015-06-24T14:28:24Z</time>
      </trkpt>
      <trkpt lat="43.40357" lon="6.06517">
        <ele>228.80000305176</ele>
        <time>2015-06-24T14:28:26Z</time>
      </trkpt>
      <trkpt lat="43.40365" lon="6.0651">
        <ele>228.80000305176</ele>
        <time>2015-06-24T14:28:28Z</time>
      </trkpt>
      <trkpt lat="43.40374" lon="6.06504">
        <ele>228.60000610352</ele>
        <time>2015-06-24T14:28:30Z</time>
      </trkpt>
      <trkpt lat="43.40382" lon="6.06498">
        <ele>228.60000610352</ele>
        <time>2015-06-24T14:28:32Z</time>
      </trkpt>
      <trkpt lat="43.40386" lon="6.06495">
        <ele>228.60000610352</ele>
        <time>2015-06-24T14:28:33Z</time>
      </trkpt>
      <trkpt lat="43.4039" lon="6.06492">
        <ele>228.39999389648</ele>
        <time>2015-06-24T14:28:34Z</time>
      </trkpt>
      <trkpt lat="43.40397" lon="6.06486">
        <ele>228.39999389648</ele>
        <time>2015-06-24T14:28:36Z</time>
      </trkpt>
      <trkpt lat="43.404" lon="6.06485">
        <ele>228.19999694824</ele>
        <time>2015-06-24T14:28:37Z</time>
      </trkpt>
      <trkpt lat="43.40401" lon="6.06484">
        <ele>228.19999694824</ele>
        <time>2015-06-24T14:28:38Z</time>
      </trkpt>
      <trkpt lat="43.40404" lon="6.06484">
        <ele>228</ele>
        <time>2015-06-24T14:28:40Z</time>
      </trkpt>
      <trkpt lat="43.40406" lon="6.06484">
        <ele>228</ele>
        <time>2015-06-24T14:28:41Z</time>
      </trkpt>
      <trkpt lat="43.40409" lon="6.06483">
        <ele>228</ele>
        <time>2015-06-24T14:28:42Z</time>
      </trkpt>
      <trkpt lat="43.40414" lon="6.0648">
        <ele>227.80000305176</ele>
        <time>2015-06-24T14:28:44Z</time>
      </trkpt>
      <trkpt lat="43.40421" lon="6.0648">
        <ele>227.60000610352</ele>
        <time>2015-06-24T14:28:46Z</time>
      </trkpt>
      <trkpt lat="43.40429" lon="6.06482">
        <ele>227.39999389648</ele>
        <time>2015-06-24T14:28:48Z</time>
      </trkpt>
      <trkpt lat="43.40438" lon="6.06486">
        <ele>227.19999694824</ele>
        <time>2015-06-24T14:28:50Z</time>
      </trkpt>
      <trkpt lat="43.40448" lon="6.0649">
        <ele>227</ele>
        <time>2015-06-24T14:28:52Z</time>
      </trkpt>
      <trkpt lat="43.40453" lon="6.06491">
        <ele>226.80000305176</ele>
        <time>2015-06-24T14:28:53Z</time>
      </trkpt>
      <trkpt lat="43.40458" lon="6.06493">
        <ele>226.60000610352</ele>
        <time>2015-06-24T14:28:54Z</time>
      </trkpt>
      <trkpt lat="43.40469" lon="6.06497">
        <ele>226.39999389648</ele>
        <time>2015-06-24T14:28:56Z</time>
      </trkpt>
      <trkpt lat="43.40476" lon="6.065">
        <ele>226</ele>
        <time>2015-06-24T14:28:58Z</time>
      </trkpt>
      <trkpt lat="43.4048" lon="6.06502">
        <ele>225.60000610352</ele>
        <time>2015-06-24T14:29:00Z</time>
      </trkpt>
      <trkpt lat="43.40481" lon="6.06503">
        <ele>225.60000610352</ele>
        <time>2015-06-24T14:29:01Z</time>
      </trkpt>
      <trkpt lat="43.40482" lon="6.06504">
        <ele>225.39999389648</ele>
        <time>2015-06-24T14:29:02Z</time>
      </trkpt>
      <trkpt lat="43.40483" lon="6.06505">
        <ele>225.19999694824</ele>
        <time>2015-06-24T14:29:04Z</time>
      </trkpt>
      <trkpt lat="43.40485" lon="6.06506">
        <ele>224.80000305176</ele>
        <time>2015-06-24T14:29:06Z</time>
      </trkpt>
      <trkpt lat="43.4049" lon="6.06504">
        <ele>225</ele>
        <time>2015-06-24T14:29:08Z</time>
      </trkpt>
      <trkpt lat="43.40496" lon="6.06506">
        <ele>225.19999694824</ele>
        <time>2015-06-24T14:29:10Z</time>
      </trkpt>
      <trkpt lat="43.405" lon="6.06507">
        <ele>225</ele>
        <time>2015-06-24T14:29:11Z</time>
      </trkpt>
      <trkpt lat="43.40505" lon="6.06508">
        <ele>224.80000305176</ele>
        <time>2015-06-24T14:29:12Z</time>
      </trkpt>
      <trkpt lat="43.40514" lon="6.0651">
        <ele>224.39999389648</ele>
        <time>2015-06-24T14:29:14Z</time>
      </trkpt>
      <trkpt lat="43.40524" lon="6.06512">
        <ele>224</ele>
        <time>2015-06-24T14:29:16Z</time>
      </trkpt>
      <trkpt lat="43.40534" lon="6.06516">
        <ele>224</ele>
        <time>2015-06-24T14:29:18Z</time>
      </trkpt>
      <trkpt lat="43.40544" lon="6.0652">
        <ele>223.80000305176</ele>
        <time>2015-06-24T14:29:20Z</time>
      </trkpt>
      <trkpt lat="43.40555" lon="6.06523">
        <ele>223.19999694824</ele>
        <time>2015-06-24T14:29:22Z</time>
      </trkpt>
      <trkpt lat="43.40561" lon="6.06525">
        <ele>223</ele>
        <time>2015-06-24T14:29:23Z</time>
      </trkpt>
      <trkpt lat="43.40565" lon="6.06527">
        <ele>222.80000305176</ele>
        <time>2015-06-24T14:29:24Z</time>
      </trkpt>
      <trkpt lat="43.40576" lon="6.0653">
        <ele>222.19999694824</ele>
        <time>2015-06-24T14:29:26Z</time>
      </trkpt>
      <trkpt lat="43.40584" lon="6.06532">
        <ele>221.80000305176</ele>
        <time>2015-06-24T14:29:28Z</time>
      </trkpt>
      <trkpt lat="43.40589" lon="6.06532">
        <ele>221.39999389648</ele>
        <time>2015-06-24T14:29:30Z</time>
      </trkpt>
      <trkpt lat="43.40591" lon="6.06533">
        <ele>221.19999694824</ele>
        <time>2015-06-24T14:29:32Z</time>
      </trkpt>
      <trkpt lat="43.40593" lon="6.06534">
        <ele>221</ele>
        <time>2015-06-24T14:29:34Z</time>
      </trkpt>
      <trkpt lat="43.40594" lon="6.06535">
        <ele>220.80000305176</ele>
        <time>2015-06-24T14:29:36Z</time>
      </trkpt>
      <trkpt lat="43.40594" lon="6.06535">
        <ele>220.80000305176</ele>
        <time>2015-06-24T14:29:37Z</time>
      </trkpt>
      <trkpt lat="43.40594" lon="6.06535">
        <ele>220.80000305176</ele>
        <time>2015-06-24T14:29:38Z</time>
      </trkpt>
      <trkpt lat="43.40594" lon="6.06534">
        <ele>220.80000305176</ele>
        <time>2015-06-24T14:29:40Z</time>
      </trkpt>
      <trkpt lat="43.40595" lon="6.06534">
        <ele>220.60000610352</ele>
        <time>2015-06-24T14:29:41Z</time>
      </trkpt>
      <trkpt lat="43.40596" lon="6.06534">
        <ele>220.60000610352</ele>
        <time>2015-06-24T14:29:42Z</time>
      </trkpt>
      <trkpt lat="43.40598" lon="6.06534">
        <ele>220.19999694824</ele>
        <time>2015-06-24T14:29:44Z</time>
      </trkpt>
      <trkpt lat="43.40599" lon="6.06535">
        <ele>220</ele>
        <time>2015-06-24T14:29:46Z</time>
      </trkpt>
      <trkpt lat="43.40601" lon="6.06536">
        <ele>219.80000305176</ele>
        <time>2015-06-24T14:29:48Z</time>
      </trkpt>
      <trkpt lat="43.40602" lon="6.06536">
        <ele>219.60000610352</ele>
        <time>2015-06-24T14:29:49Z</time>
      </trkpt>
      <trkpt lat="43.40604" lon="6.06536">
        <ele>219.60000610352</ele>
        <time>2015-06-24T14:29:50Z</time>
      </trkpt>
      <trkpt lat="43.40606" lon="6.06535">
        <ele>219.60000610352</ele>
        <time>2015-06-24T14:29:51Z</time>
      </trkpt>
      <trkpt lat="43.40607" lon="6.06535">
        <ele>219.39999389648</ele>
        <time>2015-06-24T14:29:52Z</time>
      </trkpt>
      <trkpt lat="43.40613" lon="6.06534">
        <ele>219.39999389648</ele>
        <time>2015-06-24T14:29:54Z</time>
      </trkpt>
      <trkpt lat="43.40617" lon="6.06531">
        <ele>218.80000305176</ele>
        <time>2015-06-24T14:29:55Z</time>
      </trkpt>
      <trkpt lat="43.4062" lon="6.06526">
        <ele>218.60000610352</ele>
        <time>2015-06-24T14:29:56Z</time>
      </trkpt>
      <trkpt lat="43.40624" lon="6.06516">
        <ele>218.80000305176</ele>
        <time>2015-06-24T14:29:58Z</time>
      </trkpt>
      <trkpt lat="43.40627" lon="6.0651">
        <ele>218.80000305176</ele>
        <time>2015-06-24T14:29:59Z</time>
      </trkpt>
      <trkpt lat="43.40633" lon="6.065">
        <ele>218.39999389648</ele>
        <time>2015-06-24T14:30:01Z</time>
      </trkpt>
      <trkpt lat="43.40636" lon="6.06495">
        <ele>218</ele>
        <time>2015-06-24T14:30:02Z</time>
      </trkpt>
      <trkpt lat="43.40645" lon="6.06485">
        <ele>217.60000610352</ele>
        <time>2015-06-24T14:30:04Z</time>
      </trkpt>
      <trkpt lat="43.40651" lon="6.06479">
        <ele>217.39999389648</ele>
        <time>2015-06-24T14:30:05Z</time>
      </trkpt>
      <trkpt lat="43.40656" lon="6.06473">
        <ele>216.60000610352</ele>
        <time>2015-06-24T14:30:06Z</time>
      </trkpt>
      <trkpt lat="43.40662" lon="6.06467">
        <ele>216.19999694824</ele>
        <time>2015-06-24T14:30:07Z</time>
      </trkpt>
      <trkpt lat="43.40667" lon="6.06461">
        <ele>216</ele>
        <time>2015-06-24T14:30:08Z</time>
      </trkpt>
      <trkpt lat="43.40678" lon="6.06449">
        <ele>215.39999389648</ele>
        <time>2015-06-24T14:30:10Z</time>
      </trkpt>
      <trkpt lat="43.40685" lon="6.06444">
        <ele>215</ele>
        <time>2015-06-24T14:30:11Z</time>
      </trkpt>
      <trkpt lat="43.40692" lon="6.06439">
        <ele>214.39999389648</ele>
        <time>2015-06-24T14:30:12Z</time>
      </trkpt>
      <trkpt lat="43.40705" lon="6.06432">
        <ele>213.39999389648</ele>
        <time>2015-06-24T14:30:14Z</time>
      </trkpt>
      <trkpt lat="43.40711" lon="6.0643">
        <ele>213.19999694824</ele>
        <time>2015-06-24T14:30:15Z</time>
      </trkpt>
      <trkpt lat="43.40717" lon="6.06429">
        <ele>212.80000305176</ele>
        <time>2015-06-24T14:30:16Z</time>
      </trkpt>
      <trkpt lat="43.40726" lon="6.06428">
        <ele>212.39999389648</ele>
        <time>2015-06-24T14:30:18Z</time>
      </trkpt>
      <trkpt lat="43.40734" lon="6.06427">
        <ele>211.80000305176</ele>
        <time>2015-06-24T14:30:20Z</time>
      </trkpt>
      <trkpt lat="43.40739" lon="6.06426">
        <ele>211.60000610352</ele>
        <time>2015-06-24T14:30:22Z</time>
      </trkpt>
      <trkpt lat="43.40741" lon="6.06426">
        <ele>211.39999389648</ele>
        <time>2015-06-24T14:30:23Z</time>
      </trkpt>
      <trkpt lat="43.40742" lon="6.06427">
        <ele>211.39999389648</ele>
        <time>2015-06-24T14:30:24Z</time>
      </trkpt>
      <trkpt lat="43.40743" lon="6.06428">
        <ele>211.19999694824</ele>
        <time>2015-06-24T14:30:25Z</time>
      </trkpt>
      <trkpt lat="43.40743" lon="6.06429">
        <ele>211</ele>
        <time>2015-06-24T14:30:26Z</time>
      </trkpt>
      <trkpt lat="43.40744" lon="6.06429">
        <ele>211</ele>
        <time>2015-06-24T14:30:27Z</time>
      </trkpt>
      <trkpt lat="43.40743" lon="6.0643">
        <ele>211</ele>
        <time>2015-06-24T14:30:28Z</time>
      </trkpt>
      <trkpt lat="43.40743" lon="6.0643">
        <ele>210.80000305176</ele>
        <time>2015-06-24T14:30:30Z</time>
      </trkpt>
      <trkpt lat="43.40743" lon="6.0643">
        <ele>210.80000305176</ele>
        <time>2015-06-24T14:30:32Z</time>
      </trkpt>
      <trkpt lat="43.40743" lon="6.0643">
        <ele>211</ele>
        <time>2015-06-24T14:30:36Z</time>
      </trkpt>
      <trkpt lat="43.40743" lon="6.0643">
        <ele>210.80000305176</ele>
        <time>2015-06-24T14:30:40Z</time>
      </trkpt>
      <trkpt lat="43.40743" lon="6.0643">
        <ele>211</ele>
        <time>2015-06-24T14:30:42Z</time>
      </trkpt>
      <trkpt lat="43.40743" lon="6.0643">
        <ele>211</ele>
        <time>2015-06-24T14:30:46Z</time>
      </trkpt>
      <trkpt lat="43.40743" lon="6.06431">
        <ele>211.19999694824</ele>
        <time>2015-06-24T14:30:48Z</time>
      </trkpt>
      <trkpt lat="43.40746" lon="6.06432">
        <ele>211.19999694824</ele>
        <time>2015-06-24T14:30:50Z</time>
      </trkpt>
      <trkpt lat="43.4075" lon="6.06431">
        <ele>211.19999694824</ele>
        <time>2015-06-24T14:30:52Z</time>
      </trkpt>
      <trkpt lat="43.40757" lon="6.06429">
        <ele>211</ele>
        <time>2015-06-24T14:30:54Z</time>
      </trkpt>
      <trkpt lat="43.40761" lon="6.06428">
        <ele>210.80000305176</ele>
        <time>2015-06-24T14:30:55Z</time>
      </trkpt>
      <trkpt lat="43.40766" lon="6.06426">
        <ele>210.39999389648</ele>
        <time>2015-06-24T14:30:56Z</time>
      </trkpt>
      <trkpt lat="43.40775" lon="6.06423">
        <ele>210.19999694824</ele>
        <time>2015-06-24T14:30:58Z</time>
      </trkpt>
      <trkpt lat="43.40779" lon="6.06422">
        <ele>210.19999694824</ele>
        <time>2015-06-24T14:30:59Z</time>
      </trkpt>
      <trkpt lat="43.40794" lon="6.06418">
        <ele>210</ele>
        <time>2015-06-24T14:31:02Z</time>
      </trkpt>
      <trkpt lat="43.40803" lon="6.0642">
        <ele>210</ele>
        <time>2015-06-24T14:31:04Z</time>
      </trkpt>
      <trkpt lat="43.40812" lon="6.06424">
        <ele>210</ele>
        <time>2015-06-24T14:31:06Z</time>
      </trkpt>
      <trkpt lat="43.40818" lon="6.06425">
        <ele>210</ele>
        <time>2015-06-24T14:31:07Z</time>
      </trkpt>
      <trkpt lat="43.40829" lon="6.06424">
        <ele>210</ele>
        <time>2015-06-24T14:31:09Z</time>
      </trkpt>
      <trkpt lat="43.40834" lon="6.06423">
        <ele>210.19999694824</ele>
        <time>2015-06-24T14:31:10Z</time>
      </trkpt>
      <trkpt lat="43.40839" lon="6.0642">
        <ele>210.19999694824</ele>
        <time>2015-06-24T14:31:11Z</time>
      </trkpt>
      <trkpt lat="43.40854" lon="6.0641">
        <ele>210.19999694824</ele>
        <time>2015-06-24T14:31:14Z</time>
      </trkpt>
      <trkpt lat="43.40862" lon="6.06403">
        <ele>210.39999389648</ele>
        <time>2015-06-24T14:31:16Z</time>
      </trkpt>
      <trkpt lat="43.4087" lon="6.06395">
        <ele>210.39999389648</ele>
        <time>2015-06-24T14:31:18Z</time>
      </trkpt>
      <trkpt lat="43.40878" lon="6.06385">
        <ele>210.80000305176</ele>
        <time>2015-06-24T14:31:20Z</time>
      </trkpt>
      <trkpt lat="43.40886" lon="6.06377">
        <ele>211</ele>
        <time>2015-06-24T14:31:22Z</time>
      </trkpt>
      <trkpt lat="43.40893" lon="6.06368">
        <ele>211.39999389648</ele>
        <time>2015-06-24T14:31:24Z</time>
      </trkpt>
      <trkpt lat="43.409" lon="6.06358">
        <ele>212</ele>
        <time>2015-06-24T14:31:26Z</time>
      </trkpt>
      <trkpt lat="43.40908" lon="6.06349">
        <ele>212.19999694824</ele>
        <time>2015-06-24T14:31:28Z</time>
      </trkpt>
      <trkpt lat="43.40912" lon="6.06345">
        <ele>212.19999694824</ele>
        <time>2015-06-24T14:31:29Z</time>
      </trkpt>
      <trkpt lat="43.40916" lon="6.0634">
        <ele>212.19999694824</ele>
        <time>2015-06-24T14:31:30Z</time>
      </trkpt>
      <trkpt lat="43.40923" lon="6.06331">
        <ele>212.19999694824</ele>
        <time>2015-06-24T14:31:32Z</time>
      </trkpt>
      <trkpt lat="43.4093" lon="6.06323">
        <ele>212.19999694824</ele>
        <time>2015-06-24T14:31:34Z</time>
      </trkpt>
      <trkpt lat="43.40936" lon="6.06315">
        <ele>212.39999389648</ele>
        <time>2015-06-24T14:31:36Z</time>
      </trkpt>
      <trkpt lat="43.40941" lon="6.06311">
        <ele>212.39999389648</ele>
        <time>2015-06-24T14:31:38Z</time>
      </trkpt>
      <trkpt lat="43.40943" lon="6.06309">
        <ele>212.39999389648</ele>
        <time>2015-06-24T14:31:40Z</time>
      </trkpt>
      <trkpt lat="43.40944" lon="6.06308">
        <ele>212.19999694824</ele>
        <time>2015-06-24T14:31:42Z</time>
      </trkpt>
      <trkpt lat="43.40944" lon="6.06308">
        <ele>212.39999389648</ele>
        <time>2015-06-24T14:31:44Z</time>
      </trkpt>
      <trkpt lat="43.40944" lon="6.06308">
        <ele>212.39999389648</ele>
        <time>2015-06-24T14:31:45Z</time>
      </trkpt>
      <trkpt lat="43.40944" lon="6.06308">
        <ele>212.39999389648</ele>
        <time>2015-06-24T14:31:46Z</time>
      </trkpt>
      <trkpt lat="43.40944" lon="6.06308">
        <ele>212.60000610352</ele>
        <time>2015-06-24T14:31:48Z</time>
      </trkpt>
      <trkpt lat="43.40944" lon="6.06308">
        <ele>212.39999389648</ele>
        <time>2015-06-24T14:31:50Z</time>
      </trkpt>
      <trkpt lat="43.40944" lon="6.06308">
        <ele>212.39999389648</ele>
        <time>2015-06-24T14:31:52Z</time>
      </trkpt>
      <trkpt lat="43.40944" lon="6.06308">
        <ele>212.39999389648</ele>
        <time>2015-06-24T14:31:54Z</time>
      </trkpt>
      <trkpt lat="43.40945" lon="6.06308">
        <ele>212.39999389648</ele>
        <time>2015-06-24T14:31:56Z</time>
      </trkpt>
      <trkpt lat="43.40948" lon="6.06305">
        <ele>212</ele>
        <time>2015-06-24T14:31:58Z</time>
      </trkpt>
      <trkpt lat="43.4095" lon="6.06303">
        <ele>212</ele>
        <time>2015-06-24T14:31:59Z</time>
      </trkpt>
      <trkpt lat="43.40953" lon="6.06302">
        <ele>212.19999694824</ele>
        <time>2015-06-24T14:32:00Z</time>
      </trkpt>
      <trkpt lat="43.4096" lon="6.06302">
        <ele>212.19999694824</ele>
        <time>2015-06-24T14:32:02Z</time>
      </trkpt>
      <trkpt lat="43.40963" lon="6.06305">
        <ele>212.19999694824</ele>
        <time>2015-06-24T14:32:03Z</time>
      </trkpt>
      <trkpt lat="43.40966" lon="6.06309">
        <ele>212</ele>
        <time>2015-06-24T14:32:04Z</time>
      </trkpt>
      <trkpt lat="43.4097" lon="6.0632">
        <ele>212</ele>
        <time>2015-06-24T14:32:06Z</time>
      </trkpt>
      <trkpt lat="43.40972" lon="6.06327">
        <ele>211.80000305176</ele>
        <time>2015-06-24T14:32:07Z</time>
      </trkpt>
      <trkpt lat="43.40978" lon="6.06348">
        <ele>211.60000610352</ele>
        <time>2015-06-24T14:32:10Z</time>
      </trkpt>
      <trkpt lat="43.40983" lon="6.06362">
        <ele>211.39999389648</ele>
        <time>2015-06-24T14:32:12Z</time>
      </trkpt>
      <trkpt lat="43.40985" lon="6.0637">
        <ele>211.39999389648</ele>
        <time>2015-06-24T14:32:13Z</time>
      </trkpt>
      <trkpt lat="43.40988" lon="6.06377">
        <ele>211.39999389648</ele>
        <time>2015-06-24T14:32:14Z</time>
      </trkpt>
      <trkpt lat="43.40992" lon="6.06384">
        <ele>211.39999389648</ele>
        <time>2015-06-24T14:32:15Z</time>
      </trkpt>
      <trkpt lat="43.40995" lon="6.06391">
        <ele>211.60000610352</ele>
        <time>2015-06-24T14:32:16Z</time>
      </trkpt>
      <trkpt lat="43.41003" lon="6.06404">
        <ele>211.19999694824</ele>
        <time>2015-06-24T14:32:18Z</time>
      </trkpt>
      <trkpt lat="43.41012" lon="6.06416">
        <ele>211.19999694824</ele>
        <time>2015-06-24T14:32:20Z</time>
      </trkpt>
      <trkpt lat="43.41029" lon="6.0644">
        <ele>211.39999389648</ele>
        <time>2015-06-24T14:32:24Z</time>
      </trkpt>
      <trkpt lat="43.41039" lon="6.06452">
        <ele>211.39999389648</ele>
        <time>2015-06-24T14:32:26Z</time>
      </trkpt>
      <trkpt lat="43.41047" lon="6.06464">
        <ele>211.19999694824</ele>
        <time>2015-06-24T14:32:28Z</time>
      </trkpt>
      <trkpt lat="43.41066" lon="6.06486">
        <ele>211.39999389648</ele>
        <time>2015-06-24T14:32:32Z</time>
      </trkpt>
      <trkpt lat="43.4107" lon="6.06491">
        <ele>211.39999389648</ele>
        <time>2015-06-24T14:32:33Z</time>
      </trkpt>
      <trkpt lat="43.41074" lon="6.06496">
        <ele>211.19999694824</ele>
        <time>2015-06-24T14:32:34Z</time>
      </trkpt>
      <trkpt lat="43.41083" lon="6.06507">
        <ele>211.19999694824</ele>
        <time>2015-06-24T14:32:36Z</time>
      </trkpt>
      <trkpt lat="43.41097" lon="6.06524">
        <ele>211.39999389648</ele>
        <time>2015-06-24T14:32:39Z</time>
      </trkpt>
      <trkpt lat="43.41102" lon="6.06529">
        <ele>211.60000610352</ele>
        <time>2015-06-24T14:32:40Z</time>
      </trkpt>
      <trkpt lat="43.41111" lon="6.06541">
        <ele>211.60000610352</ele>
        <time>2015-06-24T14:32:42Z</time>
      </trkpt>
      <trkpt lat="43.4112" lon="6.06554">
        <ele>211.39999389648</ele>
        <time>2015-06-24T14:32:44Z</time>
      </trkpt>
      <trkpt lat="43.41124" lon="6.06559">
        <ele>211.39999389648</ele>
        <time>2015-06-24T14:32:45Z</time>
      </trkpt>
      <trkpt lat="43.41129" lon="6.06564">
        <ele>211.39999389648</ele>
        <time>2015-06-24T14:32:46Z</time>
      </trkpt>
      <trkpt lat="43.41138" lon="6.06573">
        <ele>211.60000610352</ele>
        <time>2015-06-24T14:32:48Z</time>
      </trkpt>
      <trkpt lat="43.41143" lon="6.06578">
        <ele>211.60000610352</ele>
        <time>2015-06-24T14:32:49Z</time>
      </trkpt>
      <trkpt lat="43.41147" lon="6.06583">
        <ele>211.60000610352</ele>
        <time>2015-06-24T14:32:50Z</time>
      </trkpt>
      <trkpt lat="43.41151" lon="6.06589">
        <ele>211.80000305176</ele>
        <time>2015-06-24T14:32:51Z</time>
      </trkpt>
      <trkpt lat="43.41156" lon="6.06594">
        <ele>211.80000305176</ele>
        <time>2015-06-24T14:32:52Z</time>
      </trkpt>
      <trkpt lat="43.41164" lon="6.06604">
        <ele>211.80000305176</ele>
        <time>2015-06-24T14:32:54Z</time>
      </trkpt>
      <trkpt lat="43.41172" lon="6.06615">
        <ele>211.60000610352</ele>
        <time>2015-06-24T14:32:56Z</time>
      </trkpt>
      <trkpt lat="43.4118" lon="6.06624">
        <ele>211.39999389648</ele>
        <time>2015-06-24T14:32:58Z</time>
      </trkpt>
      <trkpt lat="43.41193" lon="6.0664">
        <ele>211.39999389648</ele>
        <time>2015-06-24T14:33:01Z</time>
      </trkpt>
      <trkpt lat="43.41198" lon="6.06645">
        <ele>211.39999389648</ele>
        <time>2015-06-24T14:33:02Z</time>
      </trkpt>
      <trkpt lat="43.41207" lon="6.06656">
        <ele>211.39999389648</ele>
        <time>2015-06-24T14:33:04Z</time>
      </trkpt>
      <trkpt lat="43.41216" lon="6.06666">
        <ele>211.80000305176</ele>
        <time>2015-06-24T14:33:06Z</time>
      </trkpt>
      <trkpt lat="43.41225" lon="6.06677">
        <ele>211.80000305176</ele>
        <time>2015-06-24T14:33:08Z</time>
      </trkpt>
      <trkpt lat="43.41233" lon="6.06687">
        <ele>211.60000610352</ele>
        <time>2015-06-24T14:33:10Z</time>
      </trkpt>
      <trkpt lat="43.41241" lon="6.06697">
        <ele>211.60000610352</ele>
        <time>2015-06-24T14:33:12Z</time>
      </trkpt>
      <trkpt lat="43.4125" lon="6.06707">
        <ele>212</ele>
        <time>2015-06-24T14:33:14Z</time>
      </trkpt>
      <trkpt lat="43.41254" lon="6.06712">
        <ele>212.39999389648</ele>
        <time>2015-06-24T14:33:15Z</time>
      </trkpt>
      <trkpt lat="43.41257" lon="6.06717">
        <ele>212.19999694824</ele>
        <time>2015-06-24T14:33:16Z</time>
      </trkpt>
      <trkpt lat="43.41263" lon="6.06727">
        <ele>212.39999389648</ele>
        <time>2015-06-24T14:33:18Z</time>
      </trkpt>
      <trkpt lat="43.41266" lon="6.06733">
        <ele>212.60000610352</ele>
        <time>2015-06-24T14:33:19Z</time>
      </trkpt>
      <trkpt lat="43.41269" lon="6.06738">
        <ele>212.80000305176</ele>
        <time>2015-06-24T14:33:20Z</time>
      </trkpt>
      <trkpt lat="43.41273" lon="6.06748">
        <ele>213.19999694824</ele>
        <time>2015-06-24T14:33:22Z</time>
      </trkpt>
      <trkpt lat="43.41277" lon="6.06757">
        <ele>213.39999389648</ele>
        <time>2015-06-24T14:33:24Z</time>
      </trkpt>
      <trkpt lat="43.4128" lon="6.06761">
        <ele>213.39999389648</ele>
        <time>2015-06-24T14:33:25Z</time>
      </trkpt>
      <trkpt lat="43.41282" lon="6.06766">
        <ele>213.80000305176</ele>
        <time>2015-06-24T14:33:26Z</time>
      </trkpt>
      <trkpt lat="43.41287" lon="6.06773">
        <ele>214</ele>
        <time>2015-06-24T14:33:28Z</time>
      </trkpt>
      <trkpt lat="43.41293" lon="6.06781">
        <ele>214.19999694824</ele>
        <time>2015-06-24T14:33:30Z</time>
      </trkpt>
      <trkpt lat="43.41298" lon="6.06788">
        <ele>214.39999389648</ele>
        <time>2015-06-24T14:33:32Z</time>
      </trkpt>
      <trkpt lat="43.41304" lon="6.06795">
        <ele>214.19999694824</ele>
        <time>2015-06-24T14:33:34Z</time>
      </trkpt>
      <trkpt lat="43.4131" lon="6.068">
        <ele>214.80000305176</ele>
        <time>2015-06-24T14:33:36Z</time>
      </trkpt>
      <trkpt lat="43.41316" lon="6.06805">
        <ele>214.80000305176</ele>
        <time>2015-06-24T14:33:38Z</time>
      </trkpt>
      <trkpt lat="43.41322" lon="6.0681">
        <ele>214.39999389648</ele>
        <time>2015-06-24T14:33:40Z</time>
      </trkpt>
      <trkpt lat="43.41329" lon="6.06814">
        <ele>214.39999389648</ele>
        <time>2015-06-24T14:33:42Z</time>
      </trkpt>
      <trkpt lat="43.41343" lon="6.06822">
        <ele>215</ele>
        <time>2015-06-24T14:33:46Z</time>
      </trkpt>
      <trkpt lat="43.41349" lon="6.06825">
        <ele>215.19999694824</ele>
        <time>2015-06-24T14:33:48Z</time>
      </trkpt>
      <trkpt lat="43.4136" lon="6.0683">
        <ele>215.39999389648</ele>
        <time>2015-06-24T14:33:51Z</time>
      </trkpt>
      <trkpt lat="43.41372" lon="6.06835">
        <ele>215.80000305176</ele>
        <time>2015-06-24T14:33:54Z</time>
      </trkpt>
      <trkpt lat="43.41376" lon="6.06837">
        <ele>215.80000305176</ele>
        <time>2015-06-24T14:33:55Z</time>
      </trkpt>
      <trkpt lat="43.41387" lon="6.06845">
        <ele>215.80000305176</ele>
        <time>2015-06-24T14:33:58Z</time>
      </trkpt>
      <trkpt lat="43.41394" lon="6.06851">
        <ele>215.60000610352</ele>
        <time>2015-06-24T14:34:00Z</time>
      </trkpt>
      <trkpt lat="43.41401" lon="6.06858">
        <ele>215.19999694824</ele>
        <time>2015-06-24T14:34:02Z</time>
      </trkpt>
      <trkpt lat="43.41408" lon="6.06866">
        <ele>215</ele>
        <time>2015-06-24T14:34:04Z</time>
      </trkpt>
      <trkpt lat="43.4141" lon="6.06871">
        <ele>214.80000305176</ele>
        <time>2015-06-24T14:34:05Z</time>
      </trkpt>
      <trkpt lat="43.41413" lon="6.06875">
        <ele>214.60000610352</ele>
        <time>2015-06-24T14:34:06Z</time>
      </trkpt>
      <trkpt lat="43.41414" lon="6.06879">
        <ele>214.60000610352</ele>
        <time>2015-06-24T14:34:07Z</time>
      </trkpt>
      <trkpt lat="43.41415" lon="6.06882">
        <ele>214.60000610352</ele>
        <time>2015-06-24T14:34:08Z</time>
      </trkpt>
      <trkpt lat="43.41416" lon="6.06886">
        <ele>215</ele>
        <time>2015-06-24T14:34:10Z</time>
      </trkpt>
      <trkpt lat="43.41416" lon="6.06888">
        <ele>214.80000305176</ele>
        <time>2015-06-24T14:34:11Z</time>
      </trkpt>
      <trkpt lat="43.41417" lon="6.06895">
        <ele>215</ele>
        <time>2015-06-24T14:34:13Z</time>
      </trkpt>
      <trkpt lat="43.41418" lon="6.069">
        <ele>215.19999694824</ele>
        <time>2015-06-24T14:34:14Z</time>
      </trkpt>
      <trkpt lat="43.4142" lon="6.06906">
        <ele>215.19999694824</ele>
        <time>2015-06-24T14:34:15Z</time>
      </trkpt>
      <trkpt lat="43.41422" lon="6.06911">
        <ele>215</ele>
        <time>2015-06-24T14:34:16Z</time>
      </trkpt>
      <trkpt lat="43.4143" lon="6.0692">
        <ele>215.19999694824</ele>
        <time>2015-06-24T14:34:18Z</time>
      </trkpt>
      <trkpt lat="43.41435" lon="6.06923">
        <ele>215.19999694824</ele>
        <time>2015-06-24T14:34:19Z</time>
      </trkpt>
      <trkpt lat="43.4144" lon="6.06925">
        <ele>215.19999694824</ele>
        <time>2015-06-24T14:34:20Z</time>
      </trkpt>
      <trkpt lat="43.41456" lon="6.06926">
        <ele>215.19999694824</ele>
        <time>2015-06-24T14:34:23Z</time>
      </trkpt>
      <trkpt lat="43.41461" lon="6.06929">
        <ele>215.39999389648</ele>
        <time>2015-06-24T14:34:24Z</time>
      </trkpt>
      <trkpt lat="43.4147" lon="6.06941">
        <ele>215.60000610352</ele>
        <time>2015-06-24T14:34:26Z</time>
      </trkpt>
      <trkpt lat="43.41473" lon="6.06947">
        <ele>215.39999389648</ele>
        <time>2015-06-24T14:34:27Z</time>
      </trkpt>
      <trkpt lat="43.41476" lon="6.06953">
        <ele>215</ele>
        <time>2015-06-24T14:34:28Z</time>
      </trkpt>
      <trkpt lat="43.41484" lon="6.06964">
        <ele>214.39999389648</ele>
        <time>2015-06-24T14:34:30Z</time>
      </trkpt>
      <trkpt lat="43.41487" lon="6.06969">
        <ele>214</ele>
        <time>2015-06-24T14:34:31Z</time>
      </trkpt>
      <trkpt lat="43.4149" lon="6.06971">
        <ele>214</ele>
        <time>2015-06-24T14:34:32Z</time>
      </trkpt>
      <trkpt lat="43.41496" lon="6.0697">
        <ele>214</ele>
        <time>2015-06-24T14:34:34Z</time>
      </trkpt>
      <trkpt lat="43.41501" lon="6.0697">
        <ele>214.39999389648</ele>
        <time>2015-06-24T14:34:36Z</time>
      </trkpt>
      <trkpt lat="43.41505" lon="6.06972">
        <ele>214.39999389648</ele>
        <time>2015-06-24T14:34:38Z</time>
      </trkpt>
      <trkpt lat="43.41508" lon="6.06974">
        <ele>214</ele>
        <time>2015-06-24T14:34:40Z</time>
      </trkpt>
      <trkpt lat="43.41509" lon="6.06974">
        <ele>213.80000305176</ele>
        <time>2015-06-24T14:34:41Z</time>
      </trkpt>
      <trkpt lat="43.41511" lon="6.06974">
        <ele>213.80000305176</ele>
        <time>2015-06-24T14:34:42Z</time>
      </trkpt>
      <trkpt lat="43.41518" lon="6.06976">
        <ele>214</ele>
        <time>2015-06-24T14:34:45Z</time>
      </trkpt>
      <trkpt lat="43.41521" lon="6.06976">
        <ele>214</ele>
        <time>2015-06-24T14:34:46Z</time>
      </trkpt>
      <trkpt lat="43.41527" lon="6.06976">
        <ele>214.39999389648</ele>
        <time>2015-06-24T14:34:48Z</time>
      </trkpt>
      <trkpt lat="43.41533" lon="6.06975">
        <ele>214.60000610352</ele>
        <time>2015-06-24T14:34:50Z</time>
      </trkpt>
      <trkpt lat="43.41544" lon="6.06977">
        <ele>215.19999694824</ele>
        <time>2015-06-24T14:34:54Z</time>
      </trkpt>
      <trkpt lat="43.41554" lon="6.06976">
        <ele>215</ele>
        <time>2015-06-24T14:34:58Z</time>
      </trkpt>
      <trkpt lat="43.41557" lon="6.06975">
        <ele>215</ele>
        <time>2015-06-24T14:34:59Z</time>
      </trkpt>
      <trkpt lat="43.41558" lon="6.06975">
        <ele>214.80000305176</ele>
        <time>2015-06-24T14:35:00Z</time>
      </trkpt>
      <trkpt lat="43.41563" lon="6.06976">
        <ele>215</ele>
        <time>2015-06-24T14:35:02Z</time>
      </trkpt>
      <trkpt lat="43.41567" lon="6.06978">
        <ele>215.39999389648</ele>
        <time>2015-06-24T14:35:04Z</time>
      </trkpt>
      <trkpt lat="43.41569" lon="6.0698">
        <ele>215.39999389648</ele>
        <time>2015-06-24T14:35:05Z</time>
      </trkpt>
      <trkpt lat="43.4157" lon="6.06982">
        <ele>215.60000610352</ele>
        <time>2015-06-24T14:35:06Z</time>
      </trkpt>
      <trkpt lat="43.41572" lon="6.06986">
        <ele>215.19999694824</ele>
        <time>2015-06-24T14:35:08Z</time>
      </trkpt>
      <trkpt lat="43.41573" lon="6.06992">
        <ele>214.80000305176</ele>
        <time>2015-06-24T14:35:10Z</time>
      </trkpt>
      <trkpt lat="43.41574" lon="6.06995">
        <ele>214.60000610352</ele>
        <time>2015-06-24T14:35:11Z</time>
      </trkpt>
      <trkpt lat="43.41574" lon="6.06998">
        <ele>214.60000610352</ele>
        <time>2015-06-24T14:35:12Z</time>
      </trkpt>
      <trkpt lat="43.41576" lon="6.07005">
        <ele>215</ele>
        <time>2015-06-24T14:35:14Z</time>
      </trkpt>
      <trkpt lat="43.41576" lon="6.07012">
        <ele>215.19999694824</ele>
        <time>2015-06-24T14:35:16Z</time>
      </trkpt>
      <trkpt lat="43.41577" lon="6.07019">
        <ele>215.60000610352</ele>
        <time>2015-06-24T14:35:18Z</time>
      </trkpt>
      <trkpt lat="43.41578" lon="6.07023">
        <ele>215.60000610352</ele>
        <time>2015-06-24T14:35:19Z</time>
      </trkpt>
      <trkpt lat="43.41578" lon="6.07026">
        <ele>215.60000610352</ele>
        <time>2015-06-24T14:35:20Z</time>
      </trkpt>
      <trkpt lat="43.41578" lon="6.07031">
        <ele>215.60000610352</ele>
        <time>2015-06-24T14:35:22Z</time>
      </trkpt>
      <trkpt lat="43.41578" lon="6.07034">
        <ele>215.19999694824</ele>
        <time>2015-06-24T14:35:24Z</time>
      </trkpt>
      <trkpt lat="43.41578" lon="6.07034">
        <ele>215.19999694824</ele>
        <time>2015-06-24T14:35:25Z</time>
      </trkpt>
      <trkpt lat="43.41579" lon="6.07033">
        <ele>215</ele>
        <time>2015-06-24T14:35:26Z</time>
      </trkpt>
      <trkpt lat="43.41579" lon="6.07034">
        <ele>215.19999694824</ele>
        <time>2015-06-24T14:35:28Z</time>
      </trkpt>
      <trkpt lat="43.41579" lon="6.07033">
        <ele>215.19999694824</ele>
        <time>2015-06-24T14:35:30Z</time>
      </trkpt>
      <trkpt lat="43.41579" lon="6.07033">
        <ele>215.19999694824</ele>
        <time>2015-06-24T14:35:32Z</time>
      </trkpt>
      <trkpt lat="43.41579" lon="6.07034">
        <ele>215</ele>
        <time>2015-06-24T14:35:34Z</time>
      </trkpt>
      <trkpt lat="43.41579" lon="6.07034">
        <ele>215.19999694824</ele>
        <time>2015-06-24T14:35:42Z</time>
      </trkpt>
      <trkpt lat="43.41579" lon="6.07034">
        <ele>215.19999694824</ele>
        <time>2015-06-24T14:35:44Z</time>
      </trkpt>
      <trkpt lat="43.41579" lon="6.07034">
        <ele>215</ele>
        <time>2015-06-24T14:35:48Z</time>
      </trkpt>
      <trkpt lat="43.41579" lon="6.07034">
        <ele>215.19999694824</ele>
        <time>2015-06-24T14:35:52Z</time>
      </trkpt>
      <trkpt lat="43.41579" lon="6.07034">
        <ele>215</ele>
        <time>2015-06-24T14:35:55Z</time>
      </trkpt>
    </trkseg>
  </trk>
</gpx>